<?xml version="1.0" encoding="UTF-8" standalone="no" ?>
<gpx xmlns="http://www.topografix.com/GPX/1/1" xmlns:xsi="http://www.w3.org/2001/XMLSchema-instance" xsi:schemaLocation="http://www.topografix.com/GPX/1/1 http://www.topografix.com/GPX/1/1/gpx.xsd" version="1.1" creator="VisuGPX - https://www.visugpx.com">
  <metadata>
    <name>Annot oui de rent</name>
    <desc><![CDATA[
]]></desc>
  </metadata>
  <trk>
    <name><![CDATA[Annot oui de rent_1]]></name>
    <trkseg>
      <trkpt lat="43.96602" lon="6.66731">
        <ele>687</ele>
        <time>2017-11-01T07:01:52Z</time>
      </trkpt>
      <trkpt lat="43.966" lon="6.66727">
        <ele>690</ele>
        <time>2017-11-01T07:01:55Z</time>
      </trkpt>
      <trkpt lat="43.96598" lon="6.66719">
        <ele>689</ele>
        <time>2017-11-01T07:02:22Z</time>
      </trkpt>
      <trkpt lat="43.96598" lon="6.66718">
        <ele>689</ele>
        <time>2017-11-01T07:02:23Z</time>
      </trkpt>
      <trkpt lat="43.96599" lon="6.66719">
        <ele>693</ele>
        <time>2017-11-01T07:02:56Z</time>
      </trkpt>
      <trkpt lat="43.96599" lon="6.66719">
        <ele>691</ele>
        <time>2017-11-01T07:02:59Z</time>
      </trkpt>
      <trkpt lat="43.96598" lon="6.66719">
        <ele>690</ele>
        <time>2017-11-01T07:03:21Z</time>
      </trkpt>
      <trkpt lat="43.96599" lon="6.6672">
        <ele>691</ele>
        <time>2017-11-01T07:03:23Z</time>
      </trkpt>
      <trkpt lat="43.96599" lon="6.66721">
        <ele>693</ele>
        <time>2017-11-01T07:03:53Z</time>
      </trkpt>
      <trkpt lat="43.96599" lon="6.66721">
        <ele>694</ele>
        <time>2017-11-01T07:03:56Z</time>
      </trkpt>
      <trkpt lat="43.96599" lon="6.66721">
        <ele>694</ele>
        <time>2017-11-01T07:04:24Z</time>
      </trkpt>
      <trkpt lat="43.96599" lon="6.66721">
        <ele>695</ele>
        <time>2017-11-01T07:04:27Z</time>
      </trkpt>
      <trkpt lat="43.96599" lon="6.66721">
        <ele>695</ele>
        <time>2017-11-01T07:04:53Z</time>
      </trkpt>
      <trkpt lat="43.96599" lon="6.66721">
        <ele>695</ele>
        <time>2017-11-01T07:04:56Z</time>
      </trkpt>
      <trkpt lat="43.96598" lon="6.66722">
        <ele>695</ele>
        <time>2017-11-01T07:05:23Z</time>
      </trkpt>
      <trkpt lat="43.96598" lon="6.66721">
        <ele>695</ele>
        <time>2017-11-01T07:05:26Z</time>
      </trkpt>
      <trkpt lat="43.96598" lon="6.66721">
        <ele>695</ele>
        <time>2017-11-01T07:05:54Z</time>
      </trkpt>
      <trkpt lat="43.96598" lon="6.66721">
        <ele>695</ele>
        <time>2017-11-01T07:05:56Z</time>
      </trkpt>
      <trkpt lat="43.96598" lon="6.66721">
        <ele>695</ele>
        <time>2017-11-01T07:06:23Z</time>
      </trkpt>
      <trkpt lat="43.96598" lon="6.66721">
        <ele>695</ele>
        <time>2017-11-01T07:06:26Z</time>
      </trkpt>
      <trkpt lat="43.96598" lon="6.66721">
        <ele>695</ele>
        <time>2017-11-01T07:06:52Z</time>
      </trkpt>
      <trkpt lat="43.96597" lon="6.66721">
        <ele>696</ele>
        <time>2017-11-01T07:06:55Z</time>
      </trkpt>
      <trkpt lat="43.96598" lon="6.66722">
        <ele>696</ele>
        <time>2017-11-01T07:07:24Z</time>
      </trkpt>
      <trkpt lat="43.96598" lon="6.66722">
        <ele>697</ele>
        <time>2017-11-01T07:07:27Z</time>
      </trkpt>
      <trkpt lat="43.96598" lon="6.66721">
        <ele>698</ele>
        <time>2017-11-01T07:07:52Z</time>
      </trkpt>
      <trkpt lat="43.96598" lon="6.66721">
        <ele>697</ele>
        <time>2017-11-01T07:07:55Z</time>
      </trkpt>
      <trkpt lat="43.96599" lon="6.66722">
        <ele>697</ele>
        <time>2017-11-01T07:08:24Z</time>
      </trkpt>
      <trkpt lat="43.96599" lon="6.66721">
        <ele>697</ele>
        <time>2017-11-01T07:08:27Z</time>
      </trkpt>
      <trkpt lat="43.96727" lon="6.66658">
        <ele>691</ele>
        <time>2017-11-01T07:08:54Z</time>
      </trkpt>
      <trkpt lat="43.96736" lon="6.66615">
        <ele>689</ele>
        <time>2017-11-01T07:08:58Z</time>
      </trkpt>
      <trkpt lat="43.96797" lon="6.66536">
        <ele>687</ele>
        <time>2017-11-01T07:09:22Z</time>
      </trkpt>
      <trkpt lat="43.968" lon="6.66525">
        <ele>685</ele>
        <time>2017-11-01T07:09:25Z</time>
      </trkpt>
      <trkpt lat="43.96832" lon="6.66501">
        <ele>684</ele>
        <time>2017-11-01T07:09:53Z</time>
      </trkpt>
      <trkpt lat="43.96836" lon="6.66517">
        <ele>687</ele>
        <time>2017-11-01T07:09:56Z</time>
      </trkpt>
      <trkpt lat="43.96838" lon="6.6651">
        <ele>689</ele>
        <time>2017-11-01T07:10:23Z</time>
      </trkpt>
      <trkpt lat="43.96837" lon="6.66507">
        <ele>691</ele>
        <time>2017-11-01T07:10:26Z</time>
      </trkpt>
      <trkpt lat="43.96836" lon="6.66502">
        <ele>693</ele>
        <time>2017-11-01T07:10:52Z</time>
      </trkpt>
      <trkpt lat="43.96835" lon="6.665">
        <ele>695</ele>
        <time>2017-11-01T07:10:55Z</time>
      </trkpt>
      <trkpt lat="43.96842" lon="6.66499">
        <ele>697</ele>
        <time>2017-11-01T07:11:23Z</time>
      </trkpt>
      <trkpt lat="43.96843" lon="6.66496">
        <ele>697</ele>
        <time>2017-11-01T07:11:24Z</time>
      </trkpt>
      <trkpt lat="43.96904" lon="6.66384">
        <ele>697</ele>
        <time>2017-11-01T07:11:52Z</time>
      </trkpt>
      <trkpt lat="43.96906" lon="6.66376">
        <ele>699</ele>
        <time>2017-11-01T07:11:55Z</time>
      </trkpt>
      <trkpt lat="43.96945" lon="6.66248">
        <ele>697</ele>
        <time>2017-11-01T07:12:23Z</time>
      </trkpt>
      <trkpt lat="43.96949" lon="6.66237">
        <ele>696</ele>
        <time>2017-11-01T07:12:25Z</time>
      </trkpt>
      <trkpt lat="43.97018" lon="6.66115">
        <ele>701</ele>
        <time>2017-11-01T07:12:53Z</time>
      </trkpt>
      <trkpt lat="43.97029" lon="6.66102">
        <ele>705</ele>
        <time>2017-11-01T07:12:56Z</time>
      </trkpt>
      <trkpt lat="43.97055" lon="6.66068">
        <ele>700</ele>
        <time>2017-11-01T07:13:23Z</time>
      </trkpt>
      <trkpt lat="43.97059" lon="6.66073">
        <ele>703</ele>
        <time>2017-11-01T07:13:26Z</time>
      </trkpt>
      <trkpt lat="43.97111" lon="6.65996">
        <ele>711</ele>
        <time>2017-11-01T07:13:53Z</time>
      </trkpt>
      <trkpt lat="43.97113" lon="6.65995">
        <ele>711</ele>
        <time>2017-11-01T07:13:55Z</time>
      </trkpt>
      <trkpt lat="43.97175" lon="6.65923">
        <ele>709</ele>
        <time>2017-11-01T07:14:23Z</time>
      </trkpt>
      <trkpt lat="43.97175" lon="6.65875">
        <ele>717</ele>
        <time>2017-11-01T07:14:26Z</time>
      </trkpt>
      <trkpt lat="43.97237" lon="6.65765">
        <ele>718</ele>
        <time>2017-11-01T07:14:52Z</time>
      </trkpt>
      <trkpt lat="43.97238" lon="6.65757">
        <ele>716</ele>
        <time>2017-11-01T07:14:54Z</time>
      </trkpt>
      <trkpt lat="43.97299" lon="6.65633">
        <ele>714</ele>
        <time>2017-11-01T07:15:23Z</time>
      </trkpt>
      <trkpt lat="43.97304" lon="6.65623">
        <ele>716</ele>
        <time>2017-11-01T07:15:25Z</time>
      </trkpt>
      <trkpt lat="43.97372" lon="6.65502">
        <ele>711</ele>
        <time>2017-11-01T07:15:52Z</time>
      </trkpt>
      <trkpt lat="43.9738" lon="6.65499">
        <ele>706</ele>
        <time>2017-11-01T07:15:54Z</time>
      </trkpt>
      <trkpt lat="43.97463" lon="6.65386">
        <ele>706</ele>
        <time>2017-11-01T07:16:23Z</time>
      </trkpt>
      <trkpt lat="43.97472" lon="6.65409">
        <ele>705</ele>
        <time>2017-11-01T07:16:26Z</time>
      </trkpt>
      <trkpt lat="43.97548" lon="6.6534">
        <ele>711</ele>
        <time>2017-11-01T07:16:54Z</time>
      </trkpt>
      <trkpt lat="43.97552" lon="6.65336">
        <ele>721</ele>
        <time>2017-11-01T07:16:56Z</time>
      </trkpt>
      <trkpt lat="43.97627" lon="6.65309">
        <ele>727</ele>
        <time>2017-11-01T07:17:24Z</time>
      </trkpt>
      <trkpt lat="43.97622" lon="6.65275">
        <ele>729</ele>
        <time>2017-11-01T07:17:29Z</time>
      </trkpt>
      <trkpt lat="43.97681" lon="6.65295">
        <ele>735</ele>
        <time>2017-11-01T07:17:54Z</time>
      </trkpt>
      <trkpt lat="43.97683" lon="6.65285">
        <ele>737</ele>
        <time>2017-11-01T07:17:56Z</time>
      </trkpt>
      <trkpt lat="43.97748" lon="6.65255">
        <ele>737</ele>
        <time>2017-11-01T07:18:24Z</time>
      </trkpt>
      <trkpt lat="43.97753" lon="6.6525">
        <ele>743</ele>
        <time>2017-11-01T07:18:27Z</time>
      </trkpt>
      <trkpt lat="43.97801" lon="6.6522">
        <ele>749</ele>
        <time>2017-11-01T07:18:54Z</time>
      </trkpt>
      <trkpt lat="43.97813" lon="6.65223">
        <ele>754</ele>
        <time>2017-11-01T07:18:57Z</time>
      </trkpt>
      <trkpt lat="43.97894" lon="6.65254">
        <ele>754</ele>
        <time>2017-11-01T07:19:25Z</time>
      </trkpt>
      <trkpt lat="43.97912" lon="6.65261">
        <ele>755</ele>
        <time>2017-11-01T07:19:28Z</time>
      </trkpt>
      <trkpt lat="43.9795" lon="6.65238">
        <ele>758</ele>
        <time>2017-11-01T07:19:54Z</time>
      </trkpt>
      <trkpt lat="43.97952" lon="6.65235">
        <ele>759</ele>
        <time>2017-11-01T07:19:57Z</time>
      </trkpt>
      <trkpt lat="43.98006" lon="6.652">
        <ele>762</ele>
        <time>2017-11-01T07:20:23Z</time>
      </trkpt>
      <trkpt lat="43.9801" lon="6.65197">
        <ele>766</ele>
        <time>2017-11-01T07:20:25Z</time>
      </trkpt>
      <trkpt lat="43.98071" lon="6.65173">
        <ele>765</ele>
        <time>2017-11-01T07:20:54Z</time>
      </trkpt>
      <trkpt lat="43.98072" lon="6.65166">
        <ele>764</ele>
        <time>2017-11-01T07:20:57Z</time>
      </trkpt>
      <trkpt lat="43.98101" lon="6.65091">
        <ele>762</ele>
        <time>2017-11-01T07:21:24Z</time>
      </trkpt>
      <trkpt lat="43.98102" lon="6.65088">
        <ele>757</ele>
        <time>2017-11-01T07:21:26Z</time>
      </trkpt>
      <trkpt lat="43.98115" lon="6.64981">
        <ele>759</ele>
        <time>2017-11-01T07:21:55Z</time>
      </trkpt>
      <trkpt lat="43.98123" lon="6.64994">
        <ele>769</ele>
        <time>2017-11-01T07:22:00Z</time>
      </trkpt>
      <trkpt lat="43.98192" lon="6.65045">
        <ele>776</ele>
        <time>2017-11-01T07:22:23Z</time>
      </trkpt>
      <trkpt lat="43.98203" lon="6.65047">
        <ele>782</ele>
        <time>2017-11-01T07:22:26Z</time>
      </trkpt>
      <trkpt lat="43.98221" lon="6.65047">
        <ele>788</ele>
        <time>2017-11-01T07:22:54Z</time>
      </trkpt>
      <trkpt lat="43.98219" lon="6.65048">
        <ele>784</ele>
        <time>2017-11-01T07:22:56Z</time>
      </trkpt>
      <trkpt lat="43.98215" lon="6.65049">
        <ele>782</ele>
        <time>2017-11-01T07:23:23Z</time>
      </trkpt>
      <trkpt lat="43.98214" lon="6.6505">
        <ele>781</ele>
        <time>2017-11-01T07:23:26Z</time>
      </trkpt>
      <trkpt lat="43.98234" lon="6.65048">
        <ele>782</ele>
        <time>2017-11-01T07:23:58Z</time>
      </trkpt>
      <trkpt lat="43.98241" lon="6.65043">
        <ele>784</ele>
        <time>2017-11-01T07:23:59Z</time>
      </trkpt>
      <trkpt lat="43.98245" lon="6.65039">
        <ele>787</ele>
        <time>2017-11-01T07:24:01Z</time>
      </trkpt>
      <trkpt lat="43.9825" lon="6.65035">
        <ele>789</ele>
        <time>2017-11-01T07:24:04Z</time>
      </trkpt>
      <trkpt lat="43.98259" lon="6.65035">
        <ele>791</ele>
        <time>2017-11-01T07:24:06Z</time>
      </trkpt>
      <trkpt lat="43.98265" lon="6.65034">
        <ele>791</ele>
        <time>2017-11-01T07:24:08Z</time>
      </trkpt>
      <trkpt lat="43.9827" lon="6.65029">
        <ele>791</ele>
        <time>2017-11-01T07:24:12Z</time>
      </trkpt>
      <trkpt lat="43.98277" lon="6.6503">
        <ele>791</ele>
        <time>2017-11-01T07:24:14Z</time>
      </trkpt>
      <trkpt lat="43.9828" lon="6.65025">
        <ele>790</ele>
        <time>2017-11-01T07:24:16Z</time>
      </trkpt>
      <trkpt lat="43.98285" lon="6.65023">
        <ele>788</ele>
        <time>2017-11-01T07:24:18Z</time>
      </trkpt>
      <trkpt lat="43.98292" lon="6.65021">
        <ele>787</ele>
        <time>2017-11-01T07:24:21Z</time>
      </trkpt>
      <trkpt lat="43.98296" lon="6.65019">
        <ele>786</ele>
        <time>2017-11-01T07:24:23Z</time>
      </trkpt>
      <trkpt lat="43.98301" lon="6.65017">
        <ele>786</ele>
        <time>2017-11-01T07:24:25Z</time>
      </trkpt>
      <trkpt lat="43.98306" lon="6.65014">
        <ele>787</ele>
        <time>2017-11-01T07:24:27Z</time>
      </trkpt>
      <trkpt lat="43.98311" lon="6.65012">
        <ele>787</ele>
        <time>2017-11-01T07:24:29Z</time>
      </trkpt>
      <trkpt lat="43.98316" lon="6.65009">
        <ele>788</ele>
        <time>2017-11-01T07:24:31Z</time>
      </trkpt>
      <trkpt lat="43.98323" lon="6.65006">
        <ele>789</ele>
        <time>2017-11-01T07:24:34Z</time>
      </trkpt>
      <trkpt lat="43.98329" lon="6.65003">
        <ele>789</ele>
        <time>2017-11-01T07:24:37Z</time>
      </trkpt>
      <trkpt lat="43.98335" lon="6.65001">
        <ele>789</ele>
        <time>2017-11-01T07:24:39Z</time>
      </trkpt>
      <trkpt lat="43.98339" lon="6.64997">
        <ele>790</ele>
        <time>2017-11-01T07:24:41Z</time>
      </trkpt>
      <trkpt lat="43.98346" lon="6.64996">
        <ele>790</ele>
        <time>2017-11-01T07:24:43Z</time>
      </trkpt>
      <trkpt lat="43.9835" lon="6.64991">
        <ele>790</ele>
        <time>2017-11-01T07:24:45Z</time>
      </trkpt>
      <trkpt lat="43.98356" lon="6.64988">
        <ele>790</ele>
        <time>2017-11-01T07:24:47Z</time>
      </trkpt>
      <trkpt lat="43.98363" lon="6.64984">
        <ele>790</ele>
        <time>2017-11-01T07:24:49Z</time>
      </trkpt>
      <trkpt lat="43.98368" lon="6.64981">
        <ele>790</ele>
        <time>2017-11-01T07:24:51Z</time>
      </trkpt>
      <trkpt lat="43.98373" lon="6.64978">
        <ele>791</ele>
        <time>2017-11-01T07:24:53Z</time>
      </trkpt>
      <trkpt lat="43.98378" lon="6.64975">
        <ele>791</ele>
        <time>2017-11-01T07:24:55Z</time>
      </trkpt>
      <trkpt lat="43.98383" lon="6.64972">
        <ele>792</ele>
        <time>2017-11-01T07:24:57Z</time>
      </trkpt>
      <trkpt lat="43.98389" lon="6.64968">
        <ele>792</ele>
        <time>2017-11-01T07:24:59Z</time>
      </trkpt>
      <trkpt lat="43.98394" lon="6.64964">
        <ele>792</ele>
        <time>2017-11-01T07:25:01Z</time>
      </trkpt>
      <trkpt lat="43.98401" lon="6.64962">
        <ele>792</ele>
        <time>2017-11-01T07:25:03Z</time>
      </trkpt>
      <trkpt lat="43.98406" lon="6.64957">
        <ele>792</ele>
        <time>2017-11-01T07:25:05Z</time>
      </trkpt>
      <trkpt lat="43.98413" lon="6.64952">
        <ele>792</ele>
        <time>2017-11-01T07:25:07Z</time>
      </trkpt>
      <trkpt lat="43.9842" lon="6.64949">
        <ele>792</ele>
        <time>2017-11-01T07:25:09Z</time>
      </trkpt>
      <trkpt lat="43.98425" lon="6.64944">
        <ele>792</ele>
        <time>2017-11-01T07:25:11Z</time>
      </trkpt>
      <trkpt lat="43.98431" lon="6.64942">
        <ele>792</ele>
        <time>2017-11-01T07:25:13Z</time>
      </trkpt>
      <trkpt lat="43.98435" lon="6.64934">
        <ele>792</ele>
        <time>2017-11-01T07:25:15Z</time>
      </trkpt>
      <trkpt lat="43.98441" lon="6.64933">
        <ele>792</ele>
        <time>2017-11-01T07:25:17Z</time>
      </trkpt>
      <trkpt lat="43.98446" lon="6.64931">
        <ele>793</ele>
        <time>2017-11-01T07:25:18Z</time>
      </trkpt>
      <trkpt lat="43.98451" lon="6.64924">
        <ele>793</ele>
        <time>2017-11-01T07:25:20Z</time>
      </trkpt>
      <trkpt lat="43.98457" lon="6.6492">
        <ele>794</ele>
        <time>2017-11-01T07:25:22Z</time>
      </trkpt>
      <trkpt lat="43.98461" lon="6.64913">
        <ele>794</ele>
        <time>2017-11-01T07:25:24Z</time>
      </trkpt>
      <trkpt lat="43.98466" lon="6.64913">
        <ele>794</ele>
        <time>2017-11-01T07:25:26Z</time>
      </trkpt>
      <trkpt lat="43.98473" lon="6.64911">
        <ele>795</ele>
        <time>2017-11-01T07:25:28Z</time>
      </trkpt>
      <trkpt lat="43.98477" lon="6.64908">
        <ele>795</ele>
        <time>2017-11-01T07:25:29Z</time>
      </trkpt>
      <trkpt lat="43.98483" lon="6.64902">
        <ele>795</ele>
        <time>2017-11-01T07:25:31Z</time>
      </trkpt>
      <trkpt lat="43.98488" lon="6.64903">
        <ele>795</ele>
        <time>2017-11-01T07:25:32Z</time>
      </trkpt>
      <trkpt lat="43.98494" lon="6.649">
        <ele>796</ele>
        <time>2017-11-01T07:25:34Z</time>
      </trkpt>
      <trkpt lat="43.98496" lon="6.64893">
        <ele>796</ele>
        <time>2017-11-01T07:25:35Z</time>
      </trkpt>
      <trkpt lat="43.98504" lon="6.64896">
        <ele>796</ele>
        <time>2017-11-01T07:25:37Z</time>
      </trkpt>
      <trkpt lat="43.9851" lon="6.64892">
        <ele>796</ele>
        <time>2017-11-01T07:25:39Z</time>
      </trkpt>
      <trkpt lat="43.98513" lon="6.64886">
        <ele>796</ele>
        <time>2017-11-01T07:25:43Z</time>
      </trkpt>
      <trkpt lat="43.98521" lon="6.6489">
        <ele>795</ele>
        <time>2017-11-01T07:25:45Z</time>
      </trkpt>
      <trkpt lat="43.9853" lon="6.64887">
        <ele>794</ele>
        <time>2017-11-01T07:25:47Z</time>
      </trkpt>
      <trkpt lat="43.98534" lon="6.64884">
        <ele>794</ele>
        <time>2017-11-01T07:25:48Z</time>
      </trkpt>
      <trkpt lat="43.98536" lon="6.64873">
        <ele>794</ele>
        <time>2017-11-01T07:25:49Z</time>
      </trkpt>
      <trkpt lat="43.98541" lon="6.64873">
        <ele>794</ele>
        <time>2017-11-01T07:25:51Z</time>
      </trkpt>
      <trkpt lat="43.98544" lon="6.64865">
        <ele>795</ele>
        <time>2017-11-01T07:25:52Z</time>
      </trkpt>
      <trkpt lat="43.98548" lon="6.64862">
        <ele>795</ele>
        <time>2017-11-01T07:25:53Z</time>
      </trkpt>
      <trkpt lat="43.98551" lon="6.64852">
        <ele>796</ele>
        <time>2017-11-01T07:25:55Z</time>
      </trkpt>
      <trkpt lat="43.98556" lon="6.64852">
        <ele>796</ele>
        <time>2017-11-01T07:25:56Z</time>
      </trkpt>
      <trkpt lat="43.98562" lon="6.64855">
        <ele>796</ele>
        <time>2017-11-01T07:25:58Z</time>
      </trkpt>
      <trkpt lat="43.98562" lon="6.64846">
        <ele>796</ele>
        <time>2017-11-01T07:26:00Z</time>
      </trkpt>
      <trkpt lat="43.98569" lon="6.64842">
        <ele>796</ele>
        <time>2017-11-01T07:26:02Z</time>
      </trkpt>
      <trkpt lat="43.98578" lon="6.64846">
        <ele>796</ele>
        <time>2017-11-01T07:26:04Z</time>
      </trkpt>
      <trkpt lat="43.98586" lon="6.64845">
        <ele>796</ele>
        <time>2017-11-01T07:26:06Z</time>
      </trkpt>
      <trkpt lat="43.98591" lon="6.64843">
        <ele>796</ele>
        <time>2017-11-01T07:26:08Z</time>
      </trkpt>
      <trkpt lat="43.98597" lon="6.6485">
        <ele>797</ele>
        <time>2017-11-01T07:26:10Z</time>
      </trkpt>
      <trkpt lat="43.986" lon="6.64858">
        <ele>798</ele>
        <time>2017-11-01T07:26:12Z</time>
      </trkpt>
      <trkpt lat="43.98602" lon="6.64866">
        <ele>798</ele>
        <time>2017-11-01T07:26:14Z</time>
      </trkpt>
      <trkpt lat="43.98603" lon="6.64874">
        <ele>799</ele>
        <time>2017-11-01T07:26:16Z</time>
      </trkpt>
      <trkpt lat="43.98605" lon="6.6488">
        <ele>798</ele>
        <time>2017-11-01T07:26:18Z</time>
      </trkpt>
      <trkpt lat="43.98612" lon="6.64885">
        <ele>798</ele>
        <time>2017-11-01T07:26:21Z</time>
      </trkpt>
      <trkpt lat="43.9862" lon="6.64887">
        <ele>798</ele>
        <time>2017-11-01T07:26:24Z</time>
      </trkpt>
      <trkpt lat="43.98626" lon="6.64886">
        <ele>798</ele>
        <time>2017-11-01T07:26:26Z</time>
      </trkpt>
      <trkpt lat="43.98632" lon="6.64885">
        <ele>797</ele>
        <time>2017-11-01T07:26:29Z</time>
      </trkpt>
      <trkpt lat="43.9864" lon="6.64886">
        <ele>797</ele>
        <time>2017-11-01T07:26:31Z</time>
      </trkpt>
      <trkpt lat="43.98644" lon="6.64888">
        <ele>797</ele>
        <time>2017-11-01T07:26:33Z</time>
      </trkpt>
      <trkpt lat="43.98649" lon="6.64885">
        <ele>796</ele>
        <time>2017-11-01T07:26:35Z</time>
      </trkpt>
      <trkpt lat="43.98655" lon="6.64885">
        <ele>795</ele>
        <time>2017-11-01T07:26:37Z</time>
      </trkpt>
      <trkpt lat="43.98661" lon="6.64887">
        <ele>793</ele>
        <time>2017-11-01T07:26:38Z</time>
      </trkpt>
      <trkpt lat="43.98665" lon="6.64884">
        <ele>791</ele>
        <time>2017-11-01T07:26:40Z</time>
      </trkpt>
      <trkpt lat="43.98672" lon="6.64884">
        <ele>789</ele>
        <time>2017-11-01T07:26:42Z</time>
      </trkpt>
      <trkpt lat="43.98677" lon="6.64883">
        <ele>788</ele>
        <time>2017-11-01T07:26:44Z</time>
      </trkpt>
      <trkpt lat="43.98685" lon="6.64883">
        <ele>787</ele>
        <time>2017-11-01T07:26:46Z</time>
      </trkpt>
      <trkpt lat="43.98692" lon="6.64883">
        <ele>787</ele>
        <time>2017-11-01T07:26:48Z</time>
      </trkpt>
      <trkpt lat="43.98702" lon="6.64883">
        <ele>787</ele>
        <time>2017-11-01T07:26:50Z</time>
      </trkpt>
      <trkpt lat="43.9871" lon="6.64883">
        <ele>787</ele>
        <time>2017-11-01T07:26:52Z</time>
      </trkpt>
      <trkpt lat="43.98714" lon="6.64883">
        <ele>788</ele>
        <time>2017-11-01T07:26:53Z</time>
      </trkpt>
      <trkpt lat="43.9872" lon="6.64883">
        <ele>788</ele>
        <time>2017-11-01T07:26:55Z</time>
      </trkpt>
      <trkpt lat="43.98727" lon="6.64882">
        <ele>788</ele>
        <time>2017-11-01T07:26:58Z</time>
      </trkpt>
      <trkpt lat="43.98735" lon="6.64882">
        <ele>789</ele>
        <time>2017-11-01T07:27:00Z</time>
      </trkpt>
      <trkpt lat="43.98742" lon="6.64883">
        <ele>789</ele>
        <time>2017-11-01T07:27:02Z</time>
      </trkpt>
      <trkpt lat="43.9875" lon="6.64883">
        <ele>789</ele>
        <time>2017-11-01T07:27:04Z</time>
      </trkpt>
      <trkpt lat="43.98759" lon="6.64883">
        <ele>789</ele>
        <time>2017-11-01T07:27:06Z</time>
      </trkpt>
      <trkpt lat="43.98766" lon="6.64881">
        <ele>789</ele>
        <time>2017-11-01T07:27:08Z</time>
      </trkpt>
      <trkpt lat="43.98771" lon="6.64877">
        <ele>790</ele>
        <time>2017-11-01T07:27:10Z</time>
      </trkpt>
      <trkpt lat="43.98775" lon="6.64874">
        <ele>790</ele>
        <time>2017-11-01T07:27:12Z</time>
      </trkpt>
      <trkpt lat="43.98782" lon="6.64871">
        <ele>790</ele>
        <time>2017-11-01T07:27:14Z</time>
      </trkpt>
      <trkpt lat="43.98787" lon="6.6487">
        <ele>790</ele>
        <time>2017-11-01T07:27:15Z</time>
      </trkpt>
      <trkpt lat="43.98793" lon="6.64862">
        <ele>789</ele>
        <time>2017-11-01T07:27:17Z</time>
      </trkpt>
      <trkpt lat="43.988" lon="6.64855">
        <ele>789</ele>
        <time>2017-11-01T07:27:19Z</time>
      </trkpt>
      <trkpt lat="43.98805" lon="6.64848">
        <ele>789</ele>
        <time>2017-11-01T07:27:21Z</time>
      </trkpt>
      <trkpt lat="43.98808" lon="6.64843">
        <ele>789</ele>
        <time>2017-11-01T07:27:22Z</time>
      </trkpt>
      <trkpt lat="43.98813" lon="6.64837">
        <ele>789</ele>
        <time>2017-11-01T07:27:24Z</time>
      </trkpt>
      <trkpt lat="43.98816" lon="6.6483">
        <ele>788</ele>
        <time>2017-11-01T07:27:25Z</time>
      </trkpt>
      <trkpt lat="43.98822" lon="6.64826">
        <ele>787</ele>
        <time>2017-11-01T07:27:27Z</time>
      </trkpt>
      <trkpt lat="43.98826" lon="6.64821">
        <ele>786</ele>
        <time>2017-11-01T07:27:29Z</time>
      </trkpt>
      <trkpt lat="43.98831" lon="6.64816">
        <ele>784</ele>
        <time>2017-11-01T07:27:31Z</time>
      </trkpt>
      <trkpt lat="43.98838" lon="6.64811">
        <ele>782</ele>
        <time>2017-11-01T07:27:33Z</time>
      </trkpt>
      <trkpt lat="43.98842" lon="6.64806">
        <ele>780</ele>
        <time>2017-11-01T07:27:35Z</time>
      </trkpt>
      <trkpt lat="43.98846" lon="6.64809">
        <ele>778</ele>
        <time>2017-11-01T07:27:38Z</time>
      </trkpt>
      <trkpt lat="43.98843" lon="6.64817">
        <ele>777</ele>
        <time>2017-11-01T07:27:42Z</time>
      </trkpt>
      <trkpt lat="43.98842" lon="6.64824">
        <ele>777</ele>
        <time>2017-11-01T07:27:46Z</time>
      </trkpt>
      <trkpt lat="43.98839" lon="6.6483">
        <ele>778</ele>
        <time>2017-11-01T07:27:48Z</time>
      </trkpt>
      <trkpt lat="43.98838" lon="6.64838">
        <ele>779</ele>
        <time>2017-11-01T07:27:52Z</time>
      </trkpt>
      <trkpt lat="43.9884" lon="6.64845">
        <ele>780</ele>
        <time>2017-11-01T07:27:56Z</time>
      </trkpt>
      <trkpt lat="43.98841" lon="6.64853">
        <ele>781</ele>
        <time>2017-11-01T07:27:59Z</time>
      </trkpt>
      <trkpt lat="43.98843" lon="6.64859">
        <ele>781</ele>
        <time>2017-11-01T07:28:02Z</time>
      </trkpt>
      <trkpt lat="43.98845" lon="6.64865">
        <ele>781</ele>
        <time>2017-11-01T07:28:04Z</time>
      </trkpt>
      <trkpt lat="43.98847" lon="6.64874">
        <ele>781</ele>
        <time>2017-11-01T07:28:07Z</time>
      </trkpt>
      <trkpt lat="43.98844" lon="6.64879">
        <ele>782</ele>
        <time>2017-11-01T07:28:10Z</time>
      </trkpt>
      <trkpt lat="43.9884" lon="6.64882">
        <ele>783</ele>
        <time>2017-11-01T07:28:12Z</time>
      </trkpt>
      <trkpt lat="43.98837" lon="6.64887">
        <ele>783</ele>
        <time>2017-11-01T07:28:18Z</time>
      </trkpt>
      <trkpt lat="43.98831" lon="6.64889">
        <ele>784</ele>
        <time>2017-11-01T07:28:22Z</time>
      </trkpt>
      <trkpt lat="43.98826" lon="6.64891">
        <ele>784</ele>
        <time>2017-11-01T07:28:25Z</time>
      </trkpt>
      <trkpt lat="43.98821" lon="6.64893">
        <ele>784</ele>
        <time>2017-11-01T07:28:28Z</time>
      </trkpt>
      <trkpt lat="43.98816" lon="6.64894">
        <ele>783</ele>
        <time>2017-11-01T07:28:30Z</time>
      </trkpt>
      <trkpt lat="43.9881" lon="6.64896">
        <ele>784</ele>
        <time>2017-11-01T07:28:34Z</time>
      </trkpt>
      <trkpt lat="43.98809" lon="6.64903">
        <ele>784</ele>
        <time>2017-11-01T07:28:37Z</time>
      </trkpt>
      <trkpt lat="43.98805" lon="6.6491">
        <ele>784</ele>
        <time>2017-11-01T07:28:41Z</time>
      </trkpt>
      <trkpt lat="43.98802" lon="6.64916">
        <ele>784</ele>
        <time>2017-11-01T07:28:44Z</time>
      </trkpt>
      <trkpt lat="43.98798" lon="6.64919">
        <ele>784</ele>
        <time>2017-11-01T07:28:47Z</time>
      </trkpt>
      <trkpt lat="43.98793" lon="6.6492">
        <ele>784</ele>
        <time>2017-11-01T07:28:50Z</time>
      </trkpt>
      <trkpt lat="43.98788" lon="6.64919">
        <ele>784</ele>
        <time>2017-11-01T07:28:52Z</time>
      </trkpt>
      <trkpt lat="43.98786" lon="6.64926">
        <ele>785</ele>
        <time>2017-11-01T07:28:55Z</time>
      </trkpt>
      <trkpt lat="43.98785" lon="6.64933">
        <ele>786</ele>
        <time>2017-11-01T07:28:58Z</time>
      </trkpt>
      <trkpt lat="43.98787" lon="6.64938">
        <ele>788</ele>
        <time>2017-11-01T07:29:00Z</time>
      </trkpt>
      <trkpt lat="43.98793" lon="6.6494">
        <ele>789</ele>
        <time>2017-11-01T07:29:07Z</time>
      </trkpt>
      <trkpt lat="43.988" lon="6.64942">
        <ele>790</ele>
        <time>2017-11-01T07:29:10Z</time>
      </trkpt>
      <trkpt lat="43.98806" lon="6.64943">
        <ele>791</ele>
        <time>2017-11-01T07:29:12Z</time>
      </trkpt>
      <trkpt lat="43.98807" lon="6.64936">
        <ele>791</ele>
        <time>2017-11-01T07:29:14Z</time>
      </trkpt>
      <trkpt lat="43.98812" lon="6.64935">
        <ele>793</ele>
        <time>2017-11-01T07:29:17Z</time>
      </trkpt>
      <trkpt lat="43.98818" lon="6.64936">
        <ele>794</ele>
        <time>2017-11-01T07:29:21Z</time>
      </trkpt>
      <trkpt lat="43.98824" lon="6.64938">
        <ele>797</ele>
        <time>2017-11-01T07:29:25Z</time>
      </trkpt>
      <trkpt lat="43.98829" lon="6.64937">
        <ele>799</ele>
        <time>2017-11-01T07:29:30Z</time>
      </trkpt>
      <trkpt lat="43.98833" lon="6.64932">
        <ele>802</ele>
        <time>2017-11-01T07:29:32Z</time>
      </trkpt>
      <trkpt lat="43.98837" lon="6.64936">
        <ele>804</ele>
        <time>2017-11-01T07:29:34Z</time>
      </trkpt>
      <trkpt lat="43.98843" lon="6.64935">
        <ele>805</ele>
        <time>2017-11-01T07:29:36Z</time>
      </trkpt>
      <trkpt lat="43.98846" lon="6.64939">
        <ele>805</ele>
        <time>2017-11-01T07:29:39Z</time>
      </trkpt>
      <trkpt lat="43.98847" lon="6.64945">
        <ele>806</ele>
        <time>2017-11-01T07:29:42Z</time>
      </trkpt>
      <trkpt lat="43.98847" lon="6.64953">
        <ele>806</ele>
        <time>2017-11-01T07:29:45Z</time>
      </trkpt>
      <trkpt lat="43.98843" lon="6.64955">
        <ele>806</ele>
        <time>2017-11-01T07:29:48Z</time>
      </trkpt>
      <trkpt lat="43.98835" lon="6.64957">
        <ele>806</ele>
        <time>2017-11-01T07:29:51Z</time>
      </trkpt>
      <trkpt lat="43.98831" lon="6.64959">
        <ele>807</ele>
        <time>2017-11-01T07:29:54Z</time>
      </trkpt>
      <trkpt lat="43.98826" lon="6.64959">
        <ele>807</ele>
        <time>2017-11-01T07:29:57Z</time>
      </trkpt>
      <trkpt lat="43.98821" lon="6.6496">
        <ele>808</ele>
        <time>2017-11-01T07:29:59Z</time>
      </trkpt>
      <trkpt lat="43.98814" lon="6.6496">
        <ele>810</ele>
        <time>2017-11-01T07:30:01Z</time>
      </trkpt>
      <trkpt lat="43.98809" lon="6.64962">
        <ele>810</ele>
        <time>2017-11-01T07:30:04Z</time>
      </trkpt>
      <trkpt lat="43.98805" lon="6.64968">
        <ele>811</ele>
        <time>2017-11-01T07:30:08Z</time>
      </trkpt>
      <trkpt lat="43.98807" lon="6.64975">
        <ele>811</ele>
        <time>2017-11-01T07:30:10Z</time>
      </trkpt>
      <trkpt lat="43.98801" lon="6.64972">
        <ele>810</ele>
        <time>2017-11-01T07:30:11Z</time>
      </trkpt>
      <trkpt lat="43.98796" lon="6.64972">
        <ele>810</ele>
        <time>2017-11-01T07:30:13Z</time>
      </trkpt>
      <trkpt lat="43.9879" lon="6.6497">
        <ele>810</ele>
        <time>2017-11-01T07:30:16Z</time>
      </trkpt>
      <trkpt lat="43.98785" lon="6.64972">
        <ele>810</ele>
        <time>2017-11-01T07:30:19Z</time>
      </trkpt>
      <trkpt lat="43.98781" lon="6.64979">
        <ele>811</ele>
        <time>2017-11-01T07:30:22Z</time>
      </trkpt>
      <trkpt lat="43.9878" lon="6.64985">
        <ele>811</ele>
        <time>2017-11-01T07:30:26Z</time>
      </trkpt>
      <trkpt lat="43.98784" lon="6.64989">
        <ele>810</ele>
        <time>2017-11-01T07:30:29Z</time>
      </trkpt>
      <trkpt lat="43.98791" lon="6.64995">
        <ele>810</ele>
        <time>2017-11-01T07:30:30Z</time>
      </trkpt>
      <trkpt lat="43.98795" lon="6.64998">
        <ele>810</ele>
        <time>2017-11-01T07:30:34Z</time>
      </trkpt>
      <trkpt lat="43.988" lon="6.64995">
        <ele>810</ele>
        <time>2017-11-01T07:30:36Z</time>
      </trkpt>
      <trkpt lat="43.98803" lon="6.65002">
        <ele>810</ele>
        <time>2017-11-01T07:30:38Z</time>
      </trkpt>
      <trkpt lat="43.98806" lon="6.65011">
        <ele>809</ele>
        <time>2017-11-01T07:30:39Z</time>
      </trkpt>
      <trkpt lat="43.98805" lon="6.65004">
        <ele>808</ele>
        <time>2017-11-01T07:30:41Z</time>
      </trkpt>
      <trkpt lat="43.98807" lon="6.64998">
        <ele>808</ele>
        <time>2017-11-01T07:30:43Z</time>
      </trkpt>
      <trkpt lat="43.98813" lon="6.65">
        <ele>807</ele>
        <time>2017-11-01T07:30:46Z</time>
      </trkpt>
      <trkpt lat="43.98819" lon="6.65004">
        <ele>807</ele>
        <time>2017-11-01T07:30:51Z</time>
      </trkpt>
      <trkpt lat="43.98821" lon="6.64995">
        <ele>807</ele>
        <time>2017-11-01T07:30:54Z</time>
      </trkpt>
      <trkpt lat="43.98826" lon="6.64991">
        <ele>809</ele>
        <time>2017-11-01T07:30:57Z</time>
      </trkpt>
      <trkpt lat="43.9883" lon="6.64988">
        <ele>811</ele>
        <time>2017-11-01T07:31:04Z</time>
      </trkpt>
      <trkpt lat="43.98835" lon="6.64989">
        <ele>813</ele>
        <time>2017-11-01T07:31:05Z</time>
      </trkpt>
      <trkpt lat="43.98843" lon="6.6499">
        <ele>814</ele>
        <time>2017-11-01T07:31:09Z</time>
      </trkpt>
      <trkpt lat="43.98847" lon="6.64992">
        <ele>816</ele>
        <time>2017-11-01T07:31:12Z</time>
      </trkpt>
      <trkpt lat="43.98853" lon="6.64994">
        <ele>816</ele>
        <time>2017-11-01T07:31:14Z</time>
      </trkpt>
      <trkpt lat="43.9886" lon="6.64996">
        <ele>816</ele>
        <time>2017-11-01T07:31:19Z</time>
      </trkpt>
      <trkpt lat="43.98866" lon="6.64996">
        <ele>815</ele>
        <time>2017-11-01T07:31:22Z</time>
      </trkpt>
      <trkpt lat="43.98872" lon="6.64997">
        <ele>815</ele>
        <time>2017-11-01T07:31:25Z</time>
      </trkpt>
      <trkpt lat="43.98879" lon="6.64994">
        <ele>815</ele>
        <time>2017-11-01T07:31:30Z</time>
      </trkpt>
      <trkpt lat="43.98887" lon="6.64996">
        <ele>816</ele>
        <time>2017-11-01T07:31:33Z</time>
      </trkpt>
      <trkpt lat="43.98891" lon="6.64991">
        <ele>817</ele>
        <time>2017-11-01T07:31:38Z</time>
      </trkpt>
      <trkpt lat="43.98898" lon="6.64992">
        <ele>818</ele>
        <time>2017-11-01T07:31:42Z</time>
      </trkpt>
      <trkpt lat="43.98903" lon="6.64994">
        <ele>819</ele>
        <time>2017-11-01T07:31:44Z</time>
      </trkpt>
      <trkpt lat="43.98908" lon="6.64989">
        <ele>819</ele>
        <time>2017-11-01T07:31:47Z</time>
      </trkpt>
      <trkpt lat="43.98912" lon="6.64985">
        <ele>819</ele>
        <time>2017-11-01T07:31:51Z</time>
      </trkpt>
      <trkpt lat="43.98916" lon="6.64981">
        <ele>818</ele>
        <time>2017-11-01T07:31:54Z</time>
      </trkpt>
      <trkpt lat="43.98916" lon="6.64974">
        <ele>819</ele>
        <time>2017-11-01T07:31:56Z</time>
      </trkpt>
      <trkpt lat="43.98922" lon="6.64971">
        <ele>820</ele>
        <time>2017-11-01T07:32:00Z</time>
      </trkpt>
      <trkpt lat="43.98927" lon="6.64964">
        <ele>821</ele>
        <time>2017-11-01T07:32:03Z</time>
      </trkpt>
      <trkpt lat="43.98933" lon="6.64963">
        <ele>822</ele>
        <time>2017-11-01T07:32:07Z</time>
      </trkpt>
      <trkpt lat="43.98936" lon="6.64959">
        <ele>823</ele>
        <time>2017-11-01T07:32:10Z</time>
      </trkpt>
      <trkpt lat="43.98941" lon="6.64956">
        <ele>824</ele>
        <time>2017-11-01T07:32:14Z</time>
      </trkpt>
      <trkpt lat="43.98946" lon="6.64954">
        <ele>826</ele>
        <time>2017-11-01T07:32:16Z</time>
      </trkpt>
      <trkpt lat="43.98951" lon="6.64955">
        <ele>826</ele>
        <time>2017-11-01T07:32:19Z</time>
      </trkpt>
      <trkpt lat="43.98959" lon="6.64956">
        <ele>827</ele>
        <time>2017-11-01T07:32:22Z</time>
      </trkpt>
      <trkpt lat="43.98965" lon="6.6496">
        <ele>828</ele>
        <time>2017-11-01T07:32:23Z</time>
      </trkpt>
      <trkpt lat="43.9897" lon="6.64963">
        <ele>828</ele>
        <time>2017-11-01T07:32:24Z</time>
      </trkpt>
      <trkpt lat="43.98974" lon="6.64966">
        <ele>828</ele>
        <time>2017-11-01T07:32:25Z</time>
      </trkpt>
      <trkpt lat="43.98968" lon="6.64961">
        <ele>828</ele>
        <time>2017-11-01T07:32:28Z</time>
      </trkpt>
      <trkpt lat="43.98972" lon="6.64958">
        <ele>828</ele>
        <time>2017-11-01T07:32:30Z</time>
      </trkpt>
      <trkpt lat="43.98978" lon="6.64961">
        <ele>828</ele>
        <time>2017-11-01T07:32:33Z</time>
      </trkpt>
      <trkpt lat="43.98983" lon="6.64964">
        <ele>829</ele>
        <time>2017-11-01T07:32:39Z</time>
      </trkpt>
      <trkpt lat="43.9899" lon="6.64964">
        <ele>829</ele>
        <time>2017-11-01T07:32:44Z</time>
      </trkpt>
      <trkpt lat="43.98995" lon="6.64966">
        <ele>831</ele>
        <time>2017-11-01T07:32:46Z</time>
      </trkpt>
      <trkpt lat="43.99" lon="6.64971">
        <ele>833</ele>
        <time>2017-11-01T07:32:48Z</time>
      </trkpt>
      <trkpt lat="43.99004" lon="6.64966">
        <ele>835</ele>
        <time>2017-11-01T07:32:53Z</time>
      </trkpt>
      <trkpt lat="43.99007" lon="6.64962">
        <ele>837</ele>
        <time>2017-11-01T07:32:55Z</time>
      </trkpt>
      <trkpt lat="43.9901" lon="6.64956">
        <ele>839</ele>
        <time>2017-11-01T07:32:56Z</time>
      </trkpt>
      <trkpt lat="43.99015" lon="6.64955">
        <ele>839</ele>
        <time>2017-11-01T07:33:01Z</time>
      </trkpt>
      <trkpt lat="43.99019" lon="6.64949">
        <ele>839</ele>
        <time>2017-11-01T07:33:04Z</time>
      </trkpt>
      <trkpt lat="43.99025" lon="6.6495">
        <ele>838</ele>
        <time>2017-11-01T07:33:07Z</time>
      </trkpt>
      <trkpt lat="43.9903" lon="6.6495">
        <ele>836</ele>
        <time>2017-11-01T07:33:10Z</time>
      </trkpt>
      <trkpt lat="43.99035" lon="6.64948">
        <ele>836</ele>
        <time>2017-11-01T07:33:15Z</time>
      </trkpt>
      <trkpt lat="43.99039" lon="6.64944">
        <ele>836</ele>
        <time>2017-11-01T07:33:18Z</time>
      </trkpt>
      <trkpt lat="43.99044" lon="6.64942">
        <ele>836</ele>
        <time>2017-11-01T07:33:21Z</time>
      </trkpt>
      <trkpt lat="43.99048" lon="6.6494">
        <ele>837</ele>
        <time>2017-11-01T07:33:25Z</time>
      </trkpt>
      <trkpt lat="43.99055" lon="6.6494">
        <ele>837</ele>
        <time>2017-11-01T07:33:28Z</time>
      </trkpt>
      <trkpt lat="43.9906" lon="6.64945">
        <ele>837</ele>
        <time>2017-11-01T07:33:30Z</time>
      </trkpt>
      <trkpt lat="43.99065" lon="6.64945">
        <ele>838</ele>
        <time>2017-11-01T07:33:38Z</time>
      </trkpt>
      <trkpt lat="43.99069" lon="6.64949">
        <ele>838</ele>
        <time>2017-11-01T07:33:40Z</time>
      </trkpt>
      <trkpt lat="43.99073" lon="6.64951">
        <ele>839</ele>
        <time>2017-11-01T07:33:45Z</time>
      </trkpt>
      <trkpt lat="43.99077" lon="6.64955">
        <ele>840</ele>
        <time>2017-11-01T07:33:48Z</time>
      </trkpt>
      <trkpt lat="43.9908" lon="6.64961">
        <ele>841</ele>
        <time>2017-11-01T07:33:51Z</time>
      </trkpt>
      <trkpt lat="43.99078" lon="6.64967">
        <ele>841</ele>
        <time>2017-11-01T07:33:54Z</time>
      </trkpt>
      <trkpt lat="43.99076" lon="6.64972">
        <ele>842</ele>
        <time>2017-11-01T07:33:57Z</time>
      </trkpt>
      <trkpt lat="43.99071" lon="6.64976">
        <ele>843</ele>
        <time>2017-11-01T07:34:00Z</time>
      </trkpt>
      <trkpt lat="43.99065" lon="6.64977">
        <ele>844</ele>
        <time>2017-11-01T07:34:03Z</time>
      </trkpt>
      <trkpt lat="43.9906" lon="6.64978">
        <ele>844</ele>
        <time>2017-11-01T07:34:07Z</time>
      </trkpt>
      <trkpt lat="43.99057" lon="6.64982">
        <ele>844</ele>
        <time>2017-11-01T07:34:10Z</time>
      </trkpt>
      <trkpt lat="43.9905" lon="6.64984">
        <ele>844</ele>
        <time>2017-11-01T07:34:13Z</time>
      </trkpt>
      <trkpt lat="43.99049" lon="6.64991">
        <ele>844</ele>
        <time>2017-11-01T07:34:16Z</time>
      </trkpt>
      <trkpt lat="43.99044" lon="6.64989">
        <ele>844</ele>
        <time>2017-11-01T07:34:18Z</time>
      </trkpt>
      <trkpt lat="43.99041" lon="6.64994">
        <ele>844</ele>
        <time>2017-11-01T07:34:21Z</time>
      </trkpt>
      <trkpt lat="43.99036" lon="6.64999">
        <ele>844</ele>
        <time>2017-11-01T07:34:23Z</time>
      </trkpt>
      <trkpt lat="43.9903" lon="6.65004">
        <ele>845</ele>
        <time>2017-11-01T07:34:26Z</time>
      </trkpt>
      <trkpt lat="43.9903" lon="6.6501">
        <ele>845</ele>
        <time>2017-11-01T07:34:28Z</time>
      </trkpt>
      <trkpt lat="43.99025" lon="6.65009">
        <ele>845</ele>
        <time>2017-11-01T07:34:29Z</time>
      </trkpt>
      <trkpt lat="43.99019" lon="6.65011">
        <ele>844</ele>
        <time>2017-11-01T07:34:31Z</time>
      </trkpt>
      <trkpt lat="43.99012" lon="6.65013">
        <ele>844</ele>
        <time>2017-11-01T07:34:34Z</time>
      </trkpt>
      <trkpt lat="43.99007" lon="6.65016">
        <ele>844</ele>
        <time>2017-11-01T07:34:36Z</time>
      </trkpt>
      <trkpt lat="43.99001" lon="6.65016">
        <ele>844</ele>
        <time>2017-11-01T07:34:38Z</time>
      </trkpt>
      <trkpt lat="43.98995" lon="6.65018">
        <ele>844</ele>
        <time>2017-11-01T07:34:41Z</time>
      </trkpt>
      <trkpt lat="43.9899" lon="6.65021">
        <ele>844</ele>
        <time>2017-11-01T07:34:44Z</time>
      </trkpt>
      <trkpt lat="43.98983" lon="6.65025">
        <ele>844</ele>
        <time>2017-11-01T07:34:47Z</time>
      </trkpt>
      <trkpt lat="43.98978" lon="6.65026">
        <ele>845</ele>
        <time>2017-11-01T07:34:49Z</time>
      </trkpt>
      <trkpt lat="43.98973" lon="6.65029">
        <ele>847</ele>
        <time>2017-11-01T07:34:52Z</time>
      </trkpt>
      <trkpt lat="43.98969" lon="6.65033">
        <ele>848</ele>
        <time>2017-11-01T07:34:54Z</time>
      </trkpt>
      <trkpt lat="43.98965" lon="6.65039">
        <ele>849</ele>
        <time>2017-11-01T07:34:58Z</time>
      </trkpt>
      <trkpt lat="43.98968" lon="6.65045">
        <ele>849</ele>
        <time>2017-11-01T07:35:03Z</time>
      </trkpt>
      <trkpt lat="43.98969" lon="6.6504">
        <ele>849</ele>
        <time>2017-11-01T07:35:19Z</time>
      </trkpt>
      <trkpt lat="43.98969" lon="6.6504">
        <ele>847</ele>
        <time>2017-11-01T07:35:21Z</time>
      </trkpt>
      <trkpt lat="43.98968" lon="6.65039">
        <ele>846</ele>
        <time>2017-11-01T07:35:49Z</time>
      </trkpt>
      <trkpt lat="43.98968" lon="6.65039">
        <ele>845</ele>
        <time>2017-11-01T07:35:52Z</time>
      </trkpt>
      <trkpt lat="43.98968" lon="6.65039">
        <ele>845</ele>
        <time>2017-11-01T07:36:19Z</time>
      </trkpt>
      <trkpt lat="43.98968" lon="6.65039">
        <ele>845</ele>
        <time>2017-11-01T07:36:22Z</time>
      </trkpt>
      <trkpt lat="43.98968" lon="6.65039">
        <ele>845</ele>
        <time>2017-11-01T07:36:49Z</time>
      </trkpt>
      <trkpt lat="43.98968" lon="6.65039">
        <ele>845</ele>
        <time>2017-11-01T07:36:51Z</time>
      </trkpt>
      <trkpt lat="43.98967" lon="6.6504">
        <ele>845</ele>
        <time>2017-11-01T07:37:19Z</time>
      </trkpt>
      <trkpt lat="43.98967" lon="6.65039">
        <ele>845</ele>
        <time>2017-11-01T07:37:21Z</time>
      </trkpt>
      <trkpt lat="43.98972" lon="6.65039">
        <ele>845</ele>
        <time>2017-11-01T07:37:28Z</time>
      </trkpt>
      <trkpt lat="43.98977" lon="6.65037">
        <ele>846</ele>
        <time>2017-11-01T07:37:30Z</time>
      </trkpt>
      <trkpt lat="43.98982" lon="6.65034">
        <ele>847</ele>
        <time>2017-11-01T07:37:32Z</time>
      </trkpt>
      <trkpt lat="43.98986" lon="6.6503">
        <ele>848</ele>
        <time>2017-11-01T07:37:35Z</time>
      </trkpt>
      <trkpt lat="43.98991" lon="6.65027">
        <ele>849</ele>
        <time>2017-11-01T07:37:38Z</time>
      </trkpt>
      <trkpt lat="43.98997" lon="6.65023">
        <ele>851</ele>
        <time>2017-11-01T07:37:42Z</time>
      </trkpt>
      <trkpt lat="43.99001" lon="6.65027">
        <ele>853</ele>
        <time>2017-11-01T07:37:44Z</time>
      </trkpt>
      <trkpt lat="43.99006" lon="6.65028">
        <ele>855</ele>
        <time>2017-11-01T07:37:49Z</time>
      </trkpt>
      <trkpt lat="43.99014" lon="6.65031">
        <ele>856</ele>
        <time>2017-11-01T07:37:52Z</time>
      </trkpt>
      <trkpt lat="43.99019" lon="6.65031">
        <ele>857</ele>
        <time>2017-11-01T07:37:56Z</time>
      </trkpt>
      <trkpt lat="43.99022" lon="6.65036">
        <ele>858</ele>
        <time>2017-11-01T07:38:11Z</time>
      </trkpt>
      <trkpt lat="43.99027" lon="6.65042">
        <ele>858</ele>
        <time>2017-11-01T07:38:16Z</time>
      </trkpt>
      <trkpt lat="43.99035" lon="6.65048">
        <ele>859</ele>
        <time>2017-11-01T07:38:19Z</time>
      </trkpt>
      <trkpt lat="43.99042" lon="6.65051">
        <ele>859</ele>
        <time>2017-11-01T07:38:23Z</time>
      </trkpt>
      <trkpt lat="43.99048" lon="6.65051">
        <ele>860</ele>
        <time>2017-11-01T07:38:27Z</time>
      </trkpt>
      <trkpt lat="43.99053" lon="6.65051">
        <ele>860</ele>
        <time>2017-11-01T07:38:29Z</time>
      </trkpt>
      <trkpt lat="43.99058" lon="6.65052">
        <ele>861</ele>
        <time>2017-11-01T07:38:30Z</time>
      </trkpt>
      <trkpt lat="43.99063" lon="6.65053">
        <ele>861</ele>
        <time>2017-11-01T07:38:33Z</time>
      </trkpt>
      <trkpt lat="43.99068" lon="6.65051">
        <ele>861</ele>
        <time>2017-11-01T07:38:38Z</time>
      </trkpt>
      <trkpt lat="43.99076" lon="6.6505">
        <ele>861</ele>
        <time>2017-11-01T07:38:41Z</time>
      </trkpt>
      <trkpt lat="43.99083" lon="6.65049">
        <ele>861</ele>
        <time>2017-11-01T07:38:44Z</time>
      </trkpt>
      <trkpt lat="43.99089" lon="6.65048">
        <ele>862</ele>
        <time>2017-11-01T07:38:48Z</time>
      </trkpt>
      <trkpt lat="43.99093" lon="6.65045">
        <ele>863</ele>
        <time>2017-11-01T07:38:52Z</time>
      </trkpt>
      <trkpt lat="43.99098" lon="6.65039">
        <ele>865</ele>
        <time>2017-11-01T07:38:56Z</time>
      </trkpt>
      <trkpt lat="43.99106" lon="6.65042">
        <ele>866</ele>
        <time>2017-11-01T07:38:59Z</time>
      </trkpt>
      <trkpt lat="43.9911" lon="6.65036">
        <ele>867</ele>
        <time>2017-11-01T07:39:04Z</time>
      </trkpt>
      <trkpt lat="43.99113" lon="6.6503">
        <ele>867</ele>
        <time>2017-11-01T07:39:08Z</time>
      </trkpt>
      <trkpt lat="43.99115" lon="6.65025">
        <ele>868</ele>
        <time>2017-11-01T07:39:10Z</time>
      </trkpt>
      <trkpt lat="43.9912" lon="6.65028">
        <ele>870</ele>
        <time>2017-11-01T07:39:13Z</time>
      </trkpt>
      <trkpt lat="43.99122" lon="6.65034">
        <ele>871</ele>
        <time>2017-11-01T07:39:16Z</time>
      </trkpt>
      <trkpt lat="43.99122" lon="6.65042">
        <ele>873</ele>
        <time>2017-11-01T07:39:19Z</time>
      </trkpt>
      <trkpt lat="43.99118" lon="6.65049">
        <ele>874</ele>
        <time>2017-11-01T07:39:24Z</time>
      </trkpt>
      <trkpt lat="43.99114" lon="6.65053">
        <ele>875</ele>
        <time>2017-11-01T07:39:27Z</time>
      </trkpt>
      <trkpt lat="43.99109" lon="6.65052">
        <ele>875</ele>
        <time>2017-11-01T07:39:30Z</time>
      </trkpt>
      <trkpt lat="43.99107" lon="6.65058">
        <ele>875</ele>
        <time>2017-11-01T07:39:34Z</time>
      </trkpt>
      <trkpt lat="43.99101" lon="6.65062">
        <ele>875</ele>
        <time>2017-11-01T07:39:39Z</time>
      </trkpt>
      <trkpt lat="43.991" lon="6.65069">
        <ele>873</ele>
        <time>2017-11-01T07:39:44Z</time>
      </trkpt>
      <trkpt lat="43.99096" lon="6.65073">
        <ele>872</ele>
        <time>2017-11-01T07:39:47Z</time>
      </trkpt>
      <trkpt lat="43.9909" lon="6.65076">
        <ele>872</ele>
        <time>2017-11-01T07:39:52Z</time>
      </trkpt>
      <trkpt lat="43.99089" lon="6.65082">
        <ele>871</ele>
        <time>2017-11-01T07:39:56Z</time>
      </trkpt>
      <trkpt lat="43.99085" lon="6.65089">
        <ele>871</ele>
        <time>2017-11-01T07:40:00Z</time>
      </trkpt>
      <trkpt lat="43.99085" lon="6.65097">
        <ele>871</ele>
        <time>2017-11-01T07:40:03Z</time>
      </trkpt>
      <trkpt lat="43.99084" lon="6.65103">
        <ele>871</ele>
        <time>2017-11-01T07:40:06Z</time>
      </trkpt>
      <trkpt lat="43.9908" lon="6.65108">
        <ele>870</ele>
        <time>2017-11-01T07:40:09Z</time>
      </trkpt>
      <trkpt lat="43.9908" lon="6.65116">
        <ele>869</ele>
        <time>2017-11-01T07:40:11Z</time>
      </trkpt>
      <trkpt lat="43.99074" lon="6.65113">
        <ele>869</ele>
        <time>2017-11-01T07:40:13Z</time>
      </trkpt>
      <trkpt lat="43.9907" lon="6.65118">
        <ele>870</ele>
        <time>2017-11-01T07:40:16Z</time>
      </trkpt>
      <trkpt lat="43.99064" lon="6.65121">
        <ele>871</ele>
        <time>2017-11-01T07:40:20Z</time>
      </trkpt>
      <trkpt lat="43.99059" lon="6.65123">
        <ele>872</ele>
        <time>2017-11-01T07:40:24Z</time>
      </trkpt>
      <trkpt lat="43.99052" lon="6.65124">
        <ele>872</ele>
        <time>2017-11-01T07:40:27Z</time>
      </trkpt>
      <trkpt lat="43.99046" lon="6.65125">
        <ele>873</ele>
        <time>2017-11-01T07:40:30Z</time>
      </trkpt>
      <trkpt lat="43.99041" lon="6.65124">
        <ele>873</ele>
        <time>2017-11-01T07:40:33Z</time>
      </trkpt>
      <trkpt lat="43.99037" lon="6.6513">
        <ele>873</ele>
        <time>2017-11-01T07:40:37Z</time>
      </trkpt>
      <trkpt lat="43.99033" lon="6.65135">
        <ele>872</ele>
        <time>2017-11-01T07:40:40Z</time>
      </trkpt>
      <trkpt lat="43.9903" lon="6.6514">
        <ele>872</ele>
        <time>2017-11-01T07:40:43Z</time>
      </trkpt>
      <trkpt lat="43.99027" lon="6.65147">
        <ele>871</ele>
        <time>2017-11-01T07:40:47Z</time>
      </trkpt>
      <trkpt lat="43.99023" lon="6.65152">
        <ele>870</ele>
        <time>2017-11-01T07:40:51Z</time>
      </trkpt>
      <trkpt lat="43.99019" lon="6.65159">
        <ele>870</ele>
        <time>2017-11-01T07:40:54Z</time>
      </trkpt>
      <trkpt lat="43.99016" lon="6.65165">
        <ele>871</ele>
        <time>2017-11-01T07:40:57Z</time>
      </trkpt>
      <trkpt lat="43.99012" lon="6.65171">
        <ele>873</ele>
        <time>2017-11-01T07:41:00Z</time>
      </trkpt>
      <trkpt lat="43.99007" lon="6.65176">
        <ele>875</ele>
        <time>2017-11-01T07:41:04Z</time>
      </trkpt>
      <trkpt lat="43.99003" lon="6.65179">
        <ele>876</ele>
        <time>2017-11-01T07:41:08Z</time>
      </trkpt>
      <trkpt lat="43.98998" lon="6.6518">
        <ele>878</ele>
        <time>2017-11-01T07:41:12Z</time>
      </trkpt>
      <trkpt lat="43.98994" lon="6.65183">
        <ele>878</ele>
        <time>2017-11-01T07:41:15Z</time>
      </trkpt>
      <trkpt lat="43.9899" lon="6.6519">
        <ele>878</ele>
        <time>2017-11-01T07:41:20Z</time>
      </trkpt>
      <trkpt lat="43.98987" lon="6.65194">
        <ele>877</ele>
        <time>2017-11-01T07:41:22Z</time>
      </trkpt>
      <trkpt lat="43.98983" lon="6.652">
        <ele>877</ele>
        <time>2017-11-01T07:41:25Z</time>
      </trkpt>
      <trkpt lat="43.98978" lon="6.65204">
        <ele>877</ele>
        <time>2017-11-01T07:41:29Z</time>
      </trkpt>
      <trkpt lat="43.98977" lon="6.65212">
        <ele>877</ele>
        <time>2017-11-01T07:41:33Z</time>
      </trkpt>
      <trkpt lat="43.98975" lon="6.6522">
        <ele>878</ele>
        <time>2017-11-01T07:41:37Z</time>
      </trkpt>
      <trkpt lat="43.98972" lon="6.65225">
        <ele>880</ele>
        <time>2017-11-01T07:41:40Z</time>
      </trkpt>
      <trkpt lat="43.98967" lon="6.65228">
        <ele>881</ele>
        <time>2017-11-01T07:41:42Z</time>
      </trkpt>
      <trkpt lat="43.98963" lon="6.65233">
        <ele>882</ele>
        <time>2017-11-01T07:41:45Z</time>
      </trkpt>
      <trkpt lat="43.98959" lon="6.6523">
        <ele>883</ele>
        <time>2017-11-01T07:41:48Z</time>
      </trkpt>
      <trkpt lat="43.98954" lon="6.65234">
        <ele>883</ele>
        <time>2017-11-01T07:41:54Z</time>
      </trkpt>
      <trkpt lat="43.98948" lon="6.65236">
        <ele>884</ele>
        <time>2017-11-01T07:41:58Z</time>
      </trkpt>
      <trkpt lat="43.98943" lon="6.65238">
        <ele>885</ele>
        <time>2017-11-01T07:42:01Z</time>
      </trkpt>
      <trkpt lat="43.98939" lon="6.65242">
        <ele>886</ele>
        <time>2017-11-01T07:42:03Z</time>
      </trkpt>
      <trkpt lat="43.98935" lon="6.65242">
        <ele>887</ele>
        <time>2017-11-01T07:42:05Z</time>
      </trkpt>
      <trkpt lat="43.98929" lon="6.65249">
        <ele>887</ele>
        <time>2017-11-01T07:42:08Z</time>
      </trkpt>
      <trkpt lat="43.98924" lon="6.65251">
        <ele>886</ele>
        <time>2017-11-01T07:42:16Z</time>
      </trkpt>
      <trkpt lat="43.98919" lon="6.6525">
        <ele>886</ele>
        <time>2017-11-01T07:42:18Z</time>
      </trkpt>
      <trkpt lat="43.98913" lon="6.65252">
        <ele>885</ele>
        <time>2017-11-01T07:42:24Z</time>
      </trkpt>
      <trkpt lat="43.98908" lon="6.65254">
        <ele>885</ele>
        <time>2017-11-01T07:42:27Z</time>
      </trkpt>
      <trkpt lat="43.98903" lon="6.65256">
        <ele>885</ele>
        <time>2017-11-01T07:42:30Z</time>
      </trkpt>
      <trkpt lat="43.989" lon="6.6526">
        <ele>885</ele>
        <time>2017-11-01T07:42:33Z</time>
      </trkpt>
      <trkpt lat="43.98896" lon="6.65265">
        <ele>885</ele>
        <time>2017-11-01T07:42:36Z</time>
      </trkpt>
      <trkpt lat="43.98895" lon="6.65272">
        <ele>884</ele>
        <time>2017-11-01T07:42:39Z</time>
      </trkpt>
      <trkpt lat="43.98891" lon="6.65276">
        <ele>884</ele>
        <time>2017-11-01T07:42:42Z</time>
      </trkpt>
      <trkpt lat="43.98888" lon="6.65282">
        <ele>885</ele>
        <time>2017-11-01T07:42:45Z</time>
      </trkpt>
      <trkpt lat="43.98885" lon="6.65289">
        <ele>886</ele>
        <time>2017-11-01T07:42:49Z</time>
      </trkpt>
      <trkpt lat="43.98883" lon="6.65295">
        <ele>888</ele>
        <time>2017-11-01T07:42:52Z</time>
      </trkpt>
      <trkpt lat="43.98882" lon="6.65301">
        <ele>889</ele>
        <time>2017-11-01T07:42:55Z</time>
      </trkpt>
      <trkpt lat="43.98881" lon="6.65308">
        <ele>891</ele>
        <time>2017-11-01T07:42:58Z</time>
      </trkpt>
      <trkpt lat="43.98877" lon="6.65313">
        <ele>892</ele>
        <time>2017-11-01T07:43:02Z</time>
      </trkpt>
      <trkpt lat="43.98875" lon="6.65321">
        <ele>892</ele>
        <time>2017-11-01T07:43:06Z</time>
      </trkpt>
      <trkpt lat="43.98872" lon="6.65328">
        <ele>892</ele>
        <time>2017-11-01T07:43:10Z</time>
      </trkpt>
      <trkpt lat="43.98868" lon="6.65334">
        <ele>893</ele>
        <time>2017-11-01T07:43:14Z</time>
      </trkpt>
      <trkpt lat="43.98864" lon="6.65338">
        <ele>895</ele>
        <time>2017-11-01T07:43:17Z</time>
      </trkpt>
      <trkpt lat="43.98861" lon="6.65343">
        <ele>896</ele>
        <time>2017-11-01T07:43:20Z</time>
      </trkpt>
      <trkpt lat="43.98859" lon="6.65349">
        <ele>898</ele>
        <time>2017-11-01T07:43:21Z</time>
      </trkpt>
      <trkpt lat="43.98852" lon="6.65348">
        <ele>899</ele>
        <time>2017-11-01T07:43:24Z</time>
      </trkpt>
      <trkpt lat="43.98847" lon="6.65394">
        <ele>903</ele>
        <time>2017-11-01T07:43:54Z</time>
      </trkpt>
      <trkpt lat="43.98872" lon="6.65415">
        <ele>906</ele>
        <time>2017-11-01T07:43:58Z</time>
      </trkpt>
      <trkpt lat="43.98875" lon="6.65437">
        <ele>909</ele>
        <time>2017-11-01T07:44:24Z</time>
      </trkpt>
      <trkpt lat="43.98884" lon="6.65455">
        <ele>913</ele>
        <time>2017-11-01T07:44:27Z</time>
      </trkpt>
      <trkpt lat="43.989" lon="6.65478">
        <ele>922</ele>
        <time>2017-11-01T07:44:54Z</time>
      </trkpt>
      <trkpt lat="43.98901" lon="6.65478">
        <ele>926</ele>
        <time>2017-11-01T07:44:57Z</time>
      </trkpt>
      <trkpt lat="43.98949" lon="6.6549">
        <ele>933</ele>
        <time>2017-11-01T07:45:23Z</time>
      </trkpt>
      <trkpt lat="43.98946" lon="6.65486">
        <ele>940</ele>
        <time>2017-11-01T07:45:26Z</time>
      </trkpt>
      <trkpt lat="43.98984" lon="6.65489">
        <ele>946</ele>
        <time>2017-11-01T07:45:53Z</time>
      </trkpt>
      <trkpt lat="43.98976" lon="6.65479">
        <ele>950</ele>
        <time>2017-11-01T07:45:55Z</time>
      </trkpt>
      <trkpt lat="43.99025" lon="6.65477">
        <ele>947</ele>
        <time>2017-11-01T07:46:23Z</time>
      </trkpt>
      <trkpt lat="43.9903" lon="6.65476">
        <ele>942</ele>
        <time>2017-11-01T07:46:25Z</time>
      </trkpt>
      <trkpt lat="43.99073" lon="6.65444">
        <ele>939</ele>
        <time>2017-11-01T07:46:54Z</time>
      </trkpt>
      <trkpt lat="43.99067" lon="6.65439">
        <ele>938</ele>
        <time>2017-11-01T07:46:57Z</time>
      </trkpt>
      <trkpt lat="43.99112" lon="6.65428">
        <ele>930</ele>
        <time>2017-11-01T07:47:23Z</time>
      </trkpt>
      <trkpt lat="43.99114" lon="6.65428">
        <ele>930</ele>
        <time>2017-11-01T07:47:25Z</time>
      </trkpt>
      <trkpt lat="43.99138" lon="6.65435">
        <ele>931</ele>
        <time>2017-11-01T07:47:54Z</time>
      </trkpt>
      <trkpt lat="43.99139" lon="6.65436">
        <ele>931</ele>
        <time>2017-11-01T07:47:55Z</time>
      </trkpt>
      <trkpt lat="43.99204" lon="6.65485">
        <ele>939</ele>
        <time>2017-11-01T07:48:25Z</time>
      </trkpt>
      <trkpt lat="43.99201" lon="6.65481">
        <ele>947</ele>
        <time>2017-11-01T07:48:28Z</time>
      </trkpt>
      <trkpt lat="43.99219" lon="6.65464">
        <ele>947</ele>
        <time>2017-11-01T07:48:54Z</time>
      </trkpt>
      <trkpt lat="43.9922" lon="6.65473">
        <ele>946</ele>
        <time>2017-11-01T07:48:57Z</time>
      </trkpt>
      <trkpt lat="43.9927" lon="6.65488">
        <ele>956</ele>
        <time>2017-11-01T07:49:24Z</time>
      </trkpt>
      <trkpt lat="43.99274" lon="6.65486">
        <ele>955</ele>
        <time>2017-11-01T07:49:27Z</time>
      </trkpt>
      <trkpt lat="43.99244" lon="6.65525">
        <ele>959</ele>
        <time>2017-11-01T07:49:57Z</time>
      </trkpt>
      <trkpt lat="43.99233" lon="6.65526">
        <ele>970</ele>
        <time>2017-11-01T07:50:02Z</time>
      </trkpt>
      <trkpt lat="43.99199" lon="6.65507">
        <ele>978</ele>
        <time>2017-11-01T07:50:24Z</time>
      </trkpt>
      <trkpt lat="43.99198" lon="6.65516">
        <ele>973</ele>
        <time>2017-11-01T07:50:27Z</time>
      </trkpt>
      <trkpt lat="43.99161" lon="6.65561">
        <ele>972</ele>
        <time>2017-11-01T07:50:53Z</time>
      </trkpt>
      <trkpt lat="43.99167" lon="6.65556">
        <ele>970</ele>
        <time>2017-11-01T07:50:56Z</time>
      </trkpt>
      <trkpt lat="43.99151" lon="6.65574">
        <ele>964</ele>
        <time>2017-11-01T07:51:23Z</time>
      </trkpt>
      <trkpt lat="43.99149" lon="6.65576">
        <ele>963</ele>
        <time>2017-11-01T07:51:25Z</time>
      </trkpt>
      <trkpt lat="43.99061" lon="6.65627">
        <ele>965</ele>
        <time>2017-11-01T07:51:56Z</time>
      </trkpt>
      <trkpt lat="43.99081" lon="6.65646">
        <ele>967</ele>
        <time>2017-11-01T07:52:00Z</time>
      </trkpt>
      <trkpt lat="43.9906" lon="6.65665">
        <ele>965</ele>
        <time>2017-11-01T07:52:23Z</time>
      </trkpt>
      <trkpt lat="43.99055" lon="6.65664">
        <ele>968</ele>
        <time>2017-11-01T07:52:25Z</time>
      </trkpt>
      <trkpt lat="43.99065" lon="6.65698">
        <ele>976</ele>
        <time>2017-11-01T07:52:54Z</time>
      </trkpt>
      <trkpt lat="43.99071" lon="6.65696">
        <ele>981</ele>
        <time>2017-11-01T07:52:57Z</time>
      </trkpt>
      <trkpt lat="43.99093" lon="6.65672">
        <ele>965</ele>
        <time>2017-11-01T07:53:24Z</time>
      </trkpt>
      <trkpt lat="43.99098" lon="6.65671">
        <ele>960</ele>
        <time>2017-11-01T07:53:26Z</time>
      </trkpt>
      <trkpt lat="43.99128" lon="6.65666">
        <ele>959</ele>
        <time>2017-11-01T07:53:54Z</time>
      </trkpt>
      <trkpt lat="43.99142" lon="6.65674">
        <ele>955</ele>
        <time>2017-11-01T07:53:57Z</time>
      </trkpt>
      <trkpt lat="43.99159" lon="6.65673">
        <ele>958</ele>
        <time>2017-11-01T07:54:23Z</time>
      </trkpt>
      <trkpt lat="43.99189" lon="6.65675">
        <ele>983</ele>
        <time>2017-11-01T07:54:26Z</time>
      </trkpt>
      <trkpt lat="43.9922" lon="6.65652">
        <ele>1000</ele>
        <time>2017-11-01T07:54:53Z</time>
      </trkpt>
      <trkpt lat="43.99228" lon="6.65666">
        <ele>1006</ele>
        <time>2017-11-01T07:54:55Z</time>
      </trkpt>
      <trkpt lat="43.99272" lon="6.65666">
        <ele>1013</ele>
        <time>2017-11-01T07:55:23Z</time>
      </trkpt>
      <trkpt lat="43.9928" lon="6.6567">
        <ele>1018</ele>
        <time>2017-11-01T07:55:26Z</time>
      </trkpt>
      <trkpt lat="43.99307" lon="6.65655">
        <ele>1020</ele>
        <time>2017-11-01T07:55:53Z</time>
      </trkpt>
      <trkpt lat="43.99308" lon="6.65655">
        <ele>1023</ele>
        <time>2017-11-01T07:55:54Z</time>
      </trkpt>
      <trkpt lat="43.99282" lon="6.6572">
        <ele>1026</ele>
        <time>2017-11-01T07:56:24Z</time>
      </trkpt>
      <trkpt lat="43.99273" lon="6.65717">
        <ele>1029</ele>
        <time>2017-11-01T07:56:27Z</time>
      </trkpt>
      <trkpt lat="43.99281" lon="6.65744">
        <ele>1032</ele>
        <time>2017-11-01T07:56:54Z</time>
      </trkpt>
      <trkpt lat="43.99281" lon="6.65749">
        <ele>1033</ele>
        <time>2017-11-01T07:56:56Z</time>
      </trkpt>
      <trkpt lat="43.99223" lon="6.65798">
        <ele>1026</ele>
        <time>2017-11-01T07:57:24Z</time>
      </trkpt>
      <trkpt lat="43.99233" lon="6.65803">
        <ele>1025</ele>
        <time>2017-11-01T07:57:27Z</time>
      </trkpt>
      <trkpt lat="43.9924" lon="6.65842">
        <ele>1032</ele>
        <time>2017-11-01T07:57:54Z</time>
      </trkpt>
      <trkpt lat="43.99239" lon="6.65843">
        <ele>1034</ele>
        <time>2017-11-01T07:57:57Z</time>
      </trkpt>
      <trkpt lat="43.9921" lon="6.65857">
        <ele>1032</ele>
        <time>2017-11-01T07:58:25Z</time>
      </trkpt>
      <trkpt lat="43.9921" lon="6.65867">
        <ele>1038</ele>
        <time>2017-11-01T07:58:27Z</time>
      </trkpt>
      <trkpt lat="43.99165" lon="6.65926">
        <ele>1045</ele>
        <time>2017-11-01T07:58:54Z</time>
      </trkpt>
      <trkpt lat="43.99167" lon="6.65931">
        <ele>1039</ele>
        <time>2017-11-01T07:58:56Z</time>
      </trkpt>
      <trkpt lat="43.99169" lon="6.65984">
        <ele>1039</ele>
        <time>2017-11-01T07:59:24Z</time>
      </trkpt>
      <trkpt lat="43.99171" lon="6.65986">
        <ele>1043</ele>
        <time>2017-11-01T07:59:25Z</time>
      </trkpt>
      <trkpt lat="43.99199" lon="6.6598">
        <ele>1049</ele>
        <time>2017-11-01T07:59:54Z</time>
      </trkpt>
      <trkpt lat="43.99199" lon="6.6598">
        <ele>1053</ele>
        <time>2017-11-01T07:59:55Z</time>
      </trkpt>
      <trkpt lat="43.99249" lon="6.6598">
        <ele>1061</ele>
        <time>2017-11-01T08:00:24Z</time>
      </trkpt>
      <trkpt lat="43.99251" lon="6.65981">
        <ele>1062</ele>
        <time>2017-11-01T08:00:26Z</time>
      </trkpt>
      <trkpt lat="43.99272" lon="6.65924">
        <ele>1069</ele>
        <time>2017-11-01T08:00:56Z</time>
      </trkpt>
      <trkpt lat="43.99282" lon="6.65933">
        <ele>1073</ele>
        <time>2017-11-01T08:00:59Z</time>
      </trkpt>
      <trkpt lat="43.9931" lon="6.65926">
        <ele>1070</ele>
        <time>2017-11-01T08:01:24Z</time>
      </trkpt>
      <trkpt lat="43.99287" lon="6.65914">
        <ele>1064</ele>
        <time>2017-11-01T08:01:27Z</time>
      </trkpt>
      <trkpt lat="43.99342" lon="6.65908">
        <ele>1057</ele>
        <time>2017-11-01T08:01:54Z</time>
      </trkpt>
      <trkpt lat="43.99343" lon="6.65897">
        <ele>1046</ele>
        <time>2017-11-01T08:01:57Z</time>
      </trkpt>
      <trkpt lat="43.99384" lon="6.65903">
        <ele>1041</ele>
        <time>2017-11-01T08:02:24Z</time>
      </trkpt>
      <trkpt lat="43.99387" lon="6.65902">
        <ele>1043</ele>
        <time>2017-11-01T08:02:26Z</time>
      </trkpt>
      <trkpt lat="43.99379" lon="6.65888">
        <ele>1045</ele>
        <time>2017-11-01T08:02:54Z</time>
      </trkpt>
      <trkpt lat="43.99408" lon="6.65917">
        <ele>1050</ele>
        <time>2017-11-01T08:02:57Z</time>
      </trkpt>
      <trkpt lat="43.99455" lon="6.65953">
        <ele>1062</ele>
        <time>2017-11-01T08:03:24Z</time>
      </trkpt>
      <trkpt lat="43.99449" lon="6.65962">
        <ele>1070</ele>
        <time>2017-11-01T08:03:27Z</time>
      </trkpt>
      <trkpt lat="43.99432" lon="6.66008">
        <ele>1077</ele>
        <time>2017-11-01T08:03:54Z</time>
      </trkpt>
      <trkpt lat="43.99419" lon="6.66012">
        <ele>1087</ele>
        <time>2017-11-01T08:03:57Z</time>
      </trkpt>
      <trkpt lat="43.99393" lon="6.66045">
        <ele>1099</ele>
        <time>2017-11-01T08:04:25Z</time>
      </trkpt>
      <trkpt lat="43.99406" lon="6.66062">
        <ele>1101</ele>
        <time>2017-11-01T08:04:28Z</time>
      </trkpt>
      <trkpt lat="43.99372" lon="6.66077">
        <ele>1104</ele>
        <time>2017-11-01T08:04:55Z</time>
      </trkpt>
      <trkpt lat="43.99401" lon="6.66095">
        <ele>1109</ele>
        <time>2017-11-01T08:04:58Z</time>
      </trkpt>
      <trkpt lat="43.99418" lon="6.66081">
        <ele>1109</ele>
        <time>2017-11-01T08:05:25Z</time>
      </trkpt>
      <trkpt lat="43.99424" lon="6.66081">
        <ele>1107</ele>
        <time>2017-11-01T08:05:27Z</time>
      </trkpt>
      <trkpt lat="43.99476" lon="6.66088">
        <ele>1112</ele>
        <time>2017-11-01T08:05:54Z</time>
      </trkpt>
      <trkpt lat="43.9948" lon="6.66087">
        <ele>1115</ele>
        <time>2017-11-01T08:05:56Z</time>
      </trkpt>
      <trkpt lat="43.99502" lon="6.66058">
        <ele>1117</ele>
        <time>2017-11-01T08:06:25Z</time>
      </trkpt>
      <trkpt lat="43.99501" lon="6.66056">
        <ele>1121</ele>
        <time>2017-11-01T08:06:28Z</time>
      </trkpt>
      <trkpt lat="43.99541" lon="6.66037">
        <ele>1128</ele>
        <time>2017-11-01T08:06:55Z</time>
      </trkpt>
      <trkpt lat="43.99543" lon="6.6604">
        <ele>1128</ele>
        <time>2017-11-01T08:06:58Z</time>
      </trkpt>
      <trkpt lat="43.99571" lon="6.6605">
        <ele>1122</ele>
        <time>2017-11-01T08:07:24Z</time>
      </trkpt>
      <trkpt lat="43.99586" lon="6.66053">
        <ele>1119</ele>
        <time>2017-11-01T08:07:27Z</time>
      </trkpt>
      <trkpt lat="43.9962" lon="6.66076">
        <ele>1124</ele>
        <time>2017-11-01T08:07:54Z</time>
      </trkpt>
      <trkpt lat="43.99622" lon="6.66079">
        <ele>1125</ele>
        <time>2017-11-01T08:07:56Z</time>
      </trkpt>
      <trkpt lat="43.99674" lon="6.66132">
        <ele>1126</ele>
        <time>2017-11-01T08:08:27Z</time>
      </trkpt>
      <trkpt lat="43.99672" lon="6.66129">
        <ele>1134</ele>
        <time>2017-11-01T08:08:30Z</time>
      </trkpt>
      <trkpt lat="43.99687" lon="6.66117">
        <ele>1140</ele>
        <time>2017-11-01T08:08:55Z</time>
      </trkpt>
      <trkpt lat="43.99741" lon="6.66124">
        <ele>1144</ele>
        <time>2017-11-01T08:09:24Z</time>
      </trkpt>
      <trkpt lat="43.99743" lon="6.66125">
        <ele>1148</ele>
        <time>2017-11-01T08:09:25Z</time>
      </trkpt>
      <trkpt lat="43.99794" lon="6.66123">
        <ele>1158</ele>
        <time>2017-11-01T08:09:54Z</time>
      </trkpt>
      <trkpt lat="43.99784" lon="6.66129">
        <ele>1161</ele>
        <time>2017-11-01T08:09:57Z</time>
      </trkpt>
      <trkpt lat="43.99772" lon="6.66156">
        <ele>1165</ele>
        <time>2017-11-01T08:10:25Z</time>
      </trkpt>
      <trkpt lat="43.99765" lon="6.66156">
        <ele>1166</ele>
        <time>2017-11-01T08:10:27Z</time>
      </trkpt>
      <trkpt lat="43.99743" lon="6.66149">
        <ele>1167</ele>
        <time>2017-11-01T08:10:54Z</time>
      </trkpt>
      <trkpt lat="43.99739" lon="6.66151">
        <ele>1164</ele>
        <time>2017-11-01T08:10:57Z</time>
      </trkpt>
      <trkpt lat="43.99714" lon="6.66196">
        <ele>1171</ele>
        <time>2017-11-01T08:11:25Z</time>
      </trkpt>
      <trkpt lat="43.99704" lon="6.66194">
        <ele>1174</ele>
        <time>2017-11-01T08:11:27Z</time>
      </trkpt>
      <trkpt lat="43.99667" lon="6.66225">
        <ele>1171</ele>
        <time>2017-11-01T08:11:55Z</time>
      </trkpt>
      <trkpt lat="43.99659" lon="6.66226">
        <ele>1170</ele>
        <time>2017-11-01T08:11:58Z</time>
      </trkpt>
      <trkpt lat="43.99629" lon="6.66256">
        <ele>1160</ele>
        <time>2017-11-01T08:12:24Z</time>
      </trkpt>
      <trkpt lat="43.99636" lon="6.66275">
        <ele>1151</ele>
        <time>2017-11-01T08:12:26Z</time>
      </trkpt>
      <trkpt lat="43.99674" lon="6.66247">
        <ele>1146</ele>
        <time>2017-11-01T08:12:55Z</time>
      </trkpt>
      <trkpt lat="43.99682" lon="6.66247">
        <ele>1147</ele>
        <time>2017-11-01T08:12:58Z</time>
      </trkpt>
      <trkpt lat="43.99701" lon="6.66252">
        <ele>1142</ele>
        <time>2017-11-01T08:13:24Z</time>
      </trkpt>
      <trkpt lat="43.99718" lon="6.66262">
        <ele>1147</ele>
        <time>2017-11-01T08:13:27Z</time>
      </trkpt>
      <trkpt lat="43.99741" lon="6.66261">
        <ele>1160</ele>
        <time>2017-11-01T08:13:55Z</time>
      </trkpt>
      <trkpt lat="43.99743" lon="6.66246">
        <ele>1168</ele>
        <time>2017-11-01T08:13:58Z</time>
      </trkpt>
      <trkpt lat="43.99797" lon="6.66267">
        <ele>1176</ele>
        <time>2017-11-01T08:14:25Z</time>
      </trkpt>
      <trkpt lat="43.99801" lon="6.66267">
        <ele>1190</ele>
        <time>2017-11-01T08:14:27Z</time>
      </trkpt>
      <trkpt lat="43.99826" lon="6.66277">
        <ele>1198</ele>
        <time>2017-11-01T08:14:55Z</time>
      </trkpt>
      <trkpt lat="43.99832" lon="6.66281">
        <ele>1194</ele>
        <time>2017-11-01T08:14:58Z</time>
      </trkpt>
      <trkpt lat="43.99847" lon="6.66259">
        <ele>1191</ele>
        <time>2017-11-01T08:15:24Z</time>
      </trkpt>
      <trkpt lat="43.99848" lon="6.66257">
        <ele>1188</ele>
        <time>2017-11-01T08:15:26Z</time>
      </trkpt>
      <trkpt lat="43.99918" lon="6.66263">
        <ele>1180</ele>
        <time>2017-11-01T08:15:54Z</time>
      </trkpt>
      <trkpt lat="43.99915" lon="6.66262">
        <ele>1176</ele>
        <time>2017-11-01T08:15:56Z</time>
      </trkpt>
      <trkpt lat="43.99925" lon="6.66265">
        <ele>1178</ele>
        <time>2017-11-01T08:16:26Z</time>
      </trkpt>
      <trkpt lat="43.99921" lon="6.66276">
        <ele>1181</ele>
        <time>2017-11-01T08:16:28Z</time>
      </trkpt>
      <trkpt lat="43.99933" lon="6.66336">
        <ele>1184</ele>
        <time>2017-11-01T08:16:54Z</time>
      </trkpt>
      <trkpt lat="43.99928" lon="6.66335">
        <ele>1193</ele>
        <time>2017-11-01T08:16:57Z</time>
      </trkpt>
      <trkpt lat="43.99939" lon="6.66369">
        <ele>1202</ele>
        <time>2017-11-01T08:17:24Z</time>
      </trkpt>
      <trkpt lat="43.99938" lon="6.66376">
        <ele>1208</ele>
        <time>2017-11-01T08:17:27Z</time>
      </trkpt>
      <trkpt lat="43.99938" lon="6.66367">
        <ele>1211</ele>
        <time>2017-11-01T08:17:58Z</time>
      </trkpt>
      <trkpt lat="43.99938" lon="6.66366">
        <ele>1214</ele>
        <time>2017-11-01T08:18:02Z</time>
      </trkpt>
      <trkpt lat="43.99939" lon="6.66368">
        <ele>1216</ele>
        <time>2017-11-01T08:18:28Z</time>
      </trkpt>
      <trkpt lat="43.99937" lon="6.66368">
        <ele>1216</ele>
        <time>2017-11-01T08:18:33Z</time>
      </trkpt>
      <trkpt lat="43.99934" lon="6.66367">
        <ele>1217</ele>
        <time>2017-11-01T08:18:56Z</time>
      </trkpt>
      <trkpt lat="43.99934" lon="6.66366">
        <ele>1218</ele>
        <time>2017-11-01T08:18:59Z</time>
      </trkpt>
      <trkpt lat="43.99934" lon="6.66367">
        <ele>1219</ele>
        <time>2017-11-01T08:19:30Z</time>
      </trkpt>
      <trkpt lat="43.99934" lon="6.66368">
        <ele>1220</ele>
        <time>2017-11-01T08:19:33Z</time>
      </trkpt>
      <trkpt lat="43.99933" lon="6.66367">
        <ele>1220</ele>
        <time>2017-11-01T08:19:54Z</time>
      </trkpt>
      <trkpt lat="43.99933" lon="6.66367">
        <ele>1219</ele>
        <time>2017-11-01T08:19:57Z</time>
      </trkpt>
      <trkpt lat="43.99932" lon="6.66367">
        <ele>1219</ele>
        <time>2017-11-01T08:20:30Z</time>
      </trkpt>
      <trkpt lat="43.99932" lon="6.66367">
        <ele>1219</ele>
        <time>2017-11-01T08:20:33Z</time>
      </trkpt>
      <trkpt lat="43.99931" lon="6.66366">
        <ele>1219</ele>
        <time>2017-11-01T08:20:55Z</time>
      </trkpt>
      <trkpt lat="43.9993" lon="6.66366">
        <ele>1220</ele>
        <time>2017-11-01T08:20:58Z</time>
      </trkpt>
      <trkpt lat="43.99929" lon="6.66367">
        <ele>1221</ele>
        <time>2017-11-01T08:21:31Z</time>
      </trkpt>
      <trkpt lat="43.99929" lon="6.66367">
        <ele>1221</ele>
        <time>2017-11-01T08:21:35Z</time>
      </trkpt>
      <trkpt lat="43.9993" lon="6.66368">
        <ele>1222</ele>
        <time>2017-11-01T08:21:57Z</time>
      </trkpt>
      <trkpt lat="43.9993" lon="6.66368">
        <ele>1223</ele>
        <time>2017-11-01T08:22:01Z</time>
      </trkpt>
      <trkpt lat="43.99931" lon="6.6637">
        <ele>1223</ele>
        <time>2017-11-01T08:22:25Z</time>
      </trkpt>
      <trkpt lat="43.99931" lon="6.6637">
        <ele>1223</ele>
        <time>2017-11-01T08:22:28Z</time>
      </trkpt>
      <trkpt lat="43.99933" lon="6.66371">
        <ele>1223</ele>
        <time>2017-11-01T08:22:57Z</time>
      </trkpt>
      <trkpt lat="43.99933" lon="6.66371">
        <ele>1223</ele>
        <time>2017-11-01T08:23:01Z</time>
      </trkpt>
      <trkpt lat="43.99934" lon="6.66371">
        <ele>1222</ele>
        <time>2017-11-01T08:23:26Z</time>
      </trkpt>
      <trkpt lat="43.99934" lon="6.66371">
        <ele>1221</ele>
        <time>2017-11-01T08:23:29Z</time>
      </trkpt>
      <trkpt lat="43.99934" lon="6.6637">
        <ele>1220</ele>
        <time>2017-11-01T08:23:58Z</time>
      </trkpt>
      <trkpt lat="43.99934" lon="6.6637">
        <ele>1219</ele>
        <time>2017-11-01T08:24:00Z</time>
      </trkpt>
      <trkpt lat="43.99935" lon="6.66372">
        <ele>1218</ele>
        <time>2017-11-01T08:24:26Z</time>
      </trkpt>
      <trkpt lat="43.99931" lon="6.66379">
        <ele>1216</ele>
        <time>2017-11-01T08:24:29Z</time>
      </trkpt>
      <trkpt lat="43.99931" lon="6.66504">
        <ele>1215</ele>
        <time>2017-11-01T08:24:55Z</time>
      </trkpt>
      <trkpt lat="43.99938" lon="6.66511">
        <ele>1215</ele>
        <time>2017-11-01T08:24:58Z</time>
      </trkpt>
      <trkpt lat="44.00014" lon="6.66498">
        <ele>1216</ele>
        <time>2017-11-01T08:25:26Z</time>
      </trkpt>
      <trkpt lat="44.00016" lon="6.66497">
        <ele>1217</ele>
        <time>2017-11-01T08:25:29Z</time>
      </trkpt>
      <trkpt lat="44.00038" lon="6.66494">
        <ele>1221</ele>
        <time>2017-11-01T08:25:55Z</time>
      </trkpt>
      <trkpt lat="44.00039" lon="6.66496">
        <ele>1225</ele>
        <time>2017-11-01T08:25:59Z</time>
      </trkpt>
      <trkpt lat="44.00066" lon="6.66497">
        <ele>1226</ele>
        <time>2017-11-01T08:26:27Z</time>
      </trkpt>
      <trkpt lat="44.0007" lon="6.66499">
        <ele>1226</ele>
        <time>2017-11-01T08:26:31Z</time>
      </trkpt>
      <trkpt lat="44.00105" lon="6.66506">
        <ele>1227</ele>
        <time>2017-11-01T08:26:57Z</time>
      </trkpt>
      <trkpt lat="44.00105" lon="6.66505">
        <ele>1224</ele>
        <time>2017-11-01T08:27:01Z</time>
      </trkpt>
      <trkpt lat="44.00104" lon="6.66501">
        <ele>1222</ele>
        <time>2017-11-01T08:27:30Z</time>
      </trkpt>
      <trkpt lat="44.00104" lon="6.66501">
        <ele>1220</ele>
        <time>2017-11-01T08:27:33Z</time>
      </trkpt>
      <trkpt lat="44.00108" lon="6.66503">
        <ele>1222</ele>
        <time>2017-11-01T08:27:56Z</time>
      </trkpt>
      <trkpt lat="44.00108" lon="6.66504">
        <ele>1224</ele>
        <time>2017-11-01T08:28:00Z</time>
      </trkpt>
      <trkpt lat="44.00113" lon="6.66502">
        <ele>1227</ele>
        <time>2017-11-01T08:28:25Z</time>
      </trkpt>
      <trkpt lat="44.00113" lon="6.66502">
        <ele>1229</ele>
        <time>2017-11-01T08:28:28Z</time>
      </trkpt>
      <trkpt lat="44.00121" lon="6.66508">
        <ele>1232</ele>
        <time>2017-11-01T08:28:56Z</time>
      </trkpt>
      <trkpt lat="44.00121" lon="6.66508">
        <ele>1233</ele>
        <time>2017-11-01T08:28:59Z</time>
      </trkpt>
      <trkpt lat="44.002" lon="6.66609">
        <ele>1229</ele>
        <time>2017-11-01T08:29:27Z</time>
      </trkpt>
      <trkpt lat="44.00218" lon="6.66622">
        <ele>1226</ele>
        <time>2017-11-01T08:29:31Z</time>
      </trkpt>
      <trkpt lat="44.00284" lon="6.66666">
        <ele>1224</ele>
        <time>2017-11-01T08:29:58Z</time>
      </trkpt>
      <trkpt lat="44.00269" lon="6.6668">
        <ele>1227</ele>
        <time>2017-11-01T08:30:03Z</time>
      </trkpt>
      <trkpt lat="44.00395" lon="6.66634">
        <ele>1226</ele>
        <time>2017-11-01T08:30:25Z</time>
      </trkpt>
      <trkpt lat="44.00399" lon="6.66628">
        <ele>1230</ele>
        <time>2017-11-01T08:30:28Z</time>
      </trkpt>
      <trkpt lat="44.00407" lon="6.66645">
        <ele>1239</ele>
        <time>2017-11-01T08:30:59Z</time>
      </trkpt>
      <trkpt lat="44.00451" lon="6.66606">
        <ele>1246</ele>
        <time>2017-11-01T08:31:10Z</time>
      </trkpt>
      <trkpt lat="44.00445" lon="6.66526">
        <ele>1230</ele>
        <time>2017-11-01T08:31:34Z</time>
      </trkpt>
      <trkpt lat="44.0045" lon="6.66528">
        <ele>1221</ele>
        <time>2017-11-01T08:31:35Z</time>
      </trkpt>
      <trkpt lat="44.00459" lon="6.66535">
        <ele>1217</ele>
        <time>2017-11-01T08:31:37Z</time>
      </trkpt>
      <trkpt lat="44.00472" lon="6.66533">
        <ele>1206</ele>
        <time>2017-11-01T08:31:40Z</time>
      </trkpt>
      <trkpt lat="44.00479" lon="6.66534">
        <ele>1196</ele>
        <time>2017-11-01T08:31:41Z</time>
      </trkpt>
      <trkpt lat="44.00484" lon="6.66531">
        <ele>1204</ele>
        <time>2017-11-01T08:31:43Z</time>
      </trkpt>
      <trkpt lat="44.00493" lon="6.66529">
        <ele>1209</ele>
        <time>2017-11-01T08:31:45Z</time>
      </trkpt>
      <trkpt lat="44.00498" lon="6.66525">
        <ele>1211</ele>
        <time>2017-11-01T08:31:47Z</time>
      </trkpt>
      <trkpt lat="44.00504" lon="6.66524">
        <ele>1212</ele>
        <time>2017-11-01T08:31:49Z</time>
      </trkpt>
      <trkpt lat="44.0051" lon="6.66522">
        <ele>1214</ele>
        <time>2017-11-01T08:31:51Z</time>
      </trkpt>
      <trkpt lat="44.00516" lon="6.66521">
        <ele>1218</ele>
        <time>2017-11-01T08:31:55Z</time>
      </trkpt>
      <trkpt lat="44.00521" lon="6.66519">
        <ele>1222</ele>
        <time>2017-11-01T08:31:57Z</time>
      </trkpt>
      <trkpt lat="44.00525" lon="6.66515">
        <ele>1225</ele>
        <time>2017-11-01T08:32:00Z</time>
      </trkpt>
      <trkpt lat="44.0053" lon="6.66514">
        <ele>1227</ele>
        <time>2017-11-01T08:32:03Z</time>
      </trkpt>
      <trkpt lat="44.00534" lon="6.66509">
        <ele>1229</ele>
        <time>2017-11-01T08:32:07Z</time>
      </trkpt>
      <trkpt lat="44.00538" lon="6.66506">
        <ele>1229</ele>
        <time>2017-11-01T08:32:09Z</time>
      </trkpt>
      <trkpt lat="44.00543" lon="6.66508">
        <ele>1230</ele>
        <time>2017-11-01T08:32:13Z</time>
      </trkpt>
      <trkpt lat="44.00549" lon="6.66507">
        <ele>1232</ele>
        <time>2017-11-01T08:32:16Z</time>
      </trkpt>
      <trkpt lat="44.00557" lon="6.66506">
        <ele>1232</ele>
        <time>2017-11-01T08:32:19Z</time>
      </trkpt>
      <trkpt lat="44.00562" lon="6.66508">
        <ele>1233</ele>
        <time>2017-11-01T08:32:22Z</time>
      </trkpt>
      <trkpt lat="44.00567" lon="6.66508">
        <ele>1235</ele>
        <time>2017-11-01T08:32:27Z</time>
      </trkpt>
      <trkpt lat="44.00561" lon="6.66508">
        <ele>1237</ele>
        <time>2017-11-01T08:32:29Z</time>
      </trkpt>
      <trkpt lat="44.00567" lon="6.66509">
        <ele>1237</ele>
        <time>2017-11-01T08:32:31Z</time>
      </trkpt>
      <trkpt lat="44.00575" lon="6.66507">
        <ele>1238</ele>
        <time>2017-11-01T08:32:32Z</time>
      </trkpt>
      <trkpt lat="44.00569" lon="6.66511">
        <ele>1239</ele>
        <time>2017-11-01T08:32:33Z</time>
      </trkpt>
      <trkpt lat="44.00562" lon="6.66518">
        <ele>1239</ele>
        <time>2017-11-01T08:32:35Z</time>
      </trkpt>
      <trkpt lat="44.00568" lon="6.66522">
        <ele>1239</ele>
        <time>2017-11-01T08:32:36Z</time>
      </trkpt>
      <trkpt lat="44.00563" lon="6.66518">
        <ele>1240</ele>
        <time>2017-11-01T08:32:37Z</time>
      </trkpt>
      <trkpt lat="44.00568" lon="6.66522">
        <ele>1240</ele>
        <time>2017-11-01T08:32:38Z</time>
      </trkpt>
      <trkpt lat="44.00571" lon="6.66517">
        <ele>1240</ele>
        <time>2017-11-01T08:32:39Z</time>
      </trkpt>
      <trkpt lat="44.00573" lon="6.66509">
        <ele>1239</ele>
        <time>2017-11-01T08:32:40Z</time>
      </trkpt>
      <trkpt lat="44.00583" lon="6.66508">
        <ele>1238</ele>
        <time>2017-11-01T08:32:41Z</time>
      </trkpt>
      <trkpt lat="44.00601" lon="6.66511">
        <ele>1237</ele>
        <time>2017-11-01T08:32:42Z</time>
      </trkpt>
      <trkpt lat="44.00612" lon="6.66514">
        <ele>1237</ele>
        <time>2017-11-01T08:32:44Z</time>
      </trkpt>
      <trkpt lat="44.00608" lon="6.66519">
        <ele>1237</ele>
        <time>2017-11-01T08:32:45Z</time>
      </trkpt>
      <trkpt lat="44.00604" lon="6.66514">
        <ele>1237</ele>
        <time>2017-11-01T08:32:46Z</time>
      </trkpt>
      <trkpt lat="44.00608" lon="6.66508">
        <ele>1237</ele>
        <time>2017-11-01T08:32:47Z</time>
      </trkpt>
      <trkpt lat="44.00604" lon="6.66511">
        <ele>1237</ele>
        <time>2017-11-01T08:32:48Z</time>
      </trkpt>
      <trkpt lat="44.00612" lon="6.66518">
        <ele>1236</ele>
        <time>2017-11-01T08:32:50Z</time>
      </trkpt>
      <trkpt lat="44.00606" lon="6.66515">
        <ele>1235</ele>
        <time>2017-11-01T08:32:52Z</time>
      </trkpt>
      <trkpt lat="44.00614" lon="6.6651">
        <ele>1233</ele>
        <time>2017-11-01T08:32:57Z</time>
      </trkpt>
      <trkpt lat="44.00621" lon="6.66506">
        <ele>1232</ele>
        <time>2017-11-01T08:32:58Z</time>
      </trkpt>
      <trkpt lat="44.00627" lon="6.66504">
        <ele>1231</ele>
        <time>2017-11-01T08:33:00Z</time>
      </trkpt>
      <trkpt lat="44.0063" lon="6.66509">
        <ele>1231</ele>
        <time>2017-11-01T08:33:05Z</time>
      </trkpt>
      <trkpt lat="44.00627" lon="6.66514">
        <ele>1233</ele>
        <time>2017-11-01T08:33:07Z</time>
      </trkpt>
      <trkpt lat="44.00632" lon="6.66513">
        <ele>1236</ele>
        <time>2017-11-01T08:33:10Z</time>
      </trkpt>
      <trkpt lat="44.0064" lon="6.66509">
        <ele>1237</ele>
        <time>2017-11-01T08:33:11Z</time>
      </trkpt>
      <trkpt lat="44.00649" lon="6.66507">
        <ele>1239</ele>
        <time>2017-11-01T08:33:15Z</time>
      </trkpt>
      <trkpt lat="44.00655" lon="6.66504">
        <ele>1239</ele>
        <time>2017-11-01T08:33:18Z</time>
      </trkpt>
      <trkpt lat="44.00665" lon="6.66504">
        <ele>1238</ele>
        <time>2017-11-01T08:33:22Z</time>
      </trkpt>
      <trkpt lat="44.0067" lon="6.66502">
        <ele>1236</ele>
        <time>2017-11-01T08:33:24Z</time>
      </trkpt>
      <trkpt lat="44.0068" lon="6.66501">
        <ele>1235</ele>
        <time>2017-11-01T08:33:27Z</time>
      </trkpt>
      <trkpt lat="44.00675" lon="6.66504">
        <ele>1236</ele>
        <time>2017-11-01T08:33:28Z</time>
      </trkpt>
      <trkpt lat="44.0067" lon="6.66505">
        <ele>1237</ele>
        <time>2017-11-01T08:33:29Z</time>
      </trkpt>
      <trkpt lat="44.00679" lon="6.66506">
        <ele>1238</ele>
        <time>2017-11-01T08:33:35Z</time>
      </trkpt>
      <trkpt lat="44.00682" lon="6.66512">
        <ele>1240</ele>
        <time>2017-11-01T08:33:40Z</time>
      </trkpt>
      <trkpt lat="44.00689" lon="6.66513">
        <ele>1241</ele>
        <time>2017-11-01T08:33:43Z</time>
      </trkpt>
      <trkpt lat="44.00694" lon="6.66513">
        <ele>1241</ele>
        <time>2017-11-01T08:33:44Z</time>
      </trkpt>
      <trkpt lat="44.00699" lon="6.66511">
        <ele>1242</ele>
        <time>2017-11-01T08:33:46Z</time>
      </trkpt>
      <trkpt lat="44.00705" lon="6.66514">
        <ele>1243</ele>
        <time>2017-11-01T08:33:49Z</time>
      </trkpt>
      <trkpt lat="44.00702" lon="6.66519">
        <ele>1243</ele>
        <time>2017-11-01T08:33:54Z</time>
      </trkpt>
      <trkpt lat="44.00705" lon="6.66514">
        <ele>1244</ele>
        <time>2017-11-01T08:33:55Z</time>
      </trkpt>
      <trkpt lat="44.00711" lon="6.66512">
        <ele>1244</ele>
        <time>2017-11-01T08:33:56Z</time>
      </trkpt>
      <trkpt lat="44.00705" lon="6.66516">
        <ele>1245</ele>
        <time>2017-11-01T08:33:57Z</time>
      </trkpt>
      <trkpt lat="44.00716" lon="6.66513">
        <ele>1245</ele>
        <time>2017-11-01T08:33:59Z</time>
      </trkpt>
      <trkpt lat="44.00721" lon="6.66512">
        <ele>1244</ele>
        <time>2017-11-01T08:34:00Z</time>
      </trkpt>
      <trkpt lat="44.00725" lon="6.66517">
        <ele>1243</ele>
        <time>2017-11-01T08:34:02Z</time>
      </trkpt>
      <trkpt lat="44.00729" lon="6.66524">
        <ele>1243</ele>
        <time>2017-11-01T08:34:06Z</time>
      </trkpt>
      <trkpt lat="44.00726" lon="6.66529">
        <ele>1242</ele>
        <time>2017-11-01T08:34:08Z</time>
      </trkpt>
      <trkpt lat="44.00732" lon="6.66531">
        <ele>1243</ele>
        <time>2017-11-01T08:34:10Z</time>
      </trkpt>
      <trkpt lat="44.0074" lon="6.66535">
        <ele>1244</ele>
        <time>2017-11-01T08:34:15Z</time>
      </trkpt>
      <trkpt lat="44.00745" lon="6.66532">
        <ele>1244</ele>
        <time>2017-11-01T08:34:17Z</time>
      </trkpt>
      <trkpt lat="44.00753" lon="6.66535">
        <ele>1245</ele>
        <time>2017-11-01T08:34:18Z</time>
      </trkpt>
      <trkpt lat="44.00759" lon="6.66533">
        <ele>1245</ele>
        <time>2017-11-01T08:34:19Z</time>
      </trkpt>
      <trkpt lat="44.00763" lon="6.66539">
        <ele>1246</ele>
        <time>2017-11-01T08:34:21Z</time>
      </trkpt>
      <trkpt lat="44.00771" lon="6.66538">
        <ele>1246</ele>
        <time>2017-11-01T08:34:24Z</time>
      </trkpt>
      <trkpt lat="44.00766" lon="6.66548">
        <ele>1246</ele>
        <time>2017-11-01T08:34:25Z</time>
      </trkpt>
      <trkpt lat="44.00774" lon="6.66553">
        <ele>1246</ele>
        <time>2017-11-01T08:34:27Z</time>
      </trkpt>
      <trkpt lat="44.00779" lon="6.66554">
        <ele>1245</ele>
        <time>2017-11-01T08:34:30Z</time>
      </trkpt>
      <trkpt lat="44.00777" lon="6.6656">
        <ele>1244</ele>
        <time>2017-11-01T08:34:31Z</time>
      </trkpt>
      <trkpt lat="44.0078" lon="6.66565">
        <ele>1243</ele>
        <time>2017-11-01T08:34:34Z</time>
      </trkpt>
      <trkpt lat="44.00782" lon="6.66571">
        <ele>1243</ele>
        <time>2017-11-01T08:34:36Z</time>
      </trkpt>
      <trkpt lat="44.00783" lon="6.6658">
        <ele>1244</ele>
        <time>2017-11-01T08:34:39Z</time>
      </trkpt>
      <trkpt lat="44.00785" lon="6.66587">
        <ele>1245</ele>
        <time>2017-11-01T08:34:42Z</time>
      </trkpt>
      <trkpt lat="44.00792" lon="6.6659">
        <ele>1247</ele>
        <time>2017-11-01T08:34:45Z</time>
      </trkpt>
      <trkpt lat="44.00801" lon="6.66587">
        <ele>1249</ele>
        <time>2017-11-01T08:34:47Z</time>
      </trkpt>
      <trkpt lat="44.00807" lon="6.66586">
        <ele>1251</ele>
        <time>2017-11-01T08:34:49Z</time>
      </trkpt>
      <trkpt lat="44.00811" lon="6.6658">
        <ele>1252</ele>
        <time>2017-11-01T08:34:51Z</time>
      </trkpt>
      <trkpt lat="44.00821" lon="6.66572">
        <ele>1253</ele>
        <time>2017-11-01T08:34:53Z</time>
      </trkpt>
      <trkpt lat="44.00823" lon="6.66567">
        <ele>1254</ele>
        <time>2017-11-01T08:34:55Z</time>
      </trkpt>
      <trkpt lat="44.00829" lon="6.66562">
        <ele>1255</ele>
        <time>2017-11-01T08:34:56Z</time>
      </trkpt>
      <trkpt lat="44.00841" lon="6.66561">
        <ele>1255</ele>
        <time>2017-11-01T08:34:58Z</time>
      </trkpt>
      <trkpt lat="44.00848" lon="6.66565">
        <ele>1255</ele>
        <time>2017-11-01T08:34:59Z</time>
      </trkpt>
      <trkpt lat="44.00854" lon="6.66562">
        <ele>1254</ele>
        <time>2017-11-01T08:35:00Z</time>
      </trkpt>
      <trkpt lat="44.00861" lon="6.66567">
        <ele>1254</ele>
        <time>2017-11-01T08:35:01Z</time>
      </trkpt>
      <trkpt lat="44.00865" lon="6.66561">
        <ele>1254</ele>
        <time>2017-11-01T08:35:04Z</time>
      </trkpt>
      <trkpt lat="44.00871" lon="6.66554">
        <ele>1253</ele>
        <time>2017-11-01T08:35:06Z</time>
      </trkpt>
      <trkpt lat="44.00877" lon="6.66556">
        <ele>1253</ele>
        <time>2017-11-01T08:35:07Z</time>
      </trkpt>
      <trkpt lat="44.00892" lon="6.66554">
        <ele>1253</ele>
        <time>2017-11-01T08:35:08Z</time>
      </trkpt>
      <trkpt lat="44.009" lon="6.66551">
        <ele>1253</ele>
        <time>2017-11-01T08:35:09Z</time>
      </trkpt>
      <trkpt lat="44.0091" lon="6.66545">
        <ele>1253</ele>
        <time>2017-11-01T08:35:11Z</time>
      </trkpt>
      <trkpt lat="44.00908" lon="6.6655">
        <ele>1252</ele>
        <time>2017-11-01T08:35:12Z</time>
      </trkpt>
      <trkpt lat="44.00914" lon="6.66547">
        <ele>1251</ele>
        <time>2017-11-01T08:35:14Z</time>
      </trkpt>
      <trkpt lat="44.00922" lon="6.66551">
        <ele>1251</ele>
        <time>2017-11-01T08:35:15Z</time>
      </trkpt>
      <trkpt lat="44.00935" lon="6.66552">
        <ele>1250</ele>
        <time>2017-11-01T08:35:17Z</time>
      </trkpt>
      <trkpt lat="44.0094" lon="6.66553">
        <ele>1249</ele>
        <time>2017-11-01T08:35:18Z</time>
      </trkpt>
      <trkpt lat="44.00945" lon="6.66554">
        <ele>1249</ele>
        <time>2017-11-01T08:35:19Z</time>
      </trkpt>
      <trkpt lat="44.00951" lon="6.66555">
        <ele>1248</ele>
        <time>2017-11-01T08:35:20Z</time>
      </trkpt>
      <trkpt lat="44.00955" lon="6.66558">
        <ele>1247</ele>
        <time>2017-11-01T08:35:21Z</time>
      </trkpt>
      <trkpt lat="44.00961" lon="6.66564">
        <ele>1247</ele>
        <time>2017-11-01T08:35:23Z</time>
      </trkpt>
      <trkpt lat="44.00971" lon="6.66565">
        <ele>1246</ele>
        <time>2017-11-01T08:35:24Z</time>
      </trkpt>
      <trkpt lat="44.00977" lon="6.66568">
        <ele>1247</ele>
        <time>2017-11-01T08:35:25Z</time>
      </trkpt>
      <trkpt lat="44.00982" lon="6.66571">
        <ele>1247</ele>
        <time>2017-11-01T08:35:26Z</time>
      </trkpt>
      <trkpt lat="44.00987" lon="6.66571">
        <ele>1246</ele>
        <time>2017-11-01T08:35:27Z</time>
      </trkpt>
      <trkpt lat="44.00993" lon="6.66573">
        <ele>1246</ele>
        <time>2017-11-01T08:35:28Z</time>
      </trkpt>
      <trkpt lat="44.00998" lon="6.66571">
        <ele>1245</ele>
        <time>2017-11-01T08:35:29Z</time>
      </trkpt>
      <trkpt lat="44.01006" lon="6.66572">
        <ele>1244</ele>
        <time>2017-11-01T08:35:31Z</time>
      </trkpt>
      <trkpt lat="44.01012" lon="6.66573">
        <ele>1243</ele>
        <time>2017-11-01T08:35:32Z</time>
      </trkpt>
      <trkpt lat="44.01017" lon="6.66573">
        <ele>1243</ele>
        <time>2017-11-01T08:35:33Z</time>
      </trkpt>
      <trkpt lat="44.01021" lon="6.66571">
        <ele>1244</ele>
        <time>2017-11-01T08:35:36Z</time>
      </trkpt>
      <trkpt lat="44.01027" lon="6.66569">
        <ele>1244</ele>
        <time>2017-11-01T08:35:39Z</time>
      </trkpt>
      <trkpt lat="44.01036" lon="6.66566">
        <ele>1245</ele>
        <time>2017-11-01T08:35:41Z</time>
      </trkpt>
      <trkpt lat="44.01042" lon="6.66563">
        <ele>1246</ele>
        <time>2017-11-01T08:35:42Z</time>
      </trkpt>
      <trkpt lat="44.01049" lon="6.66559">
        <ele>1247</ele>
        <time>2017-11-01T08:35:45Z</time>
      </trkpt>
      <trkpt lat="44.01055" lon="6.6656">
        <ele>1248</ele>
        <time>2017-11-01T08:35:47Z</time>
      </trkpt>
      <trkpt lat="44.01061" lon="6.66558">
        <ele>1248</ele>
        <time>2017-11-01T08:35:48Z</time>
      </trkpt>
      <trkpt lat="44.01066" lon="6.6656">
        <ele>1249</ele>
        <time>2017-11-01T08:35:49Z</time>
      </trkpt>
      <trkpt lat="44.0107" lon="6.66563">
        <ele>1250</ele>
        <time>2017-11-01T08:35:50Z</time>
      </trkpt>
      <trkpt lat="44.01075" lon="6.66555">
        <ele>1251</ele>
        <time>2017-11-01T08:35:55Z</time>
      </trkpt>
      <trkpt lat="44.0108" lon="6.66549">
        <ele>1251</ele>
        <time>2017-11-01T08:35:57Z</time>
      </trkpt>
      <trkpt lat="44.01085" lon="6.66545">
        <ele>1252</ele>
        <time>2017-11-01T08:35:58Z</time>
      </trkpt>
      <trkpt lat="44.01078" lon="6.66541">
        <ele>1252</ele>
        <time>2017-11-01T08:36:01Z</time>
      </trkpt>
      <trkpt lat="44.01083" lon="6.66536">
        <ele>1252</ele>
        <time>2017-11-01T08:36:02Z</time>
      </trkpt>
      <trkpt lat="44.01086" lon="6.66529">
        <ele>1251</ele>
        <time>2017-11-01T08:36:04Z</time>
      </trkpt>
      <trkpt lat="44.011" lon="6.66518">
        <ele>1251</ele>
        <time>2017-11-01T08:36:06Z</time>
      </trkpt>
      <trkpt lat="44.01089" lon="6.66532">
        <ele>1250</ele>
        <time>2017-11-01T08:36:07Z</time>
      </trkpt>
      <trkpt lat="44.01074" lon="6.66532">
        <ele>1249</ele>
        <time>2017-11-01T08:36:08Z</time>
      </trkpt>
      <trkpt lat="44.0108" lon="6.6652">
        <ele>1249</ele>
        <time>2017-11-01T08:36:09Z</time>
      </trkpt>
      <trkpt lat="44.01089" lon="6.66528">
        <ele>1248</ele>
        <time>2017-11-01T08:36:11Z</time>
      </trkpt>
      <trkpt lat="44.01093" lon="6.66522">
        <ele>1248</ele>
        <time>2017-11-01T08:36:14Z</time>
      </trkpt>
      <trkpt lat="44.01099" lon="6.66522">
        <ele>1248</ele>
        <time>2017-11-01T08:36:16Z</time>
      </trkpt>
      <trkpt lat="44.0111" lon="6.66517">
        <ele>1249</ele>
        <time>2017-11-01T08:36:18Z</time>
      </trkpt>
      <trkpt lat="44.01115" lon="6.66511">
        <ele>1251</ele>
        <time>2017-11-01T08:36:19Z</time>
      </trkpt>
      <trkpt lat="44.01106" lon="6.66514">
        <ele>1251</ele>
        <time>2017-11-01T08:36:20Z</time>
      </trkpt>
      <trkpt lat="44.01112" lon="6.66518">
        <ele>1252</ele>
        <time>2017-11-01T08:36:21Z</time>
      </trkpt>
      <trkpt lat="44.01119" lon="6.66519">
        <ele>1253</ele>
        <time>2017-11-01T08:36:23Z</time>
      </trkpt>
      <trkpt lat="44.01125" lon="6.66517">
        <ele>1254</ele>
        <time>2017-11-01T08:36:25Z</time>
      </trkpt>
      <trkpt lat="44.01127" lon="6.66523">
        <ele>1255</ele>
        <time>2017-11-01T08:36:31Z</time>
      </trkpt>
      <trkpt lat="44.01129" lon="6.66516">
        <ele>1256</ele>
        <time>2017-11-01T08:36:35Z</time>
      </trkpt>
      <trkpt lat="44.01128" lon="6.66525">
        <ele>1258</ele>
        <time>2017-11-01T08:36:36Z</time>
      </trkpt>
      <trkpt lat="44.01128" lon="6.66534">
        <ele>1258</ele>
        <time>2017-11-01T08:36:40Z</time>
      </trkpt>
      <trkpt lat="44.01135" lon="6.66537">
        <ele>1259</ele>
        <time>2017-11-01T08:36:43Z</time>
      </trkpt>
      <trkpt lat="44.0114" lon="6.66543">
        <ele>1260</ele>
        <time>2017-11-01T08:36:46Z</time>
      </trkpt>
      <trkpt lat="44.01138" lon="6.66552">
        <ele>1259</ele>
        <time>2017-11-01T08:36:49Z</time>
      </trkpt>
      <trkpt lat="44.01132" lon="6.66555">
        <ele>1259</ele>
        <time>2017-11-01T08:36:51Z</time>
      </trkpt>
      <trkpt lat="44.0113" lon="6.66562">
        <ele>1258</ele>
        <time>2017-11-01T08:36:53Z</time>
      </trkpt>
      <trkpt lat="44.0113" lon="6.66569">
        <ele>1257</ele>
        <time>2017-11-01T08:36:56Z</time>
      </trkpt>
      <trkpt lat="44.0113" lon="6.66576">
        <ele>1256</ele>
        <time>2017-11-01T08:37:02Z</time>
      </trkpt>
      <trkpt lat="44.01126" lon="6.6658">
        <ele>1256</ele>
        <time>2017-11-01T08:37:07Z</time>
      </trkpt>
      <trkpt lat="44.01121" lon="6.66583">
        <ele>1257</ele>
        <time>2017-11-01T08:37:10Z</time>
      </trkpt>
      <trkpt lat="44.01119" lon="6.66589">
        <ele>1258</ele>
        <time>2017-11-01T08:37:13Z</time>
      </trkpt>
      <trkpt lat="44.01114" lon="6.66595">
        <ele>1259</ele>
        <time>2017-11-01T08:37:15Z</time>
      </trkpt>
      <trkpt lat="44.01112" lon="6.66602">
        <ele>1260</ele>
        <time>2017-11-01T08:37:18Z</time>
      </trkpt>
      <trkpt lat="44.01109" lon="6.6661">
        <ele>1261</ele>
        <time>2017-11-01T08:37:21Z</time>
      </trkpt>
      <trkpt lat="44.01105" lon="6.66618">
        <ele>1262</ele>
        <time>2017-11-01T08:37:29Z</time>
      </trkpt>
      <trkpt lat="44.01102" lon="6.66628">
        <ele>1264</ele>
        <time>2017-11-01T08:37:32Z</time>
      </trkpt>
      <trkpt lat="44.01103" lon="6.66636">
        <ele>1265</ele>
        <time>2017-11-01T08:37:34Z</time>
      </trkpt>
      <trkpt lat="44.01099" lon="6.66632">
        <ele>1266</ele>
        <time>2017-11-01T08:37:37Z</time>
      </trkpt>
      <trkpt lat="44.01099" lon="6.66641">
        <ele>1268</ele>
        <time>2017-11-01T08:37:41Z</time>
      </trkpt>
      <trkpt lat="44.01097" lon="6.66646">
        <ele>1269</ele>
        <time>2017-11-01T08:37:44Z</time>
      </trkpt>
      <trkpt lat="44.01091" lon="6.66649">
        <ele>1270</ele>
        <time>2017-11-01T08:37:46Z</time>
      </trkpt>
      <trkpt lat="44.0109" lon="6.66657">
        <ele>1269</ele>
        <time>2017-11-01T08:37:50Z</time>
      </trkpt>
      <trkpt lat="44.01088" lon="6.66665">
        <ele>1270</ele>
        <time>2017-11-01T08:37:52Z</time>
      </trkpt>
      <trkpt lat="44.01083" lon="6.66664">
        <ele>1270</ele>
        <time>2017-11-01T08:38:01Z</time>
      </trkpt>
      <trkpt lat="44.01078" lon="6.66668">
        <ele>1270</ele>
        <time>2017-11-01T08:38:04Z</time>
      </trkpt>
      <trkpt lat="44.01072" lon="6.66671">
        <ele>1272</ele>
        <time>2017-11-01T08:38:07Z</time>
      </trkpt>
      <trkpt lat="44.01067" lon="6.66673">
        <ele>1273</ele>
        <time>2017-11-01T08:38:12Z</time>
      </trkpt>
      <trkpt lat="44.01062" lon="6.66674">
        <ele>1274</ele>
        <time>2017-11-01T08:38:14Z</time>
      </trkpt>
      <trkpt lat="44.01057" lon="6.66678">
        <ele>1274</ele>
        <time>2017-11-01T08:38:17Z</time>
      </trkpt>
      <trkpt lat="44.01051" lon="6.66679">
        <ele>1274</ele>
        <time>2017-11-01T08:38:20Z</time>
      </trkpt>
      <trkpt lat="44.01048" lon="6.66683">
        <ele>1274</ele>
        <time>2017-11-01T08:38:23Z</time>
      </trkpt>
      <trkpt lat="44.01043" lon="6.66686">
        <ele>1274</ele>
        <time>2017-11-01T08:38:25Z</time>
      </trkpt>
      <trkpt lat="44.01037" lon="6.66689">
        <ele>1273</ele>
        <time>2017-11-01T08:38:28Z</time>
      </trkpt>
      <trkpt lat="44.01033" lon="6.6669">
        <ele>1274</ele>
        <time>2017-11-01T08:38:31Z</time>
      </trkpt>
      <trkpt lat="44.01028" lon="6.66694">
        <ele>1274</ele>
        <time>2017-11-01T08:38:35Z</time>
      </trkpt>
      <trkpt lat="44.01029" lon="6.66702">
        <ele>1275</ele>
        <time>2017-11-01T08:38:40Z</time>
      </trkpt>
      <trkpt lat="44.01025" lon="6.66707">
        <ele>1274</ele>
        <time>2017-11-01T08:38:45Z</time>
      </trkpt>
      <trkpt lat="44.01022" lon="6.66714">
        <ele>1273</ele>
        <time>2017-11-01T08:38:48Z</time>
      </trkpt>
      <trkpt lat="44.01023" lon="6.66721">
        <ele>1273</ele>
        <time>2017-11-01T08:38:54Z</time>
      </trkpt>
      <trkpt lat="44.01025" lon="6.66726">
        <ele>1272</ele>
        <time>2017-11-01T08:38:56Z</time>
      </trkpt>
      <trkpt lat="44.01028" lon="6.66733">
        <ele>1272</ele>
        <time>2017-11-01T08:39:00Z</time>
      </trkpt>
      <trkpt lat="44.01026" lon="6.66743">
        <ele>1272</ele>
        <time>2017-11-01T08:39:03Z</time>
      </trkpt>
      <trkpt lat="44.01032" lon="6.66743">
        <ele>1272</ele>
        <time>2017-11-01T08:39:06Z</time>
      </trkpt>
      <trkpt lat="44.01033" lon="6.66752">
        <ele>1273</ele>
        <time>2017-11-01T08:39:08Z</time>
      </trkpt>
      <trkpt lat="44.01033" lon="6.66761">
        <ele>1274</ele>
        <time>2017-11-01T08:39:13Z</time>
      </trkpt>
      <trkpt lat="44.01032" lon="6.66768">
        <ele>1275</ele>
        <time>2017-11-01T08:39:17Z</time>
      </trkpt>
      <trkpt lat="44.01034" lon="6.66774">
        <ele>1276</ele>
        <time>2017-11-01T08:39:19Z</time>
      </trkpt>
      <trkpt lat="44.01034" lon="6.66781">
        <ele>1278</ele>
        <time>2017-11-01T08:39:24Z</time>
      </trkpt>
      <trkpt lat="44.01036" lon="6.66787">
        <ele>1280</ele>
        <time>2017-11-01T08:39:28Z</time>
      </trkpt>
      <trkpt lat="44.01037" lon="6.66793">
        <ele>1281</ele>
        <time>2017-11-01T08:39:32Z</time>
      </trkpt>
      <trkpt lat="44.01041" lon="6.66797">
        <ele>1282</ele>
        <time>2017-11-01T08:39:36Z</time>
      </trkpt>
      <trkpt lat="44.01045" lon="6.66804">
        <ele>1283</ele>
        <time>2017-11-01T08:39:41Z</time>
      </trkpt>
      <trkpt lat="44.01048" lon="6.66809">
        <ele>1284</ele>
        <time>2017-11-01T08:39:42Z</time>
      </trkpt>
      <trkpt lat="44.01051" lon="6.66815">
        <ele>1284</ele>
        <time>2017-11-01T08:39:46Z</time>
      </trkpt>
      <trkpt lat="44.01051" lon="6.66823">
        <ele>1285</ele>
        <time>2017-11-01T08:39:50Z</time>
      </trkpt>
      <trkpt lat="44.01047" lon="6.66829">
        <ele>1286</ele>
        <time>2017-11-01T08:39:54Z</time>
      </trkpt>
      <trkpt lat="44.01043" lon="6.66833">
        <ele>1288</ele>
        <time>2017-11-01T08:40:00Z</time>
      </trkpt>
      <trkpt lat="44.01038" lon="6.66833">
        <ele>1289</ele>
        <time>2017-11-01T08:40:03Z</time>
      </trkpt>
      <trkpt lat="44.01033" lon="6.66828">
        <ele>1291</ele>
        <time>2017-11-01T08:40:07Z</time>
      </trkpt>
      <trkpt lat="44.01028" lon="6.66827">
        <ele>1292</ele>
        <time>2017-11-01T08:40:10Z</time>
      </trkpt>
      <trkpt lat="44.01024" lon="6.66828">
        <ele>1293</ele>
        <time>2017-11-01T08:40:13Z</time>
      </trkpt>
      <trkpt lat="44.01019" lon="6.66827">
        <ele>1293</ele>
        <time>2017-11-01T08:40:15Z</time>
      </trkpt>
      <trkpt lat="44.01014" lon="6.66827">
        <ele>1293</ele>
        <time>2017-11-01T08:40:20Z</time>
      </trkpt>
      <trkpt lat="44.01009" lon="6.66826">
        <ele>1292</ele>
        <time>2017-11-01T08:40:26Z</time>
      </trkpt>
      <trkpt lat="44.01004" lon="6.66826">
        <ele>1294</ele>
        <time>2017-11-01T08:40:30Z</time>
      </trkpt>
      <trkpt lat="44.00999" lon="6.66825">
        <ele>1294</ele>
        <time>2017-11-01T08:40:34Z</time>
      </trkpt>
      <trkpt lat="44.00994" lon="6.66822">
        <ele>1296</ele>
        <time>2017-11-01T08:40:39Z</time>
      </trkpt>
      <trkpt lat="44.00989" lon="6.66823">
        <ele>1298</ele>
        <time>2017-11-01T08:40:42Z</time>
      </trkpt>
      <trkpt lat="44.00983" lon="6.66824">
        <ele>1299</ele>
        <time>2017-11-01T08:40:46Z</time>
      </trkpt>
      <trkpt lat="44.00977" lon="6.66825">
        <ele>1300</ele>
        <time>2017-11-01T08:40:49Z</time>
      </trkpt>
      <trkpt lat="44.00973" lon="6.66829">
        <ele>1301</ele>
        <time>2017-11-01T08:40:52Z</time>
      </trkpt>
      <trkpt lat="44.00969" lon="6.66832">
        <ele>1302</ele>
        <time>2017-11-01T08:40:56Z</time>
      </trkpt>
      <trkpt lat="44.00964" lon="6.6683">
        <ele>1303</ele>
        <time>2017-11-01T08:40:59Z</time>
      </trkpt>
      <trkpt lat="44.00959" lon="6.66831">
        <ele>1305</ele>
        <time>2017-11-01T08:41:03Z</time>
      </trkpt>
      <trkpt lat="44.00954" lon="6.66832">
        <ele>1307</ele>
        <time>2017-11-01T08:41:07Z</time>
      </trkpt>
      <trkpt lat="44.00949" lon="6.66834">
        <ele>1308</ele>
        <time>2017-11-01T08:41:11Z</time>
      </trkpt>
      <trkpt lat="44.00944" lon="6.66833">
        <ele>1309</ele>
        <time>2017-11-01T08:41:13Z</time>
      </trkpt>
      <trkpt lat="44.00939" lon="6.66834">
        <ele>1310</ele>
        <time>2017-11-01T08:41:17Z</time>
      </trkpt>
      <trkpt lat="44.00936" lon="6.66839">
        <ele>1309</ele>
        <time>2017-11-01T08:41:23Z</time>
      </trkpt>
      <trkpt lat="44.00931" lon="6.66838">
        <ele>1308</ele>
        <time>2017-11-01T08:41:26Z</time>
      </trkpt>
      <trkpt lat="44.00925" lon="6.6684">
        <ele>1308</ele>
        <time>2017-11-01T08:41:29Z</time>
      </trkpt>
      <trkpt lat="44.00919" lon="6.66841">
        <ele>1307</ele>
        <time>2017-11-01T08:41:33Z</time>
      </trkpt>
      <trkpt lat="44.00915" lon="6.66841">
        <ele>1305</ele>
        <time>2017-11-01T08:41:35Z</time>
      </trkpt>
      <trkpt lat="44.00909" lon="6.66842">
        <ele>1305</ele>
        <time>2017-11-01T08:41:38Z</time>
      </trkpt>
      <trkpt lat="44.00904" lon="6.66841">
        <ele>1304</ele>
        <time>2017-11-01T08:41:40Z</time>
      </trkpt>
      <trkpt lat="44.00898" lon="6.6684">
        <ele>1304</ele>
        <time>2017-11-01T08:41:43Z</time>
      </trkpt>
      <trkpt lat="44.00893" lon="6.66843">
        <ele>1304</ele>
        <time>2017-11-01T08:41:45Z</time>
      </trkpt>
      <trkpt lat="44.00888" lon="6.66845">
        <ele>1305</ele>
        <time>2017-11-01T08:41:48Z</time>
      </trkpt>
      <trkpt lat="44.00889" lon="6.66853">
        <ele>1306</ele>
        <time>2017-11-01T08:41:54Z</time>
      </trkpt>
      <trkpt lat="44.00892" lon="6.66859">
        <ele>1307</ele>
        <time>2017-11-01T08:41:57Z</time>
      </trkpt>
      <trkpt lat="44.00898" lon="6.6686">
        <ele>1307</ele>
        <time>2017-11-01T08:42:02Z</time>
      </trkpt>
      <trkpt lat="44.00903" lon="6.66858">
        <ele>1308</ele>
        <time>2017-11-01T08:42:06Z</time>
      </trkpt>
      <trkpt lat="44.00908" lon="6.66856">
        <ele>1309</ele>
        <time>2017-11-01T08:42:09Z</time>
      </trkpt>
      <trkpt lat="44.00912" lon="6.66859">
        <ele>1310</ele>
        <time>2017-11-01T08:42:12Z</time>
      </trkpt>
      <trkpt lat="44.00912" lon="6.66867">
        <ele>1312</ele>
        <time>2017-11-01T08:42:16Z</time>
      </trkpt>
      <trkpt lat="44.00914" lon="6.66874">
        <ele>1313</ele>
        <time>2017-11-01T08:42:18Z</time>
      </trkpt>
      <trkpt lat="44.00911" lon="6.66879">
        <ele>1314</ele>
        <time>2017-11-01T08:42:21Z</time>
      </trkpt>
      <trkpt lat="44.00905" lon="6.66877">
        <ele>1314</ele>
        <time>2017-11-01T08:42:24Z</time>
      </trkpt>
      <trkpt lat="44.00899" lon="6.66877">
        <ele>1315</ele>
        <time>2017-11-01T08:42:28Z</time>
      </trkpt>
      <trkpt lat="44.00893" lon="6.66875">
        <ele>1314</ele>
        <time>2017-11-01T08:42:30Z</time>
      </trkpt>
      <trkpt lat="44.00888" lon="6.66876">
        <ele>1315</ele>
        <time>2017-11-01T08:42:33Z</time>
      </trkpt>
      <trkpt lat="44.00883" lon="6.66879">
        <ele>1315</ele>
        <time>2017-11-01T08:42:36Z</time>
      </trkpt>
      <trkpt lat="44.00876" lon="6.66881">
        <ele>1315</ele>
        <time>2017-11-01T08:42:40Z</time>
      </trkpt>
      <trkpt lat="44.00872" lon="6.66886">
        <ele>1315</ele>
        <time>2017-11-01T08:42:44Z</time>
      </trkpt>
      <trkpt lat="44.00868" lon="6.66891">
        <ele>1316</ele>
        <time>2017-11-01T08:42:47Z</time>
      </trkpt>
      <trkpt lat="44.00863" lon="6.66894">
        <ele>1317</ele>
        <time>2017-11-01T08:42:50Z</time>
      </trkpt>
      <trkpt lat="44.00861" lon="6.66901">
        <ele>1318</ele>
        <time>2017-11-01T08:42:53Z</time>
      </trkpt>
      <trkpt lat="44.00857" lon="6.66904">
        <ele>1318</ele>
        <time>2017-11-01T08:42:54Z</time>
      </trkpt>
      <trkpt lat="44.00854" lon="6.66909">
        <ele>1319</ele>
        <time>2017-11-01T08:42:56Z</time>
      </trkpt>
      <trkpt lat="44.00848" lon="6.66909">
        <ele>1319</ele>
        <time>2017-11-01T08:42:59Z</time>
      </trkpt>
      <trkpt lat="44.00844" lon="6.66904">
        <ele>1319</ele>
        <time>2017-11-01T08:43:00Z</time>
      </trkpt>
      <trkpt lat="44.0084" lon="6.66902">
        <ele>1319</ele>
        <time>2017-11-01T08:43:03Z</time>
      </trkpt>
      <trkpt lat="44.00841" lon="6.66909">
        <ele>1319</ele>
        <time>2017-11-01T08:43:04Z</time>
      </trkpt>
      <trkpt lat="44.00836" lon="6.66912">
        <ele>1320</ele>
        <time>2017-11-01T08:43:10Z</time>
      </trkpt>
      <trkpt lat="44.00834" lon="6.66917">
        <ele>1320</ele>
        <time>2017-11-01T08:43:14Z</time>
      </trkpt>
      <trkpt lat="44.00829" lon="6.66918">
        <ele>1320</ele>
        <time>2017-11-01T08:43:18Z</time>
      </trkpt>
      <trkpt lat="44.00824" lon="6.6692">
        <ele>1319</ele>
        <time>2017-11-01T08:43:22Z</time>
      </trkpt>
      <trkpt lat="44.00819" lon="6.6692">
        <ele>1319</ele>
        <time>2017-11-01T08:43:26Z</time>
      </trkpt>
      <trkpt lat="44.00814" lon="6.66926">
        <ele>1319</ele>
        <time>2017-11-01T08:43:30Z</time>
      </trkpt>
      <trkpt lat="44.0081" lon="6.66929">
        <ele>1319</ele>
        <time>2017-11-01T08:43:34Z</time>
      </trkpt>
      <trkpt lat="44.00805" lon="6.66934">
        <ele>1319</ele>
        <time>2017-11-01T08:43:38Z</time>
      </trkpt>
      <trkpt lat="44.00801" lon="6.66938">
        <ele>1320</ele>
        <time>2017-11-01T08:43:43Z</time>
      </trkpt>
      <trkpt lat="44.00795" lon="6.66941">
        <ele>1320</ele>
        <time>2017-11-01T08:43:46Z</time>
      </trkpt>
      <trkpt lat="44.0079" lon="6.66941">
        <ele>1320</ele>
        <time>2017-11-01T08:43:48Z</time>
      </trkpt>
      <trkpt lat="44.00785" lon="6.66944">
        <ele>1321</ele>
        <time>2017-11-01T08:43:52Z</time>
      </trkpt>
      <trkpt lat="44.00782" lon="6.6695">
        <ele>1321</ele>
        <time>2017-11-01T08:43:56Z</time>
      </trkpt>
      <trkpt lat="44.00778" lon="6.66952">
        <ele>1323</ele>
        <time>2017-11-01T08:44:00Z</time>
      </trkpt>
      <trkpt lat="44.00773" lon="6.66954">
        <ele>1324</ele>
        <time>2017-11-01T08:44:02Z</time>
      </trkpt>
      <trkpt lat="44.00769" lon="6.66959">
        <ele>1325</ele>
        <time>2017-11-01T08:44:05Z</time>
      </trkpt>
      <trkpt lat="44.00764" lon="6.66963">
        <ele>1326</ele>
        <time>2017-11-01T08:44:10Z</time>
      </trkpt>
      <trkpt lat="44.0076" lon="6.66966">
        <ele>1327</ele>
        <time>2017-11-01T08:44:12Z</time>
      </trkpt>
      <trkpt lat="44.00755" lon="6.66968">
        <ele>1327</ele>
        <time>2017-11-01T08:44:14Z</time>
      </trkpt>
      <trkpt lat="44.00749" lon="6.66966">
        <ele>1328</ele>
        <time>2017-11-01T08:44:16Z</time>
      </trkpt>
      <trkpt lat="44.00746" lon="6.66973">
        <ele>1329</ele>
        <time>2017-11-01T08:44:19Z</time>
      </trkpt>
      <trkpt lat="44.00741" lon="6.66974">
        <ele>1329</ele>
        <time>2017-11-01T08:44:22Z</time>
      </trkpt>
      <trkpt lat="44.00736" lon="6.66978">
        <ele>1329</ele>
        <time>2017-11-01T08:44:26Z</time>
      </trkpt>
      <trkpt lat="44.00732" lon="6.66982">
        <ele>1328</ele>
        <time>2017-11-01T08:44:30Z</time>
      </trkpt>
      <trkpt lat="44.00726" lon="6.66983">
        <ele>1328</ele>
        <time>2017-11-01T08:44:33Z</time>
      </trkpt>
      <trkpt lat="44.00721" lon="6.66985">
        <ele>1328</ele>
        <time>2017-11-01T08:44:37Z</time>
      </trkpt>
      <trkpt lat="44.00718" lon="6.66991">
        <ele>1328</ele>
        <time>2017-11-01T08:44:40Z</time>
      </trkpt>
      <trkpt lat="44.00712" lon="6.66991">
        <ele>1328</ele>
        <time>2017-11-01T08:44:43Z</time>
      </trkpt>
      <trkpt lat="44.00708" lon="6.66994">
        <ele>1327</ele>
        <time>2017-11-01T08:44:46Z</time>
      </trkpt>
      <trkpt lat="44.00702" lon="6.66996">
        <ele>1327</ele>
        <time>2017-11-01T08:44:49Z</time>
      </trkpt>
      <trkpt lat="44.00697" lon="6.66994">
        <ele>1327</ele>
        <time>2017-11-01T08:44:51Z</time>
      </trkpt>
      <trkpt lat="44.00689" lon="6.66994">
        <ele>1328</ele>
        <time>2017-11-01T08:44:54Z</time>
      </trkpt>
      <trkpt lat="44.00684" lon="6.66991">
        <ele>1329</ele>
        <time>2017-11-01T08:44:58Z</time>
      </trkpt>
      <trkpt lat="44.0068" lon="6.66994">
        <ele>1329</ele>
        <time>2017-11-01T08:45:01Z</time>
      </trkpt>
      <trkpt lat="44.00675" lon="6.66994">
        <ele>1331</ele>
        <time>2017-11-01T08:45:04Z</time>
      </trkpt>
      <trkpt lat="44.00671" lon="6.66999">
        <ele>1332</ele>
        <time>2017-11-01T08:45:07Z</time>
      </trkpt>
      <trkpt lat="44.00667" lon="6.67004">
        <ele>1332</ele>
        <time>2017-11-01T08:45:10Z</time>
      </trkpt>
      <trkpt lat="44.00663" lon="6.6701">
        <ele>1333</ele>
        <time>2017-11-01T08:45:13Z</time>
      </trkpt>
      <trkpt lat="44.00658" lon="6.67015">
        <ele>1334</ele>
        <time>2017-11-01T08:45:16Z</time>
      </trkpt>
      <trkpt lat="44.00655" lon="6.67019">
        <ele>1334</ele>
        <time>2017-11-01T08:45:18Z</time>
      </trkpt>
      <trkpt lat="44.00649" lon="6.67021">
        <ele>1335</ele>
        <time>2017-11-01T08:45:21Z</time>
      </trkpt>
      <trkpt lat="44.00646" lon="6.67027">
        <ele>1335</ele>
        <time>2017-11-01T08:45:25Z</time>
      </trkpt>
      <trkpt lat="44.00642" lon="6.6703">
        <ele>1336</ele>
        <time>2017-11-01T08:45:28Z</time>
      </trkpt>
      <trkpt lat="44.00637" lon="6.67035">
        <ele>1336</ele>
        <time>2017-11-01T08:45:31Z</time>
      </trkpt>
      <trkpt lat="44.00635" lon="6.67042">
        <ele>1337</ele>
        <time>2017-11-01T08:45:34Z</time>
      </trkpt>
      <trkpt lat="44.00631" lon="6.67046">
        <ele>1337</ele>
        <time>2017-11-01T08:45:37Z</time>
      </trkpt>
      <trkpt lat="44.00629" lon="6.67054">
        <ele>1336</ele>
        <time>2017-11-01T08:45:41Z</time>
      </trkpt>
      <trkpt lat="44.00629" lon="6.67063">
        <ele>1336</ele>
        <time>2017-11-01T08:45:45Z</time>
      </trkpt>
      <trkpt lat="44.00628" lon="6.67071">
        <ele>1336</ele>
        <time>2017-11-01T08:45:49Z</time>
      </trkpt>
      <trkpt lat="44.00629" lon="6.67079">
        <ele>1336</ele>
        <time>2017-11-01T08:45:53Z</time>
      </trkpt>
      <trkpt lat="44.00628" lon="6.67085">
        <ele>1336</ele>
        <time>2017-11-01T08:45:57Z</time>
      </trkpt>
      <trkpt lat="44.00629" lon="6.67091">
        <ele>1336</ele>
        <time>2017-11-01T08:46:00Z</time>
      </trkpt>
      <trkpt lat="44.00631" lon="6.67097">
        <ele>1337</ele>
        <time>2017-11-01T08:46:05Z</time>
      </trkpt>
      <trkpt lat="44.00635" lon="6.67101">
        <ele>1338</ele>
        <time>2017-11-01T08:46:07Z</time>
      </trkpt>
      <trkpt lat="44.00642" lon="6.67106">
        <ele>1338</ele>
        <time>2017-11-01T08:46:10Z</time>
      </trkpt>
      <trkpt lat="44.0065" lon="6.67106">
        <ele>1339</ele>
        <time>2017-11-01T08:46:13Z</time>
      </trkpt>
      <trkpt lat="44.00651" lon="6.67098">
        <ele>1339</ele>
        <time>2017-11-01T08:46:15Z</time>
      </trkpt>
      <trkpt lat="44.00656" lon="6.67097">
        <ele>1339</ele>
        <time>2017-11-01T08:46:17Z</time>
      </trkpt>
      <trkpt lat="44.00659" lon="6.67089">
        <ele>1340</ele>
        <time>2017-11-01T08:46:19Z</time>
      </trkpt>
      <trkpt lat="44.0065" lon="6.67088">
        <ele>1340</ele>
        <time>2017-11-01T08:46:20Z</time>
      </trkpt>
      <trkpt lat="44.00645" lon="6.67085">
        <ele>1340</ele>
        <time>2017-11-01T08:46:21Z</time>
      </trkpt>
      <trkpt lat="44.00649" lon="6.6708">
        <ele>1340</ele>
        <time>2017-11-01T08:46:22Z</time>
      </trkpt>
      <trkpt lat="44.00653" lon="6.67084">
        <ele>1341</ele>
        <time>2017-11-01T08:46:24Z</time>
      </trkpt>
      <trkpt lat="44.00649" lon="6.6707">
        <ele>1341</ele>
        <time>2017-11-01T08:46:26Z</time>
      </trkpt>
      <trkpt lat="44.00655" lon="6.6707">
        <ele>1341</ele>
        <time>2017-11-01T08:46:29Z</time>
      </trkpt>
      <trkpt lat="44.00663" lon="6.67079">
        <ele>1341</ele>
        <time>2017-11-01T08:46:30Z</time>
      </trkpt>
      <trkpt lat="44.00666" lon="6.67072">
        <ele>1342</ele>
        <time>2017-11-01T08:46:31Z</time>
      </trkpt>
      <trkpt lat="44.0067" lon="6.67079">
        <ele>1342</ele>
        <time>2017-11-01T08:46:32Z</time>
      </trkpt>
      <trkpt lat="44.00676" lon="6.67071">
        <ele>1342</ele>
        <time>2017-11-01T08:46:37Z</time>
      </trkpt>
      <trkpt lat="44.00678" lon="6.67063">
        <ele>1343</ele>
        <time>2017-11-01T08:46:39Z</time>
      </trkpt>
      <trkpt lat="44.00678" lon="6.67055">
        <ele>1343</ele>
        <time>2017-11-01T08:46:41Z</time>
      </trkpt>
      <trkpt lat="44.00681" lon="6.6705">
        <ele>1343</ele>
        <time>2017-11-01T08:46:47Z</time>
      </trkpt>
      <trkpt lat="44.00686" lon="6.67047">
        <ele>1343</ele>
        <time>2017-11-01T08:46:48Z</time>
      </trkpt>
      <trkpt lat="44.0069" lon="6.67049">
        <ele>1343</ele>
        <time>2017-11-01T08:46:54Z</time>
      </trkpt>
      <trkpt lat="44.00698" lon="6.67046">
        <ele>1343</ele>
        <time>2017-11-01T08:47:02Z</time>
      </trkpt>
      <trkpt lat="44.00704" lon="6.67043">
        <ele>1344</ele>
        <time>2017-11-01T08:47:04Z</time>
      </trkpt>
      <trkpt lat="44.00709" lon="6.67041">
        <ele>1344</ele>
        <time>2017-11-01T08:47:07Z</time>
      </trkpt>
      <trkpt lat="44.00715" lon="6.67036">
        <ele>1345</ele>
        <time>2017-11-01T08:47:14Z</time>
      </trkpt>
      <trkpt lat="44.0072" lon="6.67034">
        <ele>1345</ele>
        <time>2017-11-01T08:47:16Z</time>
      </trkpt>
      <trkpt lat="44.00724" lon="6.67031">
        <ele>1345</ele>
        <time>2017-11-01T08:47:17Z</time>
      </trkpt>
      <trkpt lat="44.00729" lon="6.67028">
        <ele>1345</ele>
        <time>2017-11-01T08:47:21Z</time>
      </trkpt>
      <trkpt lat="44.00734" lon="6.67029">
        <ele>1345</ele>
        <time>2017-11-01T08:47:22Z</time>
      </trkpt>
      <trkpt lat="44.0074" lon="6.67026">
        <ele>1346</ele>
        <time>2017-11-01T08:47:25Z</time>
      </trkpt>
      <trkpt lat="44.0074" lon="6.67033">
        <ele>1347</ele>
        <time>2017-11-01T08:47:29Z</time>
      </trkpt>
      <trkpt lat="44.00739" lon="6.67042">
        <ele>1348</ele>
        <time>2017-11-01T08:47:32Z</time>
      </trkpt>
      <trkpt lat="44.00736" lon="6.67046">
        <ele>1349</ele>
        <time>2017-11-01T08:47:34Z</time>
      </trkpt>
      <trkpt lat="44.00734" lon="6.67052">
        <ele>1350</ele>
        <time>2017-11-01T08:47:37Z</time>
      </trkpt>
      <trkpt lat="44.00731" lon="6.67056">
        <ele>1351</ele>
        <time>2017-11-01T08:47:41Z</time>
      </trkpt>
      <trkpt lat="44.00725" lon="6.67061">
        <ele>1351</ele>
        <time>2017-11-01T08:47:44Z</time>
      </trkpt>
      <trkpt lat="44.0072" lon="6.67061">
        <ele>1352</ele>
        <time>2017-11-01T08:47:46Z</time>
      </trkpt>
      <trkpt lat="44.00715" lon="6.67065">
        <ele>1353</ele>
        <time>2017-11-01T08:47:49Z</time>
      </trkpt>
      <trkpt lat="44.00713" lon="6.67073">
        <ele>1355</ele>
        <time>2017-11-01T08:47:52Z</time>
      </trkpt>
      <trkpt lat="44.00711" lon="6.6708">
        <ele>1356</ele>
        <time>2017-11-01T08:47:56Z</time>
      </trkpt>
      <trkpt lat="44.00711" lon="6.67086">
        <ele>1358</ele>
        <time>2017-11-01T08:47:58Z</time>
      </trkpt>
      <trkpt lat="44.00711" lon="6.67096">
        <ele>1359</ele>
        <time>2017-11-01T08:48:01Z</time>
      </trkpt>
      <trkpt lat="44.0071" lon="6.67105">
        <ele>1360</ele>
        <time>2017-11-01T08:48:06Z</time>
      </trkpt>
      <trkpt lat="44.0071" lon="6.67113">
        <ele>1359</ele>
        <time>2017-11-01T08:48:09Z</time>
      </trkpt>
      <trkpt lat="44.00711" lon="6.67121">
        <ele>1359</ele>
        <time>2017-11-01T08:48:14Z</time>
      </trkpt>
      <trkpt lat="44.00707" lon="6.67126">
        <ele>1358</ele>
        <time>2017-11-01T08:48:18Z</time>
      </trkpt>
      <trkpt lat="44.00709" lon="6.67133">
        <ele>1358</ele>
        <time>2017-11-01T08:48:20Z</time>
      </trkpt>
      <trkpt lat="44.00708" lon="6.6714">
        <ele>1357</ele>
        <time>2017-11-01T08:48:24Z</time>
      </trkpt>
      <trkpt lat="44.00709" lon="6.67146">
        <ele>1357</ele>
        <time>2017-11-01T08:48:27Z</time>
      </trkpt>
      <trkpt lat="44.0071" lon="6.67154">
        <ele>1357</ele>
        <time>2017-11-01T08:48:31Z</time>
      </trkpt>
      <trkpt lat="44.00714" lon="6.67163">
        <ele>1358</ele>
        <time>2017-11-01T08:48:35Z</time>
      </trkpt>
      <trkpt lat="44.00714" lon="6.67169">
        <ele>1358</ele>
        <time>2017-11-01T08:48:40Z</time>
      </trkpt>
      <trkpt lat="44.00716" lon="6.67176">
        <ele>1358</ele>
        <time>2017-11-01T08:48:43Z</time>
      </trkpt>
      <trkpt lat="44.0072" lon="6.67183">
        <ele>1358</ele>
        <time>2017-11-01T08:48:46Z</time>
      </trkpt>
      <trkpt lat="44.00719" lon="6.6719">
        <ele>1358</ele>
        <time>2017-11-01T08:48:48Z</time>
      </trkpt>
      <trkpt lat="44.00714" lon="6.67194">
        <ele>1359</ele>
        <time>2017-11-01T08:48:51Z</time>
      </trkpt>
      <trkpt lat="44.00714" lon="6.67203">
        <ele>1360</ele>
        <time>2017-11-01T08:48:54Z</time>
      </trkpt>
      <trkpt lat="44.00709" lon="6.67205">
        <ele>1361</ele>
        <time>2017-11-01T08:48:57Z</time>
      </trkpt>
      <trkpt lat="44.0071" lon="6.67211">
        <ele>1361</ele>
        <time>2017-11-01T08:48:59Z</time>
      </trkpt>
      <trkpt lat="44.00708" lon="6.67217">
        <ele>1362</ele>
        <time>2017-11-01T08:49:03Z</time>
      </trkpt>
      <trkpt lat="44.00703" lon="6.67219">
        <ele>1363</ele>
        <time>2017-11-01T08:49:05Z</time>
      </trkpt>
      <trkpt lat="44.00701" lon="6.67225">
        <ele>1364</ele>
        <time>2017-11-01T08:49:09Z</time>
      </trkpt>
      <trkpt lat="44.00697" lon="6.67229">
        <ele>1364</ele>
        <time>2017-11-01T08:49:12Z</time>
      </trkpt>
      <trkpt lat="44.00694" lon="6.67235">
        <ele>1365</ele>
        <time>2017-11-01T08:49:15Z</time>
      </trkpt>
      <trkpt lat="44.00694" lon="6.67241">
        <ele>1365</ele>
        <time>2017-11-01T08:49:18Z</time>
      </trkpt>
      <trkpt lat="44.00688" lon="6.67245">
        <ele>1365</ele>
        <time>2017-11-01T08:49:23Z</time>
      </trkpt>
      <trkpt lat="44.00683" lon="6.67244">
        <ele>1365</ele>
        <time>2017-11-01T08:49:25Z</time>
      </trkpt>
      <trkpt lat="44.00678" lon="6.67246">
        <ele>1365</ele>
        <time>2017-11-01T08:49:29Z</time>
      </trkpt>
      <trkpt lat="44.00674" lon="6.67252">
        <ele>1365</ele>
        <time>2017-11-01T08:49:33Z</time>
      </trkpt>
      <trkpt lat="44.00669" lon="6.67254">
        <ele>1365</ele>
        <time>2017-11-01T08:49:35Z</time>
      </trkpt>
      <trkpt lat="44.00666" lon="6.6726">
        <ele>1366</ele>
        <time>2017-11-01T08:49:38Z</time>
      </trkpt>
      <trkpt lat="44.00662" lon="6.67265">
        <ele>1366</ele>
        <time>2017-11-01T08:49:42Z</time>
      </trkpt>
      <trkpt lat="44.00661" lon="6.67271">
        <ele>1367</ele>
        <time>2017-11-01T08:49:45Z</time>
      </trkpt>
      <trkpt lat="44.00659" lon="6.67278">
        <ele>1369</ele>
        <time>2017-11-01T08:49:48Z</time>
      </trkpt>
      <trkpt lat="44.00659" lon="6.67285">
        <ele>1370</ele>
        <time>2017-11-01T08:49:52Z</time>
      </trkpt>
      <trkpt lat="44.0066" lon="6.67292">
        <ele>1371</ele>
        <time>2017-11-01T08:49:55Z</time>
      </trkpt>
      <trkpt lat="44.00659" lon="6.673">
        <ele>1372</ele>
        <time>2017-11-01T08:49:59Z</time>
      </trkpt>
      <trkpt lat="44.00659" lon="6.67307">
        <ele>1372</ele>
        <time>2017-11-01T08:50:02Z</time>
      </trkpt>
      <trkpt lat="44.00658" lon="6.67314">
        <ele>1373</ele>
        <time>2017-11-01T08:50:05Z</time>
      </trkpt>
      <trkpt lat="44.00657" lon="6.67319">
        <ele>1373</ele>
        <time>2017-11-01T08:50:08Z</time>
      </trkpt>
      <trkpt lat="44.00656" lon="6.67327">
        <ele>1374</ele>
        <time>2017-11-01T08:50:12Z</time>
      </trkpt>
      <trkpt lat="44.00654" lon="6.67333">
        <ele>1374</ele>
        <time>2017-11-01T08:50:16Z</time>
      </trkpt>
      <trkpt lat="44.00656" lon="6.67342">
        <ele>1373</ele>
        <time>2017-11-01T08:50:19Z</time>
      </trkpt>
      <trkpt lat="44.00655" lon="6.67349">
        <ele>1373</ele>
        <time>2017-11-01T08:50:22Z</time>
      </trkpt>
      <trkpt lat="44.0065" lon="6.67356">
        <ele>1373</ele>
        <time>2017-11-01T08:50:25Z</time>
      </trkpt>
      <trkpt lat="44.0065" lon="6.67364">
        <ele>1373</ele>
        <time>2017-11-01T08:50:28Z</time>
      </trkpt>
      <trkpt lat="44.0065" lon="6.67371">
        <ele>1373</ele>
        <time>2017-11-01T08:50:31Z</time>
      </trkpt>
      <trkpt lat="44.0065" lon="6.67379">
        <ele>1374</ele>
        <time>2017-11-01T08:50:35Z</time>
      </trkpt>
      <trkpt lat="44.0065" lon="6.67387">
        <ele>1375</ele>
        <time>2017-11-01T08:50:38Z</time>
      </trkpt>
      <trkpt lat="44.00648" lon="6.67393">
        <ele>1375</ele>
        <time>2017-11-01T08:50:43Z</time>
      </trkpt>
      <trkpt lat="44.00648" lon="6.674">
        <ele>1376</ele>
        <time>2017-11-01T08:50:46Z</time>
      </trkpt>
      <trkpt lat="44.0065" lon="6.67407">
        <ele>1377</ele>
        <time>2017-11-01T08:50:49Z</time>
      </trkpt>
      <trkpt lat="44.00655" lon="6.67407">
        <ele>1378</ele>
        <time>2017-11-01T08:50:54Z</time>
      </trkpt>
      <trkpt lat="44.00659" lon="6.67404">
        <ele>1379</ele>
        <time>2017-11-01T08:50:57Z</time>
      </trkpt>
      <trkpt lat="44.00657" lon="6.67395">
        <ele>1380</ele>
        <time>2017-11-01T08:50:59Z</time>
      </trkpt>
      <trkpt lat="44.00658" lon="6.67389">
        <ele>1380</ele>
        <time>2017-11-01T08:51:01Z</time>
      </trkpt>
      <trkpt lat="44.00671" lon="6.67325">
        <ele>1381</ele>
        <time>2017-11-01T08:51:27Z</time>
      </trkpt>
      <trkpt lat="44.0068" lon="6.67319">
        <ele>1380</ele>
        <time>2017-11-01T08:51:31Z</time>
      </trkpt>
      <trkpt lat="44.00711" lon="6.67315">
        <ele>1377</ele>
        <time>2017-11-01T08:51:56Z</time>
      </trkpt>
      <trkpt lat="44.00718" lon="6.67318">
        <ele>1376</ele>
        <time>2017-11-01T08:51:59Z</time>
      </trkpt>
      <trkpt lat="44.00756" lon="6.67256">
        <ele>1377</ele>
        <time>2017-11-01T08:52:27Z</time>
      </trkpt>
      <trkpt lat="44.00775" lon="6.67287">
        <ele>1377</ele>
        <time>2017-11-01T08:52:31Z</time>
      </trkpt>
      <trkpt lat="44.00794" lon="6.67261">
        <ele>1381</ele>
        <time>2017-11-01T08:52:56Z</time>
      </trkpt>
      <trkpt lat="44.00829" lon="6.6725">
        <ele>1387</ele>
        <time>2017-11-01T08:53:00Z</time>
      </trkpt>
      <trkpt lat="44.00855" lon="6.67212">
        <ele>1392</ele>
        <time>2017-11-01T08:53:26Z</time>
      </trkpt>
      <trkpt lat="44.0087" lon="6.6721">
        <ele>1396</ele>
        <time>2017-11-01T08:53:30Z</time>
      </trkpt>
      <trkpt lat="44.00899" lon="6.67185">
        <ele>1399</ele>
        <time>2017-11-01T08:54:02Z</time>
      </trkpt>
      <trkpt lat="44.00918" lon="6.67183">
        <ele>1399</ele>
        <time>2017-11-01T08:54:06Z</time>
      </trkpt>
      <trkpt lat="44.00953" lon="6.67215">
        <ele>1402</ele>
        <time>2017-11-01T08:54:25Z</time>
      </trkpt>
      <trkpt lat="44.00953" lon="6.67217">
        <ele>1406</ele>
        <time>2017-11-01T08:54:26Z</time>
      </trkpt>
      <trkpt lat="44.00909" lon="6.67277">
        <ele>1404</ele>
        <time>2017-11-01T08:54:56Z</time>
      </trkpt>
      <trkpt lat="44.00911" lon="6.67279">
        <ele>1402</ele>
        <time>2017-11-01T08:54:59Z</time>
      </trkpt>
      <trkpt lat="44.00866" lon="6.67293">
        <ele>1400</ele>
        <time>2017-11-01T08:55:26Z</time>
      </trkpt>
      <trkpt lat="44.00864" lon="6.67294">
        <ele>1395</ele>
        <time>2017-11-01T08:55:28Z</time>
      </trkpt>
      <trkpt lat="44.00845" lon="6.67362">
        <ele>1392</ele>
        <time>2017-11-01T08:55:56Z</time>
      </trkpt>
      <trkpt lat="44.0084" lon="6.67368">
        <ele>1395</ele>
        <time>2017-11-01T08:55:59Z</time>
      </trkpt>
      <trkpt lat="44.00839" lon="6.67406">
        <ele>1399</ele>
        <time>2017-11-01T08:56:25Z</time>
      </trkpt>
      <trkpt lat="44.00835" lon="6.67406">
        <ele>1403</ele>
        <time>2017-11-01T08:56:27Z</time>
      </trkpt>
      <trkpt lat="44.00868" lon="6.67361">
        <ele>1407</ele>
        <time>2017-11-01T08:56:56Z</time>
      </trkpt>
      <trkpt lat="44.00875" lon="6.67357">
        <ele>1409</ele>
        <time>2017-11-01T08:57:00Z</time>
      </trkpt>
      <trkpt lat="44.00925" lon="6.67342">
        <ele>1419</ele>
        <time>2017-11-01T08:57:26Z</time>
      </trkpt>
      <trkpt lat="44.00926" lon="6.67337">
        <ele>1427</ele>
        <time>2017-11-01T08:57:28Z</time>
      </trkpt>
      <trkpt lat="44.00946" lon="6.67366">
        <ele>1435</ele>
        <time>2017-11-01T08:57:55Z</time>
      </trkpt>
      <trkpt lat="44.00947" lon="6.67367">
        <ele>1443</ele>
        <time>2017-11-01T08:57:56Z</time>
      </trkpt>
      <trkpt lat="44.01019" lon="6.67382">
        <ele>1450</ele>
        <time>2017-11-01T08:58:26Z</time>
      </trkpt>
      <trkpt lat="44.01012" lon="6.67386">
        <ele>1447</ele>
        <time>2017-11-01T08:58:29Z</time>
      </trkpt>
      <trkpt lat="44.01051" lon="6.67377">
        <ele>1444</ele>
        <time>2017-11-01T08:58:56Z</time>
      </trkpt>
      <trkpt lat="44.01052" lon="6.67378">
        <ele>1439</ele>
        <time>2017-11-01T08:58:59Z</time>
      </trkpt>
      <trkpt lat="44.01066" lon="6.67339">
        <ele>1431</ele>
        <time>2017-11-01T08:59:29Z</time>
      </trkpt>
      <trkpt lat="44.01101" lon="6.67338">
        <ele>1432</ele>
        <time>2017-11-01T08:59:34Z</time>
      </trkpt>
      <trkpt lat="44.01116" lon="6.67313">
        <ele>1426</ele>
        <time>2017-11-01T08:59:56Z</time>
      </trkpt>
      <trkpt lat="44.01125" lon="6.67305">
        <ele>1417</ele>
        <time>2017-11-01T08:59:58Z</time>
      </trkpt>
      <trkpt lat="44.01183" lon="6.67359">
        <ele>1414</ele>
        <time>2017-11-01T09:00:28Z</time>
      </trkpt>
      <trkpt lat="44.01181" lon="6.67345">
        <ele>1411</ele>
        <time>2017-11-01T09:00:31Z</time>
      </trkpt>
      <trkpt lat="44.01237" lon="6.67365">
        <ele>1408</ele>
        <time>2017-11-01T09:00:55Z</time>
      </trkpt>
      <trkpt lat="44.01243" lon="6.67372">
        <ele>1412</ele>
        <time>2017-11-01T09:00:58Z</time>
      </trkpt>
      <trkpt lat="44.01246" lon="6.67397">
        <ele>1416</ele>
        <time>2017-11-01T09:01:25Z</time>
      </trkpt>
      <trkpt lat="44.01268" lon="6.67398">
        <ele>1421</ele>
        <time>2017-11-01T09:01:28Z</time>
      </trkpt>
      <trkpt lat="44.01304" lon="6.67435">
        <ele>1430</ele>
        <time>2017-11-01T09:01:55Z</time>
      </trkpt>
      <trkpt lat="44.01303" lon="6.67456">
        <ele>1429</ele>
        <time>2017-11-01T09:01:58Z</time>
      </trkpt>
      <trkpt lat="44.01333" lon="6.675">
        <ele>1433</ele>
        <time>2017-11-01T09:02:26Z</time>
      </trkpt>
      <trkpt lat="44.01334" lon="6.67499">
        <ele>1439</ele>
        <time>2017-11-01T09:02:29Z</time>
      </trkpt>
      <trkpt lat="44.01329" lon="6.67476">
        <ele>1443</ele>
        <time>2017-11-01T09:02:57Z</time>
      </trkpt>
      <trkpt lat="44.01324" lon="6.67499">
        <ele>1444</ele>
        <time>2017-11-01T09:03:00Z</time>
      </trkpt>
      <trkpt lat="44.01329" lon="6.67511">
        <ele>1450</ele>
        <time>2017-11-01T09:03:26Z</time>
      </trkpt>
      <trkpt lat="44.01329" lon="6.67512">
        <ele>1453</ele>
        <time>2017-11-01T09:03:29Z</time>
      </trkpt>
      <trkpt lat="44.01331" lon="6.67509">
        <ele>1453</ele>
        <time>2017-11-01T09:03:56Z</time>
      </trkpt>
      <trkpt lat="44.01336" lon="6.67504">
        <ele>1454</ele>
        <time>2017-11-01T09:03:57Z</time>
      </trkpt>
      <trkpt lat="44.01329" lon="6.67507">
        <ele>1456</ele>
        <time>2017-11-01T09:04:32Z</time>
      </trkpt>
      <trkpt lat="44.01329" lon="6.67507">
        <ele>1455</ele>
        <time>2017-11-01T09:04:36Z</time>
      </trkpt>
      <trkpt lat="44.01329" lon="6.67507">
        <ele>1455</ele>
        <time>2017-11-01T09:04:59Z</time>
      </trkpt>
      <trkpt lat="44.01331" lon="6.67503">
        <ele>1455</ele>
        <time>2017-11-01T09:05:02Z</time>
      </trkpt>
      <trkpt lat="44.01333" lon="6.67503">
        <ele>1454</ele>
        <time>2017-11-01T09:05:16Z</time>
      </trkpt>
      <trkpt lat="44.01333" lon="6.67503">
        <ele>1455</ele>
        <time>2017-11-01T09:05:24Z</time>
      </trkpt>
      <trkpt lat="44.01331" lon="6.67503">
        <ele>1455</ele>
        <time>2017-11-01T09:05:58Z</time>
      </trkpt>
      <trkpt lat="44.01331" lon="6.67504">
        <ele>1455</ele>
        <time>2017-11-01T09:06:01Z</time>
      </trkpt>
      <trkpt lat="44.01332" lon="6.67505">
        <ele>1456</ele>
        <time>2017-11-01T09:06:27Z</time>
      </trkpt>
      <trkpt lat="44.01332" lon="6.67505">
        <ele>1456</ele>
        <time>2017-11-01T09:06:30Z</time>
      </trkpt>
      <trkpt lat="44.01331" lon="6.67505">
        <ele>1456</ele>
        <time>2017-11-01T09:07:03Z</time>
      </trkpt>
      <trkpt lat="44.01331" lon="6.67505">
        <ele>1457</ele>
        <time>2017-11-01T09:07:06Z</time>
      </trkpt>
      <trkpt lat="44.01331" lon="6.67506">
        <ele>1457</ele>
        <time>2017-11-01T09:07:21Z</time>
      </trkpt>
      <trkpt lat="44.01331" lon="6.67506">
        <ele>1458</ele>
        <time>2017-11-01T09:07:22Z</time>
      </trkpt>
      <trkpt lat="44.01332" lon="6.67506">
        <ele>1458</ele>
        <time>2017-11-01T09:07:51Z</time>
      </trkpt>
      <trkpt lat="44.01331" lon="6.67504">
        <ele>1461</ele>
        <time>2017-11-01T09:07:52Z</time>
      </trkpt>
      <trkpt lat="44.01332" lon="6.67506">
        <ele>1461</ele>
        <time>2017-11-01T09:08:21Z</time>
      </trkpt>
      <trkpt lat="44.01333" lon="6.67501">
        <ele>1464</ele>
        <time>2017-11-01T09:08:22Z</time>
      </trkpt>
      <trkpt lat="44.01332" lon="6.67506">
        <ele>1464</ele>
        <time>2017-11-01T09:08:51Z</time>
      </trkpt>
      <trkpt lat="44.01332" lon="6.67506">
        <ele>1464</ele>
        <time>2017-11-01T09:08:52Z</time>
      </trkpt>
      <trkpt lat="44.01332" lon="6.67506">
        <ele>1462</ele>
        <time>2017-11-01T09:09:21Z</time>
      </trkpt>
      <trkpt lat="44.01332" lon="6.67506">
        <ele>1462</ele>
        <time>2017-11-01T09:09:22Z</time>
      </trkpt>
      <trkpt lat="44.01332" lon="6.67506">
        <ele>1460</ele>
        <time>2017-11-01T09:09:51Z</time>
      </trkpt>
      <trkpt lat="44.01332" lon="6.67506">
        <ele>1460</ele>
        <time>2017-11-01T09:09:52Z</time>
      </trkpt>
      <trkpt lat="44.01332" lon="6.67506">
        <ele>1460</ele>
        <time>2017-11-01T09:10:21Z</time>
      </trkpt>
      <trkpt lat="44.01332" lon="6.67506">
        <ele>1460</ele>
        <time>2017-11-01T09:10:22Z</time>
      </trkpt>
      <trkpt lat="44.01332" lon="6.67506">
        <ele>1460</ele>
        <time>2017-11-01T09:10:51Z</time>
      </trkpt>
      <trkpt lat="44.01332" lon="6.67506">
        <ele>1460</ele>
        <time>2017-11-01T09:10:54Z</time>
      </trkpt>
      <trkpt lat="44.01332" lon="6.67506">
        <ele>1460</ele>
        <time>2017-11-01T09:11:21Z</time>
      </trkpt>
      <trkpt lat="44.01332" lon="6.67506">
        <ele>1460</ele>
        <time>2017-11-01T09:11:24Z</time>
      </trkpt>
      <trkpt lat="44.01332" lon="6.67506">
        <ele>1460</ele>
        <time>2017-11-01T09:11:51Z</time>
      </trkpt>
      <trkpt lat="44.01332" lon="6.67506">
        <ele>1460</ele>
        <time>2017-11-01T09:11:54Z</time>
      </trkpt>
      <trkpt lat="44.01332" lon="6.67506">
        <ele>1460</ele>
        <time>2017-11-01T09:12:21Z</time>
      </trkpt>
      <trkpt lat="44.01332" lon="6.67506">
        <ele>1460</ele>
        <time>2017-11-01T09:12:24Z</time>
      </trkpt>
      <trkpt lat="44.01332" lon="6.67506">
        <ele>1460</ele>
        <time>2017-11-01T09:12:51Z</time>
      </trkpt>
      <trkpt lat="44.01332" lon="6.67506">
        <ele>1460</ele>
        <time>2017-11-01T09:12:54Z</time>
      </trkpt>
      <trkpt lat="44.01332" lon="6.67506">
        <ele>1460</ele>
        <time>2017-11-01T09:13:21Z</time>
      </trkpt>
      <trkpt lat="44.01332" lon="6.67506">
        <ele>1460</ele>
        <time>2017-11-01T09:13:22Z</time>
      </trkpt>
      <trkpt lat="44.01332" lon="6.67506">
        <ele>1460</ele>
        <time>2017-11-01T09:13:51Z</time>
      </trkpt>
      <trkpt lat="44.01332" lon="6.67506">
        <ele>1460</ele>
        <time>2017-11-01T09:13:54Z</time>
      </trkpt>
      <trkpt lat="44.01332" lon="6.67506">
        <ele>1460</ele>
        <time>2017-11-01T09:14:21Z</time>
      </trkpt>
      <trkpt lat="44.01329" lon="6.67511">
        <ele>1463</ele>
        <time>2017-11-01T09:14:22Z</time>
      </trkpt>
      <trkpt lat="44.01332" lon="6.67506">
        <ele>1463</ele>
        <time>2017-11-01T09:14:51Z</time>
      </trkpt>
      <trkpt lat="44.01327" lon="6.67501">
        <ele>1466</ele>
        <time>2017-11-01T09:14:52Z</time>
      </trkpt>
      <trkpt lat="44.01332" lon="6.67506">
        <ele>1466</ele>
        <time>2017-11-01T09:14:55Z</time>
      </trkpt>
      <trkpt lat="44.01334" lon="6.67499">
        <ele>1466</ele>
        <time>2017-11-01T09:15:07Z</time>
      </trkpt>
      <trkpt lat="44.01341" lon="6.67492">
        <ele>1462</ele>
        <time>2017-11-01T09:15:09Z</time>
      </trkpt>
      <trkpt lat="44.01345" lon="6.67488">
        <ele>1462</ele>
        <time>2017-11-01T09:15:10Z</time>
      </trkpt>
      <trkpt lat="44.01349" lon="6.67483">
        <ele>1458</ele>
        <time>2017-11-01T09:15:11Z</time>
      </trkpt>
      <trkpt lat="44.01353" lon="6.67477">
        <ele>1458</ele>
        <time>2017-11-01T09:15:12Z</time>
      </trkpt>
      <trkpt lat="44.01359" lon="6.67467">
        <ele>1458</ele>
        <time>2017-11-01T09:15:14Z</time>
      </trkpt>
      <trkpt lat="44.01363" lon="6.67459">
        <ele>1459</ele>
        <time>2017-11-01T09:15:16Z</time>
      </trkpt>
      <trkpt lat="44.01366" lon="6.67453">
        <ele>1460</ele>
        <time>2017-11-01T09:15:17Z</time>
      </trkpt>
      <trkpt lat="44.01367" lon="6.67447">
        <ele>1461</ele>
        <time>2017-11-01T09:15:18Z</time>
      </trkpt>
      <trkpt lat="44.01374" lon="6.6744">
        <ele>1461</ele>
        <time>2017-11-01T09:15:20Z</time>
      </trkpt>
      <trkpt lat="44.01379" lon="6.67437">
        <ele>1461</ele>
        <time>2017-11-01T09:15:21Z</time>
      </trkpt>
      <trkpt lat="44.01384" lon="6.67432">
        <ele>1461</ele>
        <time>2017-11-01T09:15:23Z</time>
      </trkpt>
      <trkpt lat="44.01389" lon="6.67427">
        <ele>1461</ele>
        <time>2017-11-01T09:15:25Z</time>
      </trkpt>
      <trkpt lat="44.01392" lon="6.67418">
        <ele>1461</ele>
        <time>2017-11-01T09:15:27Z</time>
      </trkpt>
      <trkpt lat="44.01391" lon="6.6741">
        <ele>1462</ele>
        <time>2017-11-01T09:15:29Z</time>
      </trkpt>
      <trkpt lat="44.01398" lon="6.67399">
        <ele>1463</ele>
        <time>2017-11-01T09:15:31Z</time>
      </trkpt>
      <trkpt lat="44.01399" lon="6.6739">
        <ele>1465</ele>
        <time>2017-11-01T09:15:32Z</time>
      </trkpt>
      <trkpt lat="44.01403" lon="6.67387">
        <ele>1466</ele>
        <time>2017-11-01T09:15:33Z</time>
      </trkpt>
      <trkpt lat="44.01406" lon="6.67379">
        <ele>1467</ele>
        <time>2017-11-01T09:15:35Z</time>
      </trkpt>
      <trkpt lat="44.01406" lon="6.67371">
        <ele>1467</ele>
        <time>2017-11-01T09:15:36Z</time>
      </trkpt>
      <trkpt lat="44.01401" lon="6.67361">
        <ele>1466</ele>
        <time>2017-11-01T09:15:38Z</time>
      </trkpt>
      <trkpt lat="44.01398" lon="6.67354">
        <ele>1466</ele>
        <time>2017-11-01T09:15:39Z</time>
      </trkpt>
      <trkpt lat="44.01394" lon="6.6735">
        <ele>1465</ele>
        <time>2017-11-01T09:15:40Z</time>
      </trkpt>
      <trkpt lat="44.01389" lon="6.67345">
        <ele>1464</ele>
        <time>2017-11-01T09:15:42Z</time>
      </trkpt>
      <trkpt lat="44.01385" lon="6.6734">
        <ele>1464</ele>
        <time>2017-11-01T09:15:43Z</time>
      </trkpt>
      <trkpt lat="44.01379" lon="6.67332">
        <ele>1463</ele>
        <time>2017-11-01T09:15:45Z</time>
      </trkpt>
      <trkpt lat="44.01376" lon="6.67324">
        <ele>1463</ele>
        <time>2017-11-01T09:15:47Z</time>
      </trkpt>
      <trkpt lat="44.01377" lon="6.67315">
        <ele>1462</ele>
        <time>2017-11-01T09:15:49Z</time>
      </trkpt>
      <trkpt lat="44.01379" lon="6.67308">
        <ele>1462</ele>
        <time>2017-11-01T09:15:51Z</time>
      </trkpt>
      <trkpt lat="44.01374" lon="6.67305">
        <ele>1461</ele>
        <time>2017-11-01T09:15:55Z</time>
      </trkpt>
      <trkpt lat="44.01376" lon="6.67314">
        <ele>1461</ele>
        <time>2017-11-01T09:15:57Z</time>
      </trkpt>
      <trkpt lat="44.01378" lon="6.67307">
        <ele>1460</ele>
        <time>2017-11-01T09:15:58Z</time>
      </trkpt>
      <trkpt lat="44.01374" lon="6.67301">
        <ele>1459</ele>
        <time>2017-11-01T09:16:01Z</time>
      </trkpt>
      <trkpt lat="44.01372" lon="6.67306">
        <ele>1458</ele>
        <time>2017-11-01T09:16:04Z</time>
      </trkpt>
      <trkpt lat="44.0137" lon="6.673">
        <ele>1458</ele>
        <time>2017-11-01T09:16:05Z</time>
      </trkpt>
      <trkpt lat="44.01369" lon="6.67308">
        <ele>1457</ele>
        <time>2017-11-01T09:16:06Z</time>
      </trkpt>
      <trkpt lat="44.01367" lon="6.673">
        <ele>1456</ele>
        <time>2017-11-01T09:16:08Z</time>
      </trkpt>
      <trkpt lat="44.01371" lon="6.67309">
        <ele>1456</ele>
        <time>2017-11-01T09:16:12Z</time>
      </trkpt>
      <trkpt lat="44.01374" lon="6.67319">
        <ele>1455</ele>
        <time>2017-11-01T09:16:14Z</time>
      </trkpt>
      <trkpt lat="44.01374" lon="6.67312">
        <ele>1455</ele>
        <time>2017-11-01T09:16:15Z</time>
      </trkpt>
      <trkpt lat="44.01376" lon="6.67327">
        <ele>1454</ele>
        <time>2017-11-01T09:16:16Z</time>
      </trkpt>
      <trkpt lat="44.01373" lon="6.6732">
        <ele>1453</ele>
        <time>2017-11-01T09:16:19Z</time>
      </trkpt>
      <trkpt lat="44.0137" lon="6.67314">
        <ele>1452</ele>
        <time>2017-11-01T09:16:22Z</time>
      </trkpt>
      <trkpt lat="44.01372" lon="6.67305">
        <ele>1452</ele>
        <time>2017-11-01T09:16:25Z</time>
      </trkpt>
      <trkpt lat="44.0137" lon="6.67296">
        <ele>1451</ele>
        <time>2017-11-01T09:16:28Z</time>
      </trkpt>
      <trkpt lat="44.01368" lon="6.67289">
        <ele>1451</ele>
        <time>2017-11-01T09:16:30Z</time>
      </trkpt>
      <trkpt lat="44.01368" lon="6.67274">
        <ele>1452</ele>
        <time>2017-11-01T09:16:31Z</time>
      </trkpt>
      <trkpt lat="44.01368" lon="6.67257">
        <ele>1452</ele>
        <time>2017-11-01T09:16:32Z</time>
      </trkpt>
      <trkpt lat="44.01368" lon="6.67244">
        <ele>1452</ele>
        <time>2017-11-01T09:16:33Z</time>
      </trkpt>
      <trkpt lat="44.01364" lon="6.67223">
        <ele>1451</ele>
        <time>2017-11-01T09:16:34Z</time>
      </trkpt>
      <trkpt lat="44.01361" lon="6.67212">
        <ele>1450</ele>
        <time>2017-11-01T09:16:36Z</time>
      </trkpt>
      <trkpt lat="44.01362" lon="6.672">
        <ele>1449</ele>
        <time>2017-11-01T09:16:38Z</time>
      </trkpt>
      <trkpt lat="44.01362" lon="6.67187">
        <ele>1449</ele>
        <time>2017-11-01T09:16:40Z</time>
      </trkpt>
      <trkpt lat="44.01366" lon="6.67183">
        <ele>1449</ele>
        <time>2017-11-01T09:16:41Z</time>
      </trkpt>
      <trkpt lat="44.01364" lon="6.6717">
        <ele>1447</ele>
        <time>2017-11-01T09:16:42Z</time>
      </trkpt>
      <trkpt lat="44.01366" lon="6.67157">
        <ele>1446</ele>
        <time>2017-11-01T09:16:44Z</time>
      </trkpt>
      <trkpt lat="44.01371" lon="6.67152">
        <ele>1445</ele>
        <time>2017-11-01T09:16:45Z</time>
      </trkpt>
      <trkpt lat="44.01372" lon="6.67145">
        <ele>1442</ele>
        <time>2017-11-01T09:16:46Z</time>
      </trkpt>
      <trkpt lat="44.01377" lon="6.67142">
        <ele>1441</ele>
        <time>2017-11-01T09:16:47Z</time>
      </trkpt>
      <trkpt lat="44.01381" lon="6.6714">
        <ele>1440</ele>
        <time>2017-11-01T09:16:48Z</time>
      </trkpt>
      <trkpt lat="44.01387" lon="6.67135">
        <ele>1440</ele>
        <time>2017-11-01T09:16:49Z</time>
      </trkpt>
      <trkpt lat="44.01389" lon="6.67128">
        <ele>1440</ele>
        <time>2017-11-01T09:16:50Z</time>
      </trkpt>
      <trkpt lat="44.01392" lon="6.67121">
        <ele>1439</ele>
        <time>2017-11-01T09:16:51Z</time>
      </trkpt>
      <trkpt lat="44.01397" lon="6.67113">
        <ele>1438</ele>
        <time>2017-11-01T09:16:52Z</time>
      </trkpt>
      <trkpt lat="44.01398" lon="6.67104">
        <ele>1438</ele>
        <time>2017-11-01T09:16:53Z</time>
      </trkpt>
      <trkpt lat="44.014" lon="6.67095">
        <ele>1436</ele>
        <time>2017-11-01T09:16:54Z</time>
      </trkpt>
      <trkpt lat="44.01403" lon="6.67087">
        <ele>1435</ele>
        <time>2017-11-01T09:16:55Z</time>
      </trkpt>
      <trkpt lat="44.01404" lon="6.67074">
        <ele>1435</ele>
        <time>2017-11-01T09:16:57Z</time>
      </trkpt>
      <trkpt lat="44.01406" lon="6.67067">
        <ele>1434</ele>
        <time>2017-11-01T09:16:58Z</time>
      </trkpt>
      <trkpt lat="44.01408" lon="6.6706">
        <ele>1434</ele>
        <time>2017-11-01T09:16:59Z</time>
      </trkpt>
      <trkpt lat="44.01412" lon="6.67053">
        <ele>1434</ele>
        <time>2017-11-01T09:17:00Z</time>
      </trkpt>
      <trkpt lat="44.01412" lon="6.67045">
        <ele>1433</ele>
        <time>2017-11-01T09:17:01Z</time>
      </trkpt>
      <trkpt lat="44.01415" lon="6.67036">
        <ele>1432</ele>
        <time>2017-11-01T09:17:02Z</time>
      </trkpt>
      <trkpt lat="44.01414" lon="6.67027">
        <ele>1430</ele>
        <time>2017-11-01T09:17:03Z</time>
      </trkpt>
      <trkpt lat="44.01414" lon="6.67017">
        <ele>1429</ele>
        <time>2017-11-01T09:17:04Z</time>
      </trkpt>
      <trkpt lat="44.01419" lon="6.67013">
        <ele>1429</ele>
        <time>2017-11-01T09:17:05Z</time>
      </trkpt>
      <trkpt lat="44.01421" lon="6.67005">
        <ele>1430</ele>
        <time>2017-11-01T09:17:06Z</time>
      </trkpt>
      <trkpt lat="44.01421" lon="6.66998">
        <ele>1430</ele>
        <time>2017-11-01T09:17:07Z</time>
      </trkpt>
      <trkpt lat="44.01425" lon="6.66992">
        <ele>1431</ele>
        <time>2017-11-01T09:17:08Z</time>
      </trkpt>
      <trkpt lat="44.01426" lon="6.66979">
        <ele>1432</ele>
        <time>2017-11-01T09:17:10Z</time>
      </trkpt>
      <trkpt lat="44.01427" lon="6.66972">
        <ele>1432</ele>
        <time>2017-11-01T09:17:11Z</time>
      </trkpt>
      <trkpt lat="44.01432" lon="6.66962">
        <ele>1432</ele>
        <time>2017-11-01T09:17:13Z</time>
      </trkpt>
      <trkpt lat="44.01437" lon="6.66959">
        <ele>1431</ele>
        <time>2017-11-01T09:17:14Z</time>
      </trkpt>
      <trkpt lat="44.01441" lon="6.6695">
        <ele>1430</ele>
        <time>2017-11-01T09:17:16Z</time>
      </trkpt>
      <trkpt lat="44.01445" lon="6.66945">
        <ele>1429</ele>
        <time>2017-11-01T09:17:17Z</time>
      </trkpt>
      <trkpt lat="44.01446" lon="6.66939">
        <ele>1429</ele>
        <time>2017-11-01T09:17:18Z</time>
      </trkpt>
      <trkpt lat="44.0145" lon="6.66926">
        <ele>1428</ele>
        <time>2017-11-01T09:17:20Z</time>
      </trkpt>
      <trkpt lat="44.01453" lon="6.66921">
        <ele>1427</ele>
        <time>2017-11-01T09:17:22Z</time>
      </trkpt>
      <trkpt lat="44.01458" lon="6.66915">
        <ele>1427</ele>
        <time>2017-11-01T09:17:25Z</time>
      </trkpt>
      <trkpt lat="44.01465" lon="6.66908">
        <ele>1427</ele>
        <time>2017-11-01T09:17:28Z</time>
      </trkpt>
      <trkpt lat="44.01477" lon="6.66905">
        <ele>1428</ele>
        <time>2017-11-01T09:17:30Z</time>
      </trkpt>
      <trkpt lat="44.01481" lon="6.669">
        <ele>1429</ele>
        <time>2017-11-01T09:17:31Z</time>
      </trkpt>
      <trkpt lat="44.01482" lon="6.66894">
        <ele>1429</ele>
        <time>2017-11-01T09:17:32Z</time>
      </trkpt>
      <trkpt lat="44.01484" lon="6.66883">
        <ele>1429</ele>
        <time>2017-11-01T09:17:34Z</time>
      </trkpt>
      <trkpt lat="44.0149" lon="6.66874">
        <ele>1427</ele>
        <time>2017-11-01T09:17:39Z</time>
      </trkpt>
      <trkpt lat="44.01488" lon="6.66867">
        <ele>1424</ele>
        <time>2017-11-01T09:17:40Z</time>
      </trkpt>
      <trkpt lat="44.01481" lon="6.66857">
        <ele>1420</ele>
        <time>2017-11-01T09:17:43Z</time>
      </trkpt>
      <trkpt lat="44.01479" lon="6.66849">
        <ele>1416</ele>
        <time>2017-11-01T09:17:45Z</time>
      </trkpt>
      <trkpt lat="44.01479" lon="6.6684">
        <ele>1412</ele>
        <time>2017-11-01T09:17:46Z</time>
      </trkpt>
      <trkpt lat="44.01476" lon="6.66834">
        <ele>1411</ele>
        <time>2017-11-01T09:17:47Z</time>
      </trkpt>
      <trkpt lat="44.01479" lon="6.66829">
        <ele>1410</ele>
        <time>2017-11-01T09:17:48Z</time>
      </trkpt>
      <trkpt lat="44.01477" lon="6.66823">
        <ele>1409</ele>
        <time>2017-11-01T09:17:49Z</time>
      </trkpt>
      <trkpt lat="44.01481" lon="6.66817">
        <ele>1408</ele>
        <time>2017-11-01T09:17:51Z</time>
      </trkpt>
      <trkpt lat="44.01484" lon="6.6681">
        <ele>1407</ele>
        <time>2017-11-01T09:17:53Z</time>
      </trkpt>
      <trkpt lat="44.01487" lon="6.66805">
        <ele>1406</ele>
        <time>2017-11-01T09:17:55Z</time>
      </trkpt>
      <trkpt lat="44.01491" lon="6.66803">
        <ele>1405</ele>
        <time>2017-11-01T09:17:57Z</time>
      </trkpt>
      <trkpt lat="44.01492" lon="6.66794">
        <ele>1405</ele>
        <time>2017-11-01T09:18:00Z</time>
      </trkpt>
      <trkpt lat="44.01492" lon="6.66786">
        <ele>1406</ele>
        <time>2017-11-01T09:18:04Z</time>
      </trkpt>
      <trkpt lat="44.01496" lon="6.66782">
        <ele>1406</ele>
        <time>2017-11-01T09:18:09Z</time>
      </trkpt>
      <trkpt lat="44.01491" lon="6.66775">
        <ele>1406</ele>
        <time>2017-11-01T09:18:12Z</time>
      </trkpt>
      <trkpt lat="44.01496" lon="6.66775">
        <ele>1405</ele>
        <time>2017-11-01T09:18:15Z</time>
      </trkpt>
      <trkpt lat="44.01495" lon="6.66769">
        <ele>1405</ele>
        <time>2017-11-01T09:18:27Z</time>
      </trkpt>
      <trkpt lat="44.01495" lon="6.66768">
        <ele>1403</ele>
        <time>2017-11-01T09:18:51Z</time>
      </trkpt>
      <trkpt lat="44.01495" lon="6.66768">
        <ele>1402</ele>
        <time>2017-11-01T09:18:52Z</time>
      </trkpt>
      <trkpt lat="44.01495" lon="6.66767">
        <ele>1402</ele>
        <time>2017-11-01T09:19:21Z</time>
      </trkpt>
      <trkpt lat="44.01489" lon="6.66754">
        <ele>1401</ele>
        <time>2017-11-01T09:19:22Z</time>
      </trkpt>
      <trkpt lat="44.01495" lon="6.66767">
        <ele>1401</ele>
        <time>2017-11-01T09:19:25Z</time>
      </trkpt>
      <trkpt lat="44.01495" lon="6.66767">
        <ele>1401</ele>
        <time>2017-11-01T09:19:51Z</time>
      </trkpt>
      <trkpt lat="44.01495" lon="6.66767">
        <ele>1402</ele>
        <time>2017-11-01T09:19:54Z</time>
      </trkpt>
      <trkpt lat="44.01495" lon="6.66767">
        <ele>1402</ele>
        <time>2017-11-01T09:20:21Z</time>
      </trkpt>
      <trkpt lat="44.01495" lon="6.66767">
        <ele>1402</ele>
        <time>2017-11-01T09:20:24Z</time>
      </trkpt>
      <trkpt lat="44.01497" lon="6.66778">
        <ele>1401</ele>
        <time>2017-11-01T09:20:43Z</time>
      </trkpt>
      <trkpt lat="44.01494" lon="6.66773">
        <ele>1400</ele>
        <time>2017-11-01T09:20:46Z</time>
      </trkpt>
      <trkpt lat="44.01492" lon="6.66765">
        <ele>1400</ele>
        <time>2017-11-01T09:20:52Z</time>
      </trkpt>
      <trkpt lat="44.01493" lon="6.66758">
        <ele>1399</ele>
        <time>2017-11-01T09:21:02Z</time>
      </trkpt>
      <trkpt lat="44.01491" lon="6.66755">
        <ele>1399</ele>
        <time>2017-11-01T09:21:21Z</time>
      </trkpt>
      <trkpt lat="44.01491" lon="6.66755">
        <ele>1401</ele>
        <time>2017-11-01T09:21:24Z</time>
      </trkpt>
      <trkpt lat="44.01498" lon="6.66752">
        <ele>1402</ele>
        <time>2017-11-01T09:21:34Z</time>
      </trkpt>
      <trkpt lat="44.01501" lon="6.66744">
        <ele>1404</ele>
        <time>2017-11-01T09:21:37Z</time>
      </trkpt>
      <trkpt lat="44.01499" lon="6.66738">
        <ele>1405</ele>
        <time>2017-11-01T09:21:38Z</time>
      </trkpt>
      <trkpt lat="44.01499" lon="6.66728">
        <ele>1406</ele>
        <time>2017-11-01T09:21:40Z</time>
      </trkpt>
      <trkpt lat="44.015" lon="6.6672">
        <ele>1406</ele>
        <time>2017-11-01T09:21:42Z</time>
      </trkpt>
      <trkpt lat="44.015" lon="6.66712">
        <ele>1407</ele>
        <time>2017-11-01T09:21:44Z</time>
      </trkpt>
      <trkpt lat="44.01505" lon="6.6671">
        <ele>1407</ele>
        <time>2017-11-01T09:21:46Z</time>
      </trkpt>
      <trkpt lat="44.01503" lon="6.66704">
        <ele>1405</ele>
        <time>2017-11-01T09:21:58Z</time>
      </trkpt>
      <trkpt lat="44.01502" lon="6.66704">
        <ele>1404</ele>
        <time>2017-11-01T09:22:21Z</time>
      </trkpt>
      <trkpt lat="44.01502" lon="6.66704">
        <ele>1403</ele>
        <time>2017-11-01T09:22:22Z</time>
      </trkpt>
      <trkpt lat="44.01502" lon="6.66703">
        <ele>1402</ele>
        <time>2017-11-01T09:22:51Z</time>
      </trkpt>
      <trkpt lat="44.01502" lon="6.66698">
        <ele>1403</ele>
        <time>2017-11-01T09:22:52Z</time>
      </trkpt>
      <trkpt lat="44.01507" lon="6.66698">
        <ele>1404</ele>
        <time>2017-11-01T09:22:56Z</time>
      </trkpt>
      <trkpt lat="44.01511" lon="6.66692">
        <ele>1404</ele>
        <time>2017-11-01T09:23:00Z</time>
      </trkpt>
      <trkpt lat="44.01514" lon="6.66687">
        <ele>1404</ele>
        <time>2017-11-01T09:23:02Z</time>
      </trkpt>
      <trkpt lat="44.01515" lon="6.66678">
        <ele>1405</ele>
        <time>2017-11-01T09:23:04Z</time>
      </trkpt>
      <trkpt lat="44.01518" lon="6.66673">
        <ele>1404</ele>
        <time>2017-11-01T09:23:06Z</time>
      </trkpt>
      <trkpt lat="44.01519" lon="6.66666">
        <ele>1406</ele>
        <time>2017-11-01T09:23:09Z</time>
      </trkpt>
      <trkpt lat="44.01522" lon="6.6666">
        <ele>1407</ele>
        <time>2017-11-01T09:23:11Z</time>
      </trkpt>
      <trkpt lat="44.01527" lon="6.66653">
        <ele>1409</ele>
        <time>2017-11-01T09:23:14Z</time>
      </trkpt>
      <trkpt lat="44.0153" lon="6.66647">
        <ele>1410</ele>
        <time>2017-11-01T09:23:17Z</time>
      </trkpt>
      <trkpt lat="44.01533" lon="6.66638">
        <ele>1411</ele>
        <time>2017-11-01T09:23:19Z</time>
      </trkpt>
      <trkpt lat="44.01538" lon="6.66634">
        <ele>1412</ele>
        <time>2017-11-01T09:23:21Z</time>
      </trkpt>
      <trkpt lat="44.01543" lon="6.66632">
        <ele>1412</ele>
        <time>2017-11-01T09:23:23Z</time>
      </trkpt>
      <trkpt lat="44.01551" lon="6.66629">
        <ele>1412</ele>
        <time>2017-11-01T09:23:25Z</time>
      </trkpt>
      <trkpt lat="44.01559" lon="6.66629">
        <ele>1411</ele>
        <time>2017-11-01T09:23:27Z</time>
      </trkpt>
      <trkpt lat="44.01564" lon="6.66629">
        <ele>1411</ele>
        <time>2017-11-01T09:23:28Z</time>
      </trkpt>
      <trkpt lat="44.01572" lon="6.6663">
        <ele>1410</ele>
        <time>2017-11-01T09:23:30Z</time>
      </trkpt>
      <trkpt lat="44.01579" lon="6.66626">
        <ele>1410</ele>
        <time>2017-11-01T09:23:32Z</time>
      </trkpt>
      <trkpt lat="44.01584" lon="6.66619">
        <ele>1409</ele>
        <time>2017-11-01T09:23:34Z</time>
      </trkpt>
      <trkpt lat="44.01587" lon="6.66613">
        <ele>1409</ele>
        <time>2017-11-01T09:23:36Z</time>
      </trkpt>
      <trkpt lat="44.01592" lon="6.66608">
        <ele>1408</ele>
        <time>2017-11-01T09:23:38Z</time>
      </trkpt>
      <trkpt lat="44.01595" lon="6.66599">
        <ele>1407</ele>
        <time>2017-11-01T09:23:40Z</time>
      </trkpt>
      <trkpt lat="44.01595" lon="6.66588">
        <ele>1407</ele>
        <time>2017-11-01T09:23:42Z</time>
      </trkpt>
      <trkpt lat="44.01593" lon="6.66579">
        <ele>1407</ele>
        <time>2017-11-01T09:23:44Z</time>
      </trkpt>
      <trkpt lat="44.01592" lon="6.66572">
        <ele>1407</ele>
        <time>2017-11-01T09:23:46Z</time>
      </trkpt>
      <trkpt lat="44.01593" lon="6.66564">
        <ele>1407</ele>
        <time>2017-11-01T09:23:48Z</time>
      </trkpt>
      <trkpt lat="44.01597" lon="6.66555">
        <ele>1407</ele>
        <time>2017-11-01T09:23:50Z</time>
      </trkpt>
      <trkpt lat="44.016" lon="6.66551">
        <ele>1407</ele>
        <time>2017-11-01T09:23:51Z</time>
      </trkpt>
      <trkpt lat="44.01607" lon="6.66548">
        <ele>1407</ele>
        <time>2017-11-01T09:23:53Z</time>
      </trkpt>
      <trkpt lat="44.01609" lon="6.66542">
        <ele>1407</ele>
        <time>2017-11-01T09:23:56Z</time>
      </trkpt>
      <trkpt lat="44.01608" lon="6.66532">
        <ele>1407</ele>
        <time>2017-11-01T09:23:59Z</time>
      </trkpt>
      <trkpt lat="44.01606" lon="6.66526">
        <ele>1407</ele>
        <time>2017-11-01T09:24:00Z</time>
      </trkpt>
      <trkpt lat="44.01602" lon="6.66517">
        <ele>1406</ele>
        <time>2017-11-01T09:24:02Z</time>
      </trkpt>
      <trkpt lat="44.016" lon="6.66507">
        <ele>1406</ele>
        <time>2017-11-01T09:24:04Z</time>
      </trkpt>
      <trkpt lat="44.01597" lon="6.66493">
        <ele>1405</ele>
        <time>2017-11-01T09:24:06Z</time>
      </trkpt>
      <trkpt lat="44.01595" lon="6.66485">
        <ele>1404</ele>
        <time>2017-11-01T09:24:07Z</time>
      </trkpt>
      <trkpt lat="44.01594" lon="6.66476">
        <ele>1404</ele>
        <time>2017-11-01T09:24:08Z</time>
      </trkpt>
      <trkpt lat="44.01594" lon="6.66467">
        <ele>1403</ele>
        <time>2017-11-01T09:24:09Z</time>
      </trkpt>
      <trkpt lat="44.01594" lon="6.6646">
        <ele>1402</ele>
        <time>2017-11-01T09:24:10Z</time>
      </trkpt>
      <trkpt lat="44.01595" lon="6.66453">
        <ele>1401</ele>
        <time>2017-11-01T09:24:12Z</time>
      </trkpt>
      <trkpt lat="44.01593" lon="6.66444">
        <ele>1401</ele>
        <time>2017-11-01T09:24:14Z</time>
      </trkpt>
      <trkpt lat="44.01592" lon="6.66436">
        <ele>1400</ele>
        <time>2017-11-01T09:24:16Z</time>
      </trkpt>
      <trkpt lat="44.01593" lon="6.66425">
        <ele>1400</ele>
        <time>2017-11-01T09:24:18Z</time>
      </trkpt>
      <trkpt lat="44.01598" lon="6.6642">
        <ele>1399</ele>
        <time>2017-11-01T09:24:20Z</time>
      </trkpt>
      <trkpt lat="44.01603" lon="6.66413">
        <ele>1398</ele>
        <time>2017-11-01T09:24:22Z</time>
      </trkpt>
      <trkpt lat="44.01609" lon="6.6641">
        <ele>1397</ele>
        <time>2017-11-01T09:24:24Z</time>
      </trkpt>
      <trkpt lat="44.01616" lon="6.66408">
        <ele>1396</ele>
        <time>2017-11-01T09:24:26Z</time>
      </trkpt>
      <trkpt lat="44.01621" lon="6.66408">
        <ele>1396</ele>
        <time>2017-11-01T09:24:28Z</time>
      </trkpt>
      <trkpt lat="44.01625" lon="6.66403">
        <ele>1396</ele>
        <time>2017-11-01T09:24:31Z</time>
      </trkpt>
      <trkpt lat="44.01628" lon="6.66397">
        <ele>1395</ele>
        <time>2017-11-01T09:24:34Z</time>
      </trkpt>
      <trkpt lat="44.01633" lon="6.66395">
        <ele>1394</ele>
        <time>2017-11-01T09:24:40Z</time>
      </trkpt>
      <trkpt lat="44.01637" lon="6.6639">
        <ele>1393</ele>
        <time>2017-11-01T09:24:43Z</time>
      </trkpt>
      <trkpt lat="44.0164" lon="6.66382">
        <ele>1393</ele>
        <time>2017-11-01T09:24:46Z</time>
      </trkpt>
      <trkpt lat="44.01645" lon="6.66378">
        <ele>1392</ele>
        <time>2017-11-01T09:24:49Z</time>
      </trkpt>
      <trkpt lat="44.01651" lon="6.66378">
        <ele>1392</ele>
        <time>2017-11-01T09:24:52Z</time>
      </trkpt>
      <trkpt lat="44.01656" lon="6.66374">
        <ele>1391</ele>
        <time>2017-11-01T09:24:54Z</time>
      </trkpt>
      <trkpt lat="44.0166" lon="6.66368">
        <ele>1391</ele>
        <time>2017-11-01T09:24:56Z</time>
      </trkpt>
      <trkpt lat="44.01664" lon="6.66364">
        <ele>1390</ele>
        <time>2017-11-01T09:24:58Z</time>
      </trkpt>
      <trkpt lat="44.01669" lon="6.6636">
        <ele>1390</ele>
        <time>2017-11-01T09:25:00Z</time>
      </trkpt>
      <trkpt lat="44.01677" lon="6.66358">
        <ele>1390</ele>
        <time>2017-11-01T09:25:02Z</time>
      </trkpt>
      <trkpt lat="44.01682" lon="6.66356">
        <ele>1389</ele>
        <time>2017-11-01T09:25:05Z</time>
      </trkpt>
      <trkpt lat="44.01686" lon="6.66352">
        <ele>1389</ele>
        <time>2017-11-01T09:25:07Z</time>
      </trkpt>
      <trkpt lat="44.01691" lon="6.66348">
        <ele>1388</ele>
        <time>2017-11-01T09:25:09Z</time>
      </trkpt>
      <trkpt lat="44.01693" lon="6.66341">
        <ele>1387</ele>
        <time>2017-11-01T09:25:12Z</time>
      </trkpt>
      <trkpt lat="44.01695" lon="6.66333">
        <ele>1386</ele>
        <time>2017-11-01T09:25:15Z</time>
      </trkpt>
      <trkpt lat="44.01696" lon="6.66324">
        <ele>1385</ele>
        <time>2017-11-01T09:25:17Z</time>
      </trkpt>
      <trkpt lat="44.01698" lon="6.66317">
        <ele>1383</ele>
        <time>2017-11-01T09:25:20Z</time>
      </trkpt>
      <trkpt lat="44.01699" lon="6.6631">
        <ele>1381</ele>
        <time>2017-11-01T09:25:22Z</time>
      </trkpt>
      <trkpt lat="44.01704" lon="6.66305">
        <ele>1379</ele>
        <time>2017-11-01T09:25:24Z</time>
      </trkpt>
      <trkpt lat="44.01707" lon="6.663">
        <ele>1378</ele>
        <time>2017-11-01T09:25:26Z</time>
      </trkpt>
      <trkpt lat="44.01712" lon="6.66295">
        <ele>1376</ele>
        <time>2017-11-01T09:25:29Z</time>
      </trkpt>
      <trkpt lat="44.01716" lon="6.66289">
        <ele>1374</ele>
        <time>2017-11-01T09:25:31Z</time>
      </trkpt>
      <trkpt lat="44.0172" lon="6.66285">
        <ele>1373</ele>
        <time>2017-11-01T09:25:33Z</time>
      </trkpt>
      <trkpt lat="44.01725" lon="6.66283">
        <ele>1372</ele>
        <time>2017-11-01T09:25:35Z</time>
      </trkpt>
      <trkpt lat="44.01729" lon="6.6628">
        <ele>1371</ele>
        <time>2017-11-01T09:25:37Z</time>
      </trkpt>
      <trkpt lat="44.01734" lon="6.66274">
        <ele>1370</ele>
        <time>2017-11-01T09:25:40Z</time>
      </trkpt>
      <trkpt lat="44.01738" lon="6.66271">
        <ele>1370</ele>
        <time>2017-11-01T09:25:42Z</time>
      </trkpt>
      <trkpt lat="44.01741" lon="6.66263">
        <ele>1369</ele>
        <time>2017-11-01T09:25:45Z</time>
      </trkpt>
      <trkpt lat="44.01746" lon="6.66259">
        <ele>1369</ele>
        <time>2017-11-01T09:25:48Z</time>
      </trkpt>
      <trkpt lat="44.01751" lon="6.66256">
        <ele>1368</ele>
        <time>2017-11-01T09:25:51Z</time>
      </trkpt>
      <trkpt lat="44.01756" lon="6.66253">
        <ele>1366</ele>
        <time>2017-11-01T09:25:53Z</time>
      </trkpt>
      <trkpt lat="44.01762" lon="6.66249">
        <ele>1365</ele>
        <time>2017-11-01T09:25:55Z</time>
      </trkpt>
      <trkpt lat="44.01767" lon="6.66245">
        <ele>1364</ele>
        <time>2017-11-01T09:25:57Z</time>
      </trkpt>
      <trkpt lat="44.01774" lon="6.66244">
        <ele>1363</ele>
        <time>2017-11-01T09:26:00Z</time>
      </trkpt>
      <trkpt lat="44.01778" lon="6.66242">
        <ele>1362</ele>
        <time>2017-11-01T09:26:02Z</time>
      </trkpt>
      <trkpt lat="44.01783" lon="6.6624">
        <ele>1361</ele>
        <time>2017-11-01T09:26:04Z</time>
      </trkpt>
      <trkpt lat="44.01787" lon="6.66239">
        <ele>1360</ele>
        <time>2017-11-01T09:26:06Z</time>
      </trkpt>
      <trkpt lat="44.01793" lon="6.66237">
        <ele>1359</ele>
        <time>2017-11-01T09:26:08Z</time>
      </trkpt>
      <trkpt lat="44.01796" lon="6.66232">
        <ele>1358</ele>
        <time>2017-11-01T09:26:10Z</time>
      </trkpt>
      <trkpt lat="44.01799" lon="6.66226">
        <ele>1358</ele>
        <time>2017-11-01T09:26:12Z</time>
      </trkpt>
      <trkpt lat="44.018" lon="6.66219">
        <ele>1357</ele>
        <time>2017-11-01T09:26:14Z</time>
      </trkpt>
      <trkpt lat="44.018" lon="6.66212">
        <ele>1357</ele>
        <time>2017-11-01T09:26:16Z</time>
      </trkpt>
      <trkpt lat="44.01796" lon="6.66206">
        <ele>1357</ele>
        <time>2017-11-01T09:26:19Z</time>
      </trkpt>
      <trkpt lat="44.01791" lon="6.66207">
        <ele>1357</ele>
        <time>2017-11-01T09:26:23Z</time>
      </trkpt>
      <trkpt lat="44.01786" lon="6.66205">
        <ele>1356</ele>
        <time>2017-11-01T09:26:26Z</time>
      </trkpt>
      <trkpt lat="44.01743" lon="6.66211">
        <ele>1358</ele>
        <time>2017-11-01T09:26:55Z</time>
      </trkpt>
      <trkpt lat="44.01736" lon="6.66225">
        <ele>1359</ele>
        <time>2017-11-01T09:26:57Z</time>
      </trkpt>
      <trkpt lat="44.01666" lon="6.66219">
        <ele>1358</ele>
        <time>2017-11-01T09:27:26Z</time>
      </trkpt>
      <trkpt lat="44.01663" lon="6.66217">
        <ele>1357</ele>
        <time>2017-11-01T09:27:27Z</time>
      </trkpt>
      <trkpt lat="44.0158" lon="6.66223">
        <ele>1359</ele>
        <time>2017-11-01T09:27:55Z</time>
      </trkpt>
      <trkpt lat="44.01578" lon="6.66207">
        <ele>1358</ele>
        <time>2017-11-01T09:27:57Z</time>
      </trkpt>
      <trkpt lat="44.01487" lon="6.66174">
        <ele>1349</ele>
        <time>2017-11-01T09:28:26Z</time>
      </trkpt>
      <trkpt lat="44.01484" lon="6.66171">
        <ele>1343</ele>
        <time>2017-11-01T09:28:27Z</time>
      </trkpt>
      <trkpt lat="44.01452" lon="6.66177">
        <ele>1337</ele>
        <time>2017-11-01T09:28:55Z</time>
      </trkpt>
      <trkpt lat="44.01453" lon="6.66176">
        <ele>1328</ele>
        <time>2017-11-01T09:28:56Z</time>
      </trkpt>
      <trkpt lat="44.01455" lon="6.66172">
        <ele>1322</ele>
        <time>2017-11-01T09:29:27Z</time>
      </trkpt>
      <trkpt lat="44.01455" lon="6.66172">
        <ele>1323</ele>
        <time>2017-11-01T09:29:30Z</time>
      </trkpt>
      <trkpt lat="44.01455" lon="6.66173">
        <ele>1325</ele>
        <time>2017-11-01T09:29:56Z</time>
      </trkpt>
      <trkpt lat="44.01455" lon="6.66173">
        <ele>1326</ele>
        <time>2017-11-01T09:29:58Z</time>
      </trkpt>
      <trkpt lat="44.01455" lon="6.66173">
        <ele>1327</ele>
        <time>2017-11-01T09:30:25Z</time>
      </trkpt>
      <trkpt lat="44.01455" lon="6.66173">
        <ele>1327</ele>
        <time>2017-11-01T09:30:26Z</time>
      </trkpt>
      <trkpt lat="44.01462" lon="6.66157">
        <ele>1326</ele>
        <time>2017-11-01T09:30:56Z</time>
      </trkpt>
      <trkpt lat="44.0146" lon="6.66158">
        <ele>1323</ele>
        <time>2017-11-01T09:30:57Z</time>
      </trkpt>
      <trkpt lat="44.01469" lon="6.66102">
        <ele>1315</ele>
        <time>2017-11-01T09:31:26Z</time>
      </trkpt>
      <trkpt lat="44.0147" lon="6.661">
        <ele>1307</ele>
        <time>2017-11-01T09:31:27Z</time>
      </trkpt>
      <trkpt lat="44.01496" lon="6.65993">
        <ele>1297</ele>
        <time>2017-11-01T09:31:55Z</time>
      </trkpt>
      <trkpt lat="44.01494" lon="6.6598">
        <ele>1287</ele>
        <time>2017-11-01T09:31:58Z</time>
      </trkpt>
      <trkpt lat="44.0153" lon="6.65902">
        <ele>1281</ele>
        <time>2017-11-01T09:32:27Z</time>
      </trkpt>
      <trkpt lat="44.01528" lon="6.65865">
        <ele>1288</ele>
        <time>2017-11-01T09:32:30Z</time>
      </trkpt>
      <trkpt lat="44.01527" lon="6.65821">
        <ele>1294</ele>
        <time>2017-11-01T09:32:56Z</time>
      </trkpt>
      <trkpt lat="44.01527" lon="6.65821">
        <ele>1301</ele>
        <time>2017-11-01T09:32:57Z</time>
      </trkpt>
      <trkpt lat="44.01532" lon="6.65823">
        <ele>1310</ele>
        <time>2017-11-01T09:33:25Z</time>
      </trkpt>
      <trkpt lat="44.01533" lon="6.65824">
        <ele>1316</ele>
        <time>2017-11-01T09:33:26Z</time>
      </trkpt>
      <trkpt lat="44.01534" lon="6.65827">
        <ele>1312</ele>
        <time>2017-11-01T09:33:55Z</time>
      </trkpt>
      <trkpt lat="44.01534" lon="6.65826">
        <ele>1311</ele>
        <time>2017-11-01T09:33:58Z</time>
      </trkpt>
      <trkpt lat="44.01534" lon="6.65826">
        <ele>1309</ele>
        <time>2017-11-01T09:34:26Z</time>
      </trkpt>
      <trkpt lat="44.01534" lon="6.65825">
        <ele>1307</ele>
        <time>2017-11-01T09:34:29Z</time>
      </trkpt>
      <trkpt lat="44.01512" lon="6.65739">
        <ele>1303</ele>
        <time>2017-11-01T09:34:55Z</time>
      </trkpt>
      <trkpt lat="44.01522" lon="6.65746">
        <ele>1299</ele>
        <time>2017-11-01T09:34:57Z</time>
      </trkpt>
      <trkpt lat="44.01531" lon="6.65769">
        <ele>1293</ele>
        <time>2017-11-01T09:35:27Z</time>
      </trkpt>
      <trkpt lat="44.01535" lon="6.65771">
        <ele>1283</ele>
        <time>2017-11-01T09:35:30Z</time>
      </trkpt>
      <trkpt lat="44.01556" lon="6.6568">
        <ele>1270</ele>
        <time>2017-11-01T09:35:56Z</time>
      </trkpt>
      <trkpt lat="44.01559" lon="6.65678">
        <ele>1260</ele>
        <time>2017-11-01T09:35:58Z</time>
      </trkpt>
      <trkpt lat="44.01603" lon="6.65666">
        <ele>1260</ele>
        <time>2017-11-01T09:36:26Z</time>
      </trkpt>
      <trkpt lat="44.01603" lon="6.65667">
        <ele>1264</ele>
        <time>2017-11-01T09:36:28Z</time>
      </trkpt>
      <trkpt lat="44.01592" lon="6.65609">
        <ele>1269</ele>
        <time>2017-11-01T09:36:56Z</time>
      </trkpt>
      <trkpt lat="44.01589" lon="6.65606">
        <ele>1277</ele>
        <time>2017-11-01T09:36:57Z</time>
      </trkpt>
      <trkpt lat="44.01667" lon="6.65532">
        <ele>1285</ele>
        <time>2017-11-01T09:37:28Z</time>
      </trkpt>
      <trkpt lat="44.01651" lon="6.65502">
        <ele>1278</ele>
        <time>2017-11-01T09:37:31Z</time>
      </trkpt>
      <trkpt lat="44.01649" lon="6.65414">
        <ele>1271</ele>
        <time>2017-11-01T09:37:56Z</time>
      </trkpt>
      <trkpt lat="44.01651" lon="6.65411">
        <ele>1266</ele>
        <time>2017-11-01T09:37:57Z</time>
      </trkpt>
      <trkpt lat="44.01695" lon="6.65314">
        <ele>1256</ele>
        <time>2017-11-01T09:38:27Z</time>
      </trkpt>
      <trkpt lat="44.01697" lon="6.65314">
        <ele>1245</ele>
        <time>2017-11-01T09:38:28Z</time>
      </trkpt>
      <trkpt lat="44.01703" lon="6.65272">
        <ele>1244</ele>
        <time>2017-11-01T09:38:56Z</time>
      </trkpt>
      <trkpt lat="44.01702" lon="6.65273">
        <ele>1243</ele>
        <time>2017-11-01T09:38:57Z</time>
      </trkpt>
      <trkpt lat="44.01703" lon="6.65259">
        <ele>1243</ele>
        <time>2017-11-01T09:39:26Z</time>
      </trkpt>
      <trkpt lat="44.01703" lon="6.65259">
        <ele>1249</ele>
        <time>2017-11-01T09:39:28Z</time>
      </trkpt>
      <trkpt lat="44.01704" lon="6.6526">
        <ele>1251</ele>
        <time>2017-11-01T09:39:56Z</time>
      </trkpt>
      <trkpt lat="44.01704" lon="6.6526">
        <ele>1249</ele>
        <time>2017-11-01T09:39:57Z</time>
      </trkpt>
      <trkpt lat="44.01667" lon="6.65232">
        <ele>1242</ele>
        <time>2017-11-01T09:40:26Z</time>
      </trkpt>
      <trkpt lat="44.01663" lon="6.65232">
        <ele>1235</ele>
        <time>2017-11-01T09:40:27Z</time>
      </trkpt>
      <trkpt lat="44.01625" lon="6.65212">
        <ele>1222</ele>
        <time>2017-11-01T09:40:55Z</time>
      </trkpt>
      <trkpt lat="44.01625" lon="6.65214">
        <ele>1212</ele>
        <time>2017-11-01T09:40:57Z</time>
      </trkpt>
      <trkpt lat="44.01587" lon="6.65204">
        <ele>1205</ele>
        <time>2017-11-01T09:41:25Z</time>
      </trkpt>
      <trkpt lat="44.01591" lon="6.65203">
        <ele>1203</ele>
        <time>2017-11-01T09:41:27Z</time>
      </trkpt>
      <trkpt lat="44.01487" lon="6.65119">
        <ele>1197</ele>
        <time>2017-11-01T09:41:56Z</time>
      </trkpt>
      <trkpt lat="44.01487" lon="6.65112">
        <ele>1197</ele>
        <time>2017-11-01T09:41:57Z</time>
      </trkpt>
      <trkpt lat="44.01531" lon="6.65037">
        <ele>1195</ele>
        <time>2017-11-01T09:42:26Z</time>
      </trkpt>
      <trkpt lat="44.01532" lon="6.65035">
        <ele>1192</ele>
        <time>2017-11-01T09:42:27Z</time>
      </trkpt>
      <trkpt lat="44.01551" lon="6.64992">
        <ele>1191</ele>
        <time>2017-11-01T09:42:56Z</time>
      </trkpt>
      <trkpt lat="44.0155" lon="6.64993">
        <ele>1196</ele>
        <time>2017-11-01T09:42:58Z</time>
      </trkpt>
      <trkpt lat="44.0155" lon="6.64903">
        <ele>1196</ele>
        <time>2017-11-01T09:43:25Z</time>
      </trkpt>
      <trkpt lat="44.01551" lon="6.6489">
        <ele>1193</ele>
        <time>2017-11-01T09:43:27Z</time>
      </trkpt>
      <trkpt lat="44.016" lon="6.64805">
        <ele>1187</ele>
        <time>2017-11-01T09:43:56Z</time>
      </trkpt>
      <trkpt lat="44.01602" lon="6.648">
        <ele>1177</ele>
        <time>2017-11-01T09:43:57Z</time>
      </trkpt>
      <trkpt lat="44.01571" lon="6.64764">
        <ele>1163</ele>
        <time>2017-11-01T09:44:25Z</time>
      </trkpt>
      <trkpt lat="44.0157" lon="6.64761">
        <ele>1154</ele>
        <time>2017-11-01T09:44:26Z</time>
      </trkpt>
      <trkpt lat="44.01625" lon="6.6477">
        <ele>1141</ele>
        <time>2017-11-01T09:44:56Z</time>
      </trkpt>
      <trkpt lat="44.0164" lon="6.64763">
        <ele>1131</ele>
        <time>2017-11-01T09:44:59Z</time>
      </trkpt>
      <trkpt lat="44.01742" lon="6.647">
        <ele>1122</ele>
        <time>2017-11-01T09:45:26Z</time>
      </trkpt>
      <trkpt lat="44.01745" lon="6.64698">
        <ele>1117</ele>
        <time>2017-11-01T09:45:27Z</time>
      </trkpt>
      <trkpt lat="44.01823" lon="6.64692">
        <ele>1105</ele>
        <time>2017-11-01T09:45:56Z</time>
      </trkpt>
      <trkpt lat="44.01823" lon="6.64674">
        <ele>1101</ele>
        <time>2017-11-01T09:45:58Z</time>
      </trkpt>
      <trkpt lat="44.01894" lon="6.64648">
        <ele>1095</ele>
        <time>2017-11-01T09:46:25Z</time>
      </trkpt>
      <trkpt lat="44.01888" lon="6.6465">
        <ele>1090</ele>
        <time>2017-11-01T09:46:27Z</time>
      </trkpt>
      <trkpt lat="44.01901" lon="6.64679">
        <ele>1084</ele>
        <time>2017-11-01T09:46:56Z</time>
      </trkpt>
      <trkpt lat="44.01903" lon="6.64678">
        <ele>1085</ele>
        <time>2017-11-01T09:46:57Z</time>
      </trkpt>
      <trkpt lat="44.01969" lon="6.64683">
        <ele>1090</ele>
        <time>2017-11-01T09:47:25Z</time>
      </trkpt>
      <trkpt lat="44.01972" lon="6.64685">
        <ele>1095</ele>
        <time>2017-11-01T09:47:27Z</time>
      </trkpt>
      <trkpt lat="44.01984" lon="6.64699">
        <ele>1093</ele>
        <time>2017-11-01T09:47:56Z</time>
      </trkpt>
      <trkpt lat="44.01984" lon="6.647">
        <ele>1092</ele>
        <time>2017-11-01T09:47:57Z</time>
      </trkpt>
      <trkpt lat="44.0201" lon="6.64723">
        <ele>1090</ele>
        <time>2017-11-01T09:48:25Z</time>
      </trkpt>
      <trkpt lat="44.02012" lon="6.64722">
        <ele>1083</ele>
        <time>2017-11-01T09:48:26Z</time>
      </trkpt>
      <trkpt lat="44.02015" lon="6.64716">
        <ele>1077</ele>
        <time>2017-11-01T09:48:55Z</time>
      </trkpt>
      <trkpt lat="44.02016" lon="6.64715">
        <ele>1077</ele>
        <time>2017-11-01T09:48:56Z</time>
      </trkpt>
      <trkpt lat="44.02016" lon="6.64712">
        <ele>1078</ele>
        <time>2017-11-01T09:49:26Z</time>
      </trkpt>
      <trkpt lat="44.02016" lon="6.64712">
        <ele>1079</ele>
        <time>2017-11-01T09:49:28Z</time>
      </trkpt>
      <trkpt lat="44.02068" lon="6.64664">
        <ele>1080</ele>
        <time>2017-11-01T09:49:56Z</time>
      </trkpt>
      <trkpt lat="44.0207" lon="6.64663">
        <ele>1080</ele>
        <time>2017-11-01T09:49:57Z</time>
      </trkpt>
      <trkpt lat="44.02173" lon="6.6461">
        <ele>1076</ele>
        <time>2017-11-01T09:50:26Z</time>
      </trkpt>
      <trkpt lat="44.02169" lon="6.64607">
        <ele>1069</ele>
        <time>2017-11-01T09:50:29Z</time>
      </trkpt>
      <trkpt lat="44.0216" lon="6.64594">
        <ele>1063</ele>
        <time>2017-11-01T09:50:56Z</time>
      </trkpt>
      <trkpt lat="44.02159" lon="6.64592">
        <ele>1057</ele>
        <time>2017-11-01T09:50:57Z</time>
      </trkpt>
      <trkpt lat="44.02121" lon="6.64558">
        <ele>1054</ele>
        <time>2017-11-01T09:51:26Z</time>
      </trkpt>
      <trkpt lat="44.02112" lon="6.64564">
        <ele>1057</ele>
        <time>2017-11-01T09:51:28Z</time>
      </trkpt>
      <trkpt lat="44.02079" lon="6.64511">
        <ele>1065</ele>
        <time>2017-11-01T09:51:56Z</time>
      </trkpt>
      <trkpt lat="44.02082" lon="6.64506">
        <ele>1074</ele>
        <time>2017-11-01T09:51:57Z</time>
      </trkpt>
      <trkpt lat="44.02074" lon="6.64471">
        <ele>1076</ele>
        <time>2017-11-01T09:52:26Z</time>
      </trkpt>
      <trkpt lat="44.02073" lon="6.64469">
        <ele>1077</ele>
        <time>2017-11-01T09:52:27Z</time>
      </trkpt>
      <trkpt lat="44.02035" lon="6.64418">
        <ele>1073</ele>
        <time>2017-11-01T09:52:55Z</time>
      </trkpt>
      <trkpt lat="44.02033" lon="6.64415">
        <ele>1064</ele>
        <time>2017-11-01T09:52:56Z</time>
      </trkpt>
      <trkpt lat="44.01967" lon="6.6437">
        <ele>1061</ele>
        <time>2017-11-01T09:53:25Z</time>
      </trkpt>
      <trkpt lat="44.01966" lon="6.64364">
        <ele>1065</ele>
        <time>2017-11-01T09:53:26Z</time>
      </trkpt>
      <trkpt lat="44.01938" lon="6.64327">
        <ele>1067</ele>
        <time>2017-11-01T09:53:55Z</time>
      </trkpt>
      <trkpt lat="44.01934" lon="6.64323">
        <ele>1070</ele>
        <time>2017-11-01T09:53:57Z</time>
      </trkpt>
      <trkpt lat="44.01934" lon="6.64334">
        <ele>1071</ele>
        <time>2017-11-01T09:54:25Z</time>
      </trkpt>
      <trkpt lat="44.01935" lon="6.64334">
        <ele>1066</ele>
        <time>2017-11-01T09:54:26Z</time>
      </trkpt>
      <trkpt lat="44.01902" lon="6.6429">
        <ele>1067</ele>
        <time>2017-11-01T09:54:56Z</time>
      </trkpt>
      <trkpt lat="44.01901" lon="6.64286">
        <ele>1069</ele>
        <time>2017-11-01T09:54:57Z</time>
      </trkpt>
      <trkpt lat="44.01897" lon="6.64124">
        <ele>1068</ele>
        <time>2017-11-01T09:55:25Z</time>
      </trkpt>
      <trkpt lat="44.01899" lon="6.64119">
        <ele>1070</ele>
        <time>2017-11-01T09:55:26Z</time>
      </trkpt>
      <trkpt lat="44.0187" lon="6.64001">
        <ele>1071</ele>
        <time>2017-11-01T09:55:56Z</time>
      </trkpt>
      <trkpt lat="44.01871" lon="6.63999">
        <ele>1068</ele>
        <time>2017-11-01T09:55:57Z</time>
      </trkpt>
      <trkpt lat="44.0192" lon="6.63965">
        <ele>1067</ele>
        <time>2017-11-01T09:56:26Z</time>
      </trkpt>
      <trkpt lat="44.01921" lon="6.63965">
        <ele>1070</ele>
        <time>2017-11-01T09:56:27Z</time>
      </trkpt>
      <trkpt lat="44.01969" lon="6.63883">
        <ele>1068</ele>
        <time>2017-11-01T09:56:55Z</time>
      </trkpt>
      <trkpt lat="44.01971" lon="6.63879">
        <ele>1066</ele>
        <time>2017-11-01T09:56:56Z</time>
      </trkpt>
      <trkpt lat="44.0206" lon="6.63718">
        <ele>1068</ele>
        <time>2017-11-01T09:57:26Z</time>
      </trkpt>
      <trkpt lat="44.02072" lon="6.63713">
        <ele>1065</ele>
        <time>2017-11-01T09:57:27Z</time>
      </trkpt>
      <trkpt lat="44.02184" lon="6.63432">
        <ele>1053</ele>
        <time>2017-11-01T09:57:56Z</time>
      </trkpt>
      <trkpt lat="44.02192" lon="6.63423">
        <ele>1045</ele>
        <time>2017-11-01T09:57:57Z</time>
      </trkpt>
      <trkpt lat="44.02233" lon="6.63302">
        <ele>1041</ele>
        <time>2017-11-01T09:58:26Z</time>
      </trkpt>
      <trkpt lat="44.02233" lon="6.63299">
        <ele>1031</ele>
        <time>2017-11-01T09:58:27Z</time>
      </trkpt>
      <trkpt lat="44.02272" lon="6.6327">
        <ele>1023</ele>
        <time>2017-11-01T09:58:56Z</time>
      </trkpt>
      <trkpt lat="44.02273" lon="6.63268">
        <ele>1026</ele>
        <time>2017-11-01T09:58:57Z</time>
      </trkpt>
      <trkpt lat="44.02313" lon="6.63219">
        <ele>1030</ele>
        <time>2017-11-01T09:59:25Z</time>
      </trkpt>
      <trkpt lat="44.0232" lon="6.63217">
        <ele>1034</ele>
        <time>2017-11-01T09:59:27Z</time>
      </trkpt>
      <trkpt lat="44.02355" lon="6.63185">
        <ele>1036</ele>
        <time>2017-11-01T09:59:56Z</time>
      </trkpt>
      <trkpt lat="44.02355" lon="6.63185">
        <ele>1038</ele>
        <time>2017-11-01T09:59:57Z</time>
      </trkpt>
      <trkpt lat="44.02356" lon="6.63183">
        <ele>1041</ele>
        <time>2017-11-01T10:00:26Z</time>
      </trkpt>
      <trkpt lat="44.02356" lon="6.63182">
        <ele>1043</ele>
        <time>2017-11-01T10:00:28Z</time>
      </trkpt>
      <trkpt lat="44.02355" lon="6.63182">
        <ele>1042</ele>
        <time>2017-11-01T10:00:56Z</time>
      </trkpt>
      <trkpt lat="44.02354" lon="6.63182">
        <ele>1043</ele>
        <time>2017-11-01T10:00:58Z</time>
      </trkpt>
      <trkpt lat="44.02354" lon="6.63182">
        <ele>1045</ele>
        <time>2017-11-01T10:01:26Z</time>
      </trkpt>
      <trkpt lat="44.02354" lon="6.63182">
        <ele>1045</ele>
        <time>2017-11-01T10:01:27Z</time>
      </trkpt>
      <trkpt lat="44.02354" lon="6.63182">
        <ele>1045</ele>
        <time>2017-11-01T10:01:56Z</time>
      </trkpt>
      <trkpt lat="44.02354" lon="6.63182">
        <ele>1045</ele>
        <time>2017-11-01T10:01:57Z</time>
      </trkpt>
      <trkpt lat="44.02354" lon="6.63182">
        <ele>1045</ele>
        <time>2017-11-01T10:02:29Z</time>
      </trkpt>
      <trkpt lat="44.02354" lon="6.63181">
        <ele>1045</ele>
        <time>2017-11-01T10:02:32Z</time>
      </trkpt>
      <trkpt lat="44.02355" lon="6.63181">
        <ele>1044</ele>
        <time>2017-11-01T10:02:59Z</time>
      </trkpt>
      <trkpt lat="44.02355" lon="6.63181">
        <ele>1043</ele>
        <time>2017-11-01T10:03:00Z</time>
      </trkpt>
      <trkpt lat="44.02355" lon="6.63181">
        <ele>1043</ele>
        <time>2017-11-01T10:03:29Z</time>
      </trkpt>
      <trkpt lat="44.02355" lon="6.63181">
        <ele>1043</ele>
        <time>2017-11-01T10:03:30Z</time>
      </trkpt>
      <trkpt lat="44.02355" lon="6.63181">
        <ele>1043</ele>
        <time>2017-11-01T10:03:59Z</time>
      </trkpt>
      <trkpt lat="44.02355" lon="6.63181">
        <ele>1043</ele>
        <time>2017-11-01T10:04:00Z</time>
      </trkpt>
      <trkpt lat="44.02355" lon="6.63181">
        <ele>1043</ele>
        <time>2017-11-01T10:04:29Z</time>
      </trkpt>
      <trkpt lat="44.02355" lon="6.63181">
        <ele>1043</ele>
        <time>2017-11-01T10:04:30Z</time>
      </trkpt>
      <trkpt lat="44.02359" lon="6.63178">
        <ele>1043</ele>
        <time>2017-11-01T10:04:59Z</time>
      </trkpt>
      <trkpt lat="44.02364" lon="6.63176">
        <ele>1043</ele>
        <time>2017-11-01T10:05:02Z</time>
      </trkpt>
      <trkpt lat="44.02369" lon="6.63173">
        <ele>1043</ele>
        <time>2017-11-01T10:05:07Z</time>
      </trkpt>
      <trkpt lat="44.02374" lon="6.63171">
        <ele>1044</ele>
        <time>2017-11-01T10:05:10Z</time>
      </trkpt>
      <trkpt lat="44.02379" lon="6.6317">
        <ele>1044</ele>
        <time>2017-11-01T10:05:14Z</time>
      </trkpt>
      <trkpt lat="44.02385" lon="6.63167">
        <ele>1045</ele>
        <time>2017-11-01T10:05:17Z</time>
      </trkpt>
      <trkpt lat="44.0239" lon="6.63165">
        <ele>1045</ele>
        <time>2017-11-01T10:05:20Z</time>
      </trkpt>
      <trkpt lat="44.02395" lon="6.63162">
        <ele>1045</ele>
        <time>2017-11-01T10:05:24Z</time>
      </trkpt>
      <trkpt lat="44.02401" lon="6.6316">
        <ele>1046</ele>
        <time>2017-11-01T10:05:28Z</time>
      </trkpt>
      <trkpt lat="44.02406" lon="6.63158">
        <ele>1046</ele>
        <time>2017-11-01T10:05:31Z</time>
      </trkpt>
      <trkpt lat="44.02411" lon="6.63158">
        <ele>1046</ele>
        <time>2017-11-01T10:05:34Z</time>
      </trkpt>
      <trkpt lat="44.02416" lon="6.63158">
        <ele>1046</ele>
        <time>2017-11-01T10:05:37Z</time>
      </trkpt>
      <trkpt lat="44.02421" lon="6.63158">
        <ele>1047</ele>
        <time>2017-11-01T10:05:40Z</time>
      </trkpt>
      <trkpt lat="44.02426" lon="6.63158">
        <ele>1047</ele>
        <time>2017-11-01T10:05:43Z</time>
      </trkpt>
      <trkpt lat="44.02432" lon="6.63159">
        <ele>1047</ele>
        <time>2017-11-01T10:05:46Z</time>
      </trkpt>
      <trkpt lat="44.02437" lon="6.6316">
        <ele>1048</ele>
        <time>2017-11-01T10:05:49Z</time>
      </trkpt>
      <trkpt lat="44.02443" lon="6.63159">
        <ele>1048</ele>
        <time>2017-11-01T10:05:52Z</time>
      </trkpt>
      <trkpt lat="44.02448" lon="6.6316">
        <ele>1049</ele>
        <time>2017-11-01T10:05:55Z</time>
      </trkpt>
      <trkpt lat="44.02453" lon="6.63159">
        <ele>1050</ele>
        <time>2017-11-01T10:05:58Z</time>
      </trkpt>
      <trkpt lat="44.02458" lon="6.63159">
        <ele>1051</ele>
        <time>2017-11-01T10:06:01Z</time>
      </trkpt>
      <trkpt lat="44.02463" lon="6.63159">
        <ele>1051</ele>
        <time>2017-11-01T10:06:04Z</time>
      </trkpt>
      <trkpt lat="44.02468" lon="6.63158">
        <ele>1051</ele>
        <time>2017-11-01T10:06:07Z</time>
      </trkpt>
      <trkpt lat="44.02474" lon="6.63159">
        <ele>1051</ele>
        <time>2017-11-01T10:06:11Z</time>
      </trkpt>
      <trkpt lat="44.02479" lon="6.63157">
        <ele>1050</ele>
        <time>2017-11-01T10:06:14Z</time>
      </trkpt>
      <trkpt lat="44.02484" lon="6.63158">
        <ele>1050</ele>
        <time>2017-11-01T10:06:18Z</time>
      </trkpt>
      <trkpt lat="44.02489" lon="6.6316">
        <ele>1049</ele>
        <time>2017-11-01T10:06:22Z</time>
      </trkpt>
      <trkpt lat="44.02494" lon="6.63162">
        <ele>1049</ele>
        <time>2017-11-01T10:06:25Z</time>
      </trkpt>
      <trkpt lat="44.02498" lon="6.63163">
        <ele>1049</ele>
        <time>2017-11-01T10:06:28Z</time>
      </trkpt>
      <trkpt lat="44.02503" lon="6.63164">
        <ele>1049</ele>
        <time>2017-11-01T10:06:31Z</time>
      </trkpt>
      <trkpt lat="44.02508" lon="6.63163">
        <ele>1049</ele>
        <time>2017-11-01T10:06:34Z</time>
      </trkpt>
      <trkpt lat="44.02513" lon="6.63161">
        <ele>1048</ele>
        <time>2017-11-01T10:06:37Z</time>
      </trkpt>
      <trkpt lat="44.02518" lon="6.6316">
        <ele>1049</ele>
        <time>2017-11-01T10:06:40Z</time>
      </trkpt>
      <trkpt lat="44.02523" lon="6.63159">
        <ele>1049</ele>
        <time>2017-11-01T10:06:43Z</time>
      </trkpt>
      <trkpt lat="44.02529" lon="6.63157">
        <ele>1049</ele>
        <time>2017-11-01T10:06:46Z</time>
      </trkpt>
      <trkpt lat="44.02535" lon="6.63155">
        <ele>1050</ele>
        <time>2017-11-01T10:06:49Z</time>
      </trkpt>
      <trkpt lat="44.0254" lon="6.63155">
        <ele>1050</ele>
        <time>2017-11-01T10:06:52Z</time>
      </trkpt>
      <trkpt lat="44.02546" lon="6.63156">
        <ele>1050</ele>
        <time>2017-11-01T10:06:55Z</time>
      </trkpt>
      <trkpt lat="44.02552" lon="6.63156">
        <ele>1051</ele>
        <time>2017-11-01T10:06:58Z</time>
      </trkpt>
      <trkpt lat="44.02558" lon="6.63156">
        <ele>1051</ele>
        <time>2017-11-01T10:07:01Z</time>
      </trkpt>
      <trkpt lat="44.02563" lon="6.63156">
        <ele>1051</ele>
        <time>2017-11-01T10:07:04Z</time>
      </trkpt>
      <trkpt lat="44.0257" lon="6.63157">
        <ele>1051</ele>
        <time>2017-11-01T10:07:07Z</time>
      </trkpt>
      <trkpt lat="44.02576" lon="6.63157">
        <ele>1051</ele>
        <time>2017-11-01T10:07:10Z</time>
      </trkpt>
      <trkpt lat="44.02581" lon="6.63158">
        <ele>1051</ele>
        <time>2017-11-01T10:07:13Z</time>
      </trkpt>
      <trkpt lat="44.02586" lon="6.63158">
        <ele>1051</ele>
        <time>2017-11-01T10:07:16Z</time>
      </trkpt>
      <trkpt lat="44.02588" lon="6.63159">
        <ele>1051</ele>
        <time>2017-11-01T10:07:31Z</time>
      </trkpt>
      <trkpt lat="44.02588" lon="6.63159">
        <ele>1051</ele>
        <time>2017-11-01T10:07:32Z</time>
      </trkpt>
      <trkpt lat="44.02588" lon="6.63159">
        <ele>1052</ele>
        <time>2017-11-01T10:08:01Z</time>
      </trkpt>
      <trkpt lat="44.02588" lon="6.63159">
        <ele>1053</ele>
        <time>2017-11-01T10:08:02Z</time>
      </trkpt>
      <trkpt lat="44.02588" lon="6.63159">
        <ele>1053</ele>
        <time>2017-11-01T10:08:31Z</time>
      </trkpt>
      <trkpt lat="44.02588" lon="6.63159">
        <ele>1053</ele>
        <time>2017-11-01T10:08:32Z</time>
      </trkpt>
      <trkpt lat="44.02588" lon="6.63159">
        <ele>1054</ele>
        <time>2017-11-01T10:09:01Z</time>
      </trkpt>
      <trkpt lat="44.02588" lon="6.63159">
        <ele>1054</ele>
        <time>2017-11-01T10:09:02Z</time>
      </trkpt>
      <trkpt lat="44.02588" lon="6.63159">
        <ele>1054</ele>
        <time>2017-11-01T10:09:31Z</time>
      </trkpt>
      <trkpt lat="44.02588" lon="6.63159">
        <ele>1054</ele>
        <time>2017-11-01T10:09:32Z</time>
      </trkpt>
      <trkpt lat="44.02593" lon="6.63162">
        <ele>1054</ele>
        <time>2017-11-01T10:09:58Z</time>
      </trkpt>
      <trkpt lat="44.02598" lon="6.63164">
        <ele>1054</ele>
        <time>2017-11-01T10:10:01Z</time>
      </trkpt>
      <trkpt lat="44.02603" lon="6.63167">
        <ele>1054</ele>
        <time>2017-11-01T10:10:04Z</time>
      </trkpt>
      <trkpt lat="44.02609" lon="6.63169">
        <ele>1055</ele>
        <time>2017-11-01T10:10:07Z</time>
      </trkpt>
      <trkpt lat="44.02614" lon="6.6317">
        <ele>1055</ele>
        <time>2017-11-01T10:10:10Z</time>
      </trkpt>
      <trkpt lat="44.02618" lon="6.63171">
        <ele>1055</ele>
        <time>2017-11-01T10:10:13Z</time>
      </trkpt>
      <trkpt lat="44.02624" lon="6.63171">
        <ele>1056</ele>
        <time>2017-11-01T10:10:16Z</time>
      </trkpt>
      <trkpt lat="44.02629" lon="6.63172">
        <ele>1056</ele>
        <time>2017-11-01T10:10:19Z</time>
      </trkpt>
      <trkpt lat="44.02634" lon="6.63174">
        <ele>1056</ele>
        <time>2017-11-01T10:10:22Z</time>
      </trkpt>
      <trkpt lat="44.02639" lon="6.63176">
        <ele>1056</ele>
        <time>2017-11-01T10:10:25Z</time>
      </trkpt>
      <trkpt lat="44.02644" lon="6.63178">
        <ele>1057</ele>
        <time>2017-11-01T10:10:28Z</time>
      </trkpt>
      <trkpt lat="44.0265" lon="6.6318">
        <ele>1057</ele>
        <time>2017-11-01T10:10:32Z</time>
      </trkpt>
      <trkpt lat="44.02655" lon="6.63181">
        <ele>1057</ele>
        <time>2017-11-01T10:10:35Z</time>
      </trkpt>
      <trkpt lat="44.02661" lon="6.63181">
        <ele>1057</ele>
        <time>2017-11-01T10:10:38Z</time>
      </trkpt>
      <trkpt lat="44.02667" lon="6.63181">
        <ele>1057</ele>
        <time>2017-11-01T10:10:41Z</time>
      </trkpt>
      <trkpt lat="44.02674" lon="6.6318">
        <ele>1057</ele>
        <time>2017-11-01T10:10:44Z</time>
      </trkpt>
      <trkpt lat="44.02679" lon="6.6318">
        <ele>1057</ele>
        <time>2017-11-01T10:10:47Z</time>
      </trkpt>
      <trkpt lat="44.02686" lon="6.63179">
        <ele>1057</ele>
        <time>2017-11-01T10:10:50Z</time>
      </trkpt>
      <trkpt lat="44.02691" lon="6.6318">
        <ele>1057</ele>
        <time>2017-11-01T10:10:53Z</time>
      </trkpt>
      <trkpt lat="44.02697" lon="6.63178">
        <ele>1057</ele>
        <time>2017-11-01T10:10:56Z</time>
      </trkpt>
      <trkpt lat="44.02702" lon="6.63175">
        <ele>1057</ele>
        <time>2017-11-01T10:10:59Z</time>
      </trkpt>
      <trkpt lat="44.02706" lon="6.63172">
        <ele>1057</ele>
        <time>2017-11-01T10:11:02Z</time>
      </trkpt>
      <trkpt lat="44.02711" lon="6.63172">
        <ele>1057</ele>
        <time>2017-11-01T10:11:06Z</time>
      </trkpt>
      <trkpt lat="44.02715" lon="6.63171">
        <ele>1058</ele>
        <time>2017-11-01T10:11:09Z</time>
      </trkpt>
      <trkpt lat="44.02721" lon="6.6317">
        <ele>1058</ele>
        <time>2017-11-01T10:11:13Z</time>
      </trkpt>
      <trkpt lat="44.02726" lon="6.63169">
        <ele>1059</ele>
        <time>2017-11-01T10:11:16Z</time>
      </trkpt>
      <trkpt lat="44.02731" lon="6.63166">
        <ele>1060</ele>
        <time>2017-11-01T10:11:20Z</time>
      </trkpt>
      <trkpt lat="44.02736" lon="6.63163">
        <ele>1060</ele>
        <time>2017-11-01T10:11:24Z</time>
      </trkpt>
      <trkpt lat="44.02741" lon="6.6316">
        <ele>1061</ele>
        <time>2017-11-01T10:11:27Z</time>
      </trkpt>
      <trkpt lat="44.02746" lon="6.63156">
        <ele>1061</ele>
        <time>2017-11-01T10:11:31Z</time>
      </trkpt>
      <trkpt lat="44.0275" lon="6.63153">
        <ele>1062</ele>
        <time>2017-11-01T10:11:35Z</time>
      </trkpt>
      <trkpt lat="44.02754" lon="6.63149">
        <ele>1063</ele>
        <time>2017-11-01T10:11:39Z</time>
      </trkpt>
      <trkpt lat="44.02758" lon="6.63143">
        <ele>1064</ele>
        <time>2017-11-01T10:11:43Z</time>
      </trkpt>
      <trkpt lat="44.0276" lon="6.63137">
        <ele>1065</ele>
        <time>2017-11-01T10:11:46Z</time>
      </trkpt>
      <trkpt lat="44.02761" lon="6.63129">
        <ele>1066</ele>
        <time>2017-11-01T10:11:50Z</time>
      </trkpt>
      <trkpt lat="44.02761" lon="6.63121">
        <ele>1066</ele>
        <time>2017-11-01T10:11:53Z</time>
      </trkpt>
      <trkpt lat="44.02761" lon="6.63115">
        <ele>1066</ele>
        <time>2017-11-01T10:11:55Z</time>
      </trkpt>
      <trkpt lat="44.02762" lon="6.63106">
        <ele>1066</ele>
        <time>2017-11-01T10:11:57Z</time>
      </trkpt>
      <trkpt lat="44.02762" lon="6.63095">
        <ele>1065</ele>
        <time>2017-11-01T10:11:59Z</time>
      </trkpt>
      <trkpt lat="44.02762" lon="6.63083">
        <ele>1065</ele>
        <time>2017-11-01T10:12:01Z</time>
      </trkpt>
      <trkpt lat="44.02763" lon="6.63076">
        <ele>1064</ele>
        <time>2017-11-01T10:12:02Z</time>
      </trkpt>
      <trkpt lat="44.02762" lon="6.63069">
        <ele>1064</ele>
        <time>2017-11-01T10:12:03Z</time>
      </trkpt>
      <trkpt lat="44.02762" lon="6.63062">
        <ele>1063</ele>
        <time>2017-11-01T10:12:04Z</time>
      </trkpt>
      <trkpt lat="44.02761" lon="6.63055">
        <ele>1063</ele>
        <time>2017-11-01T10:12:05Z</time>
      </trkpt>
      <trkpt lat="44.0276" lon="6.63047">
        <ele>1063</ele>
        <time>2017-11-01T10:12:06Z</time>
      </trkpt>
      <trkpt lat="44.02759" lon="6.6304">
        <ele>1063</ele>
        <time>2017-11-01T10:12:07Z</time>
      </trkpt>
      <trkpt lat="44.02758" lon="6.63033">
        <ele>1063</ele>
        <time>2017-11-01T10:12:08Z</time>
      </trkpt>
      <trkpt lat="44.02756" lon="6.63025">
        <ele>1063</ele>
        <time>2017-11-01T10:12:09Z</time>
      </trkpt>
      <trkpt lat="44.02755" lon="6.63018">
        <ele>1063</ele>
        <time>2017-11-01T10:12:10Z</time>
      </trkpt>
      <trkpt lat="44.02755" lon="6.63011">
        <ele>1063</ele>
        <time>2017-11-01T10:12:11Z</time>
      </trkpt>
      <trkpt lat="44.02754" lon="6.63005">
        <ele>1063</ele>
        <time>2017-11-01T10:12:12Z</time>
      </trkpt>
      <trkpt lat="44.02752" lon="6.62994">
        <ele>1063</ele>
        <time>2017-11-01T10:12:14Z</time>
      </trkpt>
      <trkpt lat="44.02748" lon="6.62986">
        <ele>1063</ele>
        <time>2017-11-01T10:12:16Z</time>
      </trkpt>
      <trkpt lat="44.02744" lon="6.62981">
        <ele>1063</ele>
        <time>2017-11-01T10:12:18Z</time>
      </trkpt>
      <trkpt lat="44.02737" lon="6.62978">
        <ele>1063</ele>
        <time>2017-11-01T10:12:20Z</time>
      </trkpt>
      <trkpt lat="44.02731" lon="6.62974">
        <ele>1063</ele>
        <time>2017-11-01T10:12:22Z</time>
      </trkpt>
      <trkpt lat="44.02724" lon="6.6297">
        <ele>1063</ele>
        <time>2017-11-01T10:12:24Z</time>
      </trkpt>
      <trkpt lat="44.02718" lon="6.62965">
        <ele>1063</ele>
        <time>2017-11-01T10:12:26Z</time>
      </trkpt>
      <trkpt lat="44.02712" lon="6.62961">
        <ele>1063</ele>
        <time>2017-11-01T10:12:28Z</time>
      </trkpt>
      <trkpt lat="44.02705" lon="6.62957">
        <ele>1063</ele>
        <time>2017-11-01T10:12:30Z</time>
      </trkpt>
      <trkpt lat="44.02704" lon="6.6295">
        <ele>1063</ele>
        <time>2017-11-01T10:12:32Z</time>
      </trkpt>
      <trkpt lat="44.02709" lon="6.62946">
        <ele>1063</ele>
        <time>2017-11-01T10:12:34Z</time>
      </trkpt>
      <trkpt lat="44.02715" lon="6.62946">
        <ele>1063</ele>
        <time>2017-11-01T10:12:36Z</time>
      </trkpt>
      <trkpt lat="44.02721" lon="6.62947">
        <ele>1063</ele>
        <time>2017-11-01T10:12:38Z</time>
      </trkpt>
      <trkpt lat="44.02728" lon="6.62949">
        <ele>1063</ele>
        <time>2017-11-01T10:12:40Z</time>
      </trkpt>
      <trkpt lat="44.02733" lon="6.62951">
        <ele>1063</ele>
        <time>2017-11-01T10:12:41Z</time>
      </trkpt>
      <trkpt lat="44.02739" lon="6.62953">
        <ele>1063</ele>
        <time>2017-11-01T10:12:42Z</time>
      </trkpt>
      <trkpt lat="44.02744" lon="6.62955">
        <ele>1063</ele>
        <time>2017-11-01T10:12:43Z</time>
      </trkpt>
      <trkpt lat="44.0275" lon="6.62957">
        <ele>1063</ele>
        <time>2017-11-01T10:12:44Z</time>
      </trkpt>
      <trkpt lat="44.02755" lon="6.6296">
        <ele>1063</ele>
        <time>2017-11-01T10:12:45Z</time>
      </trkpt>
      <trkpt lat="44.02762" lon="6.62963">
        <ele>1062</ele>
        <time>2017-11-01T10:12:46Z</time>
      </trkpt>
      <trkpt lat="44.02769" lon="6.62966">
        <ele>1062</ele>
        <time>2017-11-01T10:12:47Z</time>
      </trkpt>
      <trkpt lat="44.02775" lon="6.62968">
        <ele>1063</ele>
        <time>2017-11-01T10:12:48Z</time>
      </trkpt>
      <trkpt lat="44.02781" lon="6.6297">
        <ele>1063</ele>
        <time>2017-11-01T10:12:49Z</time>
      </trkpt>
      <trkpt lat="44.02788" lon="6.62971">
        <ele>1063</ele>
        <time>2017-11-01T10:12:50Z</time>
      </trkpt>
      <trkpt lat="44.02794" lon="6.62973">
        <ele>1063</ele>
        <time>2017-11-01T10:12:51Z</time>
      </trkpt>
      <trkpt lat="44.02799" lon="6.62972">
        <ele>1063</ele>
        <time>2017-11-01T10:12:52Z</time>
      </trkpt>
      <trkpt lat="44.02805" lon="6.62973">
        <ele>1063</ele>
        <time>2017-11-01T10:12:53Z</time>
      </trkpt>
      <trkpt lat="44.02809" lon="6.62976">
        <ele>1063</ele>
        <time>2017-11-01T10:12:54Z</time>
      </trkpt>
      <trkpt lat="44.02813" lon="6.6298">
        <ele>1063</ele>
        <time>2017-11-01T10:12:55Z</time>
      </trkpt>
      <trkpt lat="44.02818" lon="6.62983">
        <ele>1063</ele>
        <time>2017-11-01T10:12:56Z</time>
      </trkpt>
      <trkpt lat="44.02823" lon="6.62985">
        <ele>1063</ele>
        <time>2017-11-01T10:12:57Z</time>
      </trkpt>
      <trkpt lat="44.02828" lon="6.62986">
        <ele>1063</ele>
        <time>2017-11-01T10:12:58Z</time>
      </trkpt>
      <trkpt lat="44.02833" lon="6.62987">
        <ele>1063</ele>
        <time>2017-11-01T10:12:59Z</time>
      </trkpt>
      <trkpt lat="44.02838" lon="6.62987">
        <ele>1063</ele>
        <time>2017-11-01T10:13:00Z</time>
      </trkpt>
      <trkpt lat="44.02847" lon="6.62987">
        <ele>1063</ele>
        <time>2017-11-01T10:13:02Z</time>
      </trkpt>
      <trkpt lat="44.02855" lon="6.62984">
        <ele>1063</ele>
        <time>2017-11-01T10:13:04Z</time>
      </trkpt>
      <trkpt lat="44.02863" lon="6.62981">
        <ele>1064</ele>
        <time>2017-11-01T10:13:06Z</time>
      </trkpt>
      <trkpt lat="44.02869" lon="6.62979">
        <ele>1064</ele>
        <time>2017-11-01T10:13:08Z</time>
      </trkpt>
      <trkpt lat="44.02874" lon="6.62977">
        <ele>1064</ele>
        <time>2017-11-01T10:13:10Z</time>
      </trkpt>
      <trkpt lat="44.02878" lon="6.62975">
        <ele>1065</ele>
        <time>2017-11-01T10:13:12Z</time>
      </trkpt>
      <trkpt lat="44.02883" lon="6.62974">
        <ele>1065</ele>
        <time>2017-11-01T10:13:15Z</time>
      </trkpt>
      <trkpt lat="44.02887" lon="6.62972">
        <ele>1066</ele>
        <time>2017-11-01T10:13:18Z</time>
      </trkpt>
      <trkpt lat="44.02893" lon="6.62969">
        <ele>1067</ele>
        <time>2017-11-01T10:13:22Z</time>
      </trkpt>
      <trkpt lat="44.02898" lon="6.62968">
        <ele>1068</ele>
        <time>2017-11-01T10:13:25Z</time>
      </trkpt>
      <trkpt lat="44.02903" lon="6.62967">
        <ele>1069</ele>
        <time>2017-11-01T10:13:28Z</time>
      </trkpt>
      <trkpt lat="44.02909" lon="6.62965">
        <ele>1070</ele>
        <time>2017-11-01T10:13:31Z</time>
      </trkpt>
      <trkpt lat="44.02914" lon="6.62965">
        <ele>1071</ele>
        <time>2017-11-01T10:13:34Z</time>
      </trkpt>
      <trkpt lat="44.02919" lon="6.62964">
        <ele>1071</ele>
        <time>2017-11-01T10:13:37Z</time>
      </trkpt>
      <trkpt lat="44.02924" lon="6.62965">
        <ele>1072</ele>
        <time>2017-11-01T10:13:40Z</time>
      </trkpt>
      <trkpt lat="44.02929" lon="6.62965">
        <ele>1072</ele>
        <time>2017-11-01T10:13:43Z</time>
      </trkpt>
      <trkpt lat="44.02934" lon="6.62965">
        <ele>1073</ele>
        <time>2017-11-01T10:13:46Z</time>
      </trkpt>
      <trkpt lat="44.02939" lon="6.62965">
        <ele>1073</ele>
        <time>2017-11-01T10:13:49Z</time>
      </trkpt>
      <trkpt lat="44.02945" lon="6.62964">
        <ele>1074</ele>
        <time>2017-11-01T10:13:53Z</time>
      </trkpt>
      <trkpt lat="44.02951" lon="6.62964">
        <ele>1074</ele>
        <time>2017-11-01T10:13:57Z</time>
      </trkpt>
      <trkpt lat="44.02957" lon="6.62963">
        <ele>1075</ele>
        <time>2017-11-01T10:14:01Z</time>
      </trkpt>
      <trkpt lat="44.02961" lon="6.62963">
        <ele>1076</ele>
        <time>2017-11-01T10:14:04Z</time>
      </trkpt>
      <trkpt lat="44.02967" lon="6.62963">
        <ele>1077</ele>
        <time>2017-11-01T10:14:08Z</time>
      </trkpt>
      <trkpt lat="44.02972" lon="6.62964">
        <ele>1078</ele>
        <time>2017-11-01T10:14:11Z</time>
      </trkpt>
      <trkpt lat="44.02976" lon="6.62964">
        <ele>1078</ele>
        <time>2017-11-01T10:14:14Z</time>
      </trkpt>
      <trkpt lat="44.02981" lon="6.62966">
        <ele>1079</ele>
        <time>2017-11-01T10:14:17Z</time>
      </trkpt>
      <trkpt lat="44.02987" lon="6.62966">
        <ele>1079</ele>
        <time>2017-11-01T10:14:20Z</time>
      </trkpt>
      <trkpt lat="44.02993" lon="6.62966">
        <ele>1080</ele>
        <time>2017-11-01T10:14:24Z</time>
      </trkpt>
      <trkpt lat="44.02998" lon="6.62967">
        <ele>1080</ele>
        <time>2017-11-01T10:14:28Z</time>
      </trkpt>
      <trkpt lat="44.03004" lon="6.62968">
        <ele>1081</ele>
        <time>2017-11-01T10:14:32Z</time>
      </trkpt>
      <trkpt lat="44.03009" lon="6.62971">
        <ele>1081</ele>
        <time>2017-11-01T10:14:35Z</time>
      </trkpt>
      <trkpt lat="44.03014" lon="6.62972">
        <ele>1082</ele>
        <time>2017-11-01T10:14:38Z</time>
      </trkpt>
      <trkpt lat="44.03019" lon="6.62972">
        <ele>1082</ele>
        <time>2017-11-01T10:14:41Z</time>
      </trkpt>
      <trkpt lat="44.03024" lon="6.62971">
        <ele>1082</ele>
        <time>2017-11-01T10:14:44Z</time>
      </trkpt>
      <trkpt lat="44.03029" lon="6.62971">
        <ele>1083</ele>
        <time>2017-11-01T10:14:47Z</time>
      </trkpt>
      <trkpt lat="44.03034" lon="6.62971">
        <ele>1084</ele>
        <time>2017-11-01T10:14:50Z</time>
      </trkpt>
      <trkpt lat="44.03039" lon="6.62971">
        <ele>1085</ele>
        <time>2017-11-01T10:14:53Z</time>
      </trkpt>
      <trkpt lat="44.03044" lon="6.6297">
        <ele>1086</ele>
        <time>2017-11-01T10:14:56Z</time>
      </trkpt>
      <trkpt lat="44.03049" lon="6.6297">
        <ele>1087</ele>
        <time>2017-11-01T10:14:59Z</time>
      </trkpt>
      <trkpt lat="44.03054" lon="6.6297">
        <ele>1088</ele>
        <time>2017-11-01T10:15:02Z</time>
      </trkpt>
      <trkpt lat="44.03058" lon="6.62969">
        <ele>1088</ele>
        <time>2017-11-01T10:15:05Z</time>
      </trkpt>
      <trkpt lat="44.03063" lon="6.62969">
        <ele>1089</ele>
        <time>2017-11-01T10:15:08Z</time>
      </trkpt>
      <trkpt lat="44.03069" lon="6.62969">
        <ele>1090</ele>
        <time>2017-11-01T10:15:12Z</time>
      </trkpt>
      <trkpt lat="44.03074" lon="6.62969">
        <ele>1091</ele>
        <time>2017-11-01T10:15:15Z</time>
      </trkpt>
      <trkpt lat="44.03079" lon="6.62969">
        <ele>1091</ele>
        <time>2017-11-01T10:15:18Z</time>
      </trkpt>
      <trkpt lat="44.03083" lon="6.62968">
        <ele>1092</ele>
        <time>2017-11-01T10:15:21Z</time>
      </trkpt>
      <trkpt lat="44.03089" lon="6.62967">
        <ele>1092</ele>
        <time>2017-11-01T10:15:24Z</time>
      </trkpt>
      <trkpt lat="44.03094" lon="6.62968">
        <ele>1092</ele>
        <time>2017-11-01T10:15:27Z</time>
      </trkpt>
      <trkpt lat="44.03099" lon="6.62967">
        <ele>1093</ele>
        <time>2017-11-01T10:15:30Z</time>
      </trkpt>
      <trkpt lat="44.03104" lon="6.62967">
        <ele>1093</ele>
        <time>2017-11-01T10:15:33Z</time>
      </trkpt>
      <trkpt lat="44.03109" lon="6.62967">
        <ele>1093</ele>
        <time>2017-11-01T10:15:36Z</time>
      </trkpt>
      <trkpt lat="44.03114" lon="6.62968">
        <ele>1093</ele>
        <time>2017-11-01T10:15:39Z</time>
      </trkpt>
      <trkpt lat="44.0312" lon="6.62969">
        <ele>1093</ele>
        <time>2017-11-01T10:15:42Z</time>
      </trkpt>
      <trkpt lat="44.03126" lon="6.62971">
        <ele>1093</ele>
        <time>2017-11-01T10:15:45Z</time>
      </trkpt>
      <trkpt lat="44.03132" lon="6.62973">
        <ele>1093</ele>
        <time>2017-11-01T10:15:48Z</time>
      </trkpt>
      <trkpt lat="44.03137" lon="6.62973">
        <ele>1093</ele>
        <time>2017-11-01T10:15:51Z</time>
      </trkpt>
      <trkpt lat="44.03143" lon="6.62973">
        <ele>1093</ele>
        <time>2017-11-01T10:15:54Z</time>
      </trkpt>
      <trkpt lat="44.0315" lon="6.62971">
        <ele>1093</ele>
        <time>2017-11-01T10:15:57Z</time>
      </trkpt>
      <trkpt lat="44.03156" lon="6.62967">
        <ele>1093</ele>
        <time>2017-11-01T10:16:00Z</time>
      </trkpt>
      <trkpt lat="44.03161" lon="6.62963">
        <ele>1093</ele>
        <time>2017-11-01T10:16:02Z</time>
      </trkpt>
      <trkpt lat="44.03165" lon="6.62959">
        <ele>1093</ele>
        <time>2017-11-01T10:16:04Z</time>
      </trkpt>
      <trkpt lat="44.0317" lon="6.62954">
        <ele>1093</ele>
        <time>2017-11-01T10:16:06Z</time>
      </trkpt>
      <trkpt lat="44.03174" lon="6.62949">
        <ele>1093</ele>
        <time>2017-11-01T10:16:08Z</time>
      </trkpt>
      <trkpt lat="44.03179" lon="6.62946">
        <ele>1093</ele>
        <time>2017-11-01T10:16:10Z</time>
      </trkpt>
      <trkpt lat="44.03183" lon="6.62942">
        <ele>1093</ele>
        <time>2017-11-01T10:16:12Z</time>
      </trkpt>
      <trkpt lat="44.03188" lon="6.62939">
        <ele>1093</ele>
        <time>2017-11-01T10:16:14Z</time>
      </trkpt>
      <trkpt lat="44.03193" lon="6.62935">
        <ele>1093</ele>
        <time>2017-11-01T10:16:16Z</time>
      </trkpt>
      <trkpt lat="44.03198" lon="6.62933">
        <ele>1093</ele>
        <time>2017-11-01T10:16:18Z</time>
      </trkpt>
      <trkpt lat="44.03202" lon="6.62931">
        <ele>1094</ele>
        <time>2017-11-01T10:16:20Z</time>
      </trkpt>
      <trkpt lat="44.03207" lon="6.62928">
        <ele>1094</ele>
        <time>2017-11-01T10:16:23Z</time>
      </trkpt>
      <trkpt lat="44.03212" lon="6.62925">
        <ele>1094</ele>
        <time>2017-11-01T10:16:26Z</time>
      </trkpt>
      <trkpt lat="44.03217" lon="6.62924">
        <ele>1094</ele>
        <time>2017-11-01T10:16:29Z</time>
      </trkpt>
      <trkpt lat="44.03222" lon="6.62924">
        <ele>1095</ele>
        <time>2017-11-01T10:16:32Z</time>
      </trkpt>
      <trkpt lat="44.03228" lon="6.62926">
        <ele>1095</ele>
        <time>2017-11-01T10:16:35Z</time>
      </trkpt>
      <trkpt lat="44.03234" lon="6.62928">
        <ele>1096</ele>
        <time>2017-11-01T10:16:38Z</time>
      </trkpt>
      <trkpt lat="44.0324" lon="6.62929">
        <ele>1096</ele>
        <time>2017-11-01T10:16:41Z</time>
      </trkpt>
      <trkpt lat="44.03245" lon="6.62929">
        <ele>1096</ele>
        <time>2017-11-01T10:16:43Z</time>
      </trkpt>
      <trkpt lat="44.0325" lon="6.62927">
        <ele>1096</ele>
        <time>2017-11-01T10:16:46Z</time>
      </trkpt>
      <trkpt lat="44.03254" lon="6.62926">
        <ele>1096</ele>
        <time>2017-11-01T10:16:48Z</time>
      </trkpt>
      <trkpt lat="44.03261" lon="6.62926">
        <ele>1096</ele>
        <time>2017-11-01T10:16:51Z</time>
      </trkpt>
      <trkpt lat="44.03267" lon="6.62924">
        <ele>1096</ele>
        <time>2017-11-01T10:16:54Z</time>
      </trkpt>
      <trkpt lat="44.03273" lon="6.62924">
        <ele>1096</ele>
        <time>2017-11-01T10:16:57Z</time>
      </trkpt>
      <trkpt lat="44.03279" lon="6.62927">
        <ele>1096</ele>
        <time>2017-11-01T10:17:00Z</time>
      </trkpt>
      <trkpt lat="44.03282" lon="6.62933">
        <ele>1097</ele>
        <time>2017-11-01T10:17:02Z</time>
      </trkpt>
      <trkpt lat="44.03283" lon="6.6294">
        <ele>1097</ele>
        <time>2017-11-01T10:17:04Z</time>
      </trkpt>
      <trkpt lat="44.03284" lon="6.62948">
        <ele>1097</ele>
        <time>2017-11-01T10:17:06Z</time>
      </trkpt>
      <trkpt lat="44.03285" lon="6.62956">
        <ele>1097</ele>
        <time>2017-11-01T10:17:08Z</time>
      </trkpt>
      <trkpt lat="44.03286" lon="6.62964">
        <ele>1097</ele>
        <time>2017-11-01T10:17:10Z</time>
      </trkpt>
      <trkpt lat="44.03287" lon="6.62971">
        <ele>1097</ele>
        <time>2017-11-01T10:17:12Z</time>
      </trkpt>
      <trkpt lat="44.03288" lon="6.62979">
        <ele>1097</ele>
        <time>2017-11-01T10:17:14Z</time>
      </trkpt>
      <trkpt lat="44.03289" lon="6.62987">
        <ele>1097</ele>
        <time>2017-11-01T10:17:16Z</time>
      </trkpt>
      <trkpt lat="44.0329" lon="6.62994">
        <ele>1097</ele>
        <time>2017-11-01T10:17:18Z</time>
      </trkpt>
      <trkpt lat="44.03291" lon="6.63002">
        <ele>1097</ele>
        <time>2017-11-01T10:17:21Z</time>
      </trkpt>
      <trkpt lat="44.03293" lon="6.63009">
        <ele>1098</ele>
        <time>2017-11-01T10:17:24Z</time>
      </trkpt>
      <trkpt lat="44.03293" lon="6.63017">
        <ele>1099</ele>
        <time>2017-11-01T10:17:27Z</time>
      </trkpt>
      <trkpt lat="44.03293" lon="6.63026">
        <ele>1100</ele>
        <time>2017-11-01T10:17:30Z</time>
      </trkpt>
      <trkpt lat="44.03292" lon="6.63034">
        <ele>1101</ele>
        <time>2017-11-01T10:17:33Z</time>
      </trkpt>
      <trkpt lat="44.0329" lon="6.63042">
        <ele>1101</ele>
        <time>2017-11-01T10:17:36Z</time>
      </trkpt>
      <trkpt lat="44.03287" lon="6.63049">
        <ele>1100</ele>
        <time>2017-11-01T10:17:39Z</time>
      </trkpt>
      <trkpt lat="44.03286" lon="6.63057">
        <ele>1100</ele>
        <time>2017-11-01T10:17:42Z</time>
      </trkpt>
      <trkpt lat="44.03285" lon="6.63065">
        <ele>1100</ele>
        <time>2017-11-01T10:17:45Z</time>
      </trkpt>
      <trkpt lat="44.03286" lon="6.63073">
        <ele>1099</ele>
        <time>2017-11-01T10:17:48Z</time>
      </trkpt>
      <trkpt lat="44.03287" lon="6.63082">
        <ele>1099</ele>
        <time>2017-11-01T10:17:51Z</time>
      </trkpt>
      <trkpt lat="44.0329" lon="6.63088">
        <ele>1099</ele>
        <time>2017-11-01T10:17:54Z</time>
      </trkpt>
      <trkpt lat="44.03293" lon="6.63095">
        <ele>1099</ele>
        <time>2017-11-01T10:17:57Z</time>
      </trkpt>
      <trkpt lat="44.03295" lon="6.63101">
        <ele>1099</ele>
        <time>2017-11-01T10:18:00Z</time>
      </trkpt>
      <trkpt lat="44.03297" lon="6.63107">
        <ele>1100</ele>
        <time>2017-11-01T10:18:03Z</time>
      </trkpt>
      <trkpt lat="44.03299" lon="6.63114">
        <ele>1101</ele>
        <time>2017-11-01T10:18:06Z</time>
      </trkpt>
      <trkpt lat="44.03302" lon="6.6312">
        <ele>1102</ele>
        <time>2017-11-01T10:18:09Z</time>
      </trkpt>
      <trkpt lat="44.03304" lon="6.63125">
        <ele>1103</ele>
        <time>2017-11-01T10:18:12Z</time>
      </trkpt>
      <trkpt lat="44.03307" lon="6.63132">
        <ele>1104</ele>
        <time>2017-11-01T10:18:16Z</time>
      </trkpt>
      <trkpt lat="44.0331" lon="6.63139">
        <ele>1105</ele>
        <time>2017-11-01T10:18:20Z</time>
      </trkpt>
      <trkpt lat="44.03313" lon="6.63145">
        <ele>1106</ele>
        <time>2017-11-01T10:18:24Z</time>
      </trkpt>
      <trkpt lat="44.03317" lon="6.63149">
        <ele>1107</ele>
        <time>2017-11-01T10:18:27Z</time>
      </trkpt>
      <trkpt lat="44.0332" lon="6.63154">
        <ele>1109</ele>
        <time>2017-11-01T10:18:30Z</time>
      </trkpt>
      <trkpt lat="44.03323" lon="6.6316">
        <ele>1110</ele>
        <time>2017-11-01T10:18:34Z</time>
      </trkpt>
      <trkpt lat="44.03327" lon="6.63166">
        <ele>1110</ele>
        <time>2017-11-01T10:18:38Z</time>
      </trkpt>
      <trkpt lat="44.0333" lon="6.63171">
        <ele>1111</ele>
        <time>2017-11-01T10:18:41Z</time>
      </trkpt>
      <trkpt lat="44.03333" lon="6.63177">
        <ele>1112</ele>
        <time>2017-11-01T10:18:45Z</time>
      </trkpt>
      <trkpt lat="44.03338" lon="6.63181">
        <ele>1113</ele>
        <time>2017-11-01T10:18:48Z</time>
      </trkpt>
      <trkpt lat="44.0334" lon="6.63186">
        <ele>1113</ele>
        <time>2017-11-01T10:18:52Z</time>
      </trkpt>
      <trkpt lat="44.03342" lon="6.63193">
        <ele>1114</ele>
        <time>2017-11-01T10:18:56Z</time>
      </trkpt>
      <trkpt lat="44.03346" lon="6.63199">
        <ele>1115</ele>
        <time>2017-11-01T10:19:00Z</time>
      </trkpt>
      <trkpt lat="44.03348" lon="6.63206">
        <ele>1116</ele>
        <time>2017-11-01T10:19:04Z</time>
      </trkpt>
      <trkpt lat="44.03352" lon="6.6321">
        <ele>1116</ele>
        <time>2017-11-01T10:19:08Z</time>
      </trkpt>
      <trkpt lat="44.03357" lon="6.63213">
        <ele>1117</ele>
        <time>2017-11-01T10:19:12Z</time>
      </trkpt>
      <trkpt lat="44.03361" lon="6.63218">
        <ele>1118</ele>
        <time>2017-11-01T10:19:16Z</time>
      </trkpt>
      <trkpt lat="44.03365" lon="6.63222">
        <ele>1118</ele>
        <time>2017-11-01T10:19:19Z</time>
      </trkpt>
      <trkpt lat="44.03369" lon="6.63225">
        <ele>1119</ele>
        <time>2017-11-01T10:19:22Z</time>
      </trkpt>
      <trkpt lat="44.03373" lon="6.6323">
        <ele>1120</ele>
        <time>2017-11-01T10:19:25Z</time>
      </trkpt>
      <trkpt lat="44.03377" lon="6.63234">
        <ele>1120</ele>
        <time>2017-11-01T10:19:28Z</time>
      </trkpt>
      <trkpt lat="44.0338" lon="6.63239">
        <ele>1121</ele>
        <time>2017-11-01T10:19:31Z</time>
      </trkpt>
      <trkpt lat="44.03384" lon="6.63242">
        <ele>1122</ele>
        <time>2017-11-01T10:19:34Z</time>
      </trkpt>
      <trkpt lat="44.03387" lon="6.63249">
        <ele>1122</ele>
        <time>2017-11-01T10:19:38Z</time>
      </trkpt>
      <trkpt lat="44.03389" lon="6.63254">
        <ele>1123</ele>
        <time>2017-11-01T10:19:42Z</time>
      </trkpt>
      <trkpt lat="44.03393" lon="6.63259">
        <ele>1123</ele>
        <time>2017-11-01T10:19:46Z</time>
      </trkpt>
      <trkpt lat="44.03397" lon="6.63265">
        <ele>1123</ele>
        <time>2017-11-01T10:19:50Z</time>
      </trkpt>
      <trkpt lat="44.034" lon="6.6327">
        <ele>1124</ele>
        <time>2017-11-01T10:19:54Z</time>
      </trkpt>
      <trkpt lat="44.03404" lon="6.63275">
        <ele>1125</ele>
        <time>2017-11-01T10:19:58Z</time>
      </trkpt>
      <trkpt lat="44.03408" lon="6.63279">
        <ele>1125</ele>
        <time>2017-11-01T10:20:02Z</time>
      </trkpt>
      <trkpt lat="44.03412" lon="6.63282">
        <ele>1126</ele>
        <time>2017-11-01T10:20:06Z</time>
      </trkpt>
      <trkpt lat="44.03415" lon="6.63287">
        <ele>1126</ele>
        <time>2017-11-01T10:20:10Z</time>
      </trkpt>
      <trkpt lat="44.0342" lon="6.63291">
        <ele>1127</ele>
        <time>2017-11-01T10:20:14Z</time>
      </trkpt>
      <trkpt lat="44.03423" lon="6.63296">
        <ele>1128</ele>
        <time>2017-11-01T10:20:17Z</time>
      </trkpt>
      <trkpt lat="44.03428" lon="6.633">
        <ele>1128</ele>
        <time>2017-11-01T10:20:21Z</time>
      </trkpt>
      <trkpt lat="44.03433" lon="6.63304">
        <ele>1129</ele>
        <time>2017-11-01T10:20:25Z</time>
      </trkpt>
      <trkpt lat="44.03435" lon="6.63309">
        <ele>1129</ele>
        <time>2017-11-01T10:20:28Z</time>
      </trkpt>
      <trkpt lat="44.03438" lon="6.63317">
        <ele>1130</ele>
        <time>2017-11-01T10:20:32Z</time>
      </trkpt>
      <trkpt lat="44.03441" lon="6.63322">
        <ele>1130</ele>
        <time>2017-11-01T10:20:36Z</time>
      </trkpt>
      <trkpt lat="44.03444" lon="6.63329">
        <ele>1131</ele>
        <time>2017-11-01T10:20:40Z</time>
      </trkpt>
      <trkpt lat="44.03445" lon="6.63335">
        <ele>1132</ele>
        <time>2017-11-01T10:20:44Z</time>
      </trkpt>
      <trkpt lat="44.03447" lon="6.63342">
        <ele>1132</ele>
        <time>2017-11-01T10:20:48Z</time>
      </trkpt>
      <trkpt lat="44.03448" lon="6.63349">
        <ele>1132</ele>
        <time>2017-11-01T10:20:52Z</time>
      </trkpt>
      <trkpt lat="44.03451" lon="6.63355">
        <ele>1133</ele>
        <time>2017-11-01T10:20:55Z</time>
      </trkpt>
      <trkpt lat="44.03452" lon="6.63361">
        <ele>1133</ele>
        <time>2017-11-01T10:20:58Z</time>
      </trkpt>
      <trkpt lat="44.03453" lon="6.63369">
        <ele>1133</ele>
        <time>2017-11-01T10:21:02Z</time>
      </trkpt>
      <trkpt lat="44.03455" lon="6.63376">
        <ele>1134</ele>
        <time>2017-11-01T10:21:06Z</time>
      </trkpt>
      <trkpt lat="44.03456" lon="6.63383">
        <ele>1134</ele>
        <time>2017-11-01T10:21:10Z</time>
      </trkpt>
      <trkpt lat="44.03458" lon="6.6339">
        <ele>1135</ele>
        <time>2017-11-01T10:21:14Z</time>
      </trkpt>
      <trkpt lat="44.03457" lon="6.63398">
        <ele>1135</ele>
        <time>2017-11-01T10:21:18Z</time>
      </trkpt>
      <trkpt lat="44.03455" lon="6.63405">
        <ele>1136</ele>
        <time>2017-11-01T10:21:21Z</time>
      </trkpt>
      <trkpt lat="44.03453" lon="6.63411">
        <ele>1136</ele>
        <time>2017-11-01T10:21:24Z</time>
      </trkpt>
      <trkpt lat="44.0345" lon="6.63418">
        <ele>1137</ele>
        <time>2017-11-01T10:21:27Z</time>
      </trkpt>
      <trkpt lat="44.03448" lon="6.63425">
        <ele>1137</ele>
        <time>2017-11-01T10:21:30Z</time>
      </trkpt>
      <trkpt lat="44.03445" lon="6.63432">
        <ele>1137</ele>
        <time>2017-11-01T10:21:33Z</time>
      </trkpt>
      <trkpt lat="44.03442" lon="6.63438">
        <ele>1137</ele>
        <time>2017-11-01T10:21:36Z</time>
      </trkpt>
      <trkpt lat="44.03439" lon="6.63444">
        <ele>1137</ele>
        <time>2017-11-01T10:21:39Z</time>
      </trkpt>
      <trkpt lat="44.03437" lon="6.6345">
        <ele>1138</ele>
        <time>2017-11-01T10:21:42Z</time>
      </trkpt>
      <trkpt lat="44.03436" lon="6.63458">
        <ele>1138</ele>
        <time>2017-11-01T10:21:45Z</time>
      </trkpt>
      <trkpt lat="44.03434" lon="6.63464">
        <ele>1139</ele>
        <time>2017-11-01T10:21:48Z</time>
      </trkpt>
      <trkpt lat="44.03433" lon="6.63471">
        <ele>1139</ele>
        <time>2017-11-01T10:21:51Z</time>
      </trkpt>
      <trkpt lat="44.03432" lon="6.63478">
        <ele>1140</ele>
        <time>2017-11-01T10:21:54Z</time>
      </trkpt>
      <trkpt lat="44.03432" lon="6.63486">
        <ele>1140</ele>
        <time>2017-11-01T10:21:58Z</time>
      </trkpt>
      <trkpt lat="44.03439" lon="6.63514">
        <ele>1141</ele>
        <time>2017-11-01T10:22:17Z</time>
      </trkpt>
      <trkpt lat="44.03439" lon="6.63513">
        <ele>1143</ele>
        <time>2017-11-01T10:22:19Z</time>
      </trkpt>
      <trkpt lat="44.03439" lon="6.63512">
        <ele>1144</ele>
        <time>2017-11-01T10:22:47Z</time>
      </trkpt>
      <trkpt lat="44.03439" lon="6.63512">
        <ele>1145</ele>
        <time>2017-11-01T10:22:49Z</time>
      </trkpt>
      <trkpt lat="44.03439" lon="6.63511">
        <ele>1146</ele>
        <time>2017-11-01T10:23:17Z</time>
      </trkpt>
      <trkpt lat="44.03439" lon="6.63511">
        <ele>1146</ele>
        <time>2017-11-01T10:23:19Z</time>
      </trkpt>
      <trkpt lat="44.03443" lon="6.63504">
        <ele>1149</ele>
        <time>2017-11-01T10:23:53Z</time>
      </trkpt>
      <trkpt lat="44.03445" lon="6.63521">
        <ele>1150</ele>
        <time>2017-11-01T10:23:57Z</time>
      </trkpt>
      <trkpt lat="44.03483" lon="6.63472">
        <ele>1154</ele>
        <time>2017-11-01T10:24:22Z</time>
      </trkpt>
      <trkpt lat="44.03482" lon="6.63475">
        <ele>1157</ele>
        <time>2017-11-01T10:24:25Z</time>
      </trkpt>
      <trkpt lat="44.03509" lon="6.63453">
        <ele>1160</ele>
        <time>2017-11-01T10:24:51Z</time>
      </trkpt>
      <trkpt lat="44.03569" lon="6.63485">
        <ele>1161</ele>
        <time>2017-11-01T10:25:28Z</time>
      </trkpt>
      <trkpt lat="44.03573" lon="6.63486">
        <ele>1163</ele>
        <time>2017-11-01T10:25:32Z</time>
      </trkpt>
      <trkpt lat="44.03621" lon="6.63478">
        <ele>1161</ele>
        <time>2017-11-01T10:26:08Z</time>
      </trkpt>
      <trkpt lat="44.03621" lon="6.63478">
        <ele>1160</ele>
        <time>2017-11-01T10:26:10Z</time>
      </trkpt>
      <trkpt lat="44.03623" lon="6.63485">
        <ele>1161</ele>
        <time>2017-11-01T10:26:20Z</time>
      </trkpt>
      <trkpt lat="44.03627" lon="6.63488">
        <ele>1157</ele>
        <time>2017-11-01T10:26:21Z</time>
      </trkpt>
      <trkpt lat="44.03634" lon="6.63498">
        <ele>1155</ele>
        <time>2017-11-01T10:26:23Z</time>
      </trkpt>
      <trkpt lat="44.03638" lon="6.63496">
        <ele>1155</ele>
        <time>2017-11-01T10:26:24Z</time>
      </trkpt>
      <trkpt lat="44.03643" lon="6.63501">
        <ele>1155</ele>
        <time>2017-11-01T10:26:26Z</time>
      </trkpt>
      <trkpt lat="44.03648" lon="6.635">
        <ele>1154</ele>
        <time>2017-11-01T10:26:28Z</time>
      </trkpt>
      <trkpt lat="44.03654" lon="6.63501">
        <ele>1155</ele>
        <time>2017-11-01T10:26:31Z</time>
      </trkpt>
      <trkpt lat="44.03661" lon="6.63508">
        <ele>1155</ele>
        <time>2017-11-01T10:26:36Z</time>
      </trkpt>
      <trkpt lat="44.03666" lon="6.63507">
        <ele>1156</ele>
        <time>2017-11-01T10:26:39Z</time>
      </trkpt>
      <trkpt lat="44.03669" lon="6.63513">
        <ele>1156</ele>
        <time>2017-11-01T10:26:44Z</time>
      </trkpt>
      <trkpt lat="44.03674" lon="6.63517">
        <ele>1158</ele>
        <time>2017-11-01T10:26:50Z</time>
      </trkpt>
      <trkpt lat="44.03678" lon="6.6352">
        <ele>1160</ele>
        <time>2017-11-01T10:26:55Z</time>
      </trkpt>
      <trkpt lat="44.03684" lon="6.6352">
        <ele>1163</ele>
        <time>2017-11-01T10:26:58Z</time>
      </trkpt>
      <trkpt lat="44.03689" lon="6.63524">
        <ele>1165</ele>
        <time>2017-11-01T10:26:59Z</time>
      </trkpt>
      <trkpt lat="44.03694" lon="6.63527">
        <ele>1167</ele>
        <time>2017-11-01T10:27:02Z</time>
      </trkpt>
      <trkpt lat="44.03699" lon="6.63529">
        <ele>1168</ele>
        <time>2017-11-01T10:27:04Z</time>
      </trkpt>
      <trkpt lat="44.03703" lon="6.6353">
        <ele>1169</ele>
        <time>2017-11-01T10:27:08Z</time>
      </trkpt>
      <trkpt lat="44.03709" lon="6.63534">
        <ele>1169</ele>
        <time>2017-11-01T10:27:12Z</time>
      </trkpt>
      <trkpt lat="44.03715" lon="6.63537">
        <ele>1170</ele>
        <time>2017-11-01T10:27:15Z</time>
      </trkpt>
      <trkpt lat="44.03718" lon="6.63545">
        <ele>1169</ele>
        <time>2017-11-01T10:27:17Z</time>
      </trkpt>
      <trkpt lat="44.0372" lon="6.63551">
        <ele>1168</ele>
        <time>2017-11-01T10:27:19Z</time>
      </trkpt>
      <trkpt lat="44.03726" lon="6.63546">
        <ele>1167</ele>
        <time>2017-11-01T10:27:22Z</time>
      </trkpt>
      <trkpt lat="44.0373" lon="6.63542">
        <ele>1167</ele>
        <time>2017-11-01T10:27:25Z</time>
      </trkpt>
      <trkpt lat="44.03732" lon="6.63548">
        <ele>1166</ele>
        <time>2017-11-01T10:27:28Z</time>
      </trkpt>
      <trkpt lat="44.03739" lon="6.6355">
        <ele>1167</ele>
        <time>2017-11-01T10:27:32Z</time>
      </trkpt>
      <trkpt lat="44.03741" lon="6.63557">
        <ele>1167</ele>
        <time>2017-11-01T10:27:36Z</time>
      </trkpt>
      <trkpt lat="44.03747" lon="6.63559">
        <ele>1167</ele>
        <time>2017-11-01T10:27:40Z</time>
      </trkpt>
      <trkpt lat="44.03746" lon="6.63567">
        <ele>1167</ele>
        <time>2017-11-01T10:27:44Z</time>
      </trkpt>
      <trkpt lat="44.03745" lon="6.63574">
        <ele>1166</ele>
        <time>2017-11-01T10:27:49Z</time>
      </trkpt>
      <trkpt lat="44.03738" lon="6.63577">
        <ele>1166</ele>
        <time>2017-11-01T10:27:57Z</time>
      </trkpt>
      <trkpt lat="44.03733" lon="6.63579">
        <ele>1167</ele>
        <time>2017-11-01T10:28:02Z</time>
      </trkpt>
      <trkpt lat="44.03727" lon="6.63584">
        <ele>1168</ele>
        <time>2017-11-01T10:28:06Z</time>
      </trkpt>
      <trkpt lat="44.03722" lon="6.63586">
        <ele>1171</ele>
        <time>2017-11-01T10:28:10Z</time>
      </trkpt>
      <trkpt lat="44.03718" lon="6.6359">
        <ele>1174</ele>
        <time>2017-11-01T10:28:13Z</time>
      </trkpt>
      <trkpt lat="44.03714" lon="6.63593">
        <ele>1177</ele>
        <time>2017-11-01T10:28:20Z</time>
      </trkpt>
      <trkpt lat="44.0371" lon="6.63599">
        <ele>1180</ele>
        <time>2017-11-01T10:28:39Z</time>
      </trkpt>
      <trkpt lat="44.03707" lon="6.63605">
        <ele>1182</ele>
        <time>2017-11-01T10:28:43Z</time>
      </trkpt>
      <trkpt lat="44.03702" lon="6.63612">
        <ele>1182</ele>
        <time>2017-11-01T10:28:46Z</time>
      </trkpt>
      <trkpt lat="44.03698" lon="6.63615">
        <ele>1183</ele>
        <time>2017-11-01T10:28:52Z</time>
      </trkpt>
      <trkpt lat="44.03696" lon="6.63621">
        <ele>1183</ele>
        <time>2017-11-01T10:28:56Z</time>
      </trkpt>
      <trkpt lat="44.03692" lon="6.63627">
        <ele>1183</ele>
        <time>2017-11-01T10:28:58Z</time>
      </trkpt>
      <trkpt lat="44.03688" lon="6.6363">
        <ele>1183</ele>
        <time>2017-11-01T10:29:01Z</time>
      </trkpt>
      <trkpt lat="44.03685" lon="6.63639">
        <ele>1184</ele>
        <time>2017-11-01T10:29:04Z</time>
      </trkpt>
      <trkpt lat="44.03679" lon="6.63642">
        <ele>1185</ele>
        <time>2017-11-01T10:29:08Z</time>
      </trkpt>
      <trkpt lat="44.03674" lon="6.63649">
        <ele>1187</ele>
        <time>2017-11-01T10:29:11Z</time>
      </trkpt>
      <trkpt lat="44.03671" lon="6.63654">
        <ele>1189</ele>
        <time>2017-11-01T10:29:15Z</time>
      </trkpt>
      <trkpt lat="44.03667" lon="6.63657">
        <ele>1190</ele>
        <time>2017-11-01T10:29:18Z</time>
      </trkpt>
      <trkpt lat="44.03661" lon="6.63658">
        <ele>1191</ele>
        <time>2017-11-01T10:29:22Z</time>
      </trkpt>
      <trkpt lat="44.03655" lon="6.63659">
        <ele>1191</ele>
        <time>2017-11-01T10:29:24Z</time>
      </trkpt>
      <trkpt lat="44.03649" lon="6.6366">
        <ele>1191</ele>
        <time>2017-11-01T10:29:30Z</time>
      </trkpt>
      <trkpt lat="44.03644" lon="6.63669">
        <ele>1191</ele>
        <time>2017-11-01T10:29:32Z</time>
      </trkpt>
      <trkpt lat="44.0364" lon="6.63676">
        <ele>1192</ele>
        <time>2017-11-01T10:29:35Z</time>
      </trkpt>
      <trkpt lat="44.03636" lon="6.6368">
        <ele>1192</ele>
        <time>2017-11-01T10:29:36Z</time>
      </trkpt>
      <trkpt lat="44.03634" lon="6.63686">
        <ele>1192</ele>
        <time>2017-11-01T10:29:39Z</time>
      </trkpt>
      <trkpt lat="44.03629" lon="6.6369">
        <ele>1193</ele>
        <time>2017-11-01T10:29:44Z</time>
      </trkpt>
      <trkpt lat="44.03625" lon="6.63696">
        <ele>1194</ele>
        <time>2017-11-01T10:29:45Z</time>
      </trkpt>
      <trkpt lat="44.03622" lon="6.63704">
        <ele>1194</ele>
        <time>2017-11-01T10:29:48Z</time>
      </trkpt>
      <trkpt lat="44.03619" lon="6.63712">
        <ele>1194</ele>
        <time>2017-11-01T10:29:50Z</time>
      </trkpt>
      <trkpt lat="44.03617" lon="6.63719">
        <ele>1196</ele>
        <time>2017-11-01T10:29:54Z</time>
      </trkpt>
      <trkpt lat="44.03617" lon="6.63726">
        <ele>1196</ele>
        <time>2017-11-01T10:29:56Z</time>
      </trkpt>
      <trkpt lat="44.03616" lon="6.63732">
        <ele>1197</ele>
        <time>2017-11-01T10:29:59Z</time>
      </trkpt>
      <trkpt lat="44.03614" lon="6.63739">
        <ele>1197</ele>
        <time>2017-11-01T10:30:01Z</time>
      </trkpt>
      <trkpt lat="44.03611" lon="6.63744">
        <ele>1197</ele>
        <time>2017-11-01T10:30:03Z</time>
      </trkpt>
      <trkpt lat="44.0361" lon="6.63751">
        <ele>1198</ele>
        <time>2017-11-01T10:30:06Z</time>
      </trkpt>
      <trkpt lat="44.0361" lon="6.6376">
        <ele>1197</ele>
        <time>2017-11-01T10:30:09Z</time>
      </trkpt>
      <trkpt lat="44.0361" lon="6.6377">
        <ele>1198</ele>
        <time>2017-11-01T10:30:12Z</time>
      </trkpt>
      <trkpt lat="44.03607" lon="6.63778">
        <ele>1198</ele>
        <time>2017-11-01T10:30:17Z</time>
      </trkpt>
      <trkpt lat="44.03605" lon="6.63784">
        <ele>1199</ele>
        <time>2017-11-01T10:30:20Z</time>
      </trkpt>
      <trkpt lat="44.03602" lon="6.63789">
        <ele>1199</ele>
        <time>2017-11-01T10:30:23Z</time>
      </trkpt>
      <trkpt lat="44.03599" lon="6.63794">
        <ele>1199</ele>
        <time>2017-11-01T10:30:26Z</time>
      </trkpt>
      <trkpt lat="44.03598" lon="6.63801">
        <ele>1199</ele>
        <time>2017-11-01T10:30:29Z</time>
      </trkpt>
      <trkpt lat="44.03596" lon="6.63807">
        <ele>1199</ele>
        <time>2017-11-01T10:30:31Z</time>
      </trkpt>
      <trkpt lat="44.03595" lon="6.63815">
        <ele>1198</ele>
        <time>2017-11-01T10:30:34Z</time>
      </trkpt>
      <trkpt lat="44.03596" lon="6.63822">
        <ele>1198</ele>
        <time>2017-11-01T10:30:38Z</time>
      </trkpt>
      <trkpt lat="44.03596" lon="6.63829">
        <ele>1198</ele>
        <time>2017-11-01T10:30:40Z</time>
      </trkpt>
      <trkpt lat="44.03595" lon="6.63836">
        <ele>1197</ele>
        <time>2017-11-01T10:30:42Z</time>
      </trkpt>
      <trkpt lat="44.03596" lon="6.63849">
        <ele>1195</ele>
        <time>2017-11-01T10:30:45Z</time>
      </trkpt>
      <trkpt lat="44.03597" lon="6.63858">
        <ele>1194</ele>
        <time>2017-11-01T10:30:47Z</time>
      </trkpt>
      <trkpt lat="44.03599" lon="6.63866">
        <ele>1193</ele>
        <time>2017-11-01T10:30:49Z</time>
      </trkpt>
      <trkpt lat="44.03603" lon="6.63873">
        <ele>1192</ele>
        <time>2017-11-01T10:30:51Z</time>
      </trkpt>
      <trkpt lat="44.03606" lon="6.63879">
        <ele>1191</ele>
        <time>2017-11-01T10:30:54Z</time>
      </trkpt>
      <trkpt lat="44.0361" lon="6.63886">
        <ele>1191</ele>
        <time>2017-11-01T10:30:56Z</time>
      </trkpt>
      <trkpt lat="44.03613" lon="6.63893">
        <ele>1191</ele>
        <time>2017-11-01T10:30:59Z</time>
      </trkpt>
      <trkpt lat="44.03614" lon="6.639">
        <ele>1191</ele>
        <time>2017-11-01T10:31:01Z</time>
      </trkpt>
      <trkpt lat="44.03618" lon="6.63906">
        <ele>1190</ele>
        <time>2017-11-01T10:31:04Z</time>
      </trkpt>
      <trkpt lat="44.03621" lon="6.63912">
        <ele>1190</ele>
        <time>2017-11-01T10:31:07Z</time>
      </trkpt>
      <trkpt lat="44.03618" lon="6.63917">
        <ele>1190</ele>
        <time>2017-11-01T10:31:10Z</time>
      </trkpt>
      <trkpt lat="44.03615" lon="6.63923">
        <ele>1191</ele>
        <time>2017-11-01T10:31:12Z</time>
      </trkpt>
      <trkpt lat="44.03609" lon="6.63924">
        <ele>1191</ele>
        <time>2017-11-01T10:31:15Z</time>
      </trkpt>
      <trkpt lat="44.03605" lon="6.63929">
        <ele>1193</ele>
        <time>2017-11-01T10:31:16Z</time>
      </trkpt>
      <trkpt lat="44.03599" lon="6.63924">
        <ele>1194</ele>
        <time>2017-11-01T10:31:19Z</time>
      </trkpt>
      <trkpt lat="44.03594" lon="6.6392">
        <ele>1195</ele>
        <time>2017-11-01T10:31:23Z</time>
      </trkpt>
      <trkpt lat="44.03589" lon="6.63915">
        <ele>1195</ele>
        <time>2017-11-01T10:31:27Z</time>
      </trkpt>
      <trkpt lat="44.03581" lon="6.63917">
        <ele>1195</ele>
        <time>2017-11-01T10:31:31Z</time>
      </trkpt>
      <trkpt lat="44.03576" lon="6.63922">
        <ele>1195</ele>
        <time>2017-11-01T10:31:35Z</time>
      </trkpt>
      <trkpt lat="44.03572" lon="6.6393">
        <ele>1195</ele>
        <time>2017-11-01T10:31:41Z</time>
      </trkpt>
      <trkpt lat="44.03568" lon="6.63934">
        <ele>1195</ele>
        <time>2017-11-01T10:31:44Z</time>
      </trkpt>
      <trkpt lat="44.03568" lon="6.6394">
        <ele>1196</ele>
        <time>2017-11-01T10:31:47Z</time>
      </trkpt>
      <trkpt lat="44.03566" lon="6.63946">
        <ele>1196</ele>
        <time>2017-11-01T10:31:50Z</time>
      </trkpt>
      <trkpt lat="44.03565" lon="6.63955">
        <ele>1197</ele>
        <time>2017-11-01T10:31:54Z</time>
      </trkpt>
      <trkpt lat="44.03561" lon="6.63962">
        <ele>1197</ele>
        <time>2017-11-01T10:31:59Z</time>
      </trkpt>
      <trkpt lat="44.03558" lon="6.63967">
        <ele>1199</ele>
        <time>2017-11-01T10:32:04Z</time>
      </trkpt>
      <trkpt lat="44.03556" lon="6.63973">
        <ele>1200</ele>
        <time>2017-11-01T10:32:08Z</time>
      </trkpt>
      <trkpt lat="44.03552" lon="6.63978">
        <ele>1202</ele>
        <time>2017-11-01T10:32:14Z</time>
      </trkpt>
      <trkpt lat="44.03553" lon="6.63984">
        <ele>1203</ele>
        <time>2017-11-01T10:32:17Z</time>
      </trkpt>
      <trkpt lat="44.03552" lon="6.63991">
        <ele>1205</ele>
        <time>2017-11-01T10:32:21Z</time>
      </trkpt>
      <trkpt lat="44.03551" lon="6.63998">
        <ele>1205</ele>
        <time>2017-11-01T10:32:28Z</time>
      </trkpt>
      <trkpt lat="44.03547" lon="6.64002">
        <ele>1205</ele>
        <time>2017-11-01T10:32:32Z</time>
      </trkpt>
      <trkpt lat="44.03542" lon="6.64005">
        <ele>1206</ele>
        <time>2017-11-01T10:32:36Z</time>
      </trkpt>
      <trkpt lat="44.03538" lon="6.64011">
        <ele>1208</ele>
        <time>2017-11-01T10:32:39Z</time>
      </trkpt>
      <trkpt lat="44.03537" lon="6.64016">
        <ele>1210</ele>
        <time>2017-11-01T10:32:42Z</time>
      </trkpt>
      <trkpt lat="44.03534" lon="6.64024">
        <ele>1213</ele>
        <time>2017-11-01T10:32:45Z</time>
      </trkpt>
      <trkpt lat="44.03535" lon="6.64031">
        <ele>1215</ele>
        <time>2017-11-01T10:32:49Z</time>
      </trkpt>
      <trkpt lat="44.03533" lon="6.64037">
        <ele>1217</ele>
        <time>2017-11-01T10:32:52Z</time>
      </trkpt>
      <trkpt lat="44.03534" lon="6.64046">
        <ele>1217</ele>
        <time>2017-11-01T10:32:57Z</time>
      </trkpt>
      <trkpt lat="44.03529" lon="6.64049">
        <ele>1217</ele>
        <time>2017-11-01T10:33:02Z</time>
      </trkpt>
      <trkpt lat="44.03526" lon="6.64056">
        <ele>1217</ele>
        <time>2017-11-01T10:33:07Z</time>
      </trkpt>
      <trkpt lat="44.03524" lon="6.64064">
        <ele>1218</ele>
        <time>2017-11-01T10:33:11Z</time>
      </trkpt>
      <trkpt lat="44.03528" lon="6.64071">
        <ele>1218</ele>
        <time>2017-11-01T10:33:14Z</time>
      </trkpt>
      <trkpt lat="44.03528" lon="6.64078">
        <ele>1219</ele>
        <time>2017-11-01T10:33:18Z</time>
      </trkpt>
      <trkpt lat="44.03528" lon="6.64085">
        <ele>1219</ele>
        <time>2017-11-01T10:33:21Z</time>
      </trkpt>
      <trkpt lat="44.03528" lon="6.64092">
        <ele>1220</ele>
        <time>2017-11-01T10:33:25Z</time>
      </trkpt>
      <trkpt lat="44.0353" lon="6.64099">
        <ele>1220</ele>
        <time>2017-11-01T10:33:30Z</time>
      </trkpt>
      <trkpt lat="44.03531" lon="6.64106">
        <ele>1220</ele>
        <time>2017-11-01T10:33:34Z</time>
      </trkpt>
      <trkpt lat="44.03531" lon="6.64112">
        <ele>1218</ele>
        <time>2017-11-01T10:33:38Z</time>
      </trkpt>
      <trkpt lat="44.03532" lon="6.64119">
        <ele>1218</ele>
        <time>2017-11-01T10:33:45Z</time>
      </trkpt>
      <trkpt lat="44.03532" lon="6.64126">
        <ele>1217</ele>
        <time>2017-11-01T10:33:49Z</time>
      </trkpt>
      <trkpt lat="44.03527" lon="6.64134">
        <ele>1217</ele>
        <time>2017-11-01T10:33:54Z</time>
      </trkpt>
      <trkpt lat="44.03523" lon="6.64137">
        <ele>1218</ele>
        <time>2017-11-01T10:33:59Z</time>
      </trkpt>
      <trkpt lat="44.03518" lon="6.64137">
        <ele>1219</ele>
        <time>2017-11-01T10:34:03Z</time>
      </trkpt>
      <trkpt lat="44.03521" lon="6.6414">
        <ele>1220</ele>
        <time>2017-11-01T10:34:05Z</time>
      </trkpt>
      <trkpt lat="44.03527" lon="6.64143">
        <ele>1220</ele>
        <time>2017-11-01T10:34:07Z</time>
      </trkpt>
      <trkpt lat="44.03521" lon="6.64147">
        <ele>1220</ele>
        <time>2017-11-01T10:34:10Z</time>
      </trkpt>
      <trkpt lat="44.03517" lon="6.64151">
        <ele>1220</ele>
        <time>2017-11-01T10:34:13Z</time>
      </trkpt>
      <trkpt lat="44.03522" lon="6.64154">
        <ele>1221</ele>
        <time>2017-11-01T10:34:15Z</time>
      </trkpt>
      <trkpt lat="44.03525" lon="6.64163">
        <ele>1221</ele>
        <time>2017-11-01T10:34:16Z</time>
      </trkpt>
      <trkpt lat="44.03526" lon="6.6417">
        <ele>1222</ele>
        <time>2017-11-01T10:34:19Z</time>
      </trkpt>
      <trkpt lat="44.03529" lon="6.64176">
        <ele>1221</ele>
        <time>2017-11-01T10:34:21Z</time>
      </trkpt>
      <trkpt lat="44.03532" lon="6.64183">
        <ele>1221</ele>
        <time>2017-11-01T10:34:23Z</time>
      </trkpt>
      <trkpt lat="44.03531" lon="6.64191">
        <ele>1221</ele>
        <time>2017-11-01T10:34:30Z</time>
      </trkpt>
      <trkpt lat="44.03536" lon="6.64196">
        <ele>1221</ele>
        <time>2017-11-01T10:34:32Z</time>
      </trkpt>
      <trkpt lat="44.03534" lon="6.64202">
        <ele>1221</ele>
        <time>2017-11-01T10:34:36Z</time>
      </trkpt>
      <trkpt lat="44.03532" lon="6.64208">
        <ele>1222</ele>
        <time>2017-11-01T10:34:39Z</time>
      </trkpt>
      <trkpt lat="44.0353" lon="6.64214">
        <ele>1222</ele>
        <time>2017-11-01T10:34:42Z</time>
      </trkpt>
      <trkpt lat="44.03526" lon="6.64215">
        <ele>1223</ele>
        <time>2017-11-01T10:34:46Z</time>
      </trkpt>
      <trkpt lat="44.03521" lon="6.64221">
        <ele>1224</ele>
        <time>2017-11-01T10:34:52Z</time>
      </trkpt>
      <trkpt lat="44.03521" lon="6.64225">
        <ele>1227</ele>
        <time>2017-11-01T10:35:16Z</time>
      </trkpt>
      <trkpt lat="44.0352" lon="6.64225">
        <ele>1230</ele>
        <time>2017-11-01T10:35:17Z</time>
      </trkpt>
      <trkpt lat="44.03521" lon="6.64225">
        <ele>1233</ele>
        <time>2017-11-01T10:35:46Z</time>
      </trkpt>
      <trkpt lat="44.03521" lon="6.64225">
        <ele>1235</ele>
        <time>2017-11-01T10:35:48Z</time>
      </trkpt>
      <trkpt lat="44.03521" lon="6.64225">
        <ele>1236</ele>
        <time>2017-11-01T10:36:16Z</time>
      </trkpt>
      <trkpt lat="44.03521" lon="6.64225">
        <ele>1237</ele>
        <time>2017-11-01T10:36:18Z</time>
      </trkpt>
      <trkpt lat="44.03521" lon="6.64224">
        <ele>1237</ele>
        <time>2017-11-01T10:36:46Z</time>
      </trkpt>
      <trkpt lat="44.03521" lon="6.64224">
        <ele>1237</ele>
        <time>2017-11-01T10:36:48Z</time>
      </trkpt>
      <trkpt lat="44.03521" lon="6.64224">
        <ele>1237</ele>
        <time>2017-11-01T10:37:16Z</time>
      </trkpt>
      <trkpt lat="44.03521" lon="6.64224">
        <ele>1237</ele>
        <time>2017-11-01T10:37:18Z</time>
      </trkpt>
      <trkpt lat="44.03521" lon="6.64224">
        <ele>1237</ele>
        <time>2017-11-01T10:37:46Z</time>
      </trkpt>
      <trkpt lat="44.03521" lon="6.64224">
        <ele>1237</ele>
        <time>2017-11-01T10:37:48Z</time>
      </trkpt>
      <trkpt lat="44.03521" lon="6.64224">
        <ele>1237</ele>
        <time>2017-11-01T10:38:16Z</time>
      </trkpt>
      <trkpt lat="44.03521" lon="6.64224">
        <ele>1237</ele>
        <time>2017-11-01T10:38:18Z</time>
      </trkpt>
      <trkpt lat="44.03521" lon="6.64224">
        <ele>1237</ele>
        <time>2017-11-01T10:38:46Z</time>
      </trkpt>
      <trkpt lat="44.03521" lon="6.64224">
        <ele>1237</ele>
        <time>2017-11-01T10:38:48Z</time>
      </trkpt>
      <trkpt lat="44.03521" lon="6.64224">
        <ele>1237</ele>
        <time>2017-11-01T10:39:16Z</time>
      </trkpt>
      <trkpt lat="44.03521" lon="6.64224">
        <ele>1237</ele>
        <time>2017-11-01T10:39:19Z</time>
      </trkpt>
      <trkpt lat="44.03516" lon="6.64228">
        <ele>1236</ele>
        <time>2017-11-01T10:39:43Z</time>
      </trkpt>
      <trkpt lat="44.03513" lon="6.64233">
        <ele>1236</ele>
        <time>2017-11-01T10:39:47Z</time>
      </trkpt>
      <trkpt lat="44.03508" lon="6.64235">
        <ele>1236</ele>
        <time>2017-11-01T10:39:50Z</time>
      </trkpt>
      <trkpt lat="44.03505" lon="6.64241">
        <ele>1236</ele>
        <time>2017-11-01T10:40:02Z</time>
      </trkpt>
      <trkpt lat="44.03502" lon="6.64245">
        <ele>1238</ele>
        <time>2017-11-01T10:40:04Z</time>
      </trkpt>
      <trkpt lat="44.03499" lon="6.6425">
        <ele>1240</ele>
        <time>2017-11-01T10:40:06Z</time>
      </trkpt>
      <trkpt lat="44.03494" lon="6.64255">
        <ele>1241</ele>
        <time>2017-11-01T10:40:08Z</time>
      </trkpt>
      <trkpt lat="44.0349" lon="6.64261">
        <ele>1242</ele>
        <time>2017-11-01T10:40:11Z</time>
      </trkpt>
      <trkpt lat="44.03486" lon="6.64263">
        <ele>1242</ele>
        <time>2017-11-01T10:40:15Z</time>
      </trkpt>
      <trkpt lat="44.03483" lon="6.64269">
        <ele>1241</ele>
        <time>2017-11-01T10:40:19Z</time>
      </trkpt>
      <trkpt lat="44.03479" lon="6.64274">
        <ele>1240</ele>
        <time>2017-11-01T10:40:22Z</time>
      </trkpt>
      <trkpt lat="44.03477" lon="6.64279">
        <ele>1240</ele>
        <time>2017-11-01T10:40:26Z</time>
      </trkpt>
      <trkpt lat="44.03473" lon="6.64281">
        <ele>1240</ele>
        <time>2017-11-01T10:40:29Z</time>
      </trkpt>
      <trkpt lat="44.03467" lon="6.64283">
        <ele>1242</ele>
        <time>2017-11-01T10:40:43Z</time>
      </trkpt>
      <trkpt lat="44.03463" lon="6.64286">
        <ele>1243</ele>
        <time>2017-11-01T10:40:45Z</time>
      </trkpt>
      <trkpt lat="44.03458" lon="6.64289">
        <ele>1244</ele>
        <time>2017-11-01T10:40:48Z</time>
      </trkpt>
      <trkpt lat="44.03454" lon="6.64292">
        <ele>1245</ele>
        <time>2017-11-01T10:40:53Z</time>
      </trkpt>
      <trkpt lat="44.03448" lon="6.64296">
        <ele>1246</ele>
        <time>2017-11-01T10:41:00Z</time>
      </trkpt>
      <trkpt lat="44.03444" lon="6.64301">
        <ele>1247</ele>
        <time>2017-11-01T10:41:03Z</time>
      </trkpt>
      <trkpt lat="44.0344" lon="6.64305">
        <ele>1247</ele>
        <time>2017-11-01T10:41:06Z</time>
      </trkpt>
      <trkpt lat="44.03435" lon="6.64309">
        <ele>1247</ele>
        <time>2017-11-01T10:41:09Z</time>
      </trkpt>
      <trkpt lat="44.03431" lon="6.64313">
        <ele>1248</ele>
        <time>2017-11-01T10:41:12Z</time>
      </trkpt>
      <trkpt lat="44.03426" lon="6.64316">
        <ele>1248</ele>
        <time>2017-11-01T10:41:15Z</time>
      </trkpt>
      <trkpt lat="44.03424" lon="6.64322">
        <ele>1248</ele>
        <time>2017-11-01T10:41:18Z</time>
      </trkpt>
      <trkpt lat="44.03425" lon="6.64329">
        <ele>1249</ele>
        <time>2017-11-01T10:41:22Z</time>
      </trkpt>
      <trkpt lat="44.0343" lon="6.6433">
        <ele>1250</ele>
        <time>2017-11-01T10:41:26Z</time>
      </trkpt>
      <trkpt lat="44.03435" lon="6.64327">
        <ele>1250</ele>
        <time>2017-11-01T10:41:30Z</time>
      </trkpt>
      <trkpt lat="44.03439" lon="6.64325">
        <ele>1251</ele>
        <time>2017-11-01T10:41:34Z</time>
      </trkpt>
      <trkpt lat="44.03444" lon="6.64324">
        <ele>1252</ele>
        <time>2017-11-01T10:41:39Z</time>
      </trkpt>
      <trkpt lat="44.03449" lon="6.6432">
        <ele>1252</ele>
        <time>2017-11-01T10:41:44Z</time>
      </trkpt>
      <trkpt lat="44.03454" lon="6.64319">
        <ele>1253</ele>
        <time>2017-11-01T10:41:49Z</time>
      </trkpt>
      <trkpt lat="44.03458" lon="6.64319">
        <ele>1254</ele>
        <time>2017-11-01T10:41:53Z</time>
      </trkpt>
      <trkpt lat="44.03464" lon="6.64321">
        <ele>1255</ele>
        <time>2017-11-01T10:41:58Z</time>
      </trkpt>
      <trkpt lat="44.03469" lon="6.64321">
        <ele>1255</ele>
        <time>2017-11-01T10:42:03Z</time>
      </trkpt>
      <trkpt lat="44.03474" lon="6.64321">
        <ele>1255</ele>
        <time>2017-11-01T10:42:07Z</time>
      </trkpt>
      <trkpt lat="44.03479" lon="6.6432">
        <ele>1256</ele>
        <time>2017-11-01T10:42:11Z</time>
      </trkpt>
      <trkpt lat="44.03483" lon="6.64319">
        <ele>1256</ele>
        <time>2017-11-01T10:42:15Z</time>
      </trkpt>
      <trkpt lat="44.03488" lon="6.64319">
        <ele>1257</ele>
        <time>2017-11-01T10:42:19Z</time>
      </trkpt>
      <trkpt lat="44.03492" lon="6.64318">
        <ele>1258</ele>
        <time>2017-11-01T10:42:23Z</time>
      </trkpt>
      <trkpt lat="44.03497" lon="6.64317">
        <ele>1259</ele>
        <time>2017-11-01T10:42:27Z</time>
      </trkpt>
      <trkpt lat="44.03502" lon="6.64316">
        <ele>1260</ele>
        <time>2017-11-01T10:42:31Z</time>
      </trkpt>
      <trkpt lat="44.03507" lon="6.64314">
        <ele>1261</ele>
        <time>2017-11-01T10:42:35Z</time>
      </trkpt>
      <trkpt lat="44.03513" lon="6.64311">
        <ele>1262</ele>
        <time>2017-11-01T10:42:40Z</time>
      </trkpt>
      <trkpt lat="44.03517" lon="6.64308">
        <ele>1263</ele>
        <time>2017-11-01T10:42:45Z</time>
      </trkpt>
      <trkpt lat="44.03522" lon="6.64306">
        <ele>1263</ele>
        <time>2017-11-01T10:42:50Z</time>
      </trkpt>
      <trkpt lat="44.03527" lon="6.64303">
        <ele>1263</ele>
        <time>2017-11-01T10:42:54Z</time>
      </trkpt>
      <trkpt lat="44.03531" lon="6.643">
        <ele>1263</ele>
        <time>2017-11-01T10:42:58Z</time>
      </trkpt>
      <trkpt lat="44.03535" lon="6.64296">
        <ele>1263</ele>
        <time>2017-11-01T10:43:02Z</time>
      </trkpt>
      <trkpt lat="44.0354" lon="6.64295">
        <ele>1264</ele>
        <time>2017-11-01T10:43:06Z</time>
      </trkpt>
      <trkpt lat="44.03545" lon="6.64297">
        <ele>1265</ele>
        <time>2017-11-01T10:43:10Z</time>
      </trkpt>
      <trkpt lat="44.0355" lon="6.64299">
        <ele>1266</ele>
        <time>2017-11-01T10:43:14Z</time>
      </trkpt>
      <trkpt lat="44.03555" lon="6.64301">
        <ele>1266</ele>
        <time>2017-11-01T10:43:18Z</time>
      </trkpt>
      <trkpt lat="44.03559" lon="6.64304">
        <ele>1267</ele>
        <time>2017-11-01T10:43:22Z</time>
      </trkpt>
      <trkpt lat="44.03563" lon="6.64306">
        <ele>1267</ele>
        <time>2017-11-01T10:43:26Z</time>
      </trkpt>
      <trkpt lat="44.03568" lon="6.64309">
        <ele>1267</ele>
        <time>2017-11-01T10:43:30Z</time>
      </trkpt>
      <trkpt lat="44.03572" lon="6.64313">
        <ele>1268</ele>
        <time>2017-11-01T10:43:34Z</time>
      </trkpt>
      <trkpt lat="44.03575" lon="6.64317">
        <ele>1268</ele>
        <time>2017-11-01T10:43:38Z</time>
      </trkpt>
      <trkpt lat="44.0358" lon="6.6432">
        <ele>1269</ele>
        <time>2017-11-01T10:43:43Z</time>
      </trkpt>
      <trkpt lat="44.03585" lon="6.64321">
        <ele>1270</ele>
        <time>2017-11-01T10:43:48Z</time>
      </trkpt>
      <trkpt lat="44.0359" lon="6.64323">
        <ele>1272</ele>
        <time>2017-11-01T10:43:53Z</time>
      </trkpt>
      <trkpt lat="44.03595" lon="6.64324">
        <ele>1274</ele>
        <time>2017-11-01T10:43:57Z</time>
      </trkpt>
      <trkpt lat="44.036" lon="6.64326">
        <ele>1275</ele>
        <time>2017-11-01T10:44:01Z</time>
      </trkpt>
      <trkpt lat="44.03605" lon="6.64328">
        <ele>1277</ele>
        <time>2017-11-01T10:44:05Z</time>
      </trkpt>
      <trkpt lat="44.03604" lon="6.64336">
        <ele>1278</ele>
        <time>2017-11-01T10:44:09Z</time>
      </trkpt>
      <trkpt lat="44.036" lon="6.6434">
        <ele>1279</ele>
        <time>2017-11-01T10:44:14Z</time>
      </trkpt>
      <trkpt lat="44.03594" lon="6.64338">
        <ele>1280</ele>
        <time>2017-11-01T10:44:18Z</time>
      </trkpt>
      <trkpt lat="44.0359" lon="6.64335">
        <ele>1281</ele>
        <time>2017-11-01T10:44:23Z</time>
      </trkpt>
      <trkpt lat="44.03586" lon="6.64332">
        <ele>1281</ele>
        <time>2017-11-01T10:44:27Z</time>
      </trkpt>
      <trkpt lat="44.03581" lon="6.64331">
        <ele>1281</ele>
        <time>2017-11-01T10:44:33Z</time>
      </trkpt>
      <trkpt lat="44.03576" lon="6.6433">
        <ele>1281</ele>
        <time>2017-11-01T10:44:37Z</time>
      </trkpt>
      <trkpt lat="44.03571" lon="6.64331">
        <ele>1281</ele>
        <time>2017-11-01T10:44:40Z</time>
      </trkpt>
      <trkpt lat="44.03567" lon="6.64329">
        <ele>1281</ele>
        <time>2017-11-01T10:44:43Z</time>
      </trkpt>
      <trkpt lat="44.03563" lon="6.64327">
        <ele>1281</ele>
        <time>2017-11-01T10:44:47Z</time>
      </trkpt>
      <trkpt lat="44.03558" lon="6.64324">
        <ele>1282</ele>
        <time>2017-11-01T10:44:51Z</time>
      </trkpt>
      <trkpt lat="44.03554" lon="6.64324">
        <ele>1283</ele>
        <time>2017-11-01T10:44:56Z</time>
      </trkpt>
      <trkpt lat="44.03549" lon="6.64326">
        <ele>1284</ele>
        <time>2017-11-01T10:45:03Z</time>
      </trkpt>
      <trkpt lat="44.03545" lon="6.64331">
        <ele>1286</ele>
        <time>2017-11-01T10:45:28Z</time>
      </trkpt>
      <trkpt lat="44.03541" lon="6.64336">
        <ele>1287</ele>
        <time>2017-11-01T10:45:33Z</time>
      </trkpt>
      <trkpt lat="44.03538" lon="6.6434">
        <ele>1287</ele>
        <time>2017-11-01T10:45:37Z</time>
      </trkpt>
      <trkpt lat="44.03534" lon="6.64344">
        <ele>1288</ele>
        <time>2017-11-01T10:45:41Z</time>
      </trkpt>
      <trkpt lat="44.03531" lon="6.64349">
        <ele>1289</ele>
        <time>2017-11-01T10:45:45Z</time>
      </trkpt>
      <trkpt lat="44.03526" lon="6.64353">
        <ele>1290</ele>
        <time>2017-11-01T10:45:49Z</time>
      </trkpt>
      <trkpt lat="44.03522" lon="6.64358">
        <ele>1291</ele>
        <time>2017-11-01T10:45:54Z</time>
      </trkpt>
      <trkpt lat="44.0352" lon="6.64363">
        <ele>1292</ele>
        <time>2017-11-01T10:46:00Z</time>
      </trkpt>
      <trkpt lat="44.03518" lon="6.6437">
        <ele>1293</ele>
        <time>2017-11-01T10:46:04Z</time>
      </trkpt>
      <trkpt lat="44.03515" lon="6.64376">
        <ele>1294</ele>
        <time>2017-11-01T10:46:09Z</time>
      </trkpt>
      <trkpt lat="44.03515" lon="6.64382">
        <ele>1294</ele>
        <time>2017-11-01T10:46:13Z</time>
      </trkpt>
      <trkpt lat="44.03515" lon="6.6439">
        <ele>1295</ele>
        <time>2017-11-01T10:46:18Z</time>
      </trkpt>
      <trkpt lat="44.03515" lon="6.64397">
        <ele>1295</ele>
        <time>2017-11-01T10:46:24Z</time>
      </trkpt>
      <trkpt lat="44.03515" lon="6.64404">
        <ele>1296</ele>
        <time>2017-11-01T10:46:28Z</time>
      </trkpt>
      <trkpt lat="44.03516" lon="6.64412">
        <ele>1295</ele>
        <time>2017-11-01T10:46:32Z</time>
      </trkpt>
      <trkpt lat="44.03515" lon="6.64419">
        <ele>1296</ele>
        <time>2017-11-01T10:46:39Z</time>
      </trkpt>
      <trkpt lat="44.03515" lon="6.64425">
        <ele>1297</ele>
        <time>2017-11-01T10:46:42Z</time>
      </trkpt>
      <trkpt lat="44.03513" lon="6.64432">
        <ele>1297</ele>
        <time>2017-11-01T10:46:46Z</time>
      </trkpt>
      <trkpt lat="44.03511" lon="6.64438">
        <ele>1297</ele>
        <time>2017-11-01T10:46:50Z</time>
      </trkpt>
      <trkpt lat="44.03507" lon="6.64443">
        <ele>1298</ele>
        <time>2017-11-01T10:46:54Z</time>
      </trkpt>
      <trkpt lat="44.03503" lon="6.64447">
        <ele>1299</ele>
        <time>2017-11-01T10:46:58Z</time>
      </trkpt>
      <trkpt lat="44.035" lon="6.64452">
        <ele>1300</ele>
        <time>2017-11-01T10:47:01Z</time>
      </trkpt>
      <trkpt lat="44.03495" lon="6.64457">
        <ele>1302</ele>
        <time>2017-11-01T10:47:05Z</time>
      </trkpt>
      <trkpt lat="44.03491" lon="6.6446">
        <ele>1304</ele>
        <time>2017-11-01T10:47:09Z</time>
      </trkpt>
      <trkpt lat="44.03487" lon="6.64465">
        <ele>1307</ele>
        <time>2017-11-01T10:47:14Z</time>
      </trkpt>
      <trkpt lat="44.03482" lon="6.64468">
        <ele>1309</ele>
        <time>2017-11-01T10:47:18Z</time>
      </trkpt>
      <trkpt lat="44.03479" lon="6.64474">
        <ele>1310</ele>
        <time>2017-11-01T10:47:21Z</time>
      </trkpt>
      <trkpt lat="44.03477" lon="6.6448">
        <ele>1311</ele>
        <time>2017-11-01T10:47:27Z</time>
      </trkpt>
      <trkpt lat="44.03474" lon="6.64484">
        <ele>1311</ele>
        <time>2017-11-01T10:47:31Z</time>
      </trkpt>
      <trkpt lat="44.0347" lon="6.64487">
        <ele>1311</ele>
        <time>2017-11-01T10:47:36Z</time>
      </trkpt>
      <trkpt lat="44.03465" lon="6.64488">
        <ele>1310</ele>
        <time>2017-11-01T10:47:40Z</time>
      </trkpt>
      <trkpt lat="44.03461" lon="6.64489">
        <ele>1310</ele>
        <time>2017-11-01T10:47:44Z</time>
      </trkpt>
      <trkpt lat="44.03456" lon="6.64491">
        <ele>1310</ele>
        <time>2017-11-01T10:47:48Z</time>
      </trkpt>
      <trkpt lat="44.03451" lon="6.64495">
        <ele>1310</ele>
        <time>2017-11-01T10:47:52Z</time>
      </trkpt>
      <trkpt lat="44.03452" lon="6.64502">
        <ele>1311</ele>
        <time>2017-11-01T10:47:56Z</time>
      </trkpt>
      <trkpt lat="44.03457" lon="6.64506">
        <ele>1311</ele>
        <time>2017-11-01T10:48:01Z</time>
      </trkpt>
      <trkpt lat="44.03462" lon="6.64507">
        <ele>1312</ele>
        <time>2017-11-01T10:48:06Z</time>
      </trkpt>
      <trkpt lat="44.03467" lon="6.64508">
        <ele>1312</ele>
        <time>2017-11-01T10:48:13Z</time>
      </trkpt>
      <trkpt lat="44.03472" lon="6.64509">
        <ele>1313</ele>
        <time>2017-11-01T10:48:18Z</time>
      </trkpt>
      <trkpt lat="44.03477" lon="6.64508">
        <ele>1315</ele>
        <time>2017-11-01T10:48:22Z</time>
      </trkpt>
      <trkpt lat="44.03481" lon="6.64505">
        <ele>1315</ele>
        <time>2017-11-01T10:48:27Z</time>
      </trkpt>
      <trkpt lat="44.03486" lon="6.64504">
        <ele>1315</ele>
        <time>2017-11-01T10:48:32Z</time>
      </trkpt>
      <trkpt lat="44.03492" lon="6.64506">
        <ele>1315</ele>
        <time>2017-11-01T10:48:37Z</time>
      </trkpt>
      <trkpt lat="44.03497" lon="6.64506">
        <ele>1315</ele>
        <time>2017-11-01T10:48:43Z</time>
      </trkpt>
      <trkpt lat="44.03502" lon="6.64507">
        <ele>1315</ele>
        <time>2017-11-01T10:48:47Z</time>
      </trkpt>
      <trkpt lat="44.03507" lon="6.64506">
        <ele>1316</ele>
        <time>2017-11-01T10:48:52Z</time>
      </trkpt>
      <trkpt lat="44.03512" lon="6.64504">
        <ele>1318</ele>
        <time>2017-11-01T10:48:57Z</time>
      </trkpt>
      <trkpt lat="44.03516" lon="6.64502">
        <ele>1320</ele>
        <time>2017-11-01T10:49:02Z</time>
      </trkpt>
      <trkpt lat="44.03521" lon="6.64502">
        <ele>1320</ele>
        <time>2017-11-01T10:49:07Z</time>
      </trkpt>
      <trkpt lat="44.03526" lon="6.64505">
        <ele>1322</ele>
        <time>2017-11-01T10:49:11Z</time>
      </trkpt>
      <trkpt lat="44.03524" lon="6.64511">
        <ele>1324</ele>
        <time>2017-11-01T10:49:15Z</time>
      </trkpt>
      <trkpt lat="44.03523" lon="6.64518">
        <ele>1325</ele>
        <time>2017-11-01T10:49:20Z</time>
      </trkpt>
      <trkpt lat="44.03518" lon="6.64519">
        <ele>1326</ele>
        <time>2017-11-01T10:49:24Z</time>
      </trkpt>
      <trkpt lat="44.03513" lon="6.64521">
        <ele>1327</ele>
        <time>2017-11-01T10:49:28Z</time>
      </trkpt>
      <trkpt lat="44.03508" lon="6.64523">
        <ele>1327</ele>
        <time>2017-11-01T10:49:32Z</time>
      </trkpt>
      <trkpt lat="44.03503" lon="6.64526">
        <ele>1327</ele>
        <time>2017-11-01T10:49:38Z</time>
      </trkpt>
      <trkpt lat="44.03499" lon="6.64528">
        <ele>1327</ele>
        <time>2017-11-01T10:49:43Z</time>
      </trkpt>
      <trkpt lat="44.03494" lon="6.64531">
        <ele>1328</ele>
        <time>2017-11-01T10:49:47Z</time>
      </trkpt>
      <trkpt lat="44.03489" lon="6.64532">
        <ele>1328</ele>
        <time>2017-11-01T10:49:52Z</time>
      </trkpt>
      <trkpt lat="44.03484" lon="6.64532">
        <ele>1329</ele>
        <time>2017-11-01T10:49:56Z</time>
      </trkpt>
      <trkpt lat="44.0348" lon="6.64537">
        <ele>1329</ele>
        <time>2017-11-01T10:50:01Z</time>
      </trkpt>
      <trkpt lat="44.03475" lon="6.64541">
        <ele>1330</ele>
        <time>2017-11-01T10:50:06Z</time>
      </trkpt>
      <trkpt lat="44.03471" lon="6.64544">
        <ele>1331</ele>
        <time>2017-11-01T10:50:10Z</time>
      </trkpt>
      <trkpt lat="44.03467" lon="6.64549">
        <ele>1331</ele>
        <time>2017-11-01T10:50:14Z</time>
      </trkpt>
      <trkpt lat="44.03462" lon="6.64552">
        <ele>1331</ele>
        <time>2017-11-01T10:50:18Z</time>
      </trkpt>
      <trkpt lat="44.03457" lon="6.64554">
        <ele>1332</ele>
        <time>2017-11-01T10:50:22Z</time>
      </trkpt>
      <trkpt lat="44.03453" lon="6.64557">
        <ele>1332</ele>
        <time>2017-11-01T10:50:27Z</time>
      </trkpt>
      <trkpt lat="44.03448" lon="6.64559">
        <ele>1332</ele>
        <time>2017-11-01T10:50:30Z</time>
      </trkpt>
      <trkpt lat="44.03445" lon="6.64565">
        <ele>1332</ele>
        <time>2017-11-01T10:50:34Z</time>
      </trkpt>
      <trkpt lat="44.0344" lon="6.64566">
        <ele>1332</ele>
        <time>2017-11-01T10:50:39Z</time>
      </trkpt>
      <trkpt lat="44.03436" lon="6.64569">
        <ele>1332</ele>
        <time>2017-11-01T10:50:44Z</time>
      </trkpt>
      <trkpt lat="44.03431" lon="6.64571">
        <ele>1333</ele>
        <time>2017-11-01T10:50:49Z</time>
      </trkpt>
      <trkpt lat="44.03425" lon="6.64573">
        <ele>1333</ele>
        <time>2017-11-01T10:50:55Z</time>
      </trkpt>
      <trkpt lat="44.03419" lon="6.64575">
        <ele>1334</ele>
        <time>2017-11-01T10:51:03Z</time>
      </trkpt>
      <trkpt lat="44.03415" lon="6.64579">
        <ele>1334</ele>
        <time>2017-11-01T10:51:08Z</time>
      </trkpt>
      <trkpt lat="44.03411" lon="6.64584">
        <ele>1334</ele>
        <time>2017-11-01T10:51:10Z</time>
      </trkpt>
      <trkpt lat="44.03407" lon="6.64582">
        <ele>1334</ele>
        <time>2017-11-01T10:51:17Z</time>
      </trkpt>
      <trkpt lat="44.03402" lon="6.64585">
        <ele>1334</ele>
        <time>2017-11-01T10:51:21Z</time>
      </trkpt>
      <trkpt lat="44.03396" lon="6.64582">
        <ele>1335</ele>
        <time>2017-11-01T10:51:28Z</time>
      </trkpt>
      <trkpt lat="44.03391" lon="6.64583">
        <ele>1335</ele>
        <time>2017-11-01T10:51:33Z</time>
      </trkpt>
      <trkpt lat="44.03388" lon="6.64579">
        <ele>1336</ele>
        <time>2017-11-01T10:51:39Z</time>
      </trkpt>
      <trkpt lat="44.03383" lon="6.64579">
        <ele>1336</ele>
        <time>2017-11-01T10:51:43Z</time>
      </trkpt>
      <trkpt lat="44.03378" lon="6.64579">
        <ele>1337</ele>
        <time>2017-11-01T10:51:47Z</time>
      </trkpt>
      <trkpt lat="44.03373" lon="6.64578">
        <ele>1337</ele>
        <time>2017-11-01T10:51:52Z</time>
      </trkpt>
      <trkpt lat="44.03368" lon="6.64577">
        <ele>1338</ele>
        <time>2017-11-01T10:51:56Z</time>
      </trkpt>
      <trkpt lat="44.03363" lon="6.64575">
        <ele>1337</ele>
        <time>2017-11-01T10:52:02Z</time>
      </trkpt>
      <trkpt lat="44.03358" lon="6.64576">
        <ele>1335</ele>
        <time>2017-11-01T10:52:06Z</time>
      </trkpt>
      <trkpt lat="44.03353" lon="6.64573">
        <ele>1334</ele>
        <time>2017-11-01T10:52:10Z</time>
      </trkpt>
      <trkpt lat="44.03348" lon="6.64572">
        <ele>1333</ele>
        <time>2017-11-01T10:52:14Z</time>
      </trkpt>
      <trkpt lat="44.03344" lon="6.64568">
        <ele>1333</ele>
        <time>2017-11-01T10:52:20Z</time>
      </trkpt>
      <trkpt lat="44.03339" lon="6.64568">
        <ele>1335</ele>
        <time>2017-11-01T10:52:26Z</time>
      </trkpt>
      <trkpt lat="44.03334" lon="6.64566">
        <ele>1337</ele>
        <time>2017-11-01T10:52:33Z</time>
      </trkpt>
      <trkpt lat="44.03328" lon="6.64568">
        <ele>1339</ele>
        <time>2017-11-01T10:52:38Z</time>
      </trkpt>
      <trkpt lat="44.03324" lon="6.64569">
        <ele>1340</ele>
        <time>2017-11-01T10:52:45Z</time>
      </trkpt>
      <trkpt lat="44.03319" lon="6.64572">
        <ele>1340</ele>
        <time>2017-11-01T10:52:53Z</time>
      </trkpt>
      <trkpt lat="44.03315" lon="6.6457">
        <ele>1339</ele>
        <time>2017-11-01T10:52:56Z</time>
      </trkpt>
      <trkpt lat="44.0331" lon="6.64569">
        <ele>1339</ele>
        <time>2017-11-01T10:52:58Z</time>
      </trkpt>
      <trkpt lat="44.03306" lon="6.64569">
        <ele>1338</ele>
        <time>2017-11-01T10:53:01Z</time>
      </trkpt>
      <trkpt lat="44.03303" lon="6.64563">
        <ele>1338</ele>
        <time>2017-11-01T10:53:06Z</time>
      </trkpt>
      <trkpt lat="44.03302" lon="6.64556">
        <ele>1339</ele>
        <time>2017-11-01T10:53:09Z</time>
      </trkpt>
      <trkpt lat="44.033" lon="6.64549">
        <ele>1341</ele>
        <time>2017-11-01T10:53:15Z</time>
      </trkpt>
      <trkpt lat="44.03298" lon="6.64542">
        <ele>1343</ele>
        <time>2017-11-01T10:53:18Z</time>
      </trkpt>
      <trkpt lat="44.03297" lon="6.64536">
        <ele>1346</ele>
        <time>2017-11-01T10:53:22Z</time>
      </trkpt>
      <trkpt lat="44.03294" lon="6.6453">
        <ele>1349</ele>
        <time>2017-11-01T10:53:28Z</time>
      </trkpt>
      <trkpt lat="44.03289" lon="6.64526">
        <ele>1352</ele>
        <time>2017-11-01T10:53:31Z</time>
      </trkpt>
      <trkpt lat="44.03286" lon="6.64519">
        <ele>1354</ele>
        <time>2017-11-01T10:53:35Z</time>
      </trkpt>
      <trkpt lat="44.03281" lon="6.64517">
        <ele>1356</ele>
        <time>2017-11-01T10:53:39Z</time>
      </trkpt>
      <trkpt lat="44.03276" lon="6.64516">
        <ele>1357</ele>
        <time>2017-11-01T10:53:42Z</time>
      </trkpt>
      <trkpt lat="44.03272" lon="6.64514">
        <ele>1356</ele>
        <time>2017-11-01T10:53:46Z</time>
      </trkpt>
      <trkpt lat="44.03267" lon="6.64514">
        <ele>1355</ele>
        <time>2017-11-01T10:53:49Z</time>
      </trkpt>
      <trkpt lat="44.03261" lon="6.64514">
        <ele>1354</ele>
        <time>2017-11-01T10:53:53Z</time>
      </trkpt>
      <trkpt lat="44.03257" lon="6.64515">
        <ele>1353</ele>
        <time>2017-11-01T10:53:58Z</time>
      </trkpt>
      <trkpt lat="44.03252" lon="6.64518">
        <ele>1352</ele>
        <time>2017-11-01T10:54:00Z</time>
      </trkpt>
      <trkpt lat="44.03249" lon="6.64512">
        <ele>1351</ele>
        <time>2017-11-01T10:54:04Z</time>
      </trkpt>
      <trkpt lat="44.03244" lon="6.64513">
        <ele>1352</ele>
        <time>2017-11-01T10:54:14Z</time>
      </trkpt>
      <trkpt lat="44.03243" lon="6.64512">
        <ele>1353</ele>
        <time>2017-11-01T10:54:32Z</time>
      </trkpt>
      <trkpt lat="44.03243" lon="6.64512">
        <ele>1354</ele>
        <time>2017-11-01T10:54:33Z</time>
      </trkpt>
      <trkpt lat="44.03243" lon="6.64512">
        <ele>1355</ele>
        <time>2017-11-01T10:55:02Z</time>
      </trkpt>
      <trkpt lat="44.03233" lon="6.645">
        <ele>1358</ele>
        <time>2017-11-01T10:55:03Z</time>
      </trkpt>
      <trkpt lat="44.03243" lon="6.64512">
        <ele>1359</ele>
        <time>2017-11-01T10:55:05Z</time>
      </trkpt>
      <trkpt lat="44.03236" lon="6.6451">
        <ele>1358</ele>
        <time>2017-11-01T10:55:13Z</time>
      </trkpt>
      <trkpt lat="44.03232" lon="6.64504">
        <ele>1358</ele>
        <time>2017-11-01T10:55:15Z</time>
      </trkpt>
      <trkpt lat="44.03227" lon="6.64506">
        <ele>1356</ele>
        <time>2017-11-01T10:55:17Z</time>
      </trkpt>
      <trkpt lat="44.03222" lon="6.64503">
        <ele>1353</ele>
        <time>2017-11-01T10:55:20Z</time>
      </trkpt>
      <trkpt lat="44.03217" lon="6.64501">
        <ele>1352</ele>
        <time>2017-11-01T10:55:23Z</time>
      </trkpt>
      <trkpt lat="44.03212" lon="6.64499">
        <ele>1351</ele>
        <time>2017-11-01T10:55:26Z</time>
      </trkpt>
      <trkpt lat="44.03208" lon="6.645">
        <ele>1352</ele>
        <time>2017-11-01T10:55:30Z</time>
      </trkpt>
      <trkpt lat="44.03203" lon="6.64497">
        <ele>1353</ele>
        <time>2017-11-01T10:55:34Z</time>
      </trkpt>
      <trkpt lat="44.03198" lon="6.64499">
        <ele>1355</ele>
        <time>2017-11-01T10:55:39Z</time>
      </trkpt>
      <trkpt lat="44.03193" lon="6.64502">
        <ele>1358</ele>
        <time>2017-11-01T10:55:43Z</time>
      </trkpt>
      <trkpt lat="44.03189" lon="6.64507">
        <ele>1360</ele>
        <time>2017-11-01T10:55:47Z</time>
      </trkpt>
      <trkpt lat="44.03185" lon="6.64511">
        <ele>1362</ele>
        <time>2017-11-01T10:55:50Z</time>
      </trkpt>
      <trkpt lat="44.0318" lon="6.64514">
        <ele>1364</ele>
        <time>2017-11-01T10:55:54Z</time>
      </trkpt>
      <trkpt lat="44.03175" lon="6.64517">
        <ele>1365</ele>
        <time>2017-11-01T10:55:58Z</time>
      </trkpt>
      <trkpt lat="44.03171" lon="6.64523">
        <ele>1367</ele>
        <time>2017-11-01T10:56:03Z</time>
      </trkpt>
      <trkpt lat="44.03168" lon="6.64529">
        <ele>1368</ele>
        <time>2017-11-01T10:56:06Z</time>
      </trkpt>
      <trkpt lat="44.03163" lon="6.64533">
        <ele>1369</ele>
        <time>2017-11-01T10:56:10Z</time>
      </trkpt>
      <trkpt lat="44.03159" lon="6.64537">
        <ele>1369</ele>
        <time>2017-11-01T10:56:15Z</time>
      </trkpt>
      <trkpt lat="44.03155" lon="6.64541">
        <ele>1369</ele>
        <time>2017-11-01T10:56:21Z</time>
      </trkpt>
      <trkpt lat="44.03149" lon="6.64543">
        <ele>1370</ele>
        <time>2017-11-01T10:56:26Z</time>
      </trkpt>
      <trkpt lat="44.03145" lon="6.64547">
        <ele>1372</ele>
        <time>2017-11-01T10:56:30Z</time>
      </trkpt>
      <trkpt lat="44.0314" lon="6.6455">
        <ele>1374</ele>
        <time>2017-11-01T10:56:35Z</time>
      </trkpt>
      <trkpt lat="44.03136" lon="6.64554">
        <ele>1377</ele>
        <time>2017-11-01T10:56:39Z</time>
      </trkpt>
      <trkpt lat="44.03132" lon="6.64558">
        <ele>1379</ele>
        <time>2017-11-01T10:56:42Z</time>
      </trkpt>
      <trkpt lat="44.03128" lon="6.64563">
        <ele>1380</ele>
        <time>2017-11-01T10:56:46Z</time>
      </trkpt>
      <trkpt lat="44.03125" lon="6.64569">
        <ele>1381</ele>
        <time>2017-11-01T10:56:51Z</time>
      </trkpt>
      <trkpt lat="44.03122" lon="6.64574">
        <ele>1381</ele>
        <time>2017-11-01T10:56:55Z</time>
      </trkpt>
      <trkpt lat="44.0312" lon="6.64581">
        <ele>1381</ele>
        <time>2017-11-01T10:56:59Z</time>
      </trkpt>
      <trkpt lat="44.03117" lon="6.64586">
        <ele>1382</ele>
        <time>2017-11-01T10:57:03Z</time>
      </trkpt>
      <trkpt lat="44.03116" lon="6.64593">
        <ele>1382</ele>
        <time>2017-11-01T10:57:07Z</time>
      </trkpt>
      <trkpt lat="44.03113" lon="6.64599">
        <ele>1381</ele>
        <time>2017-11-01T10:57:11Z</time>
      </trkpt>
      <trkpt lat="44.03113" lon="6.64606">
        <ele>1382</ele>
        <time>2017-11-01T10:57:16Z</time>
      </trkpt>
      <trkpt lat="44.03114" lon="6.64606">
        <ele>1383</ele>
        <time>2017-11-01T10:57:32Z</time>
      </trkpt>
      <trkpt lat="44.03114" lon="6.64606">
        <ele>1384</ele>
        <time>2017-11-01T10:57:34Z</time>
      </trkpt>
      <trkpt lat="44.03114" lon="6.64606">
        <ele>1385</ele>
        <time>2017-11-01T10:58:02Z</time>
      </trkpt>
      <trkpt lat="44.03114" lon="6.64606">
        <ele>1386</ele>
        <time>2017-11-01T10:58:05Z</time>
      </trkpt>
      <trkpt lat="44.03114" lon="6.64606">
        <ele>1387</ele>
        <time>2017-11-01T10:58:32Z</time>
      </trkpt>
      <trkpt lat="44.03114" lon="6.64606">
        <ele>1387</ele>
        <time>2017-11-01T10:58:35Z</time>
      </trkpt>
      <trkpt lat="44.03114" lon="6.64606">
        <ele>1387</ele>
        <time>2017-11-01T10:59:02Z</time>
      </trkpt>
      <trkpt lat="44.03114" lon="6.64606">
        <ele>1387</ele>
        <time>2017-11-01T10:59:05Z</time>
      </trkpt>
      <trkpt lat="44.03108" lon="6.64602">
        <ele>1387</ele>
        <time>2017-11-01T10:59:18Z</time>
      </trkpt>
      <trkpt lat="44.03108" lon="6.64612">
        <ele>1388</ele>
        <time>2017-11-01T10:59:20Z</time>
      </trkpt>
      <trkpt lat="44.03108" lon="6.6462">
        <ele>1388</ele>
        <time>2017-11-01T10:59:22Z</time>
      </trkpt>
      <trkpt lat="44.0311" lon="6.64626">
        <ele>1388</ele>
        <time>2017-11-01T10:59:24Z</time>
      </trkpt>
      <trkpt lat="44.03108" lon="6.64637">
        <ele>1388</ele>
        <time>2017-11-01T10:59:27Z</time>
      </trkpt>
      <trkpt lat="44.03103" lon="6.64641">
        <ele>1389</ele>
        <time>2017-11-01T10:59:31Z</time>
      </trkpt>
      <trkpt lat="44.03101" lon="6.64647">
        <ele>1390</ele>
        <time>2017-11-01T10:59:36Z</time>
      </trkpt>
      <trkpt lat="44.031" lon="6.64653">
        <ele>1392</ele>
        <time>2017-11-01T10:59:39Z</time>
      </trkpt>
      <trkpt lat="44.03099" lon="6.64661">
        <ele>1394</ele>
        <time>2017-11-01T10:59:42Z</time>
      </trkpt>
      <trkpt lat="44.03095" lon="6.64665">
        <ele>1395</ele>
        <time>2017-11-01T10:59:45Z</time>
      </trkpt>
      <trkpt lat="44.03094" lon="6.64671">
        <ele>1395</ele>
        <time>2017-11-01T10:59:47Z</time>
      </trkpt>
      <trkpt lat="44.03092" lon="6.64679">
        <ele>1395</ele>
        <time>2017-11-01T10:59:50Z</time>
      </trkpt>
      <trkpt lat="44.03089" lon="6.64685">
        <ele>1396</ele>
        <time>2017-11-01T10:59:53Z</time>
      </trkpt>
      <trkpt lat="44.03086" lon="6.64691">
        <ele>1396</ele>
        <time>2017-11-01T10:59:57Z</time>
      </trkpt>
      <trkpt lat="44.03086" lon="6.64698">
        <ele>1397</ele>
        <time>2017-11-01T11:00:00Z</time>
      </trkpt>
      <trkpt lat="44.03087" lon="6.64705">
        <ele>1399</ele>
        <time>2017-11-01T11:00:03Z</time>
      </trkpt>
      <trkpt lat="44.03088" lon="6.64711">
        <ele>1400</ele>
        <time>2017-11-01T11:00:06Z</time>
      </trkpt>
      <trkpt lat="44.03091" lon="6.64719">
        <ele>1401</ele>
        <time>2017-11-01T11:00:11Z</time>
      </trkpt>
      <trkpt lat="44.03091" lon="6.64725">
        <ele>1401</ele>
        <time>2017-11-01T11:00:14Z</time>
      </trkpt>
      <trkpt lat="44.03092" lon="6.64732">
        <ele>1401</ele>
        <time>2017-11-01T11:00:18Z</time>
      </trkpt>
      <trkpt lat="44.03092" lon="6.64739">
        <ele>1401</ele>
        <time>2017-11-01T11:00:22Z</time>
      </trkpt>
      <trkpt lat="44.03093" lon="6.64746">
        <ele>1401</ele>
        <time>2017-11-01T11:00:26Z</time>
      </trkpt>
      <trkpt lat="44.03091" lon="6.64752">
        <ele>1401</ele>
        <time>2017-11-01T11:00:32Z</time>
      </trkpt>
      <trkpt lat="44.03092" lon="6.6476">
        <ele>1401</ele>
        <time>2017-11-01T11:00:35Z</time>
      </trkpt>
      <trkpt lat="44.03089" lon="6.64767">
        <ele>1403</ele>
        <time>2017-11-01T11:00:39Z</time>
      </trkpt>
      <trkpt lat="44.03091" lon="6.64774">
        <ele>1403</ele>
        <time>2017-11-01T11:00:42Z</time>
      </trkpt>
      <trkpt lat="44.03092" lon="6.64781">
        <ele>1403</ele>
        <time>2017-11-01T11:00:46Z</time>
      </trkpt>
      <trkpt lat="44.03092" lon="6.64788">
        <ele>1404</ele>
        <time>2017-11-01T11:00:49Z</time>
      </trkpt>
      <trkpt lat="44.03092" lon="6.64796">
        <ele>1405</ele>
        <time>2017-11-01T11:00:53Z</time>
      </trkpt>
      <trkpt lat="44.03094" lon="6.64804">
        <ele>1404</ele>
        <time>2017-11-01T11:00:57Z</time>
      </trkpt>
      <trkpt lat="44.03095" lon="6.64812">
        <ele>1405</ele>
        <time>2017-11-01T11:01:01Z</time>
      </trkpt>
      <trkpt lat="44.03098" lon="6.64817">
        <ele>1405</ele>
        <time>2017-11-01T11:01:04Z</time>
      </trkpt>
      <trkpt lat="44.03102" lon="6.64823">
        <ele>1405</ele>
        <time>2017-11-01T11:01:09Z</time>
      </trkpt>
      <trkpt lat="44.03106" lon="6.64828">
        <ele>1406</ele>
        <time>2017-11-01T11:01:13Z</time>
      </trkpt>
      <trkpt lat="44.03111" lon="6.64829">
        <ele>1407</ele>
        <time>2017-11-01T11:01:17Z</time>
      </trkpt>
      <trkpt lat="44.03116" lon="6.64824">
        <ele>1407</ele>
        <time>2017-11-01T11:01:22Z</time>
      </trkpt>
      <trkpt lat="44.03118" lon="6.64816">
        <ele>1408</ele>
        <time>2017-11-01T11:01:26Z</time>
      </trkpt>
      <trkpt lat="44.03119" lon="6.6481">
        <ele>1409</ele>
        <time>2017-11-01T11:01:30Z</time>
      </trkpt>
      <trkpt lat="44.03121" lon="6.64804">
        <ele>1410</ele>
        <time>2017-11-01T11:01:34Z</time>
      </trkpt>
      <trkpt lat="44.03123" lon="6.64796">
        <ele>1410</ele>
        <time>2017-11-01T11:01:38Z</time>
      </trkpt>
      <trkpt lat="44.03125" lon="6.64791">
        <ele>1411</ele>
        <time>2017-11-01T11:01:42Z</time>
      </trkpt>
      <trkpt lat="44.03128" lon="6.64786">
        <ele>1411</ele>
        <time>2017-11-01T11:01:45Z</time>
      </trkpt>
      <trkpt lat="44.03133" lon="6.6478">
        <ele>1412</ele>
        <time>2017-11-01T11:01:49Z</time>
      </trkpt>
      <trkpt lat="44.03137" lon="6.64775">
        <ele>1413</ele>
        <time>2017-11-01T11:01:53Z</time>
      </trkpt>
      <trkpt lat="44.03141" lon="6.64771">
        <ele>1413</ele>
        <time>2017-11-01T11:01:58Z</time>
      </trkpt>
      <trkpt lat="44.03145" lon="6.64767">
        <ele>1413</ele>
        <time>2017-11-01T11:02:02Z</time>
      </trkpt>
      <trkpt lat="44.03148" lon="6.64762">
        <ele>1413</ele>
        <time>2017-11-01T11:02:05Z</time>
      </trkpt>
      <trkpt lat="44.03152" lon="6.64758">
        <ele>1413</ele>
        <time>2017-11-01T11:02:08Z</time>
      </trkpt>
      <trkpt lat="44.03156" lon="6.64752">
        <ele>1413</ele>
        <time>2017-11-01T11:02:12Z</time>
      </trkpt>
      <trkpt lat="44.0316" lon="6.64747">
        <ele>1413</ele>
        <time>2017-11-01T11:02:17Z</time>
      </trkpt>
      <trkpt lat="44.03164" lon="6.64744">
        <ele>1415</ele>
        <time>2017-11-01T11:02:27Z</time>
      </trkpt>
      <trkpt lat="44.03169" lon="6.64743">
        <ele>1416</ele>
        <time>2017-11-01T11:02:30Z</time>
      </trkpt>
      <trkpt lat="44.03174" lon="6.64745">
        <ele>1417</ele>
        <time>2017-11-01T11:02:34Z</time>
      </trkpt>
      <trkpt lat="44.0318" lon="6.64749">
        <ele>1418</ele>
        <time>2017-11-01T11:02:39Z</time>
      </trkpt>
      <trkpt lat="44.03185" lon="6.64751">
        <ele>1419</ele>
        <time>2017-11-01T11:02:43Z</time>
      </trkpt>
      <trkpt lat="44.03188" lon="6.64756">
        <ele>1419</ele>
        <time>2017-11-01T11:02:46Z</time>
      </trkpt>
      <trkpt lat="44.03193" lon="6.64758">
        <ele>1420</ele>
        <time>2017-11-01T11:02:50Z</time>
      </trkpt>
      <trkpt lat="44.03196" lon="6.64763">
        <ele>1421</ele>
        <time>2017-11-01T11:02:54Z</time>
      </trkpt>
      <trkpt lat="44.032" lon="6.64766">
        <ele>1422</ele>
        <time>2017-11-01T11:02:58Z</time>
      </trkpt>
      <trkpt lat="44.03204" lon="6.6477">
        <ele>1423</ele>
        <time>2017-11-01T11:03:01Z</time>
      </trkpt>
      <trkpt lat="44.0321" lon="6.64769">
        <ele>1423</ele>
        <time>2017-11-01T11:03:06Z</time>
      </trkpt>
      <trkpt lat="44.03216" lon="6.6477">
        <ele>1424</ele>
        <time>2017-11-01T11:03:10Z</time>
      </trkpt>
      <trkpt lat="44.0322" lon="6.64768">
        <ele>1424</ele>
        <time>2017-11-01T11:03:16Z</time>
      </trkpt>
      <trkpt lat="44.03223" lon="6.64761">
        <ele>1425</ele>
        <time>2017-11-01T11:03:20Z</time>
      </trkpt>
      <trkpt lat="44.03226" lon="6.64755">
        <ele>1427</ele>
        <time>2017-11-01T11:03:24Z</time>
      </trkpt>
      <trkpt lat="44.03229" lon="6.64751">
        <ele>1428</ele>
        <time>2017-11-01T11:03:27Z</time>
      </trkpt>
      <trkpt lat="44.03234" lon="6.64745">
        <ele>1429</ele>
        <time>2017-11-01T11:03:31Z</time>
      </trkpt>
      <trkpt lat="44.03238" lon="6.64741">
        <ele>1430</ele>
        <time>2017-11-01T11:03:43Z</time>
      </trkpt>
      <trkpt lat="44.03242" lon="6.64738">
        <ele>1431</ele>
        <time>2017-11-01T11:03:50Z</time>
      </trkpt>
      <trkpt lat="44.03248" lon="6.64736">
        <ele>1432</ele>
        <time>2017-11-01T11:03:54Z</time>
      </trkpt>
      <trkpt lat="44.03254" lon="6.64734">
        <ele>1432</ele>
        <time>2017-11-01T11:03:58Z</time>
      </trkpt>
      <trkpt lat="44.0326" lon="6.64735">
        <ele>1433</ele>
        <time>2017-11-01T11:04:01Z</time>
      </trkpt>
      <trkpt lat="44.03259" lon="6.64742">
        <ele>1433</ele>
        <time>2017-11-01T11:04:05Z</time>
      </trkpt>
      <trkpt lat="44.03262" lon="6.64747">
        <ele>1434</ele>
        <time>2017-11-01T11:04:09Z</time>
      </trkpt>
      <trkpt lat="44.03268" lon="6.64746">
        <ele>1435</ele>
        <time>2017-11-01T11:04:13Z</time>
      </trkpt>
      <trkpt lat="44.03269" lon="6.64738">
        <ele>1436</ele>
        <time>2017-11-01T11:04:15Z</time>
      </trkpt>
      <trkpt lat="44.03274" lon="6.64739">
        <ele>1436</ele>
        <time>2017-11-01T11:04:17Z</time>
      </trkpt>
      <trkpt lat="44.03279" lon="6.64737">
        <ele>1437</ele>
        <time>2017-11-01T11:04:21Z</time>
      </trkpt>
      <trkpt lat="44.03285" lon="6.64735">
        <ele>1437</ele>
        <time>2017-11-01T11:04:24Z</time>
      </trkpt>
      <trkpt lat="44.0329" lon="6.64735">
        <ele>1438</ele>
        <time>2017-11-01T11:04:30Z</time>
      </trkpt>
      <trkpt lat="44.03296" lon="6.64737">
        <ele>1439</ele>
        <time>2017-11-01T11:04:34Z</time>
      </trkpt>
      <trkpt lat="44.03301" lon="6.64739">
        <ele>1440</ele>
        <time>2017-11-01T11:04:40Z</time>
      </trkpt>
      <trkpt lat="44.03306" lon="6.64741">
        <ele>1441</ele>
        <time>2017-11-01T11:04:44Z</time>
      </trkpt>
      <trkpt lat="44.03312" lon="6.64743">
        <ele>1442</ele>
        <time>2017-11-01T11:04:48Z</time>
      </trkpt>
      <trkpt lat="44.03316" lon="6.64746">
        <ele>1443</ele>
        <time>2017-11-01T11:04:51Z</time>
      </trkpt>
      <trkpt lat="44.03321" lon="6.64748">
        <ele>1444</ele>
        <time>2017-11-01T11:04:55Z</time>
      </trkpt>
      <trkpt lat="44.03326" lon="6.6475">
        <ele>1444</ele>
        <time>2017-11-01T11:04:59Z</time>
      </trkpt>
      <trkpt lat="44.0333" lon="6.64751">
        <ele>1444</ele>
        <time>2017-11-01T11:05:03Z</time>
      </trkpt>
      <trkpt lat="44.0333" lon="6.64759">
        <ele>1445</ele>
        <time>2017-11-01T11:05:09Z</time>
      </trkpt>
      <trkpt lat="44.03326" lon="6.64764">
        <ele>1446</ele>
        <time>2017-11-01T11:05:15Z</time>
      </trkpt>
      <trkpt lat="44.03321" lon="6.64767">
        <ele>1447</ele>
        <time>2017-11-01T11:05:20Z</time>
      </trkpt>
      <trkpt lat="44.03317" lon="6.64771">
        <ele>1447</ele>
        <time>2017-11-01T11:05:25Z</time>
      </trkpt>
      <trkpt lat="44.03314" lon="6.64777">
        <ele>1447</ele>
        <time>2017-11-01T11:05:30Z</time>
      </trkpt>
      <trkpt lat="44.03311" lon="6.64783">
        <ele>1446</ele>
        <time>2017-11-01T11:05:33Z</time>
      </trkpt>
      <trkpt lat="44.03308" lon="6.64787">
        <ele>1446</ele>
        <time>2017-11-01T11:05:38Z</time>
      </trkpt>
      <trkpt lat="44.03305" lon="6.64793">
        <ele>1446</ele>
        <time>2017-11-01T11:05:43Z</time>
      </trkpt>
      <trkpt lat="44.03302" lon="6.64798">
        <ele>1446</ele>
        <time>2017-11-01T11:05:48Z</time>
      </trkpt>
      <trkpt lat="44.03298" lon="6.64804">
        <ele>1447</ele>
        <time>2017-11-01T11:05:53Z</time>
      </trkpt>
      <trkpt lat="44.03294" lon="6.6481">
        <ele>1448</ele>
        <time>2017-11-01T11:05:59Z</time>
      </trkpt>
      <trkpt lat="44.03291" lon="6.64815">
        <ele>1449</ele>
        <time>2017-11-01T11:06:05Z</time>
      </trkpt>
      <trkpt lat="44.0329" lon="6.64822">
        <ele>1450</ele>
        <time>2017-11-01T11:06:10Z</time>
      </trkpt>
      <trkpt lat="44.03289" lon="6.64828">
        <ele>1451</ele>
        <time>2017-11-01T11:06:15Z</time>
      </trkpt>
      <trkpt lat="44.03288" lon="6.64834">
        <ele>1452</ele>
        <time>2017-11-01T11:06:21Z</time>
      </trkpt>
      <trkpt lat="44.03289" lon="6.64842">
        <ele>1453</ele>
        <time>2017-11-01T11:06:28Z</time>
      </trkpt>
      <trkpt lat="44.03291" lon="6.64848">
        <ele>1454</ele>
        <time>2017-11-01T11:06:33Z</time>
      </trkpt>
      <trkpt lat="44.03294" lon="6.64853">
        <ele>1454</ele>
        <time>2017-11-01T11:06:38Z</time>
      </trkpt>
      <trkpt lat="44.03297" lon="6.64859">
        <ele>1454</ele>
        <time>2017-11-01T11:06:43Z</time>
      </trkpt>
      <trkpt lat="44.033" lon="6.64863">
        <ele>1454</ele>
        <time>2017-11-01T11:06:49Z</time>
      </trkpt>
      <trkpt lat="44.03305" lon="6.64866">
        <ele>1454</ele>
        <time>2017-11-01T11:06:57Z</time>
      </trkpt>
      <trkpt lat="44.03309" lon="6.64869">
        <ele>1454</ele>
        <time>2017-11-01T11:07:08Z</time>
      </trkpt>
      <trkpt lat="44.03309" lon="6.6487">
        <ele>1455</ele>
        <time>2017-11-01T11:07:32Z</time>
      </trkpt>
      <trkpt lat="44.03309" lon="6.6487">
        <ele>1456</ele>
        <time>2017-11-01T11:07:33Z</time>
      </trkpt>
      <trkpt lat="44.03309" lon="6.6487">
        <ele>1457</ele>
        <time>2017-11-01T11:08:02Z</time>
      </trkpt>
      <trkpt lat="44.03309" lon="6.6487">
        <ele>1457</ele>
        <time>2017-11-01T11:08:03Z</time>
      </trkpt>
      <trkpt lat="44.03309" lon="6.6487">
        <ele>1458</ele>
        <time>2017-11-01T11:08:32Z</time>
      </trkpt>
      <trkpt lat="44.03309" lon="6.64879">
        <ele>1457</ele>
        <time>2017-11-01T11:08:33Z</time>
      </trkpt>
      <trkpt lat="44.03309" lon="6.6487">
        <ele>1457</ele>
        <time>2017-11-01T11:08:35Z</time>
      </trkpt>
      <trkpt lat="44.03309" lon="6.6487">
        <ele>1457</ele>
        <time>2017-11-01T11:09:02Z</time>
      </trkpt>
      <trkpt lat="44.03309" lon="6.6487">
        <ele>1457</ele>
        <time>2017-11-01T11:09:05Z</time>
      </trkpt>
      <trkpt lat="44.03309" lon="6.6487">
        <ele>1457</ele>
        <time>2017-11-01T11:09:32Z</time>
      </trkpt>
      <trkpt lat="44.03309" lon="6.6487">
        <ele>1458</ele>
        <time>2017-11-01T11:09:35Z</time>
      </trkpt>
      <trkpt lat="44.03309" lon="6.6487">
        <ele>1458</ele>
        <time>2017-11-01T11:10:02Z</time>
      </trkpt>
      <trkpt lat="44.03309" lon="6.6487">
        <ele>1458</ele>
        <time>2017-11-01T11:10:05Z</time>
      </trkpt>
      <trkpt lat="44.03309" lon="6.6487">
        <ele>1458</ele>
        <time>2017-11-01T11:10:32Z</time>
      </trkpt>
      <trkpt lat="44.03309" lon="6.6487">
        <ele>1458</ele>
        <time>2017-11-01T11:10:33Z</time>
      </trkpt>
      <trkpt lat="44.03311" lon="6.64872">
        <ele>1458</ele>
        <time>2017-11-01T11:11:02Z</time>
      </trkpt>
      <trkpt lat="44.03312" lon="6.64878">
        <ele>1459</ele>
        <time>2017-11-01T11:11:03Z</time>
      </trkpt>
      <trkpt lat="44.03313" lon="6.64886">
        <ele>1459</ele>
        <time>2017-11-01T11:11:09Z</time>
      </trkpt>
      <trkpt lat="44.03315" lon="6.64892">
        <ele>1459</ele>
        <time>2017-11-01T11:11:11Z</time>
      </trkpt>
      <trkpt lat="44.03317" lon="6.64899">
        <ele>1459</ele>
        <time>2017-11-01T11:11:15Z</time>
      </trkpt>
      <trkpt lat="44.03318" lon="6.64905">
        <ele>1459</ele>
        <time>2017-11-01T11:11:18Z</time>
      </trkpt>
      <trkpt lat="44.03319" lon="6.64912">
        <ele>1459</ele>
        <time>2017-11-01T11:11:23Z</time>
      </trkpt>
      <trkpt lat="44.03319" lon="6.64919">
        <ele>1459</ele>
        <time>2017-11-01T11:11:25Z</time>
      </trkpt>
      <trkpt lat="44.03319" lon="6.64926">
        <ele>1459</ele>
        <time>2017-11-01T11:11:28Z</time>
      </trkpt>
      <trkpt lat="44.03321" lon="6.64931">
        <ele>1460</ele>
        <time>2017-11-01T11:11:32Z</time>
      </trkpt>
      <trkpt lat="44.03322" lon="6.64938">
        <ele>1461</ele>
        <time>2017-11-01T11:11:36Z</time>
      </trkpt>
      <trkpt lat="44.03321" lon="6.64946">
        <ele>1461</ele>
        <time>2017-11-01T11:11:40Z</time>
      </trkpt>
      <trkpt lat="44.03319" lon="6.64953">
        <ele>1462</ele>
        <time>2017-11-01T11:11:44Z</time>
      </trkpt>
      <trkpt lat="44.03317" lon="6.64959">
        <ele>1462</ele>
        <time>2017-11-01T11:11:47Z</time>
      </trkpt>
      <trkpt lat="44.03313" lon="6.64966">
        <ele>1462</ele>
        <time>2017-11-01T11:11:50Z</time>
      </trkpt>
      <trkpt lat="44.03311" lon="6.64973">
        <ele>1462</ele>
        <time>2017-11-01T11:11:53Z</time>
      </trkpt>
      <trkpt lat="44.03308" lon="6.64978">
        <ele>1462</ele>
        <time>2017-11-01T11:11:58Z</time>
      </trkpt>
      <trkpt lat="44.03305" lon="6.64984">
        <ele>1463</ele>
        <time>2017-11-01T11:12:01Z</time>
      </trkpt>
      <trkpt lat="44.03303" lon="6.6499">
        <ele>1464</ele>
        <time>2017-11-01T11:12:04Z</time>
      </trkpt>
      <trkpt lat="44.033" lon="6.64995">
        <ele>1464</ele>
        <time>2017-11-01T11:12:08Z</time>
      </trkpt>
      <trkpt lat="44.03296" lon="6.64998">
        <ele>1465</ele>
        <time>2017-11-01T11:12:11Z</time>
      </trkpt>
      <trkpt lat="44.03293" lon="6.65005">
        <ele>1466</ele>
        <time>2017-11-01T11:12:15Z</time>
      </trkpt>
      <trkpt lat="44.03288" lon="6.65008">
        <ele>1467</ele>
        <time>2017-11-01T11:12:18Z</time>
      </trkpt>
      <trkpt lat="44.03286" lon="6.65014">
        <ele>1467</ele>
        <time>2017-11-01T11:12:23Z</time>
      </trkpt>
      <trkpt lat="44.03284" lon="6.65022">
        <ele>1467</ele>
        <time>2017-11-01T11:12:27Z</time>
      </trkpt>
      <trkpt lat="44.03284" lon="6.65029">
        <ele>1467</ele>
        <time>2017-11-01T11:12:29Z</time>
      </trkpt>
      <trkpt lat="44.03281" lon="6.65037">
        <ele>1467</ele>
        <time>2017-11-01T11:12:32Z</time>
      </trkpt>
      <trkpt lat="44.03278" lon="6.65043">
        <ele>1466</ele>
        <time>2017-11-01T11:12:36Z</time>
      </trkpt>
      <trkpt lat="44.03277" lon="6.65052">
        <ele>1466</ele>
        <time>2017-11-01T11:12:41Z</time>
      </trkpt>
      <trkpt lat="44.03279" lon="6.6506">
        <ele>1467</ele>
        <time>2017-11-01T11:12:45Z</time>
      </trkpt>
      <trkpt lat="44.03281" lon="6.65068">
        <ele>1467</ele>
        <time>2017-11-01T11:12:48Z</time>
      </trkpt>
      <trkpt lat="44.03284" lon="6.65074">
        <ele>1468</ele>
        <time>2017-11-01T11:12:51Z</time>
      </trkpt>
      <trkpt lat="44.03288" lon="6.65078">
        <ele>1469</ele>
        <time>2017-11-01T11:12:54Z</time>
      </trkpt>
      <trkpt lat="44.03292" lon="6.65084">
        <ele>1470</ele>
        <time>2017-11-01T11:12:57Z</time>
      </trkpt>
      <trkpt lat="44.03296" lon="6.65091">
        <ele>1470</ele>
        <time>2017-11-01T11:13:00Z</time>
      </trkpt>
      <trkpt lat="44.03302" lon="6.65094">
        <ele>1471</ele>
        <time>2017-11-01T11:13:03Z</time>
      </trkpt>
      <trkpt lat="44.03309" lon="6.65096">
        <ele>1471</ele>
        <time>2017-11-01T11:13:05Z</time>
      </trkpt>
      <trkpt lat="44.03309" lon="6.65103">
        <ele>1471</ele>
        <time>2017-11-01T11:13:07Z</time>
      </trkpt>
      <trkpt lat="44.03311" lon="6.65112">
        <ele>1472</ele>
        <time>2017-11-01T11:13:10Z</time>
      </trkpt>
      <trkpt lat="44.03314" lon="6.65118">
        <ele>1472</ele>
        <time>2017-11-01T11:13:13Z</time>
      </trkpt>
      <trkpt lat="44.03317" lon="6.65124">
        <ele>1472</ele>
        <time>2017-11-01T11:13:16Z</time>
      </trkpt>
      <trkpt lat="44.0332" lon="6.65131">
        <ele>1473</ele>
        <time>2017-11-01T11:13:19Z</time>
      </trkpt>
      <trkpt lat="44.03323" lon="6.65137">
        <ele>1473</ele>
        <time>2017-11-01T11:13:22Z</time>
      </trkpt>
      <trkpt lat="44.03327" lon="6.65143">
        <ele>1473</ele>
        <time>2017-11-01T11:13:25Z</time>
      </trkpt>
      <trkpt lat="44.03332" lon="6.65146">
        <ele>1473</ele>
        <time>2017-11-01T11:13:27Z</time>
      </trkpt>
      <trkpt lat="44.03335" lon="6.65153">
        <ele>1473</ele>
        <time>2017-11-01T11:13:30Z</time>
      </trkpt>
      <trkpt lat="44.0334" lon="6.6516">
        <ele>1473</ele>
        <time>2017-11-01T11:13:33Z</time>
      </trkpt>
      <trkpt lat="44.03342" lon="6.65167">
        <ele>1473</ele>
        <time>2017-11-01T11:13:35Z</time>
      </trkpt>
      <trkpt lat="44.03342" lon="6.65173">
        <ele>1474</ele>
        <time>2017-11-01T11:13:37Z</time>
      </trkpt>
      <trkpt lat="44.03341" lon="6.6518">
        <ele>1474</ele>
        <time>2017-11-01T11:13:39Z</time>
      </trkpt>
      <trkpt lat="44.03339" lon="6.65187">
        <ele>1475</ele>
        <time>2017-11-01T11:13:42Z</time>
      </trkpt>
      <trkpt lat="44.03338" lon="6.65194">
        <ele>1475</ele>
        <time>2017-11-01T11:13:45Z</time>
      </trkpt>
      <trkpt lat="44.03338" lon="6.65201">
        <ele>1475</ele>
        <time>2017-11-01T11:13:48Z</time>
      </trkpt>
      <trkpt lat="44.03337" lon="6.65209">
        <ele>1476</ele>
        <time>2017-11-01T11:13:52Z</time>
      </trkpt>
      <trkpt lat="44.03338" lon="6.65216">
        <ele>1476</ele>
        <time>2017-11-01T11:13:55Z</time>
      </trkpt>
      <trkpt lat="44.03337" lon="6.65224">
        <ele>1477</ele>
        <time>2017-11-01T11:13:58Z</time>
      </trkpt>
      <trkpt lat="44.03336" lon="6.65231">
        <ele>1477</ele>
        <time>2017-11-01T11:14:02Z</time>
      </trkpt>
      <trkpt lat="44.03336" lon="6.65238">
        <ele>1478</ele>
        <time>2017-11-01T11:14:05Z</time>
      </trkpt>
      <trkpt lat="44.03334" lon="6.65246">
        <ele>1478</ele>
        <time>2017-11-01T11:14:09Z</time>
      </trkpt>
      <trkpt lat="44.03333" lon="6.65254">
        <ele>1478</ele>
        <time>2017-11-01T11:14:13Z</time>
      </trkpt>
      <trkpt lat="44.03331" lon="6.65261">
        <ele>1479</ele>
        <time>2017-11-01T11:14:16Z</time>
      </trkpt>
      <trkpt lat="44.0333" lon="6.65268">
        <ele>1480</ele>
        <time>2017-11-01T11:14:19Z</time>
      </trkpt>
      <trkpt lat="44.03329" lon="6.65276">
        <ele>1481</ele>
        <time>2017-11-01T11:14:22Z</time>
      </trkpt>
      <trkpt lat="44.03327" lon="6.65282">
        <ele>1482</ele>
        <time>2017-11-01T11:14:25Z</time>
      </trkpt>
      <trkpt lat="44.03325" lon="6.65287">
        <ele>1483</ele>
        <time>2017-11-01T11:14:28Z</time>
      </trkpt>
      <trkpt lat="44.03323" lon="6.65295">
        <ele>1483</ele>
        <time>2017-11-01T11:14:32Z</time>
      </trkpt>
      <trkpt lat="44.03322" lon="6.65301">
        <ele>1484</ele>
        <time>2017-11-01T11:14:34Z</time>
      </trkpt>
      <trkpt lat="44.0332" lon="6.65308">
        <ele>1484</ele>
        <time>2017-11-01T11:14:37Z</time>
      </trkpt>
      <trkpt lat="44.03319" lon="6.65316">
        <ele>1484</ele>
        <time>2017-11-01T11:14:40Z</time>
      </trkpt>
      <trkpt lat="44.03318" lon="6.65323">
        <ele>1484</ele>
        <time>2017-11-01T11:14:43Z</time>
      </trkpt>
      <trkpt lat="44.03316" lon="6.65329">
        <ele>1484</ele>
        <time>2017-11-01T11:14:46Z</time>
      </trkpt>
      <trkpt lat="44.03316" lon="6.65336">
        <ele>1485</ele>
        <time>2017-11-01T11:14:48Z</time>
      </trkpt>
      <trkpt lat="44.03313" lon="6.6534">
        <ele>1485</ele>
        <time>2017-11-01T11:14:51Z</time>
      </trkpt>
      <trkpt lat="44.03309" lon="6.65344">
        <ele>1485</ele>
        <time>2017-11-01T11:14:54Z</time>
      </trkpt>
      <trkpt lat="44.03309" lon="6.65357">
        <ele>1484</ele>
        <time>2017-11-01T11:14:56Z</time>
      </trkpt>
      <trkpt lat="44.03306" lon="6.65366">
        <ele>1483</ele>
        <time>2017-11-01T11:15:03Z</time>
      </trkpt>
      <trkpt lat="44.03304" lon="6.65372">
        <ele>1483</ele>
        <time>2017-11-01T11:15:05Z</time>
      </trkpt>
      <trkpt lat="44.03301" lon="6.6538">
        <ele>1482</ele>
        <time>2017-11-01T11:15:08Z</time>
      </trkpt>
      <trkpt lat="44.033" lon="6.65386">
        <ele>1482</ele>
        <time>2017-11-01T11:15:12Z</time>
      </trkpt>
      <trkpt lat="44.03297" lon="6.65394">
        <ele>1481</ele>
        <time>2017-11-01T11:15:17Z</time>
      </trkpt>
      <trkpt lat="44.03294" lon="6.65408">
        <ele>1482</ele>
        <time>2017-11-01T11:15:20Z</time>
      </trkpt>
      <trkpt lat="44.03292" lon="6.65416">
        <ele>1482</ele>
        <time>2017-11-01T11:15:24Z</time>
      </trkpt>
      <trkpt lat="44.03293" lon="6.65423">
        <ele>1481</ele>
        <time>2017-11-01T11:15:27Z</time>
      </trkpt>
      <trkpt lat="44.03293" lon="6.65434">
        <ele>1481</ele>
        <time>2017-11-01T11:15:29Z</time>
      </trkpt>
      <trkpt lat="44.0329" lon="6.65442">
        <ele>1480</ele>
        <time>2017-11-01T11:15:31Z</time>
      </trkpt>
      <trkpt lat="44.03287" lon="6.65454">
        <ele>1479</ele>
        <time>2017-11-01T11:15:33Z</time>
      </trkpt>
      <trkpt lat="44.03281" lon="6.65462">
        <ele>1478</ele>
        <time>2017-11-01T11:15:35Z</time>
      </trkpt>
      <trkpt lat="44.03287" lon="6.6547">
        <ele>1477</ele>
        <time>2017-11-01T11:15:38Z</time>
      </trkpt>
      <trkpt lat="44.03291" lon="6.65475">
        <ele>1477</ele>
        <time>2017-11-01T11:15:43Z</time>
      </trkpt>
      <trkpt lat="44.03294" lon="6.65481">
        <ele>1478</ele>
        <time>2017-11-01T11:15:46Z</time>
      </trkpt>
      <trkpt lat="44.03298" lon="6.65485">
        <ele>1480</ele>
        <time>2017-11-01T11:15:50Z</time>
      </trkpt>
      <trkpt lat="44.03298" lon="6.65492">
        <ele>1483</ele>
        <time>2017-11-01T11:15:52Z</time>
      </trkpt>
      <trkpt lat="44.03299" lon="6.65499">
        <ele>1485</ele>
        <time>2017-11-01T11:15:54Z</time>
      </trkpt>
      <trkpt lat="44.033" lon="6.65505">
        <ele>1486</ele>
        <time>2017-11-01T11:15:56Z</time>
      </trkpt>
      <trkpt lat="44.03303" lon="6.6551">
        <ele>1486</ele>
        <time>2017-11-01T11:15:59Z</time>
      </trkpt>
      <trkpt lat="44.03302" lon="6.65516">
        <ele>1485</ele>
        <time>2017-11-01T11:16:02Z</time>
      </trkpt>
      <trkpt lat="44.03301" lon="6.65524">
        <ele>1485</ele>
        <time>2017-11-01T11:16:06Z</time>
      </trkpt>
      <trkpt lat="44.03303" lon="6.65529">
        <ele>1486</ele>
        <time>2017-11-01T11:16:09Z</time>
      </trkpt>
      <trkpt lat="44.03302" lon="6.6554">
        <ele>1486</ele>
        <time>2017-11-01T11:16:11Z</time>
      </trkpt>
      <trkpt lat="44.033" lon="6.65549">
        <ele>1487</ele>
        <time>2017-11-01T11:16:13Z</time>
      </trkpt>
      <trkpt lat="44.03297" lon="6.65558">
        <ele>1488</ele>
        <time>2017-11-01T11:16:16Z</time>
      </trkpt>
      <trkpt lat="44.03293" lon="6.65563">
        <ele>1488</ele>
        <time>2017-11-01T11:16:18Z</time>
      </trkpt>
      <trkpt lat="44.03288" lon="6.65548">
        <ele>1490</ele>
        <time>2017-11-01T11:16:20Z</time>
      </trkpt>
      <trkpt lat="44.03287" lon="6.65555">
        <ele>1491</ele>
        <time>2017-11-01T11:16:21Z</time>
      </trkpt>
      <trkpt lat="44.03281" lon="6.65557">
        <ele>1492</ele>
        <time>2017-11-01T11:16:26Z</time>
      </trkpt>
      <trkpt lat="44.03279" lon="6.65563">
        <ele>1493</ele>
        <time>2017-11-01T11:16:29Z</time>
      </trkpt>
      <trkpt lat="44.03272" lon="6.65564">
        <ele>1493</ele>
        <time>2017-11-01T11:16:31Z</time>
      </trkpt>
      <trkpt lat="44.03267" lon="6.65568">
        <ele>1494</ele>
        <time>2017-11-01T11:16:34Z</time>
      </trkpt>
      <trkpt lat="44.03265" lon="6.65574">
        <ele>1494</ele>
        <time>2017-11-01T11:16:38Z</time>
      </trkpt>
      <trkpt lat="44.03265" lon="6.65581">
        <ele>1495</ele>
        <time>2017-11-01T11:16:41Z</time>
      </trkpt>
      <trkpt lat="44.03266" lon="6.65588">
        <ele>1496</ele>
        <time>2017-11-01T11:16:42Z</time>
      </trkpt>
      <trkpt lat="44.03265" lon="6.65596">
        <ele>1496</ele>
        <time>2017-11-01T11:16:45Z</time>
      </trkpt>
      <trkpt lat="44.03263" lon="6.65602">
        <ele>1495</ele>
        <time>2017-11-01T11:16:47Z</time>
      </trkpt>
      <trkpt lat="44.03264" lon="6.65612">
        <ele>1496</ele>
        <time>2017-11-01T11:16:50Z</time>
      </trkpt>
      <trkpt lat="44.03265" lon="6.65619">
        <ele>1497</ele>
        <time>2017-11-01T11:16:55Z</time>
      </trkpt>
      <trkpt lat="44.03266" lon="6.65628">
        <ele>1498</ele>
        <time>2017-11-01T11:16:58Z</time>
      </trkpt>
      <trkpt lat="44.03267" lon="6.65636">
        <ele>1499</ele>
        <time>2017-11-01T11:17:01Z</time>
      </trkpt>
      <trkpt lat="44.03267" lon="6.65647">
        <ele>1500</ele>
        <time>2017-11-01T11:17:04Z</time>
      </trkpt>
      <trkpt lat="44.03266" lon="6.65653">
        <ele>1501</ele>
        <time>2017-11-01T11:17:06Z</time>
      </trkpt>
      <trkpt lat="44.03268" lon="6.65661">
        <ele>1502</ele>
        <time>2017-11-01T11:17:09Z</time>
      </trkpt>
      <trkpt lat="44.0327" lon="6.65667">
        <ele>1503</ele>
        <time>2017-11-01T11:17:13Z</time>
      </trkpt>
      <trkpt lat="44.0327" lon="6.65675">
        <ele>1504</ele>
        <time>2017-11-01T11:17:17Z</time>
      </trkpt>
      <trkpt lat="44.0327" lon="6.65683">
        <ele>1504</ele>
        <time>2017-11-01T11:17:20Z</time>
      </trkpt>
      <trkpt lat="44.03272" lon="6.65689">
        <ele>1504</ele>
        <time>2017-11-01T11:17:23Z</time>
      </trkpt>
      <trkpt lat="44.03274" lon="6.65695">
        <ele>1504</ele>
        <time>2017-11-01T11:17:25Z</time>
      </trkpt>
      <trkpt lat="44.0327" lon="6.65704">
        <ele>1504</ele>
        <time>2017-11-01T11:17:29Z</time>
      </trkpt>
      <trkpt lat="44.0327" lon="6.65713">
        <ele>1504</ele>
        <time>2017-11-01T11:17:33Z</time>
      </trkpt>
      <trkpt lat="44.03268" lon="6.65721">
        <ele>1504</ele>
        <time>2017-11-01T11:17:36Z</time>
      </trkpt>
      <trkpt lat="44.03264" lon="6.65726">
        <ele>1505</ele>
        <time>2017-11-01T11:17:40Z</time>
      </trkpt>
      <trkpt lat="44.0326" lon="6.65732">
        <ele>1506</ele>
        <time>2017-11-01T11:17:43Z</time>
      </trkpt>
      <trkpt lat="44.0326" lon="6.65741">
        <ele>1506</ele>
        <time>2017-11-01T11:17:46Z</time>
      </trkpt>
      <trkpt lat="44.0326" lon="6.65748">
        <ele>1507</ele>
        <time>2017-11-01T11:17:47Z</time>
      </trkpt>
      <trkpt lat="44.03259" lon="6.65754">
        <ele>1507</ele>
        <time>2017-11-01T11:17:56Z</time>
      </trkpt>
      <trkpt lat="44.03261" lon="6.65762">
        <ele>1507</ele>
        <time>2017-11-01T11:17:58Z</time>
      </trkpt>
      <trkpt lat="44.03266" lon="6.65767">
        <ele>1508</ele>
        <time>2017-11-01T11:18:00Z</time>
      </trkpt>
      <trkpt lat="44.03265" lon="6.65776">
        <ele>1508</ele>
        <time>2017-11-01T11:18:03Z</time>
      </trkpt>
      <trkpt lat="44.03268" lon="6.65781">
        <ele>1508</ele>
        <time>2017-11-01T11:18:05Z</time>
      </trkpt>
      <trkpt lat="44.03269" lon="6.65789">
        <ele>1509</ele>
        <time>2017-11-01T11:18:08Z</time>
      </trkpt>
      <trkpt lat="44.03269" lon="6.65796">
        <ele>1510</ele>
        <time>2017-11-01T11:18:10Z</time>
      </trkpt>
      <trkpt lat="44.03271" lon="6.65803">
        <ele>1510</ele>
        <time>2017-11-01T11:18:12Z</time>
      </trkpt>
      <trkpt lat="44.03273" lon="6.65808">
        <ele>1511</ele>
        <time>2017-11-01T11:18:15Z</time>
      </trkpt>
      <trkpt lat="44.03274" lon="6.65816">
        <ele>1512</ele>
        <time>2017-11-01T11:18:18Z</time>
      </trkpt>
      <trkpt lat="44.03276" lon="6.65824">
        <ele>1513</ele>
        <time>2017-11-01T11:18:21Z</time>
      </trkpt>
      <trkpt lat="44.03277" lon="6.65831">
        <ele>1514</ele>
        <time>2017-11-01T11:18:25Z</time>
      </trkpt>
      <trkpt lat="44.0328" lon="6.65838">
        <ele>1515</ele>
        <time>2017-11-01T11:18:27Z</time>
      </trkpt>
      <trkpt lat="44.03279" lon="6.65846">
        <ele>1515</ele>
        <time>2017-11-01T11:18:31Z</time>
      </trkpt>
      <trkpt lat="44.03278" lon="6.65853">
        <ele>1516</ele>
        <time>2017-11-01T11:18:32Z</time>
      </trkpt>
      <trkpt lat="44.03277" lon="6.65861">
        <ele>1516</ele>
        <time>2017-11-01T11:18:34Z</time>
      </trkpt>
      <trkpt lat="44.03271" lon="6.65865">
        <ele>1516</ele>
        <time>2017-11-01T11:18:37Z</time>
      </trkpt>
      <trkpt lat="44.03266" lon="6.65866">
        <ele>1515</ele>
        <time>2017-11-01T11:18:40Z</time>
      </trkpt>
      <trkpt lat="44.03262" lon="6.65863">
        <ele>1515</ele>
        <time>2017-11-01T11:18:43Z</time>
      </trkpt>
      <trkpt lat="44.03256" lon="6.65862">
        <ele>1515</ele>
        <time>2017-11-01T11:18:45Z</time>
      </trkpt>
      <trkpt lat="44.03249" lon="6.65853">
        <ele>1515</ele>
        <time>2017-11-01T11:18:47Z</time>
      </trkpt>
      <trkpt lat="44.03244" lon="6.65855">
        <ele>1514</ele>
        <time>2017-11-01T11:18:51Z</time>
      </trkpt>
      <trkpt lat="44.0324" lon="6.65851">
        <ele>1514</ele>
        <time>2017-11-01T11:18:53Z</time>
      </trkpt>
      <trkpt lat="44.03236" lon="6.6585">
        <ele>1513</ele>
        <time>2017-11-01T11:18:56Z</time>
      </trkpt>
      <trkpt lat="44.03231" lon="6.6585">
        <ele>1512</ele>
        <time>2017-11-01T11:18:58Z</time>
      </trkpt>
      <trkpt lat="44.03225" lon="6.6585">
        <ele>1510</ele>
        <time>2017-11-01T11:19:02Z</time>
      </trkpt>
      <trkpt lat="44.0322" lon="6.65852">
        <ele>1509</ele>
        <time>2017-11-01T11:19:06Z</time>
      </trkpt>
      <trkpt lat="44.03213" lon="6.65853">
        <ele>1508</ele>
        <time>2017-11-01T11:19:10Z</time>
      </trkpt>
      <trkpt lat="44.03207" lon="6.65854">
        <ele>1507</ele>
        <time>2017-11-01T11:19:13Z</time>
      </trkpt>
      <trkpt lat="44.03201" lon="6.65852">
        <ele>1508</ele>
        <time>2017-11-01T11:19:16Z</time>
      </trkpt>
      <trkpt lat="44.03196" lon="6.65851">
        <ele>1508</ele>
        <time>2017-11-01T11:19:18Z</time>
      </trkpt>
      <trkpt lat="44.03192" lon="6.65854">
        <ele>1508</ele>
        <time>2017-11-01T11:19:21Z</time>
      </trkpt>
      <trkpt lat="44.03188" lon="6.65858">
        <ele>1510</ele>
        <time>2017-11-01T11:19:23Z</time>
      </trkpt>
      <trkpt lat="44.03182" lon="6.65862">
        <ele>1511</ele>
        <time>2017-11-01T11:19:25Z</time>
      </trkpt>
      <trkpt lat="44.03176" lon="6.65864">
        <ele>1513</ele>
        <time>2017-11-01T11:19:29Z</time>
      </trkpt>
      <trkpt lat="44.03171" lon="6.65867">
        <ele>1515</ele>
        <time>2017-11-01T11:19:32Z</time>
      </trkpt>
      <trkpt lat="44.03169" lon="6.65873">
        <ele>1516</ele>
        <time>2017-11-01T11:19:35Z</time>
      </trkpt>
      <trkpt lat="44.03165" lon="6.65877">
        <ele>1518</ele>
        <time>2017-11-01T11:19:38Z</time>
      </trkpt>
      <trkpt lat="44.03163" lon="6.65887">
        <ele>1518</ele>
        <time>2017-11-01T11:19:41Z</time>
      </trkpt>
      <trkpt lat="44.0316" lon="6.65894">
        <ele>1517</ele>
        <time>2017-11-01T11:19:44Z</time>
      </trkpt>
      <trkpt lat="44.03156" lon="6.65898">
        <ele>1517</ele>
        <time>2017-11-01T11:19:47Z</time>
      </trkpt>
      <trkpt lat="44.03155" lon="6.65907">
        <ele>1516</ele>
        <time>2017-11-01T11:19:49Z</time>
      </trkpt>
      <trkpt lat="44.03153" lon="6.65915">
        <ele>1515</ele>
        <time>2017-11-01T11:19:51Z</time>
      </trkpt>
      <trkpt lat="44.03153" lon="6.65923">
        <ele>1515</ele>
        <time>2017-11-01T11:19:53Z</time>
      </trkpt>
      <trkpt lat="44.03148" lon="6.65928">
        <ele>1515</ele>
        <time>2017-11-01T11:19:57Z</time>
      </trkpt>
      <trkpt lat="44.03147" lon="6.65935">
        <ele>1515</ele>
        <time>2017-11-01T11:19:59Z</time>
      </trkpt>
      <trkpt lat="44.03143" lon="6.65942">
        <ele>1514</ele>
        <time>2017-11-01T11:20:02Z</time>
      </trkpt>
      <trkpt lat="44.0314" lon="6.65952">
        <ele>1514</ele>
        <time>2017-11-01T11:20:06Z</time>
      </trkpt>
      <trkpt lat="44.03136" lon="6.65958">
        <ele>1513</ele>
        <time>2017-11-01T11:20:09Z</time>
      </trkpt>
      <trkpt lat="44.03132" lon="6.65965">
        <ele>1514</ele>
        <time>2017-11-01T11:20:15Z</time>
      </trkpt>
      <trkpt lat="44.03131" lon="6.65971">
        <ele>1514</ele>
        <time>2017-11-01T11:20:18Z</time>
      </trkpt>
      <trkpt lat="44.03132" lon="6.65982">
        <ele>1515</ele>
        <time>2017-11-01T11:20:21Z</time>
      </trkpt>
      <trkpt lat="44.03132" lon="6.65989">
        <ele>1516</ele>
        <time>2017-11-01T11:20:24Z</time>
      </trkpt>
      <trkpt lat="44.03133" lon="6.65997">
        <ele>1517</ele>
        <time>2017-11-01T11:20:28Z</time>
      </trkpt>
      <trkpt lat="44.03134" lon="6.66003">
        <ele>1517</ele>
        <time>2017-11-01T11:20:31Z</time>
      </trkpt>
      <trkpt lat="44.03138" lon="6.6601">
        <ele>1517</ele>
        <time>2017-11-01T11:20:34Z</time>
      </trkpt>
      <trkpt lat="44.0314" lon="6.66018">
        <ele>1518</ele>
        <time>2017-11-01T11:20:37Z</time>
      </trkpt>
      <trkpt lat="44.03139" lon="6.66025">
        <ele>1518</ele>
        <time>2017-11-01T11:20:39Z</time>
      </trkpt>
      <trkpt lat="44.03135" lon="6.66031">
        <ele>1518</ele>
        <time>2017-11-01T11:20:42Z</time>
      </trkpt>
      <trkpt lat="44.03131" lon="6.66034">
        <ele>1519</ele>
        <time>2017-11-01T11:20:45Z</time>
      </trkpt>
      <trkpt lat="44.03126" lon="6.66039">
        <ele>1519</ele>
        <time>2017-11-01T11:20:48Z</time>
      </trkpt>
      <trkpt lat="44.0312" lon="6.66044">
        <ele>1519</ele>
        <time>2017-11-01T11:20:51Z</time>
      </trkpt>
      <trkpt lat="44.03115" lon="6.66049">
        <ele>1518</ele>
        <time>2017-11-01T11:20:54Z</time>
      </trkpt>
      <trkpt lat="44.03109" lon="6.66053">
        <ele>1518</ele>
        <time>2017-11-01T11:20:57Z</time>
      </trkpt>
      <trkpt lat="44.03104" lon="6.66057">
        <ele>1518</ele>
        <time>2017-11-01T11:21:02Z</time>
      </trkpt>
      <trkpt lat="44.031" lon="6.66064">
        <ele>1517</ele>
        <time>2017-11-01T11:21:05Z</time>
      </trkpt>
      <trkpt lat="44.03098" lon="6.6607">
        <ele>1517</ele>
        <time>2017-11-01T11:21:07Z</time>
      </trkpt>
      <trkpt lat="44.03099" lon="6.66076">
        <ele>1516</ele>
        <time>2017-11-01T11:21:08Z</time>
      </trkpt>
      <trkpt lat="44.03096" lon="6.66067">
        <ele>1515</ele>
        <time>2017-11-01T11:21:10Z</time>
      </trkpt>
      <trkpt lat="44.03092" lon="6.66074">
        <ele>1515</ele>
        <time>2017-11-01T11:21:14Z</time>
      </trkpt>
      <trkpt lat="44.03093" lon="6.66084">
        <ele>1515</ele>
        <time>2017-11-01T11:21:20Z</time>
      </trkpt>
      <trkpt lat="44.03095" lon="6.66089">
        <ele>1514</ele>
        <time>2017-11-01T11:21:21Z</time>
      </trkpt>
      <trkpt lat="44.03099" lon="6.66093">
        <ele>1515</ele>
        <time>2017-11-01T11:21:25Z</time>
      </trkpt>
      <trkpt lat="44.03094" lon="6.661">
        <ele>1516</ele>
        <time>2017-11-01T11:21:31Z</time>
      </trkpt>
      <trkpt lat="44.03099" lon="6.661">
        <ele>1517</ele>
        <time>2017-11-01T11:21:33Z</time>
      </trkpt>
      <trkpt lat="44.03098" lon="6.66111">
        <ele>1518</ele>
        <time>2017-11-01T11:21:37Z</time>
      </trkpt>
      <trkpt lat="44.03095" lon="6.66118">
        <ele>1520</ele>
        <time>2017-11-01T11:21:39Z</time>
      </trkpt>
      <trkpt lat="44.03091" lon="6.66124">
        <ele>1521</ele>
        <time>2017-11-01T11:21:41Z</time>
      </trkpt>
      <trkpt lat="44.03087" lon="6.6612">
        <ele>1522</ele>
        <time>2017-11-01T11:21:46Z</time>
      </trkpt>
      <trkpt lat="44.03082" lon="6.66118">
        <ele>1523</ele>
        <time>2017-11-01T11:21:49Z</time>
      </trkpt>
      <trkpt lat="44.03076" lon="6.66117">
        <ele>1524</ele>
        <time>2017-11-01T11:21:53Z</time>
      </trkpt>
      <trkpt lat="44.03071" lon="6.66118">
        <ele>1525</ele>
        <time>2017-11-01T11:21:56Z</time>
      </trkpt>
      <trkpt lat="44.03066" lon="6.66118">
        <ele>1526</ele>
        <time>2017-11-01T11:21:58Z</time>
      </trkpt>
      <trkpt lat="44.03062" lon="6.66121">
        <ele>1526</ele>
        <time>2017-11-01T11:22:00Z</time>
      </trkpt>
      <trkpt lat="44.03056" lon="6.66123">
        <ele>1526</ele>
        <time>2017-11-01T11:22:04Z</time>
      </trkpt>
      <trkpt lat="44.03051" lon="6.66123">
        <ele>1527</ele>
        <time>2017-11-01T11:22:08Z</time>
      </trkpt>
      <trkpt lat="44.03045" lon="6.66124">
        <ele>1528</ele>
        <time>2017-11-01T11:22:12Z</time>
      </trkpt>
      <trkpt lat="44.0304" lon="6.66122">
        <ele>1528</ele>
        <time>2017-11-01T11:22:15Z</time>
      </trkpt>
      <trkpt lat="44.03033" lon="6.66121">
        <ele>1529</ele>
        <time>2017-11-01T11:22:20Z</time>
      </trkpt>
      <trkpt lat="44.0303" lon="6.66125">
        <ele>1529</ele>
        <time>2017-11-01T11:22:25Z</time>
      </trkpt>
      <trkpt lat="44.03024" lon="6.66122">
        <ele>1529</ele>
        <time>2017-11-01T11:22:28Z</time>
      </trkpt>
      <trkpt lat="44.03019" lon="6.66122">
        <ele>1528</ele>
        <time>2017-11-01T11:22:30Z</time>
      </trkpt>
      <trkpt lat="44.03014" lon="6.6612">
        <ele>1528</ele>
        <time>2017-11-01T11:22:34Z</time>
      </trkpt>
      <trkpt lat="44.03008" lon="6.6612">
        <ele>1527</ele>
        <time>2017-11-01T11:22:36Z</time>
      </trkpt>
      <trkpt lat="44.03003" lon="6.66117">
        <ele>1527</ele>
        <time>2017-11-01T11:22:40Z</time>
      </trkpt>
      <trkpt lat="44.02996" lon="6.66115">
        <ele>1528</ele>
        <time>2017-11-01T11:22:44Z</time>
      </trkpt>
      <trkpt lat="44.0299" lon="6.66112">
        <ele>1528</ele>
        <time>2017-11-01T11:22:46Z</time>
      </trkpt>
      <trkpt lat="44.02985" lon="6.66109">
        <ele>1528</ele>
        <time>2017-11-01T11:22:48Z</time>
      </trkpt>
      <trkpt lat="44.02982" lon="6.66101">
        <ele>1528</ele>
        <time>2017-11-01T11:22:52Z</time>
      </trkpt>
      <trkpt lat="44.02977" lon="6.66092">
        <ele>1529</ele>
        <time>2017-11-01T11:22:54Z</time>
      </trkpt>
      <trkpt lat="44.02983" lon="6.66088">
        <ele>1529</ele>
        <time>2017-11-01T11:22:57Z</time>
      </trkpt>
      <trkpt lat="44.02991" lon="6.66089">
        <ele>1529</ele>
        <time>2017-11-01T11:22:59Z</time>
      </trkpt>
      <trkpt lat="44.02983" lon="6.66084">
        <ele>1529</ele>
        <time>2017-11-01T11:23:01Z</time>
      </trkpt>
      <trkpt lat="44.02977" lon="6.66076">
        <ele>1529</ele>
        <time>2017-11-01T11:23:04Z</time>
      </trkpt>
      <trkpt lat="44.0297" lon="6.66074">
        <ele>1529</ele>
        <time>2017-11-01T11:23:06Z</time>
      </trkpt>
      <trkpt lat="44.02967" lon="6.66069">
        <ele>1529</ele>
        <time>2017-11-01T11:23:09Z</time>
      </trkpt>
      <trkpt lat="44.02961" lon="6.66067">
        <ele>1530</ele>
        <time>2017-11-01T11:23:10Z</time>
      </trkpt>
      <trkpt lat="44.02956" lon="6.66063">
        <ele>1530</ele>
        <time>2017-11-01T11:23:12Z</time>
      </trkpt>
      <trkpt lat="44.02951" lon="6.66058">
        <ele>1532</ele>
        <time>2017-11-01T11:23:15Z</time>
      </trkpt>
      <trkpt lat="44.02945" lon="6.66054">
        <ele>1535</ele>
        <time>2017-11-01T11:23:17Z</time>
      </trkpt>
      <trkpt lat="44.02939" lon="6.66051">
        <ele>1537</ele>
        <time>2017-11-01T11:23:19Z</time>
      </trkpt>
      <trkpt lat="44.02935" lon="6.66047">
        <ele>1539</ele>
        <time>2017-11-01T11:23:22Z</time>
      </trkpt>
      <trkpt lat="44.02931" lon="6.66044">
        <ele>1541</ele>
        <time>2017-11-01T11:23:24Z</time>
      </trkpt>
      <trkpt lat="44.02927" lon="6.6604">
        <ele>1542</ele>
        <time>2017-11-01T11:23:27Z</time>
      </trkpt>
      <trkpt lat="44.02922" lon="6.66036">
        <ele>1542</ele>
        <time>2017-11-01T11:23:29Z</time>
      </trkpt>
      <trkpt lat="44.02917" lon="6.66033">
        <ele>1543</ele>
        <time>2017-11-01T11:23:31Z</time>
      </trkpt>
      <trkpt lat="44.02913" lon="6.66035">
        <ele>1544</ele>
        <time>2017-11-01T11:23:32Z</time>
      </trkpt>
      <trkpt lat="44.02907" lon="6.66033">
        <ele>1544</ele>
        <time>2017-11-01T11:23:36Z</time>
      </trkpt>
      <trkpt lat="44.02899" lon="6.66033">
        <ele>1544</ele>
        <time>2017-11-01T11:23:38Z</time>
      </trkpt>
      <trkpt lat="44.02895" lon="6.66029">
        <ele>1544</ele>
        <time>2017-11-01T11:23:43Z</time>
      </trkpt>
      <trkpt lat="44.02894" lon="6.66023">
        <ele>1543</ele>
        <time>2017-11-01T11:23:46Z</time>
      </trkpt>
      <trkpt lat="44.02886" lon="6.66022">
        <ele>1543</ele>
        <time>2017-11-01T11:23:48Z</time>
      </trkpt>
      <trkpt lat="44.02881" lon="6.66019">
        <ele>1542</ele>
        <time>2017-11-01T11:23:49Z</time>
      </trkpt>
      <trkpt lat="44.02876" lon="6.66015">
        <ele>1542</ele>
        <time>2017-11-01T11:23:53Z</time>
      </trkpt>
      <trkpt lat="44.02869" lon="6.66013">
        <ele>1542</ele>
        <time>2017-11-01T11:23:56Z</time>
      </trkpt>
      <trkpt lat="44.02863" lon="6.66009">
        <ele>1542</ele>
        <time>2017-11-01T11:23:59Z</time>
      </trkpt>
      <trkpt lat="44.02857" lon="6.66005">
        <ele>1542</ele>
        <time>2017-11-01T11:24:02Z</time>
      </trkpt>
      <trkpt lat="44.02852" lon="6.66003">
        <ele>1543</ele>
        <time>2017-11-01T11:24:04Z</time>
      </trkpt>
      <trkpt lat="44.02846" lon="6.66001">
        <ele>1544</ele>
        <time>2017-11-01T11:24:06Z</time>
      </trkpt>
      <trkpt lat="44.0284" lon="6.66">
        <ele>1544</ele>
        <time>2017-11-01T11:24:08Z</time>
      </trkpt>
      <trkpt lat="44.02835" lon="6.65996">
        <ele>1544</ele>
        <time>2017-11-01T11:24:10Z</time>
      </trkpt>
      <trkpt lat="44.02829" lon="6.65994">
        <ele>1545</ele>
        <time>2017-11-01T11:24:12Z</time>
      </trkpt>
      <trkpt lat="44.02823" lon="6.65995">
        <ele>1546</ele>
        <time>2017-11-01T11:24:14Z</time>
      </trkpt>
      <trkpt lat="44.02817" lon="6.65994">
        <ele>1546</ele>
        <time>2017-11-01T11:24:16Z</time>
      </trkpt>
      <trkpt lat="44.02811" lon="6.65994">
        <ele>1547</ele>
        <time>2017-11-01T11:24:18Z</time>
      </trkpt>
      <trkpt lat="44.02806" lon="6.65996">
        <ele>1549</ele>
        <time>2017-11-01T11:24:20Z</time>
      </trkpt>
      <trkpt lat="44.028" lon="6.66001">
        <ele>1550</ele>
        <time>2017-11-01T11:24:22Z</time>
      </trkpt>
      <trkpt lat="44.02795" lon="6.66008">
        <ele>1551</ele>
        <time>2017-11-01T11:24:24Z</time>
      </trkpt>
      <trkpt lat="44.02791" lon="6.66014">
        <ele>1551</ele>
        <time>2017-11-01T11:24:26Z</time>
      </trkpt>
      <trkpt lat="44.02788" lon="6.66022">
        <ele>1550</ele>
        <time>2017-11-01T11:24:28Z</time>
      </trkpt>
      <trkpt lat="44.02787" lon="6.66031">
        <ele>1550</ele>
        <time>2017-11-01T11:24:31Z</time>
      </trkpt>
      <trkpt lat="44.02787" lon="6.66041">
        <ele>1550</ele>
        <time>2017-11-01T11:24:33Z</time>
      </trkpt>
      <trkpt lat="44.02788" lon="6.66051">
        <ele>1550</ele>
        <time>2017-11-01T11:24:35Z</time>
      </trkpt>
      <trkpt lat="44.02789" lon="6.66058">
        <ele>1550</ele>
        <time>2017-11-01T11:24:37Z</time>
      </trkpt>
      <trkpt lat="44.02791" lon="6.66064">
        <ele>1550</ele>
        <time>2017-11-01T11:24:38Z</time>
      </trkpt>
      <trkpt lat="44.02791" lon="6.66071">
        <ele>1549</ele>
        <time>2017-11-01T11:24:40Z</time>
      </trkpt>
      <trkpt lat="44.02791" lon="6.66079">
        <ele>1549</ele>
        <time>2017-11-01T11:24:41Z</time>
      </trkpt>
      <trkpt lat="44.02787" lon="6.66092">
        <ele>1549</ele>
        <time>2017-11-01T11:24:43Z</time>
      </trkpt>
      <trkpt lat="44.02784" lon="6.661">
        <ele>1548</ele>
        <time>2017-11-01T11:24:44Z</time>
      </trkpt>
      <trkpt lat="44.02786" lon="6.66107">
        <ele>1547</ele>
        <time>2017-11-01T11:24:45Z</time>
      </trkpt>
      <trkpt lat="44.02789" lon="6.66113">
        <ele>1547</ele>
        <time>2017-11-01T11:24:47Z</time>
      </trkpt>
      <trkpt lat="44.02784" lon="6.66116">
        <ele>1546</ele>
        <time>2017-11-01T11:24:50Z</time>
      </trkpt>
      <trkpt lat="44.02785" lon="6.66124">
        <ele>1546</ele>
        <time>2017-11-01T11:24:52Z</time>
      </trkpt>
      <trkpt lat="44.02784" lon="6.6613">
        <ele>1546</ele>
        <time>2017-11-01T11:24:54Z</time>
      </trkpt>
      <trkpt lat="44.02779" lon="6.66127">
        <ele>1546</ele>
        <time>2017-11-01T11:24:57Z</time>
      </trkpt>
      <trkpt lat="44.02778" lon="6.66133">
        <ele>1547</ele>
        <time>2017-11-01T11:24:58Z</time>
      </trkpt>
      <trkpt lat="44.02777" lon="6.66143">
        <ele>1547</ele>
        <time>2017-11-01T11:24:59Z</time>
      </trkpt>
      <trkpt lat="44.02775" lon="6.66152">
        <ele>1548</ele>
        <time>2017-11-01T11:25:02Z</time>
      </trkpt>
      <trkpt lat="44.02773" lon="6.66158">
        <ele>1549</ele>
        <time>2017-11-01T11:25:04Z</time>
      </trkpt>
      <trkpt lat="44.02774" lon="6.66168">
        <ele>1550</ele>
        <time>2017-11-01T11:25:07Z</time>
      </trkpt>
      <trkpt lat="44.02773" lon="6.66175">
        <ele>1550</ele>
        <time>2017-11-01T11:25:09Z</time>
      </trkpt>
      <trkpt lat="44.02774" lon="6.66182">
        <ele>1550</ele>
        <time>2017-11-01T11:25:10Z</time>
      </trkpt>
      <trkpt lat="44.02775" lon="6.66189">
        <ele>1550</ele>
        <time>2017-11-01T11:25:11Z</time>
      </trkpt>
      <trkpt lat="44.02778" lon="6.66194">
        <ele>1550</ele>
        <time>2017-11-01T11:25:13Z</time>
      </trkpt>
      <trkpt lat="44.02779" lon="6.66202">
        <ele>1550</ele>
        <time>2017-11-01T11:25:15Z</time>
      </trkpt>
      <trkpt lat="44.02781" lon="6.66212">
        <ele>1550</ele>
        <time>2017-11-01T11:25:17Z</time>
      </trkpt>
      <trkpt lat="44.02784" lon="6.66217">
        <ele>1550</ele>
        <time>2017-11-01T11:25:18Z</time>
      </trkpt>
      <trkpt lat="44.02788" lon="6.6623">
        <ele>1549</ele>
        <time>2017-11-01T11:25:20Z</time>
      </trkpt>
      <trkpt lat="44.02788" lon="6.66237">
        <ele>1548</ele>
        <time>2017-11-01T11:25:22Z</time>
      </trkpt>
      <trkpt lat="44.02792" lon="6.66244">
        <ele>1547</ele>
        <time>2017-11-01T11:25:24Z</time>
      </trkpt>
      <trkpt lat="44.02795" lon="6.66252">
        <ele>1547</ele>
        <time>2017-11-01T11:25:26Z</time>
      </trkpt>
      <trkpt lat="44.028" lon="6.66259">
        <ele>1546</ele>
        <time>2017-11-01T11:25:29Z</time>
      </trkpt>
      <trkpt lat="44.02807" lon="6.66267">
        <ele>1547</ele>
        <time>2017-11-01T11:25:30Z</time>
      </trkpt>
      <trkpt lat="44.02815" lon="6.66275">
        <ele>1547</ele>
        <time>2017-11-01T11:25:31Z</time>
      </trkpt>
      <trkpt lat="44.02814" lon="6.66289">
        <ele>1547</ele>
        <time>2017-11-01T11:25:33Z</time>
      </trkpt>
      <trkpt lat="44.02813" lon="6.66297">
        <ele>1547</ele>
        <time>2017-11-01T11:25:35Z</time>
      </trkpt>
      <trkpt lat="44.02815" lon="6.66305">
        <ele>1547</ele>
        <time>2017-11-01T11:25:37Z</time>
      </trkpt>
      <trkpt lat="44.02818" lon="6.66312">
        <ele>1548</ele>
        <time>2017-11-01T11:25:39Z</time>
      </trkpt>
      <trkpt lat="44.02823" lon="6.66319">
        <ele>1548</ele>
        <time>2017-11-01T11:25:41Z</time>
      </trkpt>
      <trkpt lat="44.02828" lon="6.66327">
        <ele>1548</ele>
        <time>2017-11-01T11:25:43Z</time>
      </trkpt>
      <trkpt lat="44.02832" lon="6.66333">
        <ele>1547</ele>
        <time>2017-11-01T11:25:45Z</time>
      </trkpt>
      <trkpt lat="44.02837" lon="6.66339">
        <ele>1547</ele>
        <time>2017-11-01T11:25:47Z</time>
      </trkpt>
      <trkpt lat="44.02843" lon="6.66346">
        <ele>1547</ele>
        <time>2017-11-01T11:25:49Z</time>
      </trkpt>
      <trkpt lat="44.02847" lon="6.66355">
        <ele>1547</ele>
        <time>2017-11-01T11:25:51Z</time>
      </trkpt>
      <trkpt lat="44.02852" lon="6.66363">
        <ele>1547</ele>
        <time>2017-11-01T11:25:53Z</time>
      </trkpt>
      <trkpt lat="44.02854" lon="6.66369">
        <ele>1548</ele>
        <time>2017-11-01T11:25:54Z</time>
      </trkpt>
      <trkpt lat="44.02857" lon="6.66382">
        <ele>1548</ele>
        <time>2017-11-01T11:25:56Z</time>
      </trkpt>
      <trkpt lat="44.02863" lon="6.66391">
        <ele>1549</ele>
        <time>2017-11-01T11:25:58Z</time>
      </trkpt>
      <trkpt lat="44.02867" lon="6.66402">
        <ele>1549</ele>
        <time>2017-11-01T11:26:00Z</time>
      </trkpt>
      <trkpt lat="44.02869" lon="6.66413">
        <ele>1550</ele>
        <time>2017-11-01T11:26:02Z</time>
      </trkpt>
      <trkpt lat="44.02873" lon="6.66423">
        <ele>1550</ele>
        <time>2017-11-01T11:26:04Z</time>
      </trkpt>
      <trkpt lat="44.02876" lon="6.66433">
        <ele>1550</ele>
        <time>2017-11-01T11:26:06Z</time>
      </trkpt>
      <trkpt lat="44.02879" lon="6.66444">
        <ele>1550</ele>
        <time>2017-11-01T11:26:08Z</time>
      </trkpt>
      <trkpt lat="44.02882" lon="6.66452">
        <ele>1550</ele>
        <time>2017-11-01T11:26:10Z</time>
      </trkpt>
      <trkpt lat="44.02885" lon="6.66461">
        <ele>1550</ele>
        <time>2017-11-01T11:26:12Z</time>
      </trkpt>
      <trkpt lat="44.02887" lon="6.6647">
        <ele>1550</ele>
        <time>2017-11-01T11:26:14Z</time>
      </trkpt>
      <trkpt lat="44.0289" lon="6.66479">
        <ele>1551</ele>
        <time>2017-11-01T11:26:16Z</time>
      </trkpt>
      <trkpt lat="44.02894" lon="6.66488">
        <ele>1552</ele>
        <time>2017-11-01T11:26:18Z</time>
      </trkpt>
      <trkpt lat="44.02898" lon="6.66497">
        <ele>1553</ele>
        <time>2017-11-01T11:26:20Z</time>
      </trkpt>
      <trkpt lat="44.02902" lon="6.66505">
        <ele>1553</ele>
        <time>2017-11-01T11:26:22Z</time>
      </trkpt>
      <trkpt lat="44.02905" lon="6.66515">
        <ele>1553</ele>
        <time>2017-11-01T11:26:24Z</time>
      </trkpt>
      <trkpt lat="44.02909" lon="6.66524">
        <ele>1553</ele>
        <time>2017-11-01T11:26:26Z</time>
      </trkpt>
      <trkpt lat="44.02911" lon="6.66533">
        <ele>1553</ele>
        <time>2017-11-01T11:26:28Z</time>
      </trkpt>
      <trkpt lat="44.02912" lon="6.66542">
        <ele>1552</ele>
        <time>2017-11-01T11:26:30Z</time>
      </trkpt>
      <trkpt lat="44.02913" lon="6.6655">
        <ele>1552</ele>
        <time>2017-11-01T11:26:32Z</time>
      </trkpt>
      <trkpt lat="44.02917" lon="6.66562">
        <ele>1552</ele>
        <time>2017-11-01T11:26:34Z</time>
      </trkpt>
      <trkpt lat="44.02921" lon="6.6657">
        <ele>1553</ele>
        <time>2017-11-01T11:26:36Z</time>
      </trkpt>
      <trkpt lat="44.02926" lon="6.66578">
        <ele>1553</ele>
        <time>2017-11-01T11:26:38Z</time>
      </trkpt>
      <trkpt lat="44.02929" lon="6.66584">
        <ele>1553</ele>
        <time>2017-11-01T11:26:40Z</time>
      </trkpt>
      <trkpt lat="44.0293" lon="6.66594">
        <ele>1554</ele>
        <time>2017-11-01T11:26:42Z</time>
      </trkpt>
      <trkpt lat="44.0293" lon="6.66605">
        <ele>1554</ele>
        <time>2017-11-01T11:26:44Z</time>
      </trkpt>
      <trkpt lat="44.02926" lon="6.66612">
        <ele>1554</ele>
        <time>2017-11-01T11:26:46Z</time>
      </trkpt>
      <trkpt lat="44.02921" lon="6.66622">
        <ele>1555</ele>
        <time>2017-11-01T11:26:48Z</time>
      </trkpt>
      <trkpt lat="44.0292" lon="6.66628">
        <ele>1555</ele>
        <time>2017-11-01T11:26:49Z</time>
      </trkpt>
      <trkpt lat="44.02918" lon="6.66635">
        <ele>1555</ele>
        <time>2017-11-01T11:26:50Z</time>
      </trkpt>
      <trkpt lat="44.02913" lon="6.66636">
        <ele>1555</ele>
        <time>2017-11-01T11:26:52Z</time>
      </trkpt>
      <trkpt lat="44.02909" lon="6.66645">
        <ele>1555</ele>
        <time>2017-11-01T11:26:54Z</time>
      </trkpt>
      <trkpt lat="44.02908" lon="6.66653">
        <ele>1555</ele>
        <time>2017-11-01T11:26:55Z</time>
      </trkpt>
      <trkpt lat="44.02907" lon="6.66664">
        <ele>1555</ele>
        <time>2017-11-01T11:26:57Z</time>
      </trkpt>
      <trkpt lat="44.02906" lon="6.66671">
        <ele>1555</ele>
        <time>2017-11-01T11:26:58Z</time>
      </trkpt>
      <trkpt lat="44.02906" lon="6.66681">
        <ele>1555</ele>
        <time>2017-11-01T11:26:59Z</time>
      </trkpt>
      <trkpt lat="44.02904" lon="6.66691">
        <ele>1555</ele>
        <time>2017-11-01T11:27:00Z</time>
      </trkpt>
      <trkpt lat="44.02901" lon="6.66703">
        <ele>1553</ele>
        <time>2017-11-01T11:27:02Z</time>
      </trkpt>
      <trkpt lat="44.02897" lon="6.66707">
        <ele>1552</ele>
        <time>2017-11-01T11:27:03Z</time>
      </trkpt>
      <trkpt lat="44.02896" lon="6.66716">
        <ele>1551</ele>
        <time>2017-11-01T11:27:04Z</time>
      </trkpt>
      <trkpt lat="44.02897" lon="6.66728">
        <ele>1550</ele>
        <time>2017-11-01T11:27:05Z</time>
      </trkpt>
      <trkpt lat="44.02891" lon="6.66727">
        <ele>1548</ele>
        <time>2017-11-01T11:27:07Z</time>
      </trkpt>
      <trkpt lat="44.0289" lon="6.66733">
        <ele>1547</ele>
        <time>2017-11-01T11:27:08Z</time>
      </trkpt>
      <trkpt lat="44.02887" lon="6.66747">
        <ele>1546</ele>
        <time>2017-11-01T11:27:10Z</time>
      </trkpt>
      <trkpt lat="44.02883" lon="6.66743">
        <ele>1545</ele>
        <time>2017-11-01T11:27:12Z</time>
      </trkpt>
      <trkpt lat="44.02879" lon="6.66746">
        <ele>1544</ele>
        <time>2017-11-01T11:27:13Z</time>
      </trkpt>
      <trkpt lat="44.02875" lon="6.66748">
        <ele>1545</ele>
        <time>2017-11-01T11:27:14Z</time>
      </trkpt>
      <trkpt lat="44.02873" lon="6.66754">
        <ele>1545</ele>
        <time>2017-11-01T11:27:15Z</time>
      </trkpt>
      <trkpt lat="44.02867" lon="6.66755">
        <ele>1545</ele>
        <time>2017-11-01T11:27:17Z</time>
      </trkpt>
      <trkpt lat="44.02864" lon="6.66749">
        <ele>1545</ele>
        <time>2017-11-01T11:27:19Z</time>
      </trkpt>
      <trkpt lat="44.02862" lon="6.6674">
        <ele>1545</ele>
        <time>2017-11-01T11:27:21Z</time>
      </trkpt>
      <trkpt lat="44.02857" lon="6.66731">
        <ele>1544</ele>
        <time>2017-11-01T11:27:23Z</time>
      </trkpt>
      <trkpt lat="44.02853" lon="6.66723">
        <ele>1544</ele>
        <time>2017-11-01T11:27:25Z</time>
      </trkpt>
      <trkpt lat="44.02849" lon="6.66713">
        <ele>1544</ele>
        <time>2017-11-01T11:27:27Z</time>
      </trkpt>
      <trkpt lat="44.02845" lon="6.66708">
        <ele>1545</ele>
        <time>2017-11-01T11:27:28Z</time>
      </trkpt>
      <trkpt lat="44.0284" lon="6.66699">
        <ele>1546</ele>
        <time>2017-11-01T11:27:30Z</time>
      </trkpt>
      <trkpt lat="44.02835" lon="6.66691">
        <ele>1547</ele>
        <time>2017-11-01T11:27:32Z</time>
      </trkpt>
      <trkpt lat="44.02832" lon="6.66686">
        <ele>1548</ele>
        <time>2017-11-01T11:27:33Z</time>
      </trkpt>
      <trkpt lat="44.02826" lon="6.66677">
        <ele>1549</ele>
        <time>2017-11-01T11:27:35Z</time>
      </trkpt>
      <trkpt lat="44.02822" lon="6.66669">
        <ele>1549</ele>
        <time>2017-11-01T11:27:37Z</time>
      </trkpt>
      <trkpt lat="44.02817" lon="6.6666">
        <ele>1549</ele>
        <time>2017-11-01T11:27:39Z</time>
      </trkpt>
      <trkpt lat="44.02814" lon="6.66656">
        <ele>1548</ele>
        <time>2017-11-01T11:27:40Z</time>
      </trkpt>
      <trkpt lat="44.0281" lon="6.66649">
        <ele>1548</ele>
        <time>2017-11-01T11:27:42Z</time>
      </trkpt>
      <trkpt lat="44.02806" lon="6.66643">
        <ele>1547</ele>
        <time>2017-11-01T11:27:43Z</time>
      </trkpt>
      <trkpt lat="44.028" lon="6.66636">
        <ele>1547</ele>
        <time>2017-11-01T11:27:45Z</time>
      </trkpt>
      <trkpt lat="44.02794" lon="6.66631">
        <ele>1548</ele>
        <time>2017-11-01T11:27:46Z</time>
      </trkpt>
      <trkpt lat="44.02787" lon="6.66622">
        <ele>1548</ele>
        <time>2017-11-01T11:27:49Z</time>
      </trkpt>
      <trkpt lat="44.02782" lon="6.66614">
        <ele>1549</ele>
        <time>2017-11-01T11:27:52Z</time>
      </trkpt>
      <trkpt lat="44.02786" lon="6.66617">
        <ele>1550</ele>
        <time>2017-11-01T11:27:53Z</time>
      </trkpt>
      <trkpt lat="44.02781" lon="6.66611">
        <ele>1550</ele>
        <time>2017-11-01T11:27:56Z</time>
      </trkpt>
      <trkpt lat="44.02775" lon="6.66606">
        <ele>1550</ele>
        <time>2017-11-01T11:27:57Z</time>
      </trkpt>
      <trkpt lat="44.0277" lon="6.66602">
        <ele>1550</ele>
        <time>2017-11-01T11:27:58Z</time>
      </trkpt>
      <trkpt lat="44.02765" lon="6.66596">
        <ele>1550</ele>
        <time>2017-11-01T11:28:00Z</time>
      </trkpt>
      <trkpt lat="44.02756" lon="6.66591">
        <ele>1549</ele>
        <time>2017-11-01T11:28:02Z</time>
      </trkpt>
      <trkpt lat="44.0275" lon="6.66586">
        <ele>1548</ele>
        <time>2017-11-01T11:28:03Z</time>
      </trkpt>
      <trkpt lat="44.02744" lon="6.66585">
        <ele>1547</ele>
        <time>2017-11-01T11:28:04Z</time>
      </trkpt>
      <trkpt lat="44.02738" lon="6.66582">
        <ele>1546</ele>
        <time>2017-11-01T11:28:05Z</time>
      </trkpt>
      <trkpt lat="44.02732" lon="6.66578">
        <ele>1544</ele>
        <time>2017-11-01T11:28:06Z</time>
      </trkpt>
      <trkpt lat="44.02723" lon="6.66575">
        <ele>1543</ele>
        <time>2017-11-01T11:28:08Z</time>
      </trkpt>
      <trkpt lat="44.02718" lon="6.66572">
        <ele>1542</ele>
        <time>2017-11-01T11:28:09Z</time>
      </trkpt>
      <trkpt lat="44.02713" lon="6.66569">
        <ele>1540</ele>
        <time>2017-11-01T11:28:10Z</time>
      </trkpt>
      <trkpt lat="44.02705" lon="6.66568">
        <ele>1539</ele>
        <time>2017-11-01T11:28:12Z</time>
      </trkpt>
      <trkpt lat="44.02698" lon="6.66565">
        <ele>1539</ele>
        <time>2017-11-01T11:28:14Z</time>
      </trkpt>
      <trkpt lat="44.02694" lon="6.66564">
        <ele>1538</ele>
        <time>2017-11-01T11:28:15Z</time>
      </trkpt>
      <trkpt lat="44.02689" lon="6.66562">
        <ele>1538</ele>
        <time>2017-11-01T11:28:16Z</time>
      </trkpt>
      <trkpt lat="44.02684" lon="6.66561">
        <ele>1538</ele>
        <time>2017-11-01T11:28:17Z</time>
      </trkpt>
      <trkpt lat="44.02675" lon="6.66559">
        <ele>1538</ele>
        <time>2017-11-01T11:28:19Z</time>
      </trkpt>
      <trkpt lat="44.02667" lon="6.66559">
        <ele>1537</ele>
        <time>2017-11-01T11:28:21Z</time>
      </trkpt>
      <trkpt lat="44.02657" lon="6.66555">
        <ele>1537</ele>
        <time>2017-11-01T11:28:23Z</time>
      </trkpt>
      <trkpt lat="44.02652" lon="6.66554">
        <ele>1537</ele>
        <time>2017-11-01T11:28:24Z</time>
      </trkpt>
      <trkpt lat="44.02644" lon="6.66553">
        <ele>1537</ele>
        <time>2017-11-01T11:28:26Z</time>
      </trkpt>
      <trkpt lat="44.02634" lon="6.66552">
        <ele>1536</ele>
        <time>2017-11-01T11:28:28Z</time>
      </trkpt>
      <trkpt lat="44.0263" lon="6.66552">
        <ele>1536</ele>
        <time>2017-11-01T11:28:29Z</time>
      </trkpt>
      <trkpt lat="44.02625" lon="6.66551">
        <ele>1536</ele>
        <time>2017-11-01T11:28:30Z</time>
      </trkpt>
      <trkpt lat="44.02621" lon="6.66549">
        <ele>1536</ele>
        <time>2017-11-01T11:28:31Z</time>
      </trkpt>
      <trkpt lat="44.02613" lon="6.66546">
        <ele>1536</ele>
        <time>2017-11-01T11:28:33Z</time>
      </trkpt>
      <trkpt lat="44.02607" lon="6.66545">
        <ele>1537</ele>
        <time>2017-11-01T11:28:35Z</time>
      </trkpt>
      <trkpt lat="44.02601" lon="6.66541">
        <ele>1537</ele>
        <time>2017-11-01T11:28:36Z</time>
      </trkpt>
      <trkpt lat="44.02596" lon="6.66539">
        <ele>1537</ele>
        <time>2017-11-01T11:28:37Z</time>
      </trkpt>
      <trkpt lat="44.02591" lon="6.66535">
        <ele>1537</ele>
        <time>2017-11-01T11:28:38Z</time>
      </trkpt>
      <trkpt lat="44.02586" lon="6.66532">
        <ele>1537</ele>
        <time>2017-11-01T11:28:39Z</time>
      </trkpt>
      <trkpt lat="44.02578" lon="6.66535">
        <ele>1538</ele>
        <time>2017-11-01T11:28:41Z</time>
      </trkpt>
      <trkpt lat="44.02572" lon="6.66533">
        <ele>1539</ele>
        <time>2017-11-01T11:28:43Z</time>
      </trkpt>
      <trkpt lat="44.02564" lon="6.66531">
        <ele>1540</ele>
        <time>2017-11-01T11:28:45Z</time>
      </trkpt>
      <trkpt lat="44.02559" lon="6.6653">
        <ele>1540</ele>
        <time>2017-11-01T11:28:46Z</time>
      </trkpt>
      <trkpt lat="44.02554" lon="6.6653">
        <ele>1541</ele>
        <time>2017-11-01T11:28:47Z</time>
      </trkpt>
      <trkpt lat="44.02547" lon="6.66531">
        <ele>1542</ele>
        <time>2017-11-01T11:28:49Z</time>
      </trkpt>
      <trkpt lat="44.02541" lon="6.6653">
        <ele>1542</ele>
        <time>2017-11-01T11:28:50Z</time>
      </trkpt>
      <trkpt lat="44.02533" lon="6.6653">
        <ele>1542</ele>
        <time>2017-11-01T11:28:52Z</time>
      </trkpt>
      <trkpt lat="44.02525" lon="6.66528">
        <ele>1542</ele>
        <time>2017-11-01T11:28:54Z</time>
      </trkpt>
      <trkpt lat="44.02516" lon="6.66524">
        <ele>1543</ele>
        <time>2017-11-01T11:28:56Z</time>
      </trkpt>
      <trkpt lat="44.02509" lon="6.66518">
        <ele>1543</ele>
        <time>2017-11-01T11:28:58Z</time>
      </trkpt>
      <trkpt lat="44.025" lon="6.66512">
        <ele>1543</ele>
        <time>2017-11-01T11:29:00Z</time>
      </trkpt>
      <trkpt lat="44.02492" lon="6.6651">
        <ele>1543</ele>
        <time>2017-11-01T11:29:02Z</time>
      </trkpt>
      <trkpt lat="44.02487" lon="6.66508">
        <ele>1543</ele>
        <time>2017-11-01T11:29:03Z</time>
      </trkpt>
      <trkpt lat="44.02482" lon="6.66509">
        <ele>1542</ele>
        <time>2017-11-01T11:29:05Z</time>
      </trkpt>
      <trkpt lat="44.02476" lon="6.66506">
        <ele>1542</ele>
        <time>2017-11-01T11:29:07Z</time>
      </trkpt>
      <trkpt lat="44.0247" lon="6.66497">
        <ele>1541</ele>
        <time>2017-11-01T11:29:09Z</time>
      </trkpt>
      <trkpt lat="44.02462" lon="6.66496">
        <ele>1541</ele>
        <time>2017-11-01T11:29:11Z</time>
      </trkpt>
      <trkpt lat="44.02457" lon="6.66499">
        <ele>1541</ele>
        <time>2017-11-01T11:29:13Z</time>
      </trkpt>
      <trkpt lat="44.02453" lon="6.66502">
        <ele>1541</ele>
        <time>2017-11-01T11:29:14Z</time>
      </trkpt>
      <trkpt lat="44.0245" lon="6.66509">
        <ele>1542</ele>
        <time>2017-11-01T11:29:15Z</time>
      </trkpt>
      <trkpt lat="44.02444" lon="6.66514">
        <ele>1542</ele>
        <time>2017-11-01T11:29:17Z</time>
      </trkpt>
      <trkpt lat="44.02436" lon="6.6652">
        <ele>1542</ele>
        <time>2017-11-01T11:29:19Z</time>
      </trkpt>
      <trkpt lat="44.02434" lon="6.66526">
        <ele>1542</ele>
        <time>2017-11-01T11:29:20Z</time>
      </trkpt>
      <trkpt lat="44.0243" lon="6.66535">
        <ele>1542</ele>
        <time>2017-11-01T11:29:21Z</time>
      </trkpt>
      <trkpt lat="44.02427" lon="6.6654">
        <ele>1542</ele>
        <time>2017-11-01T11:29:22Z</time>
      </trkpt>
      <trkpt lat="44.02422" lon="6.66542">
        <ele>1540</ele>
        <time>2017-11-01T11:29:23Z</time>
      </trkpt>
      <trkpt lat="44.02419" lon="6.66546">
        <ele>1539</ele>
        <time>2017-11-01T11:29:24Z</time>
      </trkpt>
      <trkpt lat="44.02414" lon="6.66551">
        <ele>1537</ele>
        <time>2017-11-01T11:29:26Z</time>
      </trkpt>
      <trkpt lat="44.02408" lon="6.66557">
        <ele>1535</ele>
        <time>2017-11-01T11:29:28Z</time>
      </trkpt>
      <trkpt lat="44.02406" lon="6.6657">
        <ele>1534</ele>
        <time>2017-11-01T11:29:30Z</time>
      </trkpt>
      <trkpt lat="44.02405" lon="6.66578">
        <ele>1533</ele>
        <time>2017-11-01T11:29:31Z</time>
      </trkpt>
      <trkpt lat="44.02401" lon="6.66588">
        <ele>1532</ele>
        <time>2017-11-01T11:29:33Z</time>
      </trkpt>
      <trkpt lat="44.02397" lon="6.66594">
        <ele>1531</ele>
        <time>2017-11-01T11:29:34Z</time>
      </trkpt>
      <trkpt lat="44.02394" lon="6.66601">
        <ele>1530</ele>
        <time>2017-11-01T11:29:35Z</time>
      </trkpt>
      <trkpt lat="44.02387" lon="6.66606">
        <ele>1529</ele>
        <time>2017-11-01T11:29:37Z</time>
      </trkpt>
      <trkpt lat="44.0238" lon="6.66609">
        <ele>1528</ele>
        <time>2017-11-01T11:29:39Z</time>
      </trkpt>
      <trkpt lat="44.02372" lon="6.66616">
        <ele>1528</ele>
        <time>2017-11-01T11:29:41Z</time>
      </trkpt>
      <trkpt lat="44.02369" lon="6.66619">
        <ele>1529</ele>
        <time>2017-11-01T11:29:42Z</time>
      </trkpt>
      <trkpt lat="44.02363" lon="6.66625">
        <ele>1530</ele>
        <time>2017-11-01T11:29:44Z</time>
      </trkpt>
      <trkpt lat="44.02362" lon="6.66632">
        <ele>1531</ele>
        <time>2017-11-01T11:29:45Z</time>
      </trkpt>
      <trkpt lat="44.02358" lon="6.6664">
        <ele>1532</ele>
        <time>2017-11-01T11:29:47Z</time>
      </trkpt>
      <trkpt lat="44.02353" lon="6.66643">
        <ele>1532</ele>
        <time>2017-11-01T11:29:49Z</time>
      </trkpt>
      <trkpt lat="44.02349" lon="6.66652">
        <ele>1533</ele>
        <time>2017-11-01T11:29:51Z</time>
      </trkpt>
      <trkpt lat="44.02348" lon="6.6666">
        <ele>1533</ele>
        <time>2017-11-01T11:29:52Z</time>
      </trkpt>
      <trkpt lat="44.02347" lon="6.66671">
        <ele>1533</ele>
        <time>2017-11-01T11:29:53Z</time>
      </trkpt>
      <trkpt lat="44.02345" lon="6.66681">
        <ele>1533</ele>
        <time>2017-11-01T11:29:55Z</time>
      </trkpt>
      <trkpt lat="44.02338" lon="6.6669">
        <ele>1533</ele>
        <time>2017-11-01T11:29:58Z</time>
      </trkpt>
      <trkpt lat="44.02334" lon="6.66701">
        <ele>1532</ele>
        <time>2017-11-01T11:29:59Z</time>
      </trkpt>
      <trkpt lat="44.0234" lon="6.66715">
        <ele>1531</ele>
        <time>2017-11-01T11:30:00Z</time>
      </trkpt>
      <trkpt lat="44.02335" lon="6.66716">
        <ele>1531</ele>
        <time>2017-11-01T11:30:01Z</time>
      </trkpt>
      <trkpt lat="44.02333" lon="6.66707">
        <ele>1531</ele>
        <time>2017-11-01T11:30:02Z</time>
      </trkpt>
      <trkpt lat="44.02328" lon="6.66711">
        <ele>1531</ele>
        <time>2017-11-01T11:30:04Z</time>
      </trkpt>
      <trkpt lat="44.02328" lon="6.66717">
        <ele>1531</ele>
        <time>2017-11-01T11:30:05Z</time>
      </trkpt>
      <trkpt lat="44.02327" lon="6.66726">
        <ele>1532</ele>
        <time>2017-11-01T11:30:07Z</time>
      </trkpt>
      <trkpt lat="44.02325" lon="6.66735">
        <ele>1533</ele>
        <time>2017-11-01T11:30:09Z</time>
      </trkpt>
      <trkpt lat="44.02325" lon="6.66743">
        <ele>1535</ele>
        <time>2017-11-01T11:30:11Z</time>
      </trkpt>
      <trkpt lat="44.02329" lon="6.66749">
        <ele>1536</ele>
        <time>2017-11-01T11:30:13Z</time>
      </trkpt>
      <trkpt lat="44.0233" lon="6.66755">
        <ele>1538</ele>
        <time>2017-11-01T11:30:15Z</time>
      </trkpt>
      <trkpt lat="44.02333" lon="6.66763">
        <ele>1540</ele>
        <time>2017-11-01T11:30:17Z</time>
      </trkpt>
      <trkpt lat="44.02332" lon="6.66771">
        <ele>1540</ele>
        <time>2017-11-01T11:30:19Z</time>
      </trkpt>
      <trkpt lat="44.02332" lon="6.66779">
        <ele>1540</ele>
        <time>2017-11-01T11:30:20Z</time>
      </trkpt>
      <trkpt lat="44.02328" lon="6.66785">
        <ele>1540</ele>
        <time>2017-11-01T11:30:22Z</time>
      </trkpt>
      <trkpt lat="44.02322" lon="6.66783">
        <ele>1541</ele>
        <time>2017-11-01T11:30:24Z</time>
      </trkpt>
      <trkpt lat="44.02317" lon="6.66778">
        <ele>1541</ele>
        <time>2017-11-01T11:30:26Z</time>
      </trkpt>
      <trkpt lat="44.02311" lon="6.66777">
        <ele>1542</ele>
        <time>2017-11-01T11:30:30Z</time>
      </trkpt>
      <trkpt lat="44.02306" lon="6.66775">
        <ele>1543</ele>
        <time>2017-11-01T11:30:32Z</time>
      </trkpt>
      <trkpt lat="44.02301" lon="6.66775">
        <ele>1544</ele>
        <time>2017-11-01T11:30:35Z</time>
      </trkpt>
      <trkpt lat="44.02295" lon="6.66773">
        <ele>1545</ele>
        <time>2017-11-01T11:30:38Z</time>
      </trkpt>
      <trkpt lat="44.0229" lon="6.66773">
        <ele>1545</ele>
        <time>2017-11-01T11:30:41Z</time>
      </trkpt>
      <trkpt lat="44.02284" lon="6.66775">
        <ele>1545</ele>
        <time>2017-11-01T11:30:44Z</time>
      </trkpt>
      <trkpt lat="44.02279" lon="6.66775">
        <ele>1543</ele>
        <time>2017-11-01T11:30:47Z</time>
      </trkpt>
      <trkpt lat="44.02274" lon="6.66772">
        <ele>1543</ele>
        <time>2017-11-01T11:30:50Z</time>
      </trkpt>
      <trkpt lat="44.02268" lon="6.66772">
        <ele>1543</ele>
        <time>2017-11-01T11:30:53Z</time>
      </trkpt>
      <trkpt lat="44.02262" lon="6.66771">
        <ele>1544</ele>
        <time>2017-11-01T11:30:55Z</time>
      </trkpt>
      <trkpt lat="44.02257" lon="6.66769">
        <ele>1544</ele>
        <time>2017-11-01T11:30:58Z</time>
      </trkpt>
      <trkpt lat="44.02252" lon="6.66767">
        <ele>1546</ele>
        <time>2017-11-01T11:31:00Z</time>
      </trkpt>
      <trkpt lat="44.02248" lon="6.66764">
        <ele>1547</ele>
        <time>2017-11-01T11:31:02Z</time>
      </trkpt>
      <trkpt lat="44.02242" lon="6.66765">
        <ele>1547</ele>
        <time>2017-11-01T11:31:05Z</time>
      </trkpt>
      <trkpt lat="44.02238" lon="6.66769">
        <ele>1548</ele>
        <time>2017-11-01T11:31:07Z</time>
      </trkpt>
      <trkpt lat="44.02234" lon="6.66766">
        <ele>1549</ele>
        <time>2017-11-01T11:31:10Z</time>
      </trkpt>
      <trkpt lat="44.02231" lon="6.6676">
        <ele>1550</ele>
        <time>2017-11-01T11:31:11Z</time>
      </trkpt>
      <trkpt lat="44.02226" lon="6.66758">
        <ele>1551</ele>
        <time>2017-11-01T11:31:13Z</time>
      </trkpt>
      <trkpt lat="44.0222" lon="6.66754">
        <ele>1551</ele>
        <time>2017-11-01T11:31:16Z</time>
      </trkpt>
      <trkpt lat="44.02215" lon="6.66768">
        <ele>1551</ele>
        <time>2017-11-01T11:31:18Z</time>
      </trkpt>
      <trkpt lat="44.02211" lon="6.6677">
        <ele>1552</ele>
        <time>2017-11-01T11:31:20Z</time>
      </trkpt>
      <trkpt lat="44.02206" lon="6.66771">
        <ele>1552</ele>
        <time>2017-11-01T11:31:23Z</time>
      </trkpt>
      <trkpt lat="44.02201" lon="6.66763">
        <ele>1552</ele>
        <time>2017-11-01T11:31:25Z</time>
      </trkpt>
      <trkpt lat="44.02196" lon="6.66767">
        <ele>1551</ele>
        <time>2017-11-01T11:31:27Z</time>
      </trkpt>
      <trkpt lat="44.02192" lon="6.66772">
        <ele>1550</ele>
        <time>2017-11-01T11:31:29Z</time>
      </trkpt>
      <trkpt lat="44.02186" lon="6.66775">
        <ele>1548</ele>
        <time>2017-11-01T11:31:32Z</time>
      </trkpt>
      <trkpt lat="44.02182" lon="6.66779">
        <ele>1546</ele>
        <time>2017-11-01T11:31:34Z</time>
      </trkpt>
      <trkpt lat="44.02177" lon="6.66783">
        <ele>1545</ele>
        <time>2017-11-01T11:31:36Z</time>
      </trkpt>
      <trkpt lat="44.02176" lon="6.6679">
        <ele>1543</ele>
        <time>2017-11-01T11:31:37Z</time>
      </trkpt>
      <trkpt lat="44.02175" lon="6.66802">
        <ele>1542</ele>
        <time>2017-11-01T11:31:38Z</time>
      </trkpt>
      <trkpt lat="44.02174" lon="6.66808">
        <ele>1542</ele>
        <time>2017-11-01T11:31:39Z</time>
      </trkpt>
      <trkpt lat="44.02171" lon="6.66814">
        <ele>1541</ele>
        <time>2017-11-01T11:31:40Z</time>
      </trkpt>
      <trkpt lat="44.0217" lon="6.6682">
        <ele>1541</ele>
        <time>2017-11-01T11:31:41Z</time>
      </trkpt>
      <trkpt lat="44.02168" lon="6.66828">
        <ele>1541</ele>
        <time>2017-11-01T11:31:42Z</time>
      </trkpt>
      <trkpt lat="44.02166" lon="6.66836">
        <ele>1541</ele>
        <time>2017-11-01T11:31:43Z</time>
      </trkpt>
      <trkpt lat="44.02166" lon="6.66845">
        <ele>1541</ele>
        <time>2017-11-01T11:31:44Z</time>
      </trkpt>
      <trkpt lat="44.02161" lon="6.66858">
        <ele>1540</ele>
        <time>2017-11-01T11:31:46Z</time>
      </trkpt>
      <trkpt lat="44.02158" lon="6.66864">
        <ele>1540</ele>
        <time>2017-11-01T11:31:47Z</time>
      </trkpt>
      <trkpt lat="44.02152" lon="6.66874">
        <ele>1538</ele>
        <time>2017-11-01T11:31:49Z</time>
      </trkpt>
      <trkpt lat="44.02148" lon="6.6688">
        <ele>1537</ele>
        <time>2017-11-01T11:31:50Z</time>
      </trkpt>
      <trkpt lat="44.02145" lon="6.66887">
        <ele>1536</ele>
        <time>2017-11-01T11:31:51Z</time>
      </trkpt>
      <trkpt lat="44.02142" lon="6.66898">
        <ele>1535</ele>
        <time>2017-11-01T11:31:52Z</time>
      </trkpt>
      <trkpt lat="44.0214" lon="6.66904">
        <ele>1535</ele>
        <time>2017-11-01T11:31:53Z</time>
      </trkpt>
      <trkpt lat="44.02138" lon="6.66913">
        <ele>1534</ele>
        <time>2017-11-01T11:31:54Z</time>
      </trkpt>
      <trkpt lat="44.02135" lon="6.66919">
        <ele>1533</ele>
        <time>2017-11-01T11:31:55Z</time>
      </trkpt>
      <trkpt lat="44.02131" lon="6.66928">
        <ele>1532</ele>
        <time>2017-11-01T11:31:56Z</time>
      </trkpt>
      <trkpt lat="44.0213" lon="6.66937">
        <ele>1531</ele>
        <time>2017-11-01T11:31:57Z</time>
      </trkpt>
      <trkpt lat="44.02128" lon="6.66948">
        <ele>1530</ele>
        <time>2017-11-01T11:31:58Z</time>
      </trkpt>
      <trkpt lat="44.02127" lon="6.66958">
        <ele>1529</ele>
        <time>2017-11-01T11:31:59Z</time>
      </trkpt>
      <trkpt lat="44.02123" lon="6.66964">
        <ele>1528</ele>
        <time>2017-11-01T11:32:00Z</time>
      </trkpt>
      <trkpt lat="44.02118" lon="6.66972">
        <ele>1528</ele>
        <time>2017-11-01T11:32:01Z</time>
      </trkpt>
      <trkpt lat="44.02115" lon="6.66978">
        <ele>1528</ele>
        <time>2017-11-01T11:32:02Z</time>
      </trkpt>
      <trkpt lat="44.02112" lon="6.66971">
        <ele>1528</ele>
        <time>2017-11-01T11:32:03Z</time>
      </trkpt>
      <trkpt lat="44.02108" lon="6.66968">
        <ele>1528</ele>
        <time>2017-11-01T11:32:05Z</time>
      </trkpt>
      <trkpt lat="44.02103" lon="6.66966">
        <ele>1528</ele>
        <time>2017-11-01T11:32:07Z</time>
      </trkpt>
      <trkpt lat="44.02099" lon="6.66964">
        <ele>1529</ele>
        <time>2017-11-01T11:32:09Z</time>
      </trkpt>
      <trkpt lat="44.02095" lon="6.66962">
        <ele>1530</ele>
        <time>2017-11-01T11:32:32Z</time>
      </trkpt>
      <trkpt lat="44.02095" lon="6.66962">
        <ele>1531</ele>
        <time>2017-11-01T11:32:35Z</time>
      </trkpt>
      <trkpt lat="44.02082" lon="6.66981">
        <ele>1532</ele>
        <time>2017-11-01T11:32:43Z</time>
      </trkpt>
      <trkpt lat="44.02076" lon="6.6698">
        <ele>1533</ele>
        <time>2017-11-01T11:32:44Z</time>
      </trkpt>
      <trkpt lat="44.02069" lon="6.66975">
        <ele>1534</ele>
        <time>2017-11-01T11:32:45Z</time>
      </trkpt>
      <trkpt lat="44.02062" lon="6.66979">
        <ele>1535</ele>
        <time>2017-11-01T11:32:46Z</time>
      </trkpt>
      <trkpt lat="44.02051" lon="6.66984">
        <ele>1535</ele>
        <time>2017-11-01T11:32:48Z</time>
      </trkpt>
      <trkpt lat="44.02045" lon="6.66992">
        <ele>1535</ele>
        <time>2017-11-01T11:32:49Z</time>
      </trkpt>
      <trkpt lat="44.02037" lon="6.66992">
        <ele>1534</ele>
        <time>2017-11-01T11:32:50Z</time>
      </trkpt>
      <trkpt lat="44.02029" lon="6.66992">
        <ele>1533</ele>
        <time>2017-11-01T11:32:52Z</time>
      </trkpt>
      <trkpt lat="44.02024" lon="6.66989">
        <ele>1533</ele>
        <time>2017-11-01T11:32:53Z</time>
      </trkpt>
      <trkpt lat="44.02019" lon="6.66988">
        <ele>1534</ele>
        <time>2017-11-01T11:32:54Z</time>
      </trkpt>
      <trkpt lat="44.02012" lon="6.66989">
        <ele>1534</ele>
        <time>2017-11-01T11:32:55Z</time>
      </trkpt>
      <trkpt lat="44.02005" lon="6.66992">
        <ele>1534</ele>
        <time>2017-11-01T11:32:56Z</time>
      </trkpt>
      <trkpt lat="44.01997" lon="6.66992">
        <ele>1533</ele>
        <time>2017-11-01T11:32:57Z</time>
      </trkpt>
      <trkpt lat="44.0199" lon="6.66994">
        <ele>1532</ele>
        <time>2017-11-01T11:32:58Z</time>
      </trkpt>
      <trkpt lat="44.01982" lon="6.66997">
        <ele>1531</ele>
        <time>2017-11-01T11:32:59Z</time>
      </trkpt>
      <trkpt lat="44.01975" lon="6.66997">
        <ele>1530</ele>
        <time>2017-11-01T11:33:00Z</time>
      </trkpt>
      <trkpt lat="44.01967" lon="6.67004">
        <ele>1529</ele>
        <time>2017-11-01T11:33:01Z</time>
      </trkpt>
      <trkpt lat="44.01957" lon="6.67002">
        <ele>1529</ele>
        <time>2017-11-01T11:33:02Z</time>
      </trkpt>
      <trkpt lat="44.01949" lon="6.66999">
        <ele>1528</ele>
        <time>2017-11-01T11:33:03Z</time>
      </trkpt>
      <trkpt lat="44.01941" lon="6.67004">
        <ele>1528</ele>
        <time>2017-11-01T11:33:04Z</time>
      </trkpt>
      <trkpt lat="44.01935" lon="6.6701">
        <ele>1527</ele>
        <time>2017-11-01T11:33:05Z</time>
      </trkpt>
      <trkpt lat="44.01928" lon="6.67015">
        <ele>1527</ele>
        <time>2017-11-01T11:33:06Z</time>
      </trkpt>
      <trkpt lat="44.01923" lon="6.6701">
        <ele>1526</ele>
        <time>2017-11-01T11:33:07Z</time>
      </trkpt>
      <trkpt lat="44.01915" lon="6.67008">
        <ele>1525</ele>
        <time>2017-11-01T11:33:08Z</time>
      </trkpt>
      <trkpt lat="44.01909" lon="6.67007">
        <ele>1525</ele>
        <time>2017-11-01T11:33:09Z</time>
      </trkpt>
      <trkpt lat="44.01903" lon="6.67007">
        <ele>1525</ele>
        <time>2017-11-01T11:33:10Z</time>
      </trkpt>
      <trkpt lat="44.01897" lon="6.67007">
        <ele>1526</ele>
        <time>2017-11-01T11:33:11Z</time>
      </trkpt>
      <trkpt lat="44.01891" lon="6.67004">
        <ele>1527</ele>
        <time>2017-11-01T11:33:12Z</time>
      </trkpt>
      <trkpt lat="44.01879" lon="6.67005">
        <ele>1528</ele>
        <time>2017-11-01T11:33:14Z</time>
      </trkpt>
      <trkpt lat="44.01873" lon="6.67006">
        <ele>1529</ele>
        <time>2017-11-01T11:33:15Z</time>
      </trkpt>
      <trkpt lat="44.01867" lon="6.67006">
        <ele>1529</ele>
        <time>2017-11-01T11:33:16Z</time>
      </trkpt>
      <trkpt lat="44.01861" lon="6.67012">
        <ele>1529</ele>
        <time>2017-11-01T11:33:17Z</time>
      </trkpt>
      <trkpt lat="44.01854" lon="6.67017">
        <ele>1528</ele>
        <time>2017-11-01T11:33:18Z</time>
      </trkpt>
      <trkpt lat="44.01847" lon="6.67018">
        <ele>1528</ele>
        <time>2017-11-01T11:33:19Z</time>
      </trkpt>
      <trkpt lat="44.01838" lon="6.67022">
        <ele>1528</ele>
        <time>2017-11-01T11:33:21Z</time>
      </trkpt>
      <trkpt lat="44.01833" lon="6.67027">
        <ele>1527</ele>
        <time>2017-11-01T11:33:22Z</time>
      </trkpt>
      <trkpt lat="44.01823" lon="6.67036">
        <ele>1527</ele>
        <time>2017-11-01T11:33:23Z</time>
      </trkpt>
      <trkpt lat="44.01815" lon="6.67047">
        <ele>1527</ele>
        <time>2017-11-01T11:33:25Z</time>
      </trkpt>
      <trkpt lat="44.0181" lon="6.6706">
        <ele>1526</ele>
        <time>2017-11-01T11:33:26Z</time>
      </trkpt>
      <trkpt lat="44.01805" lon="6.67069">
        <ele>1526</ele>
        <time>2017-11-01T11:33:27Z</time>
      </trkpt>
      <trkpt lat="44.01801" lon="6.67072">
        <ele>1526</ele>
        <time>2017-11-01T11:33:28Z</time>
      </trkpt>
      <trkpt lat="44.01795" lon="6.67068">
        <ele>1525</ele>
        <time>2017-11-01T11:33:29Z</time>
      </trkpt>
      <trkpt lat="44.0179" lon="6.67075">
        <ele>1524</ele>
        <time>2017-11-01T11:33:30Z</time>
      </trkpt>
      <trkpt lat="44.01783" lon="6.67084">
        <ele>1523</ele>
        <time>2017-11-01T11:33:31Z</time>
      </trkpt>
      <trkpt lat="44.0178" lon="6.67092">
        <ele>1521</ele>
        <time>2017-11-01T11:33:32Z</time>
      </trkpt>
      <trkpt lat="44.01774" lon="6.67101">
        <ele>1520</ele>
        <time>2017-11-01T11:33:33Z</time>
      </trkpt>
      <trkpt lat="44.01767" lon="6.67097">
        <ele>1518</ele>
        <time>2017-11-01T11:33:35Z</time>
      </trkpt>
      <trkpt lat="44.01763" lon="6.67103">
        <ele>1517</ele>
        <time>2017-11-01T11:33:36Z</time>
      </trkpt>
      <trkpt lat="44.01759" lon="6.67108">
        <ele>1517</ele>
        <time>2017-11-01T11:33:37Z</time>
      </trkpt>
      <trkpt lat="44.01753" lon="6.67107">
        <ele>1516</ele>
        <time>2017-11-01T11:33:38Z</time>
      </trkpt>
      <trkpt lat="44.01749" lon="6.6711">
        <ele>1516</ele>
        <time>2017-11-01T11:33:39Z</time>
      </trkpt>
      <trkpt lat="44.01739" lon="6.67107">
        <ele>1514</ele>
        <time>2017-11-01T11:33:41Z</time>
      </trkpt>
      <trkpt lat="44.01735" lon="6.67111">
        <ele>1513</ele>
        <time>2017-11-01T11:33:42Z</time>
      </trkpt>
      <trkpt lat="44.01729" lon="6.67114">
        <ele>1511</ele>
        <time>2017-11-01T11:33:43Z</time>
      </trkpt>
      <trkpt lat="44.01724" lon="6.6712">
        <ele>1509</ele>
        <time>2017-11-01T11:33:44Z</time>
      </trkpt>
      <trkpt lat="44.0172" lon="6.67126">
        <ele>1508</ele>
        <time>2017-11-01T11:33:45Z</time>
      </trkpt>
      <trkpt lat="44.01717" lon="6.67133">
        <ele>1507</ele>
        <time>2017-11-01T11:33:46Z</time>
      </trkpt>
      <trkpt lat="44.01714" lon="6.6714">
        <ele>1507</ele>
        <time>2017-11-01T11:33:47Z</time>
      </trkpt>
      <trkpt lat="44.01708" lon="6.67149">
        <ele>1506</ele>
        <time>2017-11-01T11:33:49Z</time>
      </trkpt>
      <trkpt lat="44.01708" lon="6.67158">
        <ele>1506</ele>
        <time>2017-11-01T11:33:50Z</time>
      </trkpt>
      <trkpt lat="44.01704" lon="6.67167">
        <ele>1506</ele>
        <time>2017-11-01T11:33:52Z</time>
      </trkpt>
      <trkpt lat="44.01705" lon="6.67173">
        <ele>1505</ele>
        <time>2017-11-01T11:33:53Z</time>
      </trkpt>
      <trkpt lat="44.01706" lon="6.6718">
        <ele>1505</ele>
        <time>2017-11-01T11:33:54Z</time>
      </trkpt>
      <trkpt lat="44.01704" lon="6.67187">
        <ele>1505</ele>
        <time>2017-11-01T11:33:55Z</time>
      </trkpt>
      <trkpt lat="44.01702" lon="6.67197">
        <ele>1505</ele>
        <time>2017-11-01T11:33:58Z</time>
      </trkpt>
      <trkpt lat="44.01703" lon="6.67204">
        <ele>1504</ele>
        <time>2017-11-01T11:33:59Z</time>
      </trkpt>
      <trkpt lat="44.01701" lon="6.67211">
        <ele>1504</ele>
        <time>2017-11-01T11:34:00Z</time>
      </trkpt>
      <trkpt lat="44.01698" lon="6.67219">
        <ele>1503</ele>
        <time>2017-11-01T11:34:01Z</time>
      </trkpt>
      <trkpt lat="44.01696" lon="6.67231">
        <ele>1503</ele>
        <time>2017-11-01T11:34:02Z</time>
      </trkpt>
      <trkpt lat="44.01688" lon="6.67243">
        <ele>1503</ele>
        <time>2017-11-01T11:34:04Z</time>
      </trkpt>
      <trkpt lat="44.01685" lon="6.67249">
        <ele>1502</ele>
        <time>2017-11-01T11:34:05Z</time>
      </trkpt>
      <trkpt lat="44.01682" lon="6.67257">
        <ele>1502</ele>
        <time>2017-11-01T11:34:06Z</time>
      </trkpt>
      <trkpt lat="44.01677" lon="6.67258">
        <ele>1501</ele>
        <time>2017-11-01T11:34:07Z</time>
      </trkpt>
      <trkpt lat="44.01671" lon="6.67251">
        <ele>1500</ele>
        <time>2017-11-01T11:34:08Z</time>
      </trkpt>
      <trkpt lat="44.01668" lon="6.67245">
        <ele>1500</ele>
        <time>2017-11-01T11:34:09Z</time>
      </trkpt>
      <trkpt lat="44.0166" lon="6.67245">
        <ele>1500</ele>
        <time>2017-11-01T11:34:11Z</time>
      </trkpt>
      <trkpt lat="44.01654" lon="6.67244">
        <ele>1501</ele>
        <time>2017-11-01T11:34:12Z</time>
      </trkpt>
      <trkpt lat="44.0165" lon="6.6724">
        <ele>1501</ele>
        <time>2017-11-01T11:34:13Z</time>
      </trkpt>
      <trkpt lat="44.01644" lon="6.67236">
        <ele>1501</ele>
        <time>2017-11-01T11:34:14Z</time>
      </trkpt>
      <trkpt lat="44.0164" lon="6.6723">
        <ele>1501</ele>
        <time>2017-11-01T11:34:15Z</time>
      </trkpt>
      <trkpt lat="44.01636" lon="6.67227">
        <ele>1501</ele>
        <time>2017-11-01T11:34:16Z</time>
      </trkpt>
      <trkpt lat="44.0163" lon="6.67221">
        <ele>1501</ele>
        <time>2017-11-01T11:34:17Z</time>
      </trkpt>
      <trkpt lat="44.01623" lon="6.6722">
        <ele>1501</ele>
        <time>2017-11-01T11:34:18Z</time>
      </trkpt>
      <trkpt lat="44.01617" lon="6.67214">
        <ele>1501</ele>
        <time>2017-11-01T11:34:19Z</time>
      </trkpt>
      <trkpt lat="44.01611" lon="6.67211">
        <ele>1501</ele>
        <time>2017-11-01T11:34:20Z</time>
      </trkpt>
      <trkpt lat="44.01605" lon="6.67202">
        <ele>1501</ele>
        <time>2017-11-01T11:34:21Z</time>
      </trkpt>
      <trkpt lat="44.016" lon="6.67199">
        <ele>1502</ele>
        <time>2017-11-01T11:34:22Z</time>
      </trkpt>
      <trkpt lat="44.01593" lon="6.67195">
        <ele>1502</ele>
        <time>2017-11-01T11:34:23Z</time>
      </trkpt>
      <trkpt lat="44.01586" lon="6.67189">
        <ele>1502</ele>
        <time>2017-11-01T11:34:24Z</time>
      </trkpt>
      <trkpt lat="44.0158" lon="6.67185">
        <ele>1502</ele>
        <time>2017-11-01T11:34:25Z</time>
      </trkpt>
      <trkpt lat="44.01574" lon="6.67182">
        <ele>1503</ele>
        <time>2017-11-01T11:34:26Z</time>
      </trkpt>
      <trkpt lat="44.01566" lon="6.67182">
        <ele>1503</ele>
        <time>2017-11-01T11:34:27Z</time>
      </trkpt>
      <trkpt lat="44.0156" lon="6.67181">
        <ele>1502</ele>
        <time>2017-11-01T11:34:28Z</time>
      </trkpt>
      <trkpt lat="44.01554" lon="6.67178">
        <ele>1502</ele>
        <time>2017-11-01T11:34:29Z</time>
      </trkpt>
      <trkpt lat="44.01548" lon="6.67175">
        <ele>1502</ele>
        <time>2017-11-01T11:34:30Z</time>
      </trkpt>
      <trkpt lat="44.0154" lon="6.67173">
        <ele>1501</ele>
        <time>2017-11-01T11:34:31Z</time>
      </trkpt>
      <trkpt lat="44.01532" lon="6.67168">
        <ele>1501</ele>
        <time>2017-11-01T11:34:32Z</time>
      </trkpt>
      <trkpt lat="44.01524" lon="6.67169">
        <ele>1501</ele>
        <time>2017-11-01T11:34:33Z</time>
      </trkpt>
      <trkpt lat="44.01515" lon="6.67169">
        <ele>1500</ele>
        <time>2017-11-01T11:34:34Z</time>
      </trkpt>
      <trkpt lat="44.01507" lon="6.67168">
        <ele>1500</ele>
        <time>2017-11-01T11:34:35Z</time>
      </trkpt>
      <trkpt lat="44.01497" lon="6.67167">
        <ele>1500</ele>
        <time>2017-11-01T11:34:36Z</time>
      </trkpt>
      <trkpt lat="44.01489" lon="6.67166">
        <ele>1499</ele>
        <time>2017-11-01T11:34:37Z</time>
      </trkpt>
      <trkpt lat="44.01482" lon="6.67174">
        <ele>1499</ele>
        <time>2017-11-01T11:34:38Z</time>
      </trkpt>
      <trkpt lat="44.01474" lon="6.6718">
        <ele>1499</ele>
        <time>2017-11-01T11:34:39Z</time>
      </trkpt>
      <trkpt lat="44.01469" lon="6.67188">
        <ele>1499</ele>
        <time>2017-11-01T11:34:40Z</time>
      </trkpt>
      <trkpt lat="44.01465" lon="6.67183">
        <ele>1498</ele>
        <time>2017-11-01T11:34:41Z</time>
      </trkpt>
      <trkpt lat="44.01461" lon="6.67196">
        <ele>1497</ele>
        <time>2017-11-01T11:34:42Z</time>
      </trkpt>
      <trkpt lat="44.01457" lon="6.67206">
        <ele>1496</ele>
        <time>2017-11-01T11:34:43Z</time>
      </trkpt>
      <trkpt lat="44.01453" lon="6.67216">
        <ele>1495</ele>
        <time>2017-11-01T11:34:44Z</time>
      </trkpt>
      <trkpt lat="44.01448" lon="6.67224">
        <ele>1494</ele>
        <time>2017-11-01T11:34:45Z</time>
      </trkpt>
      <trkpt lat="44.01444" lon="6.67232">
        <ele>1495</ele>
        <time>2017-11-01T11:34:46Z</time>
      </trkpt>
      <trkpt lat="44.01444" lon="6.67239">
        <ele>1495</ele>
        <time>2017-11-01T11:34:47Z</time>
      </trkpt>
      <trkpt lat="44.01445" lon="6.67246">
        <ele>1495</ele>
        <time>2017-11-01T11:34:48Z</time>
      </trkpt>
      <trkpt lat="44.01448" lon="6.67255">
        <ele>1494</ele>
        <time>2017-11-01T11:34:49Z</time>
      </trkpt>
      <trkpt lat="44.01452" lon="6.6726">
        <ele>1494</ele>
        <time>2017-11-01T11:34:50Z</time>
      </trkpt>
      <trkpt lat="44.01455" lon="6.67267">
        <ele>1493</ele>
        <time>2017-11-01T11:34:51Z</time>
      </trkpt>
      <trkpt lat="44.01458" lon="6.67276">
        <ele>1492</ele>
        <time>2017-11-01T11:34:52Z</time>
      </trkpt>
      <trkpt lat="44.01463" lon="6.67284">
        <ele>1491</ele>
        <time>2017-11-01T11:34:53Z</time>
      </trkpt>
      <trkpt lat="44.01468" lon="6.6729">
        <ele>1490</ele>
        <time>2017-11-01T11:34:54Z</time>
      </trkpt>
      <trkpt lat="44.01473" lon="6.67296">
        <ele>1490</ele>
        <time>2017-11-01T11:34:55Z</time>
      </trkpt>
      <trkpt lat="44.01477" lon="6.67305">
        <ele>1489</ele>
        <time>2017-11-01T11:34:56Z</time>
      </trkpt>
      <trkpt lat="44.0148" lon="6.67312">
        <ele>1489</ele>
        <time>2017-11-01T11:34:57Z</time>
      </trkpt>
      <trkpt lat="44.01481" lon="6.67319">
        <ele>1489</ele>
        <time>2017-11-01T11:34:58Z</time>
      </trkpt>
      <trkpt lat="44.01479" lon="6.67325">
        <ele>1489</ele>
        <time>2017-11-01T11:34:59Z</time>
      </trkpt>
      <trkpt lat="44.01476" lon="6.67331">
        <ele>1488</ele>
        <time>2017-11-01T11:35:00Z</time>
      </trkpt>
      <trkpt lat="44.01468" lon="6.67336">
        <ele>1487</ele>
        <time>2017-11-01T11:35:02Z</time>
      </trkpt>
      <trkpt lat="44.01462" lon="6.67341">
        <ele>1486</ele>
        <time>2017-11-01T11:35:03Z</time>
      </trkpt>
      <trkpt lat="44.01457" lon="6.67345">
        <ele>1484</ele>
        <time>2017-11-01T11:35:04Z</time>
      </trkpt>
      <trkpt lat="44.01453" lon="6.6735">
        <ele>1484</ele>
        <time>2017-11-01T11:35:05Z</time>
      </trkpt>
      <trkpt lat="44.01452" lon="6.67358">
        <ele>1483</ele>
        <time>2017-11-01T11:35:06Z</time>
      </trkpt>
      <trkpt lat="44.01453" lon="6.67367">
        <ele>1482</ele>
        <time>2017-11-01T11:35:07Z</time>
      </trkpt>
      <trkpt lat="44.01452" lon="6.67373">
        <ele>1482</ele>
        <time>2017-11-01T11:35:08Z</time>
      </trkpt>
      <trkpt lat="44.01451" lon="6.67386">
        <ele>1480</ele>
        <time>2017-11-01T11:35:10Z</time>
      </trkpt>
      <trkpt lat="44.01448" lon="6.67396">
        <ele>1479</ele>
        <time>2017-11-01T11:35:12Z</time>
      </trkpt>
      <trkpt lat="44.01446" lon="6.67407">
        <ele>1478</ele>
        <time>2017-11-01T11:35:14Z</time>
      </trkpt>
      <trkpt lat="44.01444" lon="6.67414">
        <ele>1477</ele>
        <time>2017-11-01T11:35:15Z</time>
      </trkpt>
      <trkpt lat="44.01437" lon="6.67424">
        <ele>1476</ele>
        <time>2017-11-01T11:35:17Z</time>
      </trkpt>
      <trkpt lat="44.01433" lon="6.67432">
        <ele>1476</ele>
        <time>2017-11-01T11:35:18Z</time>
      </trkpt>
      <trkpt lat="44.01428" lon="6.67439">
        <ele>1476</ele>
        <time>2017-11-01T11:35:19Z</time>
      </trkpt>
      <trkpt lat="44.01424" lon="6.67447">
        <ele>1476</ele>
        <time>2017-11-01T11:35:20Z</time>
      </trkpt>
      <trkpt lat="44.01419" lon="6.67448">
        <ele>1476</ele>
        <time>2017-11-01T11:35:21Z</time>
      </trkpt>
      <trkpt lat="44.01416" lon="6.67457">
        <ele>1476</ele>
        <time>2017-11-01T11:35:22Z</time>
      </trkpt>
      <trkpt lat="44.01411" lon="6.67464">
        <ele>1476</ele>
        <time>2017-11-01T11:35:23Z</time>
      </trkpt>
      <trkpt lat="44.01409" lon="6.67476">
        <ele>1476</ele>
        <time>2017-11-01T11:35:24Z</time>
      </trkpt>
      <trkpt lat="44.014" lon="6.67482">
        <ele>1476</ele>
        <time>2017-11-01T11:35:25Z</time>
      </trkpt>
      <trkpt lat="44.01396" lon="6.67488">
        <ele>1476</ele>
        <time>2017-11-01T11:35:26Z</time>
      </trkpt>
      <trkpt lat="44.01393" lon="6.675">
        <ele>1475</ele>
        <time>2017-11-01T11:35:27Z</time>
      </trkpt>
      <trkpt lat="44.01387" lon="6.67502">
        <ele>1475</ele>
        <time>2017-11-01T11:35:29Z</time>
      </trkpt>
      <trkpt lat="44.01384" lon="6.67512">
        <ele>1474</ele>
        <time>2017-11-01T11:35:30Z</time>
      </trkpt>
      <trkpt lat="44.01377" lon="6.67511">
        <ele>1473</ele>
        <time>2017-11-01T11:35:31Z</time>
      </trkpt>
      <trkpt lat="44.01369" lon="6.6752">
        <ele>1472</ele>
        <time>2017-11-01T11:35:33Z</time>
      </trkpt>
      <trkpt lat="44.01364" lon="6.67514">
        <ele>1470</ele>
        <time>2017-11-01T11:35:34Z</time>
      </trkpt>
      <trkpt lat="44.01357" lon="6.6751">
        <ele>1469</ele>
        <time>2017-11-01T11:35:35Z</time>
      </trkpt>
      <trkpt lat="44.01351" lon="6.67509">
        <ele>1468</ele>
        <time>2017-11-01T11:35:36Z</time>
      </trkpt>
      <trkpt lat="44.01344" lon="6.67511">
        <ele>1467</ele>
        <time>2017-11-01T11:35:37Z</time>
      </trkpt>
      <trkpt lat="44.0134" lon="6.67519">
        <ele>1466</ele>
        <time>2017-11-01T11:35:38Z</time>
      </trkpt>
      <trkpt lat="44.01334" lon="6.67514">
        <ele>1466</ele>
        <time>2017-11-01T11:35:39Z</time>
      </trkpt>
      <trkpt lat="44.01334" lon="6.67507">
        <ele>1466</ele>
        <time>2017-11-01T11:35:42Z</time>
      </trkpt>
      <trkpt lat="44.01334" lon="6.67501">
        <ele>1466</ele>
        <time>2017-11-01T11:35:44Z</time>
      </trkpt>
      <trkpt lat="44.01334" lon="6.67503">
        <ele>1466</ele>
        <time>2017-11-01T11:36:02Z</time>
      </trkpt>
      <trkpt lat="44.01334" lon="6.67503">
        <ele>1467</ele>
        <time>2017-11-01T11:36:04Z</time>
      </trkpt>
      <trkpt lat="44.01334" lon="6.67504">
        <ele>1467</ele>
        <time>2017-11-01T11:36:32Z</time>
      </trkpt>
      <trkpt lat="44.01334" lon="6.67503">
        <ele>1467</ele>
        <time>2017-11-01T11:36:36Z</time>
      </trkpt>
      <trkpt lat="44.01334" lon="6.67504">
        <ele>1467</ele>
        <time>2017-11-01T11:37:02Z</time>
      </trkpt>
      <trkpt lat="44.01332" lon="6.67509">
        <ele>1467</ele>
        <time>2017-11-01T11:37:03Z</time>
      </trkpt>
      <trkpt lat="44.01334" lon="6.67504">
        <ele>1467</ele>
        <time>2017-11-01T11:37:32Z</time>
      </trkpt>
      <trkpt lat="44.01334" lon="6.67504">
        <ele>1467</ele>
        <time>2017-11-01T11:37:34Z</time>
      </trkpt>
      <trkpt lat="44.01334" lon="6.67504">
        <ele>1467</ele>
        <time>2017-11-01T11:38:02Z</time>
      </trkpt>
      <trkpt lat="44.01331" lon="6.6751">
        <ele>1468</ele>
        <time>2017-11-01T11:38:04Z</time>
      </trkpt>
      <trkpt lat="44.01334" lon="6.67504">
        <ele>1468</ele>
        <time>2017-11-01T11:38:06Z</time>
      </trkpt>
      <trkpt lat="44.01334" lon="6.67504">
        <ele>1468</ele>
        <time>2017-11-01T11:38:32Z</time>
      </trkpt>
      <trkpt lat="44.01331" lon="6.67502">
        <ele>1469</ele>
        <time>2017-11-01T11:38:33Z</time>
      </trkpt>
      <trkpt lat="44.01334" lon="6.67504">
        <ele>1469</ele>
        <time>2017-11-01T11:39:02Z</time>
      </trkpt>
      <trkpt lat="44.01331" lon="6.67512">
        <ele>1469</ele>
        <time>2017-11-01T11:39:03Z</time>
      </trkpt>
      <trkpt lat="44.01334" lon="6.67504">
        <ele>1469</ele>
        <time>2017-11-01T11:39:05Z</time>
      </trkpt>
      <trkpt lat="44.01334" lon="6.67504">
        <ele>1469</ele>
        <time>2017-11-01T11:39:32Z</time>
      </trkpt>
      <trkpt lat="44.01334" lon="6.67504">
        <ele>1468</ele>
        <time>2017-11-01T11:39:33Z</time>
      </trkpt>
      <trkpt lat="44.01334" lon="6.67504">
        <ele>1468</ele>
        <time>2017-11-01T11:40:02Z</time>
      </trkpt>
      <trkpt lat="44.01333" lon="6.675">
        <ele>1469</ele>
        <time>2017-11-01T11:40:03Z</time>
      </trkpt>
      <trkpt lat="44.01334" lon="6.67504">
        <ele>1469</ele>
        <time>2017-11-01T11:40:32Z</time>
      </trkpt>
      <trkpt lat="44.01334" lon="6.67504">
        <ele>1469</ele>
        <time>2017-11-01T11:40:35Z</time>
      </trkpt>
      <trkpt lat="44.01334" lon="6.67505">
        <ele>1469</ele>
        <time>2017-11-01T11:41:02Z</time>
      </trkpt>
      <trkpt lat="44.01334" lon="6.67508">
        <ele>1470</ele>
        <time>2017-11-01T11:41:03Z</time>
      </trkpt>
      <trkpt lat="44.01336" lon="6.67502">
        <ele>1468</ele>
        <time>2017-11-01T11:41:10Z</time>
      </trkpt>
      <trkpt lat="44.01337" lon="6.67504">
        <ele>1469</ele>
        <time>2017-11-01T11:41:32Z</time>
      </trkpt>
      <trkpt lat="44.01337" lon="6.67504">
        <ele>1470</ele>
        <time>2017-11-01T11:41:33Z</time>
      </trkpt>
      <trkpt lat="44.01337" lon="6.67504">
        <ele>1471</ele>
        <time>2017-11-01T11:42:02Z</time>
      </trkpt>
      <trkpt lat="44.01337" lon="6.67504">
        <ele>1472</ele>
        <time>2017-11-01T11:42:05Z</time>
      </trkpt>
      <trkpt lat="44.01336" lon="6.67504">
        <ele>1472</ele>
        <time>2017-11-01T11:42:32Z</time>
      </trkpt>
      <trkpt lat="44.01331" lon="6.67508">
        <ele>1471</ele>
        <time>2017-11-01T11:42:33Z</time>
      </trkpt>
      <trkpt lat="44.01336" lon="6.67504">
        <ele>1471</ele>
        <time>2017-11-01T11:42:35Z</time>
      </trkpt>
      <trkpt lat="44.01336" lon="6.67504">
        <ele>1471</ele>
        <time>2017-11-01T11:43:02Z</time>
      </trkpt>
      <trkpt lat="44.01332" lon="6.67508">
        <ele>1471</ele>
        <time>2017-11-01T11:43:03Z</time>
      </trkpt>
      <trkpt lat="44.01336" lon="6.67504">
        <ele>1471</ele>
        <time>2017-11-01T11:43:05Z</time>
      </trkpt>
      <trkpt lat="44.01336" lon="6.67505">
        <ele>1471</ele>
        <time>2017-11-01T11:43:32Z</time>
      </trkpt>
      <trkpt lat="44.01328" lon="6.67511">
        <ele>1470</ele>
        <time>2017-11-01T11:43:33Z</time>
      </trkpt>
      <trkpt lat="44.01336" lon="6.67505">
        <ele>1470</ele>
        <time>2017-11-01T11:43:35Z</time>
      </trkpt>
      <trkpt lat="44.01336" lon="6.67505">
        <ele>1470</ele>
        <time>2017-11-01T11:44:02Z</time>
      </trkpt>
      <trkpt lat="44.01334" lon="6.6751">
        <ele>1470</ele>
        <time>2017-11-01T11:44:03Z</time>
      </trkpt>
      <trkpt lat="44.01336" lon="6.67505">
        <ele>1470</ele>
        <time>2017-11-01T11:44:32Z</time>
      </trkpt>
      <trkpt lat="44.01336" lon="6.67505">
        <ele>1471</ele>
        <time>2017-11-01T11:44:33Z</time>
      </trkpt>
      <trkpt lat="44.01336" lon="6.67505">
        <ele>1471</ele>
        <time>2017-11-01T11:45:02Z</time>
      </trkpt>
      <trkpt lat="44.01332" lon="6.67507">
        <ele>1470</ele>
        <time>2017-11-01T11:45:03Z</time>
      </trkpt>
      <trkpt lat="44.01336" lon="6.67506">
        <ele>1471</ele>
        <time>2017-11-01T11:45:32Z</time>
      </trkpt>
      <trkpt lat="44.01327" lon="6.67512">
        <ele>1471</ele>
        <time>2017-11-01T11:45:33Z</time>
      </trkpt>
      <trkpt lat="44.01336" lon="6.67506">
        <ele>1471</ele>
        <time>2017-11-01T11:45:35Z</time>
      </trkpt>
      <trkpt lat="44.01336" lon="6.67506">
        <ele>1471</ele>
        <time>2017-11-01T11:46:02Z</time>
      </trkpt>
      <trkpt lat="44.01335" lon="6.67508">
        <ele>1471</ele>
        <time>2017-11-01T11:46:03Z</time>
      </trkpt>
      <trkpt lat="44.01336" lon="6.67506">
        <ele>1471</ele>
        <time>2017-11-01T11:46:32Z</time>
      </trkpt>
      <trkpt lat="44.01336" lon="6.67506">
        <ele>1471</ele>
        <time>2017-11-01T11:46:35Z</time>
      </trkpt>
      <trkpt lat="44.01335" lon="6.67506">
        <ele>1471</ele>
        <time>2017-11-01T11:47:02Z</time>
      </trkpt>
      <trkpt lat="44.01334" lon="6.67511">
        <ele>1470</ele>
        <time>2017-11-01T11:47:03Z</time>
      </trkpt>
      <trkpt lat="44.01335" lon="6.67506">
        <ele>1471</ele>
        <time>2017-11-01T11:47:32Z</time>
      </trkpt>
      <trkpt lat="44.01333" lon="6.67502">
        <ele>1469</ele>
        <time>2017-11-01T11:47:33Z</time>
      </trkpt>
      <trkpt lat="44.01335" lon="6.67506">
        <ele>1469</ele>
        <time>2017-11-01T11:48:02Z</time>
      </trkpt>
      <trkpt lat="44.01335" lon="6.67506">
        <ele>1469</ele>
        <time>2017-11-01T11:48:05Z</time>
      </trkpt>
      <trkpt lat="44.01335" lon="6.67506">
        <ele>1470</ele>
        <time>2017-11-01T11:48:32Z</time>
      </trkpt>
      <trkpt lat="44.01335" lon="6.67506">
        <ele>1470</ele>
        <time>2017-11-01T11:48:35Z</time>
      </trkpt>
      <trkpt lat="44.01335" lon="6.67507">
        <ele>1472</ele>
        <time>2017-11-01T11:49:02Z</time>
      </trkpt>
      <trkpt lat="44.01327" lon="6.67515">
        <ele>1472</ele>
        <time>2017-11-01T11:49:03Z</time>
      </trkpt>
      <trkpt lat="44.01335" lon="6.67507">
        <ele>1472</ele>
        <time>2017-11-01T11:49:05Z</time>
      </trkpt>
      <trkpt lat="44.01335" lon="6.67507">
        <ele>1472</ele>
        <time>2017-11-01T11:49:32Z</time>
      </trkpt>
      <trkpt lat="44.01332" lon="6.67509">
        <ele>1471</ele>
        <time>2017-11-01T11:49:33Z</time>
      </trkpt>
      <trkpt lat="44.01335" lon="6.67507">
        <ele>1471</ele>
        <time>2017-11-01T11:50:02Z</time>
      </trkpt>
      <trkpt lat="44.01335" lon="6.67507">
        <ele>1471</ele>
        <time>2017-11-01T11:50:03Z</time>
      </trkpt>
      <trkpt lat="44.01335" lon="6.67507">
        <ele>1471</ele>
        <time>2017-11-01T11:50:32Z</time>
      </trkpt>
      <trkpt lat="44.01335" lon="6.67507">
        <ele>1471</ele>
        <time>2017-11-01T11:50:35Z</time>
      </trkpt>
      <trkpt lat="44.01335" lon="6.67507">
        <ele>1472</ele>
        <time>2017-11-01T11:51:02Z</time>
      </trkpt>
      <trkpt lat="44.01333" lon="6.67506">
        <ele>1470</ele>
        <time>2017-11-01T11:51:03Z</time>
      </trkpt>
      <trkpt lat="44.01334" lon="6.67507">
        <ele>1470</ele>
        <time>2017-11-01T11:51:32Z</time>
      </trkpt>
      <trkpt lat="44.01334" lon="6.67507">
        <ele>1470</ele>
        <time>2017-11-01T11:51:33Z</time>
      </trkpt>
      <trkpt lat="44.01334" lon="6.67507">
        <ele>1470</ele>
        <time>2017-11-01T11:52:02Z</time>
      </trkpt>
      <trkpt lat="44.01328" lon="6.67511">
        <ele>1471</ele>
        <time>2017-11-01T11:52:03Z</time>
      </trkpt>
      <trkpt lat="44.01334" lon="6.67507">
        <ele>1472</ele>
        <time>2017-11-01T11:52:05Z</time>
      </trkpt>
      <trkpt lat="44.01334" lon="6.67507">
        <ele>1472</ele>
        <time>2017-11-01T11:52:32Z</time>
      </trkpt>
      <trkpt lat="44.01335" lon="6.67507">
        <ele>1472</ele>
        <time>2017-11-01T11:52:33Z</time>
      </trkpt>
      <trkpt lat="44.01334" lon="6.67507">
        <ele>1472</ele>
        <time>2017-11-01T11:53:02Z</time>
      </trkpt>
      <trkpt lat="44.01331" lon="6.67512">
        <ele>1470</ele>
        <time>2017-11-01T11:53:03Z</time>
      </trkpt>
      <trkpt lat="44.01334" lon="6.67507">
        <ele>1470</ele>
        <time>2017-11-01T11:53:32Z</time>
      </trkpt>
      <trkpt lat="44.01331" lon="6.67505">
        <ele>1469</ele>
        <time>2017-11-01T11:53:33Z</time>
      </trkpt>
      <trkpt lat="44.01334" lon="6.67508">
        <ele>1469</ele>
        <time>2017-11-01T11:54:02Z</time>
      </trkpt>
      <trkpt lat="44.01334" lon="6.67508">
        <ele>1469</ele>
        <time>2017-11-01T11:54:03Z</time>
      </trkpt>
      <trkpt lat="44.01334" lon="6.67508">
        <ele>1471</ele>
        <time>2017-11-01T11:54:32Z</time>
      </trkpt>
      <trkpt lat="44.01328" lon="6.6751">
        <ele>1470</ele>
        <time>2017-11-01T11:54:33Z</time>
      </trkpt>
      <trkpt lat="44.01334" lon="6.67508">
        <ele>1471</ele>
        <time>2017-11-01T11:54:36Z</time>
      </trkpt>
      <trkpt lat="44.01334" lon="6.67508">
        <ele>1471</ele>
        <time>2017-11-01T11:55:02Z</time>
      </trkpt>
      <trkpt lat="44.0133" lon="6.67506">
        <ele>1470</ele>
        <time>2017-11-01T11:55:03Z</time>
      </trkpt>
      <trkpt lat="44.01334" lon="6.67508">
        <ele>1470</ele>
        <time>2017-11-01T11:55:32Z</time>
      </trkpt>
      <trkpt lat="44.01334" lon="6.67508">
        <ele>1471</ele>
        <time>2017-11-01T11:55:33Z</time>
      </trkpt>
      <trkpt lat="44.01334" lon="6.67508">
        <ele>1471</ele>
        <time>2017-11-01T11:56:02Z</time>
      </trkpt>
      <trkpt lat="44.01328" lon="6.6751">
        <ele>1470</ele>
        <time>2017-11-01T11:56:03Z</time>
      </trkpt>
      <trkpt lat="44.01334" lon="6.67508">
        <ele>1471</ele>
        <time>2017-11-01T11:56:06Z</time>
      </trkpt>
      <trkpt lat="44.01334" lon="6.67508">
        <ele>1471</ele>
        <time>2017-11-01T11:56:32Z</time>
      </trkpt>
      <trkpt lat="44.01328" lon="6.67516">
        <ele>1473</ele>
        <time>2017-11-01T11:56:33Z</time>
      </trkpt>
      <trkpt lat="44.01334" lon="6.67508">
        <ele>1473</ele>
        <time>2017-11-01T11:56:36Z</time>
      </trkpt>
      <trkpt lat="44.01334" lon="6.67508">
        <ele>1473</ele>
        <time>2017-11-01T11:57:02Z</time>
      </trkpt>
      <trkpt lat="44.01334" lon="6.6751">
        <ele>1473</ele>
        <time>2017-11-01T11:57:03Z</time>
      </trkpt>
      <trkpt lat="44.01334" lon="6.67508">
        <ele>1473</ele>
        <time>2017-11-01T11:57:32Z</time>
      </trkpt>
      <trkpt lat="44.01331" lon="6.67506">
        <ele>1470</ele>
        <time>2017-11-01T11:57:33Z</time>
      </trkpt>
      <trkpt lat="44.01334" lon="6.67508">
        <ele>1470</ele>
        <time>2017-11-01T11:58:02Z</time>
      </trkpt>
      <trkpt lat="44.01334" lon="6.67508">
        <ele>1470</ele>
        <time>2017-11-01T11:58:03Z</time>
      </trkpt>
      <trkpt lat="44.01334" lon="6.67508">
        <ele>1471</ele>
        <time>2017-11-01T11:58:32Z</time>
      </trkpt>
      <trkpt lat="44.01334" lon="6.67504">
        <ele>1469</ele>
        <time>2017-11-01T11:58:33Z</time>
      </trkpt>
      <trkpt lat="44.01334" lon="6.67508">
        <ele>1470</ele>
        <time>2017-11-01T11:59:02Z</time>
      </trkpt>
      <trkpt lat="44.01331" lon="6.67508">
        <ele>1469</ele>
        <time>2017-11-01T11:59:03Z</time>
      </trkpt>
      <trkpt lat="44.01334" lon="6.67508">
        <ele>1469</ele>
        <time>2017-11-01T11:59:32Z</time>
      </trkpt>
      <trkpt lat="44.01334" lon="6.67508">
        <ele>1469</ele>
        <time>2017-11-01T11:59:33Z</time>
      </trkpt>
      <trkpt lat="44.01334" lon="6.67508">
        <ele>1471</ele>
        <time>2017-11-01T12:00:02Z</time>
      </trkpt>
      <trkpt lat="44.01332" lon="6.67503">
        <ele>1469</ele>
        <time>2017-11-01T12:00:03Z</time>
      </trkpt>
      <trkpt lat="44.01334" lon="6.67508">
        <ele>1470</ele>
        <time>2017-11-01T12:00:32Z</time>
      </trkpt>
      <trkpt lat="44.01326" lon="6.67501">
        <ele>1468</ele>
        <time>2017-11-01T12:00:33Z</time>
      </trkpt>
      <trkpt lat="44.01334" lon="6.67508">
        <ele>1468</ele>
        <time>2017-11-01T12:00:36Z</time>
      </trkpt>
      <trkpt lat="44.01334" lon="6.67508">
        <ele>1468</ele>
        <time>2017-11-01T12:01:02Z</time>
      </trkpt>
      <trkpt lat="44.01334" lon="6.67508">
        <ele>1470</ele>
        <time>2017-11-01T12:01:05Z</time>
      </trkpt>
      <trkpt lat="44.01334" lon="6.67508">
        <ele>1470</ele>
        <time>2017-11-01T12:01:32Z</time>
      </trkpt>
      <trkpt lat="44.01334" lon="6.67508">
        <ele>1472</ele>
        <time>2017-11-01T12:01:33Z</time>
      </trkpt>
      <trkpt lat="44.01333" lon="6.67508">
        <ele>1472</ele>
        <time>2017-11-01T12:02:02Z</time>
      </trkpt>
      <trkpt lat="44.0133" lon="6.6751">
        <ele>1471</ele>
        <time>2017-11-01T12:02:03Z</time>
      </trkpt>
      <trkpt lat="44.01334" lon="6.67508">
        <ele>1471</ele>
        <time>2017-11-01T12:02:32Z</time>
      </trkpt>
      <trkpt lat="44.01334" lon="6.67508">
        <ele>1471</ele>
        <time>2017-11-01T12:02:33Z</time>
      </trkpt>
      <trkpt lat="44.01334" lon="6.67508">
        <ele>1471</ele>
        <time>2017-11-01T12:03:02Z</time>
      </trkpt>
      <trkpt lat="44.01334" lon="6.67508">
        <ele>1471</ele>
        <time>2017-11-01T12:03:05Z</time>
      </trkpt>
      <trkpt lat="44.01334" lon="6.67508">
        <ele>1472</ele>
        <time>2017-11-01T12:03:32Z</time>
      </trkpt>
      <trkpt lat="44.01334" lon="6.67508">
        <ele>1472</ele>
        <time>2017-11-01T12:03:35Z</time>
      </trkpt>
      <trkpt lat="44.01334" lon="6.67508">
        <ele>1472</ele>
        <time>2017-11-01T12:04:02Z</time>
      </trkpt>
      <trkpt lat="44.01334" lon="6.67508">
        <ele>1472</ele>
        <time>2017-11-01T12:04:05Z</time>
      </trkpt>
      <trkpt lat="44.01334" lon="6.67508">
        <ele>1472</ele>
        <time>2017-11-01T12:04:32Z</time>
      </trkpt>
      <trkpt lat="44.01337" lon="6.67508">
        <ele>1470</ele>
        <time>2017-11-01T12:04:33Z</time>
      </trkpt>
      <trkpt lat="44.01334" lon="6.67508">
        <ele>1470</ele>
        <time>2017-11-01T12:05:02Z</time>
      </trkpt>
      <trkpt lat="44.01334" lon="6.67508">
        <ele>1470</ele>
        <time>2017-11-01T12:05:03Z</time>
      </trkpt>
      <trkpt lat="44.01334" lon="6.67508">
        <ele>1470</ele>
        <time>2017-11-01T12:05:32Z</time>
      </trkpt>
      <trkpt lat="44.01329" lon="6.67509">
        <ele>1469</ele>
        <time>2017-11-01T12:05:33Z</time>
      </trkpt>
      <trkpt lat="44.01334" lon="6.67508">
        <ele>1471</ele>
        <time>2017-11-01T12:06:02Z</time>
      </trkpt>
      <trkpt lat="44.01334" lon="6.67508">
        <ele>1471</ele>
        <time>2017-11-01T12:06:03Z</time>
      </trkpt>
      <trkpt lat="44.01333" lon="6.67508">
        <ele>1471</ele>
        <time>2017-11-01T12:06:32Z</time>
      </trkpt>
      <trkpt lat="44.01329" lon="6.67507">
        <ele>1470</ele>
        <time>2017-11-01T12:06:33Z</time>
      </trkpt>
      <trkpt lat="44.01333" lon="6.67508">
        <ele>1471</ele>
        <time>2017-11-01T12:07:02Z</time>
      </trkpt>
      <trkpt lat="44.01333" lon="6.67505">
        <ele>1469</ele>
        <time>2017-11-01T12:07:03Z</time>
      </trkpt>
      <trkpt lat="44.01333" lon="6.67508">
        <ele>1469</ele>
        <time>2017-11-01T12:07:32Z</time>
      </trkpt>
      <trkpt lat="44.01333" lon="6.67508">
        <ele>1469</ele>
        <time>2017-11-01T12:07:33Z</time>
      </trkpt>
      <trkpt lat="44.01333" lon="6.67508">
        <ele>1469</ele>
        <time>2017-11-01T12:08:02Z</time>
      </trkpt>
      <trkpt lat="44.01333" lon="6.67508">
        <ele>1469</ele>
        <time>2017-11-01T12:08:05Z</time>
      </trkpt>
      <trkpt lat="44.01333" lon="6.67508">
        <ele>1471</ele>
        <time>2017-11-01T12:08:32Z</time>
      </trkpt>
      <trkpt lat="44.01336" lon="6.67498">
        <ele>1469</ele>
        <time>2017-11-01T12:08:33Z</time>
      </trkpt>
      <trkpt lat="44.01333" lon="6.67508">
        <ele>1469</ele>
        <time>2017-11-01T12:08:36Z</time>
      </trkpt>
      <trkpt lat="44.01333" lon="6.67508">
        <ele>1469</ele>
        <time>2017-11-01T12:09:02Z</time>
      </trkpt>
      <trkpt lat="44.01333" lon="6.67508">
        <ele>1469</ele>
        <time>2017-11-01T12:09:03Z</time>
      </trkpt>
      <trkpt lat="44.01335" lon="6.67504">
        <ele>1469</ele>
        <time>2017-11-01T12:09:32Z</time>
      </trkpt>
      <trkpt lat="44.01335" lon="6.67504">
        <ele>1471</ele>
        <time>2017-11-01T12:09:35Z</time>
      </trkpt>
      <trkpt lat="44.01338" lon="6.67497">
        <ele>1472</ele>
        <time>2017-11-01T12:10:01Z</time>
      </trkpt>
      <trkpt lat="44.01342" lon="6.6749">
        <ele>1472</ele>
        <time>2017-11-01T12:10:04Z</time>
      </trkpt>
      <trkpt lat="44.01347" lon="6.67487">
        <ele>1471</ele>
        <time>2017-11-01T12:10:05Z</time>
      </trkpt>
      <trkpt lat="44.01349" lon="6.67474">
        <ele>1471</ele>
        <time>2017-11-01T12:10:07Z</time>
      </trkpt>
      <trkpt lat="44.01353" lon="6.67465">
        <ele>1470</ele>
        <time>2017-11-01T12:10:09Z</time>
      </trkpt>
      <trkpt lat="44.01355" lon="6.67457">
        <ele>1469</ele>
        <time>2017-11-01T12:10:11Z</time>
      </trkpt>
      <trkpt lat="44.01363" lon="6.6745">
        <ele>1467</ele>
        <time>2017-11-01T12:10:13Z</time>
      </trkpt>
      <trkpt lat="44.01368" lon="6.67442">
        <ele>1466</ele>
        <time>2017-11-01T12:10:15Z</time>
      </trkpt>
      <trkpt lat="44.01367" lon="6.67434">
        <ele>1464</ele>
        <time>2017-11-01T12:10:16Z</time>
      </trkpt>
      <trkpt lat="44.01369" lon="6.67428">
        <ele>1462</ele>
        <time>2017-11-01T12:10:17Z</time>
      </trkpt>
      <trkpt lat="44.01374" lon="6.67424">
        <ele>1461</ele>
        <time>2017-11-01T12:10:18Z</time>
      </trkpt>
      <trkpt lat="44.01376" lon="6.67418">
        <ele>1460</ele>
        <time>2017-11-01T12:10:19Z</time>
      </trkpt>
      <trkpt lat="44.0138" lon="6.67414">
        <ele>1460</ele>
        <time>2017-11-01T12:10:20Z</time>
      </trkpt>
      <trkpt lat="44.01391" lon="6.67409">
        <ele>1459</ele>
        <time>2017-11-01T12:10:22Z</time>
      </trkpt>
      <trkpt lat="44.01394" lon="6.67402">
        <ele>1458</ele>
        <time>2017-11-01T12:10:23Z</time>
      </trkpt>
      <trkpt lat="44.01395" lon="6.67395">
        <ele>1457</ele>
        <time>2017-11-01T12:10:25Z</time>
      </trkpt>
      <trkpt lat="44.01396" lon="6.67387">
        <ele>1456</ele>
        <time>2017-11-01T12:10:26Z</time>
      </trkpt>
      <trkpt lat="44.01398" lon="6.67379">
        <ele>1455</ele>
        <time>2017-11-01T12:10:27Z</time>
      </trkpt>
      <trkpt lat="44.01402" lon="6.67374">
        <ele>1453</ele>
        <time>2017-11-01T12:10:29Z</time>
      </trkpt>
      <trkpt lat="44.01401" lon="6.67366">
        <ele>1451</ele>
        <time>2017-11-01T12:10:32Z</time>
      </trkpt>
      <trkpt lat="44.01403" lon="6.67359">
        <ele>1451</ele>
        <time>2017-11-01T12:10:34Z</time>
      </trkpt>
      <trkpt lat="44.01399" lon="6.67349">
        <ele>1450</ele>
        <time>2017-11-01T12:10:36Z</time>
      </trkpt>
      <trkpt lat="44.01395" lon="6.67344">
        <ele>1449</ele>
        <time>2017-11-01T12:10:37Z</time>
      </trkpt>
      <trkpt lat="44.0139" lon="6.67339">
        <ele>1449</ele>
        <time>2017-11-01T12:10:38Z</time>
      </trkpt>
      <trkpt lat="44.01383" lon="6.6733">
        <ele>1449</ele>
        <time>2017-11-01T12:10:40Z</time>
      </trkpt>
      <trkpt lat="44.01376" lon="6.67323">
        <ele>1449</ele>
        <time>2017-11-01T12:10:42Z</time>
      </trkpt>
      <trkpt lat="44.01376" lon="6.67314">
        <ele>1449</ele>
        <time>2017-11-01T12:10:45Z</time>
      </trkpt>
      <trkpt lat="44.01373" lon="6.67307">
        <ele>1449</ele>
        <time>2017-11-01T12:10:48Z</time>
      </trkpt>
      <trkpt lat="44.01371" lon="6.67294">
        <ele>1449</ele>
        <time>2017-11-01T12:10:50Z</time>
      </trkpt>
      <trkpt lat="44.01366" lon="6.67284">
        <ele>1449</ele>
        <time>2017-11-01T12:10:51Z</time>
      </trkpt>
      <trkpt lat="44.01363" lon="6.67274">
        <ele>1449</ele>
        <time>2017-11-01T12:10:53Z</time>
      </trkpt>
      <trkpt lat="44.0136" lon="6.67262">
        <ele>1449</ele>
        <time>2017-11-01T12:10:55Z</time>
      </trkpt>
      <trkpt lat="44.01363" lon="6.67257">
        <ele>1449</ele>
        <time>2017-11-01T12:10:56Z</time>
      </trkpt>
      <trkpt lat="44.01359" lon="6.67251">
        <ele>1449</ele>
        <time>2017-11-01T12:10:57Z</time>
      </trkpt>
      <trkpt lat="44.01357" lon="6.6724">
        <ele>1449</ele>
        <time>2017-11-01T12:10:58Z</time>
      </trkpt>
      <trkpt lat="44.01357" lon="6.6723">
        <ele>1449</ele>
        <time>2017-11-01T12:10:59Z</time>
      </trkpt>
      <trkpt lat="44.01354" lon="6.67218">
        <ele>1448</ele>
        <time>2017-11-01T12:11:01Z</time>
      </trkpt>
      <trkpt lat="44.01353" lon="6.67208">
        <ele>1448</ele>
        <time>2017-11-01T12:11:02Z</time>
      </trkpt>
      <trkpt lat="44.01352" lon="6.67201">
        <ele>1448</ele>
        <time>2017-11-01T12:11:03Z</time>
      </trkpt>
      <trkpt lat="44.01352" lon="6.67192">
        <ele>1448</ele>
        <time>2017-11-01T12:11:05Z</time>
      </trkpt>
      <trkpt lat="44.01352" lon="6.67179">
        <ele>1447</ele>
        <time>2017-11-01T12:11:07Z</time>
      </trkpt>
      <trkpt lat="44.01351" lon="6.67172">
        <ele>1446</ele>
        <time>2017-11-01T12:11:08Z</time>
      </trkpt>
      <trkpt lat="44.01353" lon="6.67162">
        <ele>1445</ele>
        <time>2017-11-01T12:11:10Z</time>
      </trkpt>
      <trkpt lat="44.01351" lon="6.67146">
        <ele>1444</ele>
        <time>2017-11-01T12:11:12Z</time>
      </trkpt>
      <trkpt lat="44.01358" lon="6.67151">
        <ele>1442</ele>
        <time>2017-11-01T12:11:13Z</time>
      </trkpt>
      <trkpt lat="44.01358" lon="6.67141">
        <ele>1440</ele>
        <time>2017-11-01T12:11:14Z</time>
      </trkpt>
      <trkpt lat="44.01363" lon="6.67145">
        <ele>1438</ele>
        <time>2017-11-01T12:11:18Z</time>
      </trkpt>
      <trkpt lat="44.01361" lon="6.67137">
        <ele>1437</ele>
        <time>2017-11-01T12:11:25Z</time>
      </trkpt>
      <trkpt lat="44.01359" lon="6.67136">
        <ele>1437</ele>
        <time>2017-11-01T12:11:47Z</time>
      </trkpt>
      <trkpt lat="44.01359" lon="6.67136">
        <ele>1437</ele>
        <time>2017-11-01T12:11:50Z</time>
      </trkpt>
      <trkpt lat="44.01359" lon="6.67137">
        <ele>1438</ele>
        <time>2017-11-01T12:12:17Z</time>
      </trkpt>
      <trkpt lat="44.01359" lon="6.67137">
        <ele>1439</ele>
        <time>2017-11-01T12:12:20Z</time>
      </trkpt>
      <trkpt lat="44.01355" lon="6.67129">
        <ele>1440</ele>
        <time>2017-11-01T12:12:25Z</time>
      </trkpt>
      <trkpt lat="44.01358" lon="6.67115">
        <ele>1440</ele>
        <time>2017-11-01T12:12:26Z</time>
      </trkpt>
      <trkpt lat="44.01363" lon="6.6711">
        <ele>1437</ele>
        <time>2017-11-01T12:12:29Z</time>
      </trkpt>
      <trkpt lat="44.01366" lon="6.67103">
        <ele>1434</ele>
        <time>2017-11-01T12:12:32Z</time>
      </trkpt>
      <trkpt lat="44.01362" lon="6.67099">
        <ele>1431</ele>
        <time>2017-11-01T12:12:35Z</time>
      </trkpt>
      <trkpt lat="44.01358" lon="6.67104">
        <ele>1427</ele>
        <time>2017-11-01T12:12:40Z</time>
      </trkpt>
      <trkpt lat="44.01352" lon="6.67102">
        <ele>1424</ele>
        <time>2017-11-01T12:12:45Z</time>
      </trkpt>
      <trkpt lat="44.01355" lon="6.67096">
        <ele>1422</ele>
        <time>2017-11-01T12:12:50Z</time>
      </trkpt>
      <trkpt lat="44.01348" lon="6.67096">
        <ele>1420</ele>
        <time>2017-11-01T12:13:06Z</time>
      </trkpt>
      <trkpt lat="44.01341" lon="6.67099">
        <ele>1419</ele>
        <time>2017-11-01T12:13:08Z</time>
      </trkpt>
      <trkpt lat="44.01336" lon="6.67098">
        <ele>1419</ele>
        <time>2017-11-01T12:13:10Z</time>
      </trkpt>
      <trkpt lat="44.01331" lon="6.67104">
        <ele>1420</ele>
        <time>2017-11-01T12:13:26Z</time>
      </trkpt>
      <trkpt lat="44.01328" lon="6.67109">
        <ele>1420</ele>
        <time>2017-11-01T12:13:28Z</time>
      </trkpt>
      <trkpt lat="44.01325" lon="6.67115">
        <ele>1421</ele>
        <time>2017-11-01T12:13:29Z</time>
      </trkpt>
      <trkpt lat="44.01318" lon="6.67123">
        <ele>1421</ele>
        <time>2017-11-01T12:13:31Z</time>
      </trkpt>
      <trkpt lat="44.0132" lon="6.67131">
        <ele>1419</ele>
        <time>2017-11-01T12:13:32Z</time>
      </trkpt>
      <trkpt lat="44.01318" lon="6.6714">
        <ele>1416</ele>
        <time>2017-11-01T12:13:34Z</time>
      </trkpt>
      <trkpt lat="44.01318" lon="6.67149">
        <ele>1413</ele>
        <time>2017-11-01T12:13:36Z</time>
      </trkpt>
      <trkpt lat="44.01315" lon="6.67156">
        <ele>1410</ele>
        <time>2017-11-01T12:13:38Z</time>
      </trkpt>
      <trkpt lat="44.01314" lon="6.67166">
        <ele>1408</ele>
        <time>2017-11-01T12:13:40Z</time>
      </trkpt>
      <trkpt lat="44.01313" lon="6.67173">
        <ele>1408</ele>
        <time>2017-11-01T12:13:42Z</time>
      </trkpt>
      <trkpt lat="44.01311" lon="6.67178">
        <ele>1408</ele>
        <time>2017-11-01T12:13:47Z</time>
      </trkpt>
      <trkpt lat="44.01311" lon="6.67178">
        <ele>1409</ele>
        <time>2017-11-01T12:14:02Z</time>
      </trkpt>
      <trkpt lat="44.01311" lon="6.67178">
        <ele>1409</ele>
        <time>2017-11-01T12:14:05Z</time>
      </trkpt>
      <trkpt lat="44.01311" lon="6.6718">
        <ele>1410</ele>
        <time>2017-11-01T12:14:32Z</time>
      </trkpt>
      <trkpt lat="44.01305" lon="6.67175">
        <ele>1411</ele>
        <time>2017-11-01T12:14:36Z</time>
      </trkpt>
      <trkpt lat="44.01304" lon="6.67192">
        <ele>1411</ele>
        <time>2017-11-01T12:14:37Z</time>
      </trkpt>
      <trkpt lat="44.01305" lon="6.672">
        <ele>1412</ele>
        <time>2017-11-01T12:14:38Z</time>
      </trkpt>
      <trkpt lat="44.01299" lon="6.67199">
        <ele>1413</ele>
        <time>2017-11-01T12:14:39Z</time>
      </trkpt>
      <trkpt lat="44.01294" lon="6.67202">
        <ele>1413</ele>
        <time>2017-11-01T12:14:41Z</time>
      </trkpt>
      <trkpt lat="44.01288" lon="6.67201">
        <ele>1413</ele>
        <time>2017-11-01T12:14:44Z</time>
      </trkpt>
      <trkpt lat="44.01282" lon="6.67201">
        <ele>1412</ele>
        <time>2017-11-01T12:14:47Z</time>
      </trkpt>
      <trkpt lat="44.01275" lon="6.67199">
        <ele>1411</ele>
        <time>2017-11-01T12:14:50Z</time>
      </trkpt>
      <trkpt lat="44.0127" lon="6.67198">
        <ele>1410</ele>
        <time>2017-11-01T12:14:52Z</time>
      </trkpt>
      <trkpt lat="44.01265" lon="6.67199">
        <ele>1410</ele>
        <time>2017-11-01T12:14:54Z</time>
      </trkpt>
      <trkpt lat="44.01257" lon="6.67199">
        <ele>1411</ele>
        <time>2017-11-01T12:14:57Z</time>
      </trkpt>
      <trkpt lat="44.01249" lon="6.67199">
        <ele>1411</ele>
        <time>2017-11-01T12:14:59Z</time>
      </trkpt>
      <trkpt lat="44.01242" lon="6.67201">
        <ele>1411</ele>
        <time>2017-11-01T12:15:01Z</time>
      </trkpt>
      <trkpt lat="44.01237" lon="6.67202">
        <ele>1411</ele>
        <time>2017-11-01T12:15:02Z</time>
      </trkpt>
      <trkpt lat="44.0123" lon="6.67203">
        <ele>1409</ele>
        <time>2017-11-01T12:15:04Z</time>
      </trkpt>
      <trkpt lat="44.01223" lon="6.67198">
        <ele>1408</ele>
        <time>2017-11-01T12:15:07Z</time>
      </trkpt>
      <trkpt lat="44.01218" lon="6.67198">
        <ele>1406</ele>
        <time>2017-11-01T12:15:09Z</time>
      </trkpt>
      <trkpt lat="44.01211" lon="6.672">
        <ele>1404</ele>
        <time>2017-11-01T12:15:11Z</time>
      </trkpt>
      <trkpt lat="44.01206" lon="6.67199">
        <ele>1402</ele>
        <time>2017-11-01T12:15:13Z</time>
      </trkpt>
      <trkpt lat="44.01199" lon="6.67197">
        <ele>1401</ele>
        <time>2017-11-01T12:15:15Z</time>
      </trkpt>
      <trkpt lat="44.01193" lon="6.67196">
        <ele>1401</ele>
        <time>2017-11-01T12:15:17Z</time>
      </trkpt>
      <trkpt lat="44.01188" lon="6.67193">
        <ele>1401</ele>
        <time>2017-11-01T12:15:18Z</time>
      </trkpt>
      <trkpt lat="44.01183" lon="6.67188">
        <ele>1401</ele>
        <time>2017-11-01T12:15:20Z</time>
      </trkpt>
      <trkpt lat="44.01179" lon="6.67185">
        <ele>1402</ele>
        <time>2017-11-01T12:15:21Z</time>
      </trkpt>
      <trkpt lat="44.01173" lon="6.67179">
        <ele>1403</ele>
        <time>2017-11-01T12:15:23Z</time>
      </trkpt>
      <trkpt lat="44.01167" lon="6.67172">
        <ele>1405</ele>
        <time>2017-11-01T12:15:25Z</time>
      </trkpt>
      <trkpt lat="44.01163" lon="6.67164">
        <ele>1406</ele>
        <time>2017-11-01T12:15:27Z</time>
      </trkpt>
      <trkpt lat="44.01158" lon="6.67158">
        <ele>1407</ele>
        <time>2017-11-01T12:15:29Z</time>
      </trkpt>
      <trkpt lat="44.01153" lon="6.67153">
        <ele>1409</ele>
        <time>2017-11-01T12:15:31Z</time>
      </trkpt>
      <trkpt lat="44.01149" lon="6.67151">
        <ele>1409</ele>
        <time>2017-11-01T12:15:33Z</time>
      </trkpt>
      <trkpt lat="44.01143" lon="6.67146">
        <ele>1410</ele>
        <time>2017-11-01T12:15:36Z</time>
      </trkpt>
      <trkpt lat="44.01138" lon="6.67142">
        <ele>1410</ele>
        <time>2017-11-01T12:15:39Z</time>
      </trkpt>
      <trkpt lat="44.01133" lon="6.67139">
        <ele>1410</ele>
        <time>2017-11-01T12:15:41Z</time>
      </trkpt>
      <trkpt lat="44.01128" lon="6.67137">
        <ele>1410</ele>
        <time>2017-11-01T12:15:43Z</time>
      </trkpt>
      <trkpt lat="44.01123" lon="6.67136">
        <ele>1410</ele>
        <time>2017-11-01T12:15:46Z</time>
      </trkpt>
      <trkpt lat="44.01118" lon="6.6714">
        <ele>1410</ele>
        <time>2017-11-01T12:15:49Z</time>
      </trkpt>
      <trkpt lat="44.01113" lon="6.67142">
        <ele>1410</ele>
        <time>2017-11-01T12:15:51Z</time>
      </trkpt>
      <trkpt lat="44.01107" lon="6.67144">
        <ele>1410</ele>
        <time>2017-11-01T12:15:53Z</time>
      </trkpt>
      <trkpt lat="44.01102" lon="6.67146">
        <ele>1410</ele>
        <time>2017-11-01T12:15:55Z</time>
      </trkpt>
      <trkpt lat="44.01096" lon="6.67151">
        <ele>1409</ele>
        <time>2017-11-01T12:15:58Z</time>
      </trkpt>
      <trkpt lat="44.01091" lon="6.67158">
        <ele>1409</ele>
        <time>2017-11-01T12:16:00Z</time>
      </trkpt>
      <trkpt lat="44.01085" lon="6.67165">
        <ele>1409</ele>
        <time>2017-11-01T12:16:02Z</time>
      </trkpt>
      <trkpt lat="44.0108" lon="6.67165">
        <ele>1410</ele>
        <time>2017-11-01T12:16:03Z</time>
      </trkpt>
      <trkpt lat="44.01072" lon="6.67167">
        <ele>1410</ele>
        <time>2017-11-01T12:16:05Z</time>
      </trkpt>
      <trkpt lat="44.01063" lon="6.67167">
        <ele>1411</ele>
        <time>2017-11-01T12:16:07Z</time>
      </trkpt>
      <trkpt lat="44.01058" lon="6.67167">
        <ele>1412</ele>
        <time>2017-11-01T12:16:08Z</time>
      </trkpt>
      <trkpt lat="44.01052" lon="6.67167">
        <ele>1414</ele>
        <time>2017-11-01T12:16:09Z</time>
      </trkpt>
      <trkpt lat="44.01048" lon="6.67165">
        <ele>1414</ele>
        <time>2017-11-01T12:16:10Z</time>
      </trkpt>
      <trkpt lat="44.01043" lon="6.67164">
        <ele>1414</ele>
        <time>2017-11-01T12:16:11Z</time>
      </trkpt>
      <trkpt lat="44.01038" lon="6.67163">
        <ele>1414</ele>
        <time>2017-11-01T12:16:12Z</time>
      </trkpt>
      <trkpt lat="44.0103" lon="6.67163">
        <ele>1413</ele>
        <time>2017-11-01T12:16:14Z</time>
      </trkpt>
      <trkpt lat="44.01023" lon="6.67161">
        <ele>1412</ele>
        <time>2017-11-01T12:16:16Z</time>
      </trkpt>
      <trkpt lat="44.01014" lon="6.67156">
        <ele>1410</ele>
        <time>2017-11-01T12:16:18Z</time>
      </trkpt>
      <trkpt lat="44.01009" lon="6.67154">
        <ele>1409</ele>
        <time>2017-11-01T12:16:19Z</time>
      </trkpt>
      <trkpt lat="44.01003" lon="6.67153">
        <ele>1408</ele>
        <time>2017-11-01T12:16:20Z</time>
      </trkpt>
      <trkpt lat="44.00999" lon="6.67152">
        <ele>1407</ele>
        <time>2017-11-01T12:16:21Z</time>
      </trkpt>
      <trkpt lat="44.00993" lon="6.67149">
        <ele>1407</ele>
        <time>2017-11-01T12:16:22Z</time>
      </trkpt>
      <trkpt lat="44.00988" lon="6.67148">
        <ele>1406</ele>
        <time>2017-11-01T12:16:23Z</time>
      </trkpt>
      <trkpt lat="44.0098" lon="6.67145">
        <ele>1406</ele>
        <time>2017-11-01T12:16:25Z</time>
      </trkpt>
      <trkpt lat="44.00976" lon="6.67141">
        <ele>1406</ele>
        <time>2017-11-01T12:16:26Z</time>
      </trkpt>
      <trkpt lat="44.00969" lon="6.67136">
        <ele>1406</ele>
        <time>2017-11-01T12:16:28Z</time>
      </trkpt>
      <trkpt lat="44.00965" lon="6.67132">
        <ele>1405</ele>
        <time>2017-11-01T12:16:29Z</time>
      </trkpt>
      <trkpt lat="44.0096" lon="6.67131">
        <ele>1404</ele>
        <time>2017-11-01T12:16:31Z</time>
      </trkpt>
      <trkpt lat="44.00955" lon="6.67127">
        <ele>1403</ele>
        <time>2017-11-01T12:16:33Z</time>
      </trkpt>
      <trkpt lat="44.00949" lon="6.6712">
        <ele>1401</ele>
        <time>2017-11-01T12:16:35Z</time>
      </trkpt>
      <trkpt lat="44.00945" lon="6.67117">
        <ele>1400</ele>
        <time>2017-11-01T12:16:36Z</time>
      </trkpt>
      <trkpt lat="44.0094" lon="6.67113">
        <ele>1399</ele>
        <time>2017-11-01T12:16:37Z</time>
      </trkpt>
      <trkpt lat="44.00932" lon="6.67107">
        <ele>1398</ele>
        <time>2017-11-01T12:16:39Z</time>
      </trkpt>
      <trkpt lat="44.00927" lon="6.67106">
        <ele>1397</ele>
        <time>2017-11-01T12:16:40Z</time>
      </trkpt>
      <trkpt lat="44.00919" lon="6.67105">
        <ele>1397</ele>
        <time>2017-11-01T12:16:42Z</time>
      </trkpt>
      <trkpt lat="44.00914" lon="6.67102">
        <ele>1397</ele>
        <time>2017-11-01T12:16:43Z</time>
      </trkpt>
      <trkpt lat="44.00908" lon="6.67102">
        <ele>1396</ele>
        <time>2017-11-01T12:16:44Z</time>
      </trkpt>
      <trkpt lat="44.00903" lon="6.671">
        <ele>1397</ele>
        <time>2017-11-01T12:16:45Z</time>
      </trkpt>
      <trkpt lat="44.00897" lon="6.67098">
        <ele>1396</ele>
        <time>2017-11-01T12:16:46Z</time>
      </trkpt>
      <trkpt lat="44.00892" lon="6.67098">
        <ele>1396</ele>
        <time>2017-11-01T12:16:47Z</time>
      </trkpt>
      <trkpt lat="44.00884" lon="6.67096">
        <ele>1396</ele>
        <time>2017-11-01T12:16:49Z</time>
      </trkpt>
      <trkpt lat="44.00878" lon="6.67093">
        <ele>1396</ele>
        <time>2017-11-01T12:16:50Z</time>
      </trkpt>
      <trkpt lat="44.00868" lon="6.67091">
        <ele>1395</ele>
        <time>2017-11-01T12:16:52Z</time>
      </trkpt>
      <trkpt lat="44.00862" lon="6.67089">
        <ele>1395</ele>
        <time>2017-11-01T12:16:53Z</time>
      </trkpt>
      <trkpt lat="44.00857" lon="6.67089">
        <ele>1395</ele>
        <time>2017-11-01T12:16:54Z</time>
      </trkpt>
      <trkpt lat="44.0085" lon="6.67089">
        <ele>1394</ele>
        <time>2017-11-01T12:16:55Z</time>
      </trkpt>
      <trkpt lat="44.00846" lon="6.67086">
        <ele>1394</ele>
        <time>2017-11-01T12:16:56Z</time>
      </trkpt>
      <trkpt lat="44.00841" lon="6.67085">
        <ele>1394</ele>
        <time>2017-11-01T12:16:57Z</time>
      </trkpt>
      <trkpt lat="44.00836" lon="6.67085">
        <ele>1394</ele>
        <time>2017-11-01T12:16:58Z</time>
      </trkpt>
      <trkpt lat="44.00831" lon="6.67084">
        <ele>1393</ele>
        <time>2017-11-01T12:16:59Z</time>
      </trkpt>
      <trkpt lat="44.00827" lon="6.67085">
        <ele>1393</ele>
        <time>2017-11-01T12:17:00Z</time>
      </trkpt>
      <trkpt lat="44.00822" lon="6.67086">
        <ele>1393</ele>
        <time>2017-11-01T12:17:01Z</time>
      </trkpt>
      <trkpt lat="44.00816" lon="6.67088">
        <ele>1392</ele>
        <time>2017-11-01T12:17:02Z</time>
      </trkpt>
      <trkpt lat="44.00811" lon="6.6709">
        <ele>1392</ele>
        <time>2017-11-01T12:17:03Z</time>
      </trkpt>
      <trkpt lat="44.00807" lon="6.67095">
        <ele>1391</ele>
        <time>2017-11-01T12:17:04Z</time>
      </trkpt>
      <trkpt lat="44.00806" lon="6.67103">
        <ele>1391</ele>
        <time>2017-11-01T12:17:06Z</time>
      </trkpt>
      <trkpt lat="44.00803" lon="6.6711">
        <ele>1390</ele>
        <time>2017-11-01T12:17:08Z</time>
      </trkpt>
      <trkpt lat="44.00801" lon="6.67116">
        <ele>1390</ele>
        <time>2017-11-01T12:17:10Z</time>
      </trkpt>
      <trkpt lat="44.00798" lon="6.67123">
        <ele>1390</ele>
        <time>2017-11-01T12:17:12Z</time>
      </trkpt>
      <trkpt lat="44.00797" lon="6.6713">
        <ele>1390</ele>
        <time>2017-11-01T12:17:14Z</time>
      </trkpt>
      <trkpt lat="44.00795" lon="6.67136">
        <ele>1391</ele>
        <time>2017-11-01T12:17:16Z</time>
      </trkpt>
      <trkpt lat="44.00792" lon="6.67143">
        <ele>1391</ele>
        <time>2017-11-01T12:17:18Z</time>
      </trkpt>
      <trkpt lat="44.00789" lon="6.67152">
        <ele>1391</ele>
        <time>2017-11-01T12:17:20Z</time>
      </trkpt>
      <trkpt lat="44.0079" lon="6.67162">
        <ele>1392</ele>
        <time>2017-11-01T12:17:22Z</time>
      </trkpt>
      <trkpt lat="44.00789" lon="6.67172">
        <ele>1391</ele>
        <time>2017-11-01T12:17:24Z</time>
      </trkpt>
      <trkpt lat="44.00786" lon="6.67179">
        <ele>1391</ele>
        <time>2017-11-01T12:17:26Z</time>
      </trkpt>
      <trkpt lat="44.00782" lon="6.67188">
        <ele>1390</ele>
        <time>2017-11-01T12:17:28Z</time>
      </trkpt>
      <trkpt lat="44.00777" lon="6.67195">
        <ele>1390</ele>
        <time>2017-11-01T12:17:30Z</time>
      </trkpt>
      <trkpt lat="44.00774" lon="6.67202">
        <ele>1390</ele>
        <time>2017-11-01T12:17:32Z</time>
      </trkpt>
      <trkpt lat="44.0077" lon="6.67205">
        <ele>1389</ele>
        <time>2017-11-01T12:17:34Z</time>
      </trkpt>
      <trkpt lat="44.00763" lon="6.67204">
        <ele>1388</ele>
        <time>2017-11-01T12:17:36Z</time>
      </trkpt>
      <trkpt lat="44.00755" lon="6.67202">
        <ele>1387</ele>
        <time>2017-11-01T12:17:38Z</time>
      </trkpt>
      <trkpt lat="44.00751" lon="6.67199">
        <ele>1385</ele>
        <time>2017-11-01T12:17:40Z</time>
      </trkpt>
      <trkpt lat="44.00746" lon="6.672">
        <ele>1384</ele>
        <time>2017-11-01T12:17:43Z</time>
      </trkpt>
      <trkpt lat="44.00741" lon="6.67197">
        <ele>1382</ele>
        <time>2017-11-01T12:17:50Z</time>
      </trkpt>
      <trkpt lat="44.00734" lon="6.67194">
        <ele>1380</ele>
        <time>2017-11-01T12:17:53Z</time>
      </trkpt>
      <trkpt lat="44.00727" lon="6.67191">
        <ele>1379</ele>
        <time>2017-11-01T12:17:55Z</time>
      </trkpt>
      <trkpt lat="44.00722" lon="6.67187">
        <ele>1377</ele>
        <time>2017-11-01T12:17:56Z</time>
      </trkpt>
      <trkpt lat="44.00718" lon="6.67184">
        <ele>1376</ele>
        <time>2017-11-01T12:17:57Z</time>
      </trkpt>
      <trkpt lat="44.00715" lon="6.67178">
        <ele>1375</ele>
        <time>2017-11-01T12:18:13Z</time>
      </trkpt>
      <trkpt lat="44.00709" lon="6.67176">
        <ele>1374</ele>
        <time>2017-11-01T12:18:16Z</time>
      </trkpt>
      <trkpt lat="44.00704" lon="6.67176">
        <ele>1374</ele>
        <time>2017-11-01T12:18:18Z</time>
      </trkpt>
      <trkpt lat="44.00696" lon="6.67179">
        <ele>1373</ele>
        <time>2017-11-01T12:18:20Z</time>
      </trkpt>
      <trkpt lat="44.00691" lon="6.67182">
        <ele>1372</ele>
        <time>2017-11-01T12:18:21Z</time>
      </trkpt>
      <trkpt lat="44.00686" lon="6.67185">
        <ele>1372</ele>
        <time>2017-11-01T12:18:22Z</time>
      </trkpt>
      <trkpt lat="44.00681" lon="6.67188">
        <ele>1371</ele>
        <time>2017-11-01T12:18:23Z</time>
      </trkpt>
      <trkpt lat="44.00676" lon="6.67192">
        <ele>1371</ele>
        <time>2017-11-01T12:18:24Z</time>
      </trkpt>
      <trkpt lat="44.00672" lon="6.67196">
        <ele>1371</ele>
        <time>2017-11-01T12:18:25Z</time>
      </trkpt>
      <trkpt lat="44.00667" lon="6.67197">
        <ele>1371</ele>
        <time>2017-11-01T12:18:26Z</time>
      </trkpt>
      <trkpt lat="44.00662" lon="6.67196">
        <ele>1371</ele>
        <time>2017-11-01T12:18:27Z</time>
      </trkpt>
      <trkpt lat="44.00654" lon="6.67195">
        <ele>1371</ele>
        <time>2017-11-01T12:18:29Z</time>
      </trkpt>
      <trkpt lat="44.00646" lon="6.67194">
        <ele>1370</ele>
        <time>2017-11-01T12:18:31Z</time>
      </trkpt>
      <trkpt lat="44.00641" lon="6.67193">
        <ele>1370</ele>
        <time>2017-11-01T12:18:32Z</time>
      </trkpt>
      <trkpt lat="44.00634" lon="6.67194">
        <ele>1369</ele>
        <time>2017-11-01T12:18:33Z</time>
      </trkpt>
      <trkpt lat="44.00629" lon="6.67196">
        <ele>1368</ele>
        <time>2017-11-01T12:18:34Z</time>
      </trkpt>
      <trkpt lat="44.00623" lon="6.67199">
        <ele>1367</ele>
        <time>2017-11-01T12:18:35Z</time>
      </trkpt>
      <trkpt lat="44.00618" lon="6.67203">
        <ele>1367</ele>
        <time>2017-11-01T12:18:36Z</time>
      </trkpt>
      <trkpt lat="44.00613" lon="6.67206">
        <ele>1366</ele>
        <time>2017-11-01T12:18:37Z</time>
      </trkpt>
      <trkpt lat="44.0061" lon="6.67211">
        <ele>1366</ele>
        <time>2017-11-01T12:18:38Z</time>
      </trkpt>
      <trkpt lat="44.00605" lon="6.67218">
        <ele>1366</ele>
        <time>2017-11-01T12:18:40Z</time>
      </trkpt>
      <trkpt lat="44.006" lon="6.67227">
        <ele>1366</ele>
        <time>2017-11-01T12:18:42Z</time>
      </trkpt>
      <trkpt lat="44.00596" lon="6.67229">
        <ele>1367</ele>
        <time>2017-11-01T12:18:44Z</time>
      </trkpt>
      <trkpt lat="44.00591" lon="6.6723">
        <ele>1367</ele>
        <time>2017-11-01T12:18:59Z</time>
      </trkpt>
      <trkpt lat="44.00586" lon="6.6723">
        <ele>1366</ele>
        <time>2017-11-01T12:19:01Z</time>
      </trkpt>
      <trkpt lat="44.00581" lon="6.67229">
        <ele>1366</ele>
        <time>2017-11-01T12:19:03Z</time>
      </trkpt>
      <trkpt lat="44.00576" lon="6.6723">
        <ele>1365</ele>
        <time>2017-11-01T12:19:06Z</time>
      </trkpt>
      <trkpt lat="44.00571" lon="6.6723">
        <ele>1364</ele>
        <time>2017-11-01T12:19:09Z</time>
      </trkpt>
      <trkpt lat="44.00569" lon="6.67235">
        <ele>1363</ele>
        <time>2017-11-01T12:19:32Z</time>
      </trkpt>
      <trkpt lat="44.00569" lon="6.67235">
        <ele>1362</ele>
        <time>2017-11-01T12:19:34Z</time>
      </trkpt>
      <trkpt lat="44.00569" lon="6.67236">
        <ele>1361</ele>
        <time>2017-11-01T12:20:02Z</time>
      </trkpt>
      <trkpt lat="44.00569" lon="6.67236">
        <ele>1361</ele>
        <time>2017-11-01T12:20:04Z</time>
      </trkpt>
      <trkpt lat="44.00567" lon="6.67235">
        <ele>1361</ele>
        <time>2017-11-01T12:20:32Z</time>
      </trkpt>
      <trkpt lat="44.00567" lon="6.67235">
        <ele>1361</ele>
        <time>2017-11-01T12:20:34Z</time>
      </trkpt>
      <trkpt lat="44.00561" lon="6.67242">
        <ele>1360</ele>
        <time>2017-11-01T12:20:43Z</time>
      </trkpt>
      <trkpt lat="44.00555" lon="6.67243">
        <ele>1359</ele>
        <time>2017-11-01T12:20:45Z</time>
      </trkpt>
      <trkpt lat="44.00549" lon="6.67242">
        <ele>1359</ele>
        <time>2017-11-01T12:20:48Z</time>
      </trkpt>
      <trkpt lat="44.00544" lon="6.67242">
        <ele>1359</ele>
        <time>2017-11-01T12:20:52Z</time>
      </trkpt>
      <trkpt lat="44.00538" lon="6.67239">
        <ele>1358</ele>
        <time>2017-11-01T12:21:09Z</time>
      </trkpt>
      <trkpt lat="44.00531" lon="6.67238">
        <ele>1358</ele>
        <time>2017-11-01T12:21:11Z</time>
      </trkpt>
      <trkpt lat="44.00521" lon="6.67238">
        <ele>1358</ele>
        <time>2017-11-01T12:21:13Z</time>
      </trkpt>
      <trkpt lat="44.00514" lon="6.67239">
        <ele>1358</ele>
        <time>2017-11-01T12:21:14Z</time>
      </trkpt>
      <trkpt lat="44.00506" lon="6.67243">
        <ele>1357</ele>
        <time>2017-11-01T12:21:16Z</time>
      </trkpt>
      <trkpt lat="44.00498" lon="6.67246">
        <ele>1356</ele>
        <time>2017-11-01T12:21:18Z</time>
      </trkpt>
      <trkpt lat="44.00493" lon="6.67247">
        <ele>1354</ele>
        <time>2017-11-01T12:21:20Z</time>
      </trkpt>
      <trkpt lat="44.00488" lon="6.67247">
        <ele>1353</ele>
        <time>2017-11-01T12:21:21Z</time>
      </trkpt>
      <trkpt lat="44.00482" lon="6.67246">
        <ele>1352</ele>
        <time>2017-11-01T12:21:23Z</time>
      </trkpt>
      <trkpt lat="44.00477" lon="6.67248">
        <ele>1351</ele>
        <time>2017-11-01T12:21:26Z</time>
      </trkpt>
      <trkpt lat="44.00469" lon="6.67245">
        <ele>1349</ele>
        <time>2017-11-01T12:21:28Z</time>
      </trkpt>
      <trkpt lat="44.00462" lon="6.67242">
        <ele>1347</ele>
        <time>2017-11-01T12:21:30Z</time>
      </trkpt>
      <trkpt lat="44.00455" lon="6.67246">
        <ele>1345</ele>
        <time>2017-11-01T12:21:32Z</time>
      </trkpt>
      <trkpt lat="44.00447" lon="6.67251">
        <ele>1343</ele>
        <time>2017-11-01T12:21:34Z</time>
      </trkpt>
      <trkpt lat="44.0044" lon="6.67254">
        <ele>1342</ele>
        <time>2017-11-01T12:21:36Z</time>
      </trkpt>
      <trkpt lat="44.00436" lon="6.67257">
        <ele>1341</ele>
        <time>2017-11-01T12:21:37Z</time>
      </trkpt>
      <trkpt lat="44.00431" lon="6.67262">
        <ele>1340</ele>
        <time>2017-11-01T12:21:38Z</time>
      </trkpt>
      <trkpt lat="44.00427" lon="6.67265">
        <ele>1339</ele>
        <time>2017-11-01T12:21:39Z</time>
      </trkpt>
      <trkpt lat="44.00421" lon="6.67267">
        <ele>1339</ele>
        <time>2017-11-01T12:21:40Z</time>
      </trkpt>
      <trkpt lat="44.00413" lon="6.6727">
        <ele>1338</ele>
        <time>2017-11-01T12:21:42Z</time>
      </trkpt>
      <trkpt lat="44.00407" lon="6.67271">
        <ele>1338</ele>
        <time>2017-11-01T12:21:43Z</time>
      </trkpt>
      <trkpt lat="44.00399" lon="6.67273">
        <ele>1338</ele>
        <time>2017-11-01T12:21:45Z</time>
      </trkpt>
      <trkpt lat="44.00395" lon="6.67272">
        <ele>1338</ele>
        <time>2017-11-01T12:21:47Z</time>
      </trkpt>
      <trkpt lat="44.00389" lon="6.6727">
        <ele>1338</ele>
        <time>2017-11-01T12:21:49Z</time>
      </trkpt>
      <trkpt lat="44.00383" lon="6.6727">
        <ele>1338</ele>
        <time>2017-11-01T12:21:51Z</time>
      </trkpt>
      <trkpt lat="44.00377" lon="6.67271">
        <ele>1338</ele>
        <time>2017-11-01T12:21:54Z</time>
      </trkpt>
      <trkpt lat="44.0037" lon="6.67273">
        <ele>1337</ele>
        <time>2017-11-01T12:21:58Z</time>
      </trkpt>
      <trkpt lat="44.00365" lon="6.67273">
        <ele>1335</ele>
        <time>2017-11-01T12:22:00Z</time>
      </trkpt>
      <trkpt lat="44.00357" lon="6.67273">
        <ele>1333</ele>
        <time>2017-11-01T12:22:02Z</time>
      </trkpt>
      <trkpt lat="44.0035" lon="6.67273">
        <ele>1331</ele>
        <time>2017-11-01T12:22:04Z</time>
      </trkpt>
      <trkpt lat="44.00343" lon="6.67274">
        <ele>1330</ele>
        <time>2017-11-01T12:22:06Z</time>
      </trkpt>
      <trkpt lat="44.00337" lon="6.67275">
        <ele>1329</ele>
        <time>2017-11-01T12:22:08Z</time>
      </trkpt>
      <trkpt lat="44.00331" lon="6.67276">
        <ele>1329</ele>
        <time>2017-11-01T12:22:10Z</time>
      </trkpt>
      <trkpt lat="44.00324" lon="6.67276">
        <ele>1328</ele>
        <time>2017-11-01T12:22:12Z</time>
      </trkpt>
      <trkpt lat="44.00316" lon="6.67274">
        <ele>1327</ele>
        <time>2017-11-01T12:22:14Z</time>
      </trkpt>
      <trkpt lat="44.00309" lon="6.67271">
        <ele>1326</ele>
        <time>2017-11-01T12:22:16Z</time>
      </trkpt>
      <trkpt lat="44.00302" lon="6.67267">
        <ele>1324</ele>
        <time>2017-11-01T12:22:18Z</time>
      </trkpt>
      <trkpt lat="44.00297" lon="6.67264">
        <ele>1323</ele>
        <time>2017-11-01T12:22:20Z</time>
      </trkpt>
      <trkpt lat="44.00291" lon="6.67265">
        <ele>1322</ele>
        <time>2017-11-01T12:22:22Z</time>
      </trkpt>
      <trkpt lat="44.00283" lon="6.67268">
        <ele>1321</ele>
        <time>2017-11-01T12:22:24Z</time>
      </trkpt>
      <trkpt lat="44.00275" lon="6.67267">
        <ele>1320</ele>
        <time>2017-11-01T12:22:26Z</time>
      </trkpt>
      <trkpt lat="44.00267" lon="6.67269">
        <ele>1320</ele>
        <time>2017-11-01T12:22:28Z</time>
      </trkpt>
      <trkpt lat="44.00259" lon="6.6727">
        <ele>1320</ele>
        <time>2017-11-01T12:22:30Z</time>
      </trkpt>
      <trkpt lat="44.00254" lon="6.67268">
        <ele>1320</ele>
        <time>2017-11-01T12:22:31Z</time>
      </trkpt>
      <trkpt lat="44.00249" lon="6.67267">
        <ele>1320</ele>
        <time>2017-11-01T12:22:32Z</time>
      </trkpt>
      <trkpt lat="44.00243" lon="6.67268">
        <ele>1320</ele>
        <time>2017-11-01T12:22:33Z</time>
      </trkpt>
      <trkpt lat="44.00238" lon="6.6727">
        <ele>1319</ele>
        <time>2017-11-01T12:22:34Z</time>
      </trkpt>
      <trkpt lat="44.00232" lon="6.67272">
        <ele>1319</ele>
        <time>2017-11-01T12:22:35Z</time>
      </trkpt>
      <trkpt lat="44.00227" lon="6.67273">
        <ele>1318</ele>
        <time>2017-11-01T12:22:36Z</time>
      </trkpt>
      <trkpt lat="44.00222" lon="6.67274">
        <ele>1318</ele>
        <time>2017-11-01T12:22:37Z</time>
      </trkpt>
      <trkpt lat="44.00217" lon="6.67274">
        <ele>1318</ele>
        <time>2017-11-01T12:22:38Z</time>
      </trkpt>
      <trkpt lat="44.00212" lon="6.67273">
        <ele>1318</ele>
        <time>2017-11-01T12:22:39Z</time>
      </trkpt>
      <trkpt lat="44.00207" lon="6.67272">
        <ele>1317</ele>
        <time>2017-11-01T12:22:40Z</time>
      </trkpt>
      <trkpt lat="44.00202" lon="6.67272">
        <ele>1317</ele>
        <time>2017-11-01T12:22:41Z</time>
      </trkpt>
      <trkpt lat="44.00195" lon="6.67268">
        <ele>1316</ele>
        <time>2017-11-01T12:22:43Z</time>
      </trkpt>
      <trkpt lat="44.00188" lon="6.67267">
        <ele>1315</ele>
        <time>2017-11-01T12:22:45Z</time>
      </trkpt>
      <trkpt lat="44.00181" lon="6.67264">
        <ele>1313</ele>
        <time>2017-11-01T12:22:47Z</time>
      </trkpt>
      <trkpt lat="44.00177" lon="6.67263">
        <ele>1311</ele>
        <time>2017-11-01T12:22:49Z</time>
      </trkpt>
      <trkpt lat="44.0017" lon="6.67262">
        <ele>1309</ele>
        <time>2017-11-01T12:22:51Z</time>
      </trkpt>
      <trkpt lat="44.00164" lon="6.6726">
        <ele>1308</ele>
        <time>2017-11-01T12:22:53Z</time>
      </trkpt>
      <trkpt lat="44.00159" lon="6.67257">
        <ele>1305</ele>
        <time>2017-11-01T12:22:55Z</time>
      </trkpt>
      <trkpt lat="44.00153" lon="6.67255">
        <ele>1304</ele>
        <time>2017-11-01T12:22:57Z</time>
      </trkpt>
      <trkpt lat="44.00146" lon="6.67254">
        <ele>1303</ele>
        <time>2017-11-01T12:22:59Z</time>
      </trkpt>
      <trkpt lat="44.00138" lon="6.67254">
        <ele>1302</ele>
        <time>2017-11-01T12:23:01Z</time>
      </trkpt>
      <trkpt lat="44.00131" lon="6.67254">
        <ele>1302</ele>
        <time>2017-11-01T12:23:03Z</time>
      </trkpt>
      <trkpt lat="44.00123" lon="6.6725">
        <ele>1302</ele>
        <time>2017-11-01T12:23:05Z</time>
      </trkpt>
      <trkpt lat="44.00116" lon="6.6725">
        <ele>1301</ele>
        <time>2017-11-01T12:23:07Z</time>
      </trkpt>
      <trkpt lat="44.00108" lon="6.67246">
        <ele>1300</ele>
        <time>2017-11-01T12:23:09Z</time>
      </trkpt>
      <trkpt lat="44.00102" lon="6.67243">
        <ele>1299</ele>
        <time>2017-11-01T12:23:11Z</time>
      </trkpt>
      <trkpt lat="44.00097" lon="6.67241">
        <ele>1298</ele>
        <time>2017-11-01T12:23:13Z</time>
      </trkpt>
      <trkpt lat="44.00091" lon="6.6724">
        <ele>1297</ele>
        <time>2017-11-01T12:23:15Z</time>
      </trkpt>
      <trkpt lat="44.00089" lon="6.67238">
        <ele>1295</ele>
        <time>2017-11-01T12:23:32Z</time>
      </trkpt>
      <trkpt lat="44.0009" lon="6.67237">
        <ele>1294</ele>
        <time>2017-11-01T12:23:34Z</time>
      </trkpt>
      <trkpt lat="44.0009" lon="6.67237">
        <ele>1293</ele>
        <time>2017-11-01T12:24:02Z</time>
      </trkpt>
      <trkpt lat="44.0009" lon="6.67237">
        <ele>1293</ele>
        <time>2017-11-01T12:24:04Z</time>
      </trkpt>
      <trkpt lat="44.00089" lon="6.67237">
        <ele>1292</ele>
        <time>2017-11-01T12:24:32Z</time>
      </trkpt>
      <trkpt lat="44.00089" lon="6.67237">
        <ele>1292</ele>
        <time>2017-11-01T12:24:34Z</time>
      </trkpt>
      <trkpt lat="44.00083" lon="6.67235">
        <ele>1292</ele>
        <time>2017-11-01T12:24:58Z</time>
      </trkpt>
      <trkpt lat="44.00079" lon="6.67231">
        <ele>1292</ele>
        <time>2017-11-01T12:25:00Z</time>
      </trkpt>
      <trkpt lat="44.00075" lon="6.67227">
        <ele>1292</ele>
        <time>2017-11-01T12:25:02Z</time>
      </trkpt>
      <trkpt lat="44.00072" lon="6.67221">
        <ele>1292</ele>
        <time>2017-11-01T12:25:04Z</time>
      </trkpt>
      <trkpt lat="44.0007" lon="6.67214">
        <ele>1292</ele>
        <time>2017-11-01T12:25:07Z</time>
      </trkpt>
      <trkpt lat="44.00074" lon="6.67209">
        <ele>1290</ele>
        <time>2017-11-01T12:25:10Z</time>
      </trkpt>
      <trkpt lat="44.00079" lon="6.67206">
        <ele>1289</ele>
        <time>2017-11-01T12:25:13Z</time>
      </trkpt>
      <trkpt lat="44.00082" lon="6.67203">
        <ele>1288</ele>
        <time>2017-11-01T12:25:16Z</time>
      </trkpt>
      <trkpt lat="44.00079" lon="6.67199">
        <ele>1287</ele>
        <time>2017-11-01T12:25:19Z</time>
      </trkpt>
      <trkpt lat="44.00075" lon="6.67197">
        <ele>1286</ele>
        <time>2017-11-01T12:25:21Z</time>
      </trkpt>
      <trkpt lat="44.0007" lon="6.67194">
        <ele>1285</ele>
        <time>2017-11-01T12:25:23Z</time>
      </trkpt>
      <trkpt lat="44.00065" lon="6.67194">
        <ele>1285</ele>
        <time>2017-11-01T12:25:25Z</time>
      </trkpt>
      <trkpt lat="44.00059" lon="6.67192">
        <ele>1284</ele>
        <time>2017-11-01T12:25:27Z</time>
      </trkpt>
      <trkpt lat="44.00053" lon="6.6719">
        <ele>1283</ele>
        <time>2017-11-01T12:25:29Z</time>
      </trkpt>
      <trkpt lat="44.00047" lon="6.67189">
        <ele>1281</ele>
        <time>2017-11-01T12:25:31Z</time>
      </trkpt>
      <trkpt lat="44.00042" lon="6.67192">
        <ele>1279</ele>
        <time>2017-11-01T12:25:33Z</time>
      </trkpt>
      <trkpt lat="44.00036" lon="6.67193">
        <ele>1277</ele>
        <time>2017-11-01T12:25:35Z</time>
      </trkpt>
      <trkpt lat="44.00031" lon="6.67195">
        <ele>1275</ele>
        <time>2017-11-01T12:25:37Z</time>
      </trkpt>
      <trkpt lat="44.00025" lon="6.67199">
        <ele>1273</ele>
        <time>2017-11-01T12:25:39Z</time>
      </trkpt>
      <trkpt lat="44.00021" lon="6.67203">
        <ele>1272</ele>
        <time>2017-11-01T12:25:41Z</time>
      </trkpt>
      <trkpt lat="44.00019" lon="6.67211">
        <ele>1271</ele>
        <time>2017-11-01T12:25:44Z</time>
      </trkpt>
      <trkpt lat="44.00013" lon="6.67215">
        <ele>1270</ele>
        <time>2017-11-01T12:25:47Z</time>
      </trkpt>
      <trkpt lat="44.00008" lon="6.6722">
        <ele>1269</ele>
        <time>2017-11-01T12:25:49Z</time>
      </trkpt>
      <trkpt lat="44.00002" lon="6.67219">
        <ele>1269</ele>
        <time>2017-11-01T12:25:51Z</time>
      </trkpt>
      <trkpt lat="43.99995" lon="6.67217">
        <ele>1269</ele>
        <time>2017-11-01T12:25:53Z</time>
      </trkpt>
      <trkpt lat="43.99986" lon="6.67215">
        <ele>1268</ele>
        <time>2017-11-01T12:25:55Z</time>
      </trkpt>
      <trkpt lat="43.99981" lon="6.67213">
        <ele>1267</ele>
        <time>2017-11-01T12:25:56Z</time>
      </trkpt>
      <trkpt lat="43.99974" lon="6.6721">
        <ele>1267</ele>
        <time>2017-11-01T12:25:58Z</time>
      </trkpt>
      <trkpt lat="43.99968" lon="6.67211">
        <ele>1265</ele>
        <time>2017-11-01T12:26:00Z</time>
      </trkpt>
      <trkpt lat="43.99962" lon="6.67208">
        <ele>1263</ele>
        <time>2017-11-01T12:26:02Z</time>
      </trkpt>
      <trkpt lat="43.99955" lon="6.67207">
        <ele>1262</ele>
        <time>2017-11-01T12:26:05Z</time>
      </trkpt>
      <trkpt lat="43.9995" lon="6.67206">
        <ele>1261</ele>
        <time>2017-11-01T12:26:08Z</time>
      </trkpt>
      <trkpt lat="43.99944" lon="6.67201">
        <ele>1259</ele>
        <time>2017-11-01T12:26:11Z</time>
      </trkpt>
      <trkpt lat="43.9994" lon="6.67198">
        <ele>1258</ele>
        <time>2017-11-01T12:26:13Z</time>
      </trkpt>
      <trkpt lat="43.99936" lon="6.67197">
        <ele>1257</ele>
        <time>2017-11-01T12:26:15Z</time>
      </trkpt>
      <trkpt lat="43.99929" lon="6.67195">
        <ele>1255</ele>
        <time>2017-11-01T12:26:18Z</time>
      </trkpt>
      <trkpt lat="43.99923" lon="6.67194">
        <ele>1254</ele>
        <time>2017-11-01T12:26:20Z</time>
      </trkpt>
      <trkpt lat="43.99917" lon="6.67192">
        <ele>1252</ele>
        <time>2017-11-01T12:26:22Z</time>
      </trkpt>
      <trkpt lat="43.99912" lon="6.6719">
        <ele>1251</ele>
        <time>2017-11-01T12:26:24Z</time>
      </trkpt>
      <trkpt lat="43.99904" lon="6.67188">
        <ele>1250</ele>
        <time>2017-11-01T12:26:27Z</time>
      </trkpt>
      <trkpt lat="43.99899" lon="6.67187">
        <ele>1249</ele>
        <time>2017-11-01T12:26:29Z</time>
      </trkpt>
      <trkpt lat="43.99892" lon="6.67186">
        <ele>1248</ele>
        <time>2017-11-01T12:26:31Z</time>
      </trkpt>
      <trkpt lat="43.99886" lon="6.67185">
        <ele>1248</ele>
        <time>2017-11-01T12:26:33Z</time>
      </trkpt>
      <trkpt lat="43.99881" lon="6.67181">
        <ele>1247</ele>
        <time>2017-11-01T12:26:35Z</time>
      </trkpt>
      <trkpt lat="43.99876" lon="6.67178">
        <ele>1247</ele>
        <time>2017-11-01T12:26:36Z</time>
      </trkpt>
      <trkpt lat="43.99871" lon="6.6718">
        <ele>1246</ele>
        <time>2017-11-01T12:26:38Z</time>
      </trkpt>
      <trkpt lat="43.99868" lon="6.67187">
        <ele>1246</ele>
        <time>2017-11-01T12:26:41Z</time>
      </trkpt>
      <trkpt lat="43.99867" lon="6.67197">
        <ele>1245</ele>
        <time>2017-11-01T12:26:44Z</time>
      </trkpt>
      <trkpt lat="43.99864" lon="6.67204">
        <ele>1244</ele>
        <time>2017-11-01T12:26:46Z</time>
      </trkpt>
      <trkpt lat="43.99861" lon="6.67209">
        <ele>1242</ele>
        <time>2017-11-01T12:26:48Z</time>
      </trkpt>
      <trkpt lat="43.99857" lon="6.67207">
        <ele>1242</ele>
        <time>2017-11-01T12:26:50Z</time>
      </trkpt>
      <trkpt lat="43.9985" lon="6.67207">
        <ele>1242</ele>
        <time>2017-11-01T12:26:53Z</time>
      </trkpt>
      <trkpt lat="43.99845" lon="6.67209">
        <ele>1241</ele>
        <time>2017-11-01T12:26:55Z</time>
      </trkpt>
      <trkpt lat="43.99839" lon="6.6721">
        <ele>1241</ele>
        <time>2017-11-01T12:26:57Z</time>
      </trkpt>
      <trkpt lat="43.99834" lon="6.67212">
        <ele>1241</ele>
        <time>2017-11-01T12:26:59Z</time>
      </trkpt>
      <trkpt lat="43.99829" lon="6.67213">
        <ele>1241</ele>
        <time>2017-11-01T12:27:02Z</time>
      </trkpt>
      <trkpt lat="43.99823" lon="6.67209">
        <ele>1240</ele>
        <time>2017-11-01T12:27:05Z</time>
      </trkpt>
      <trkpt lat="43.99818" lon="6.67205">
        <ele>1241</ele>
        <time>2017-11-01T12:27:08Z</time>
      </trkpt>
      <trkpt lat="43.99813" lon="6.67201">
        <ele>1242</ele>
        <time>2017-11-01T12:27:11Z</time>
      </trkpt>
      <trkpt lat="43.99809" lon="6.67195">
        <ele>1242</ele>
        <time>2017-11-01T12:27:14Z</time>
      </trkpt>
      <trkpt lat="43.99806" lon="6.6719">
        <ele>1242</ele>
        <time>2017-11-01T12:27:16Z</time>
      </trkpt>
      <trkpt lat="43.99802" lon="6.67185">
        <ele>1242</ele>
        <time>2017-11-01T12:27:19Z</time>
      </trkpt>
      <trkpt lat="43.99797" lon="6.67179">
        <ele>1240</ele>
        <time>2017-11-01T12:27:22Z</time>
      </trkpt>
      <trkpt lat="43.99792" lon="6.67175">
        <ele>1239</ele>
        <time>2017-11-01T12:27:24Z</time>
      </trkpt>
      <trkpt lat="43.99787" lon="6.67171">
        <ele>1238</ele>
        <time>2017-11-01T12:27:26Z</time>
      </trkpt>
      <trkpt lat="43.9978" lon="6.67164">
        <ele>1237</ele>
        <time>2017-11-01T12:27:29Z</time>
      </trkpt>
      <trkpt lat="43.99775" lon="6.67161">
        <ele>1236</ele>
        <time>2017-11-01T12:27:31Z</time>
      </trkpt>
      <trkpt lat="43.99769" lon="6.67159">
        <ele>1235</ele>
        <time>2017-11-01T12:27:33Z</time>
      </trkpt>
      <trkpt lat="43.99765" lon="6.67156">
        <ele>1234</ele>
        <time>2017-11-01T12:27:34Z</time>
      </trkpt>
      <trkpt lat="43.9976" lon="6.67153">
        <ele>1232</ele>
        <time>2017-11-01T12:27:35Z</time>
      </trkpt>
      <trkpt lat="43.99754" lon="6.6715">
        <ele>1231</ele>
        <time>2017-11-01T12:27:36Z</time>
      </trkpt>
      <trkpt lat="43.9975" lon="6.67146">
        <ele>1229</ele>
        <time>2017-11-01T12:27:37Z</time>
      </trkpt>
      <trkpt lat="43.99743" lon="6.67138">
        <ele>1228</ele>
        <time>2017-11-01T12:27:39Z</time>
      </trkpt>
      <trkpt lat="43.99738" lon="6.67129">
        <ele>1228</ele>
        <time>2017-11-01T12:27:41Z</time>
      </trkpt>
      <trkpt lat="43.99735" lon="6.67124">
        <ele>1227</ele>
        <time>2017-11-01T12:27:42Z</time>
      </trkpt>
      <trkpt lat="43.99732" lon="6.67119">
        <ele>1226</ele>
        <time>2017-11-01T12:27:43Z</time>
      </trkpt>
      <trkpt lat="43.99727" lon="6.67113">
        <ele>1225</ele>
        <time>2017-11-01T12:27:45Z</time>
      </trkpt>
      <trkpt lat="43.99721" lon="6.67112">
        <ele>1224</ele>
        <time>2017-11-01T12:27:47Z</time>
      </trkpt>
      <trkpt lat="43.99716" lon="6.6711">
        <ele>1223</ele>
        <time>2017-11-01T12:27:49Z</time>
      </trkpt>
      <trkpt lat="43.99711" lon="6.67109">
        <ele>1221</ele>
        <time>2017-11-01T12:27:56Z</time>
      </trkpt>
      <trkpt lat="43.99704" lon="6.67107">
        <ele>1220</ele>
        <time>2017-11-01T12:27:59Z</time>
      </trkpt>
      <trkpt lat="43.99699" lon="6.67104">
        <ele>1219</ele>
        <time>2017-11-01T12:28:03Z</time>
      </trkpt>
      <trkpt lat="43.99694" lon="6.67102">
        <ele>1218</ele>
        <time>2017-11-01T12:28:05Z</time>
      </trkpt>
      <trkpt lat="43.99688" lon="6.671">
        <ele>1218</ele>
        <time>2017-11-01T12:28:07Z</time>
      </trkpt>
      <trkpt lat="43.99682" lon="6.67099">
        <ele>1217</ele>
        <time>2017-11-01T12:28:10Z</time>
      </trkpt>
      <trkpt lat="43.99677" lon="6.67098">
        <ele>1216</ele>
        <time>2017-11-01T12:28:12Z</time>
      </trkpt>
      <trkpt lat="43.99672" lon="6.67095">
        <ele>1215</ele>
        <time>2017-11-01T12:28:14Z</time>
      </trkpt>
      <trkpt lat="43.99667" lon="6.67092">
        <ele>1214</ele>
        <time>2017-11-01T12:28:16Z</time>
      </trkpt>
      <trkpt lat="43.99662" lon="6.67088">
        <ele>1213</ele>
        <time>2017-11-01T12:28:18Z</time>
      </trkpt>
      <trkpt lat="43.99657" lon="6.67085">
        <ele>1212</ele>
        <time>2017-11-01T12:28:20Z</time>
      </trkpt>
      <trkpt lat="43.9965" lon="6.67085">
        <ele>1211</ele>
        <time>2017-11-01T12:28:23Z</time>
      </trkpt>
      <trkpt lat="43.99646" lon="6.6708">
        <ele>1211</ele>
        <time>2017-11-01T12:28:26Z</time>
      </trkpt>
      <trkpt lat="43.9965" lon="6.67074">
        <ele>1209</ele>
        <time>2017-11-01T12:28:30Z</time>
      </trkpt>
      <trkpt lat="43.99654" lon="6.67069">
        <ele>1207</ele>
        <time>2017-11-01T12:28:34Z</time>
      </trkpt>
      <trkpt lat="43.99649" lon="6.67065">
        <ele>1205</ele>
        <time>2017-11-01T12:28:39Z</time>
      </trkpt>
      <trkpt lat="43.99642" lon="6.67066">
        <ele>1202</ele>
        <time>2017-11-01T12:28:42Z</time>
      </trkpt>
      <trkpt lat="43.99637" lon="6.67062">
        <ele>1200</ele>
        <time>2017-11-01T12:28:45Z</time>
      </trkpt>
      <trkpt lat="43.99631" lon="6.67059">
        <ele>1198</ele>
        <time>2017-11-01T12:28:47Z</time>
      </trkpt>
      <trkpt lat="43.99625" lon="6.67055">
        <ele>1196</ele>
        <time>2017-11-01T12:28:49Z</time>
      </trkpt>
      <trkpt lat="43.9962" lon="6.67052">
        <ele>1195</ele>
        <time>2017-11-01T12:28:51Z</time>
      </trkpt>
      <trkpt lat="43.99614" lon="6.67046">
        <ele>1193</ele>
        <time>2017-11-01T12:28:53Z</time>
      </trkpt>
      <trkpt lat="43.99608" lon="6.6704">
        <ele>1191</ele>
        <time>2017-11-01T12:28:55Z</time>
      </trkpt>
      <trkpt lat="43.99602" lon="6.67036">
        <ele>1190</ele>
        <time>2017-11-01T12:28:57Z</time>
      </trkpt>
      <trkpt lat="43.99597" lon="6.67032">
        <ele>1188</ele>
        <time>2017-11-01T12:28:59Z</time>
      </trkpt>
      <trkpt lat="43.99591" lon="6.67029">
        <ele>1187</ele>
        <time>2017-11-01T12:29:01Z</time>
      </trkpt>
      <trkpt lat="43.99585" lon="6.67025">
        <ele>1186</ele>
        <time>2017-11-01T12:29:03Z</time>
      </trkpt>
      <trkpt lat="43.99579" lon="6.6702">
        <ele>1185</ele>
        <time>2017-11-01T12:29:05Z</time>
      </trkpt>
      <trkpt lat="43.99572" lon="6.67016">
        <ele>1184</ele>
        <time>2017-11-01T12:29:07Z</time>
      </trkpt>
      <trkpt lat="43.99565" lon="6.67014">
        <ele>1183</ele>
        <time>2017-11-01T12:29:09Z</time>
      </trkpt>
      <trkpt lat="43.99561" lon="6.67011">
        <ele>1182</ele>
        <time>2017-11-01T12:29:11Z</time>
      </trkpt>
      <trkpt lat="43.99557" lon="6.67007">
        <ele>1181</ele>
        <time>2017-11-01T12:29:13Z</time>
      </trkpt>
      <trkpt lat="43.99551" lon="6.67006">
        <ele>1180</ele>
        <time>2017-11-01T12:29:15Z</time>
      </trkpt>
      <trkpt lat="43.99544" lon="6.67007">
        <ele>1179</ele>
        <time>2017-11-01T12:29:17Z</time>
      </trkpt>
      <trkpt lat="43.99537" lon="6.67008">
        <ele>1178</ele>
        <time>2017-11-01T12:29:19Z</time>
      </trkpt>
      <trkpt lat="43.99532" lon="6.6701">
        <ele>1177</ele>
        <time>2017-11-01T12:29:21Z</time>
      </trkpt>
      <trkpt lat="43.99526" lon="6.67008">
        <ele>1177</ele>
        <time>2017-11-01T12:29:23Z</time>
      </trkpt>
      <trkpt lat="43.99521" lon="6.6701">
        <ele>1176</ele>
        <time>2017-11-01T12:29:25Z</time>
      </trkpt>
      <trkpt lat="43.99515" lon="6.67011">
        <ele>1175</ele>
        <time>2017-11-01T12:29:28Z</time>
      </trkpt>
      <trkpt lat="43.99509" lon="6.67009">
        <ele>1174</ele>
        <time>2017-11-01T12:29:31Z</time>
      </trkpt>
      <trkpt lat="43.99505" lon="6.67004">
        <ele>1173</ele>
        <time>2017-11-01T12:29:33Z</time>
      </trkpt>
      <trkpt lat="43.99504" lon="6.66997">
        <ele>1172</ele>
        <time>2017-11-01T12:29:35Z</time>
      </trkpt>
      <trkpt lat="43.99502" lon="6.66988">
        <ele>1171</ele>
        <time>2017-11-01T12:29:37Z</time>
      </trkpt>
      <trkpt lat="43.99498" lon="6.66982">
        <ele>1170</ele>
        <time>2017-11-01T12:29:39Z</time>
      </trkpt>
      <trkpt lat="43.99493" lon="6.66977">
        <ele>1168</ele>
        <time>2017-11-01T12:29:41Z</time>
      </trkpt>
      <trkpt lat="43.99488" lon="6.66974">
        <ele>1167</ele>
        <time>2017-11-01T12:29:43Z</time>
      </trkpt>
      <trkpt lat="43.99483" lon="6.66973">
        <ele>1166</ele>
        <time>2017-11-01T12:29:45Z</time>
      </trkpt>
      <trkpt lat="43.99475" lon="6.66972">
        <ele>1166</ele>
        <time>2017-11-01T12:29:47Z</time>
      </trkpt>
      <trkpt lat="43.99468" lon="6.66973">
        <ele>1166</ele>
        <time>2017-11-01T12:29:49Z</time>
      </trkpt>
      <trkpt lat="43.9946" lon="6.66973">
        <ele>1166</ele>
        <time>2017-11-01T12:29:51Z</time>
      </trkpt>
      <trkpt lat="43.99453" lon="6.66975">
        <ele>1164</ele>
        <time>2017-11-01T12:29:53Z</time>
      </trkpt>
      <trkpt lat="43.99445" lon="6.66976">
        <ele>1163</ele>
        <time>2017-11-01T12:29:55Z</time>
      </trkpt>
      <trkpt lat="43.9944" lon="6.66969">
        <ele>1163</ele>
        <time>2017-11-01T12:29:57Z</time>
      </trkpt>
      <trkpt lat="43.99433" lon="6.6697">
        <ele>1162</ele>
        <time>2017-11-01T12:29:59Z</time>
      </trkpt>
      <trkpt lat="43.99426" lon="6.66974">
        <ele>1161</ele>
        <time>2017-11-01T12:30:01Z</time>
      </trkpt>
      <trkpt lat="43.99419" lon="6.66977">
        <ele>1161</ele>
        <time>2017-11-01T12:30:03Z</time>
      </trkpt>
      <trkpt lat="43.99413" lon="6.66979">
        <ele>1160</ele>
        <time>2017-11-01T12:30:05Z</time>
      </trkpt>
      <trkpt lat="43.99408" lon="6.66985">
        <ele>1159</ele>
        <time>2017-11-01T12:30:07Z</time>
      </trkpt>
      <trkpt lat="43.99407" lon="6.66992">
        <ele>1159</ele>
        <time>2017-11-01T12:30:09Z</time>
      </trkpt>
      <trkpt lat="43.99401" lon="6.66996">
        <ele>1159</ele>
        <time>2017-11-01T12:30:11Z</time>
      </trkpt>
      <trkpt lat="43.99396" lon="6.66999">
        <ele>1158</ele>
        <time>2017-11-01T12:30:12Z</time>
      </trkpt>
      <trkpt lat="43.99389" lon="6.67003">
        <ele>1158</ele>
        <time>2017-11-01T12:30:14Z</time>
      </trkpt>
      <trkpt lat="43.99384" lon="6.67">
        <ele>1158</ele>
        <time>2017-11-01T12:30:16Z</time>
      </trkpt>
      <trkpt lat="43.99376" lon="6.66999">
        <ele>1157</ele>
        <time>2017-11-01T12:30:18Z</time>
      </trkpt>
      <trkpt lat="43.99369" lon="6.66996">
        <ele>1157</ele>
        <time>2017-11-01T12:30:20Z</time>
      </trkpt>
      <trkpt lat="43.99363" lon="6.66993">
        <ele>1156</ele>
        <time>2017-11-01T12:30:22Z</time>
      </trkpt>
      <trkpt lat="43.99358" lon="6.66996">
        <ele>1155</ele>
        <time>2017-11-01T12:30:24Z</time>
      </trkpt>
      <trkpt lat="43.9935" lon="6.66997">
        <ele>1153</ele>
        <time>2017-11-01T12:30:26Z</time>
      </trkpt>
      <trkpt lat="43.99345" lon="6.67">
        <ele>1152</ele>
        <time>2017-11-01T12:30:28Z</time>
      </trkpt>
      <trkpt lat="43.99338" lon="6.67006">
        <ele>1150</ele>
        <time>2017-11-01T12:30:30Z</time>
      </trkpt>
      <trkpt lat="43.99332" lon="6.67008">
        <ele>1149</ele>
        <time>2017-11-01T12:30:32Z</time>
      </trkpt>
      <trkpt lat="43.99325" lon="6.67013">
        <ele>1147</ele>
        <time>2017-11-01T12:30:34Z</time>
      </trkpt>
      <trkpt lat="43.9932" lon="6.67015">
        <ele>1146</ele>
        <time>2017-11-01T12:30:36Z</time>
      </trkpt>
      <trkpt lat="43.99315" lon="6.67017">
        <ele>1146</ele>
        <time>2017-11-01T12:30:38Z</time>
      </trkpt>
      <trkpt lat="43.99311" lon="6.67015">
        <ele>1145</ele>
        <time>2017-11-01T12:31:02Z</time>
      </trkpt>
      <trkpt lat="43.99311" lon="6.67015">
        <ele>1144</ele>
        <time>2017-11-01T12:31:04Z</time>
      </trkpt>
      <trkpt lat="43.99311" lon="6.67015">
        <ele>1144</ele>
        <time>2017-11-01T12:31:33Z</time>
      </trkpt>
      <trkpt lat="43.99311" lon="6.67015">
        <ele>1143</ele>
        <time>2017-11-01T12:31:34Z</time>
      </trkpt>
      <trkpt lat="43.99311" lon="6.67015">
        <ele>1143</ele>
        <time>2017-11-01T12:32:03Z</time>
      </trkpt>
      <trkpt lat="43.99311" lon="6.67015">
        <ele>1143</ele>
        <time>2017-11-01T12:32:04Z</time>
      </trkpt>
      <trkpt lat="43.9931" lon="6.67017">
        <ele>1143</ele>
        <time>2017-11-01T12:32:33Z</time>
      </trkpt>
      <trkpt lat="43.99308" lon="6.67018">
        <ele>1142</ele>
        <time>2017-11-01T12:32:34Z</time>
      </trkpt>
      <trkpt lat="43.99303" lon="6.6702">
        <ele>1142</ele>
        <time>2017-11-01T12:32:37Z</time>
      </trkpt>
      <trkpt lat="43.99297" lon="6.67022">
        <ele>1142</ele>
        <time>2017-11-01T12:32:39Z</time>
      </trkpt>
      <trkpt lat="43.99292" lon="6.67026">
        <ele>1141</ele>
        <time>2017-11-01T12:32:41Z</time>
      </trkpt>
      <trkpt lat="43.99286" lon="6.6703">
        <ele>1140</ele>
        <time>2017-11-01T12:32:44Z</time>
      </trkpt>
      <trkpt lat="43.9928" lon="6.67031">
        <ele>1140</ele>
        <time>2017-11-01T12:32:46Z</time>
      </trkpt>
      <trkpt lat="43.99274" lon="6.67033">
        <ele>1139</ele>
        <time>2017-11-01T12:32:49Z</time>
      </trkpt>
      <trkpt lat="43.99268" lon="6.67029">
        <ele>1138</ele>
        <time>2017-11-01T12:32:52Z</time>
      </trkpt>
      <trkpt lat="43.99265" lon="6.67025">
        <ele>1137</ele>
        <time>2017-11-01T12:32:55Z</time>
      </trkpt>
      <trkpt lat="43.99261" lon="6.67022">
        <ele>1135</ele>
        <time>2017-11-01T12:32:59Z</time>
      </trkpt>
      <trkpt lat="43.99259" lon="6.67015">
        <ele>1133</ele>
        <time>2017-11-01T12:33:04Z</time>
      </trkpt>
      <trkpt lat="43.99254" lon="6.67014">
        <ele>1131</ele>
        <time>2017-11-01T12:33:08Z</time>
      </trkpt>
      <trkpt lat="43.99248" lon="6.67014">
        <ele>1129</ele>
        <time>2017-11-01T12:33:10Z</time>
      </trkpt>
      <trkpt lat="43.99242" lon="6.67017">
        <ele>1127</ele>
        <time>2017-11-01T12:33:13Z</time>
      </trkpt>
      <trkpt lat="43.99235" lon="6.67017">
        <ele>1125</ele>
        <time>2017-11-01T12:33:16Z</time>
      </trkpt>
      <trkpt lat="43.99231" lon="6.67013">
        <ele>1124</ele>
        <time>2017-11-01T12:33:19Z</time>
      </trkpt>
      <trkpt lat="43.99228" lon="6.67007">
        <ele>1122</ele>
        <time>2017-11-01T12:33:22Z</time>
      </trkpt>
      <trkpt lat="43.99226" lon="6.66999">
        <ele>1122</ele>
        <time>2017-11-01T12:33:25Z</time>
      </trkpt>
      <trkpt lat="43.99224" lon="6.6699">
        <ele>1121</ele>
        <time>2017-11-01T12:33:28Z</time>
      </trkpt>
      <trkpt lat="43.99221" lon="6.66987">
        <ele>1120</ele>
        <time>2017-11-01T12:33:48Z</time>
      </trkpt>
      <trkpt lat="43.99221" lon="6.66987">
        <ele>1119</ele>
        <time>2017-11-01T12:33:49Z</time>
      </trkpt>
      <trkpt lat="43.99221" lon="6.66987">
        <ele>1119</ele>
        <time>2017-11-01T12:34:18Z</time>
      </trkpt>
      <trkpt lat="43.99221" lon="6.66987">
        <ele>1118</ele>
        <time>2017-11-01T12:34:19Z</time>
      </trkpt>
      <trkpt lat="43.99215" lon="6.66984">
        <ele>1117</ele>
        <time>2017-11-01T12:34:30Z</time>
      </trkpt>
      <trkpt lat="43.9921" lon="6.66982">
        <ele>1116</ele>
        <time>2017-11-01T12:34:32Z</time>
      </trkpt>
      <trkpt lat="43.99205" lon="6.66981">
        <ele>1114</ele>
        <time>2017-11-01T12:34:34Z</time>
      </trkpt>
      <trkpt lat="43.99199" lon="6.66979">
        <ele>1112</ele>
        <time>2017-11-01T12:34:36Z</time>
      </trkpt>
      <trkpt lat="43.99193" lon="6.66977">
        <ele>1110</ele>
        <time>2017-11-01T12:34:38Z</time>
      </trkpt>
      <trkpt lat="43.99187" lon="6.6698">
        <ele>1107</ele>
        <time>2017-11-01T12:34:40Z</time>
      </trkpt>
      <trkpt lat="43.99185" lon="6.66986">
        <ele>1104</ele>
        <time>2017-11-01T12:34:42Z</time>
      </trkpt>
      <trkpt lat="43.99186" lon="6.66996">
        <ele>1102</ele>
        <time>2017-11-01T12:34:45Z</time>
      </trkpt>
      <trkpt lat="43.99186" lon="6.67004">
        <ele>1100</ele>
        <time>2017-11-01T12:34:48Z</time>
      </trkpt>
      <trkpt lat="43.99183" lon="6.6701">
        <ele>1099</ele>
        <time>2017-11-01T12:34:50Z</time>
      </trkpt>
      <trkpt lat="43.99178" lon="6.67009">
        <ele>1098</ele>
        <time>2017-11-01T12:34:52Z</time>
      </trkpt>
      <trkpt lat="43.99173" lon="6.67011">
        <ele>1098</ele>
        <time>2017-11-01T12:34:54Z</time>
      </trkpt>
      <trkpt lat="43.9917" lon="6.67015">
        <ele>1097</ele>
        <time>2017-11-01T12:34:57Z</time>
      </trkpt>
      <trkpt lat="43.99165" lon="6.6702">
        <ele>1097</ele>
        <time>2017-11-01T12:35:00Z</time>
      </trkpt>
      <trkpt lat="43.9916" lon="6.67024">
        <ele>1097</ele>
        <time>2017-11-01T12:35:04Z</time>
      </trkpt>
      <trkpt lat="43.99157" lon="6.6702">
        <ele>1097</ele>
        <time>2017-11-01T12:35:11Z</time>
      </trkpt>
      <trkpt lat="43.99151" lon="6.67017">
        <ele>1097</ele>
        <time>2017-11-01T12:35:20Z</time>
      </trkpt>
      <trkpt lat="43.99147" lon="6.67011">
        <ele>1097</ele>
        <time>2017-11-01T12:35:24Z</time>
      </trkpt>
      <trkpt lat="43.99143" lon="6.67007">
        <ele>1096</ele>
        <time>2017-11-01T12:35:27Z</time>
      </trkpt>
      <trkpt lat="43.99138" lon="6.67003">
        <ele>1095</ele>
        <time>2017-11-01T12:35:31Z</time>
      </trkpt>
      <trkpt lat="43.99135" lon="6.66998">
        <ele>1094</ele>
        <time>2017-11-01T12:35:34Z</time>
      </trkpt>
      <trkpt lat="43.99131" lon="6.66993">
        <ele>1093</ele>
        <time>2017-11-01T12:35:37Z</time>
      </trkpt>
      <trkpt lat="43.99126" lon="6.66987">
        <ele>1092</ele>
        <time>2017-11-01T12:35:39Z</time>
      </trkpt>
      <trkpt lat="43.9912" lon="6.66982">
        <ele>1091</ele>
        <time>2017-11-01T12:35:41Z</time>
      </trkpt>
      <trkpt lat="43.99115" lon="6.66977">
        <ele>1091</ele>
        <time>2017-11-01T12:35:43Z</time>
      </trkpt>
      <trkpt lat="43.9911" lon="6.66974">
        <ele>1090</ele>
        <time>2017-11-01T12:35:45Z</time>
      </trkpt>
      <trkpt lat="43.99106" lon="6.66972">
        <ele>1090</ele>
        <time>2017-11-01T12:35:47Z</time>
      </trkpt>
      <trkpt lat="43.991" lon="6.66969">
        <ele>1090</ele>
        <time>2017-11-01T12:35:49Z</time>
      </trkpt>
      <trkpt lat="43.99094" lon="6.66966">
        <ele>1090</ele>
        <time>2017-11-01T12:35:51Z</time>
      </trkpt>
      <trkpt lat="43.99086" lon="6.66964">
        <ele>1090</ele>
        <time>2017-11-01T12:35:53Z</time>
      </trkpt>
      <trkpt lat="43.9908" lon="6.66961">
        <ele>1091</ele>
        <time>2017-11-01T12:35:55Z</time>
      </trkpt>
      <trkpt lat="43.99073" lon="6.66958">
        <ele>1091</ele>
        <time>2017-11-01T12:35:57Z</time>
      </trkpt>
      <trkpt lat="43.99066" lon="6.66957">
        <ele>1091</ele>
        <time>2017-11-01T12:35:59Z</time>
      </trkpt>
      <trkpt lat="43.99059" lon="6.66957">
        <ele>1092</ele>
        <time>2017-11-01T12:36:01Z</time>
      </trkpt>
      <trkpt lat="43.99052" lon="6.66954">
        <ele>1092</ele>
        <time>2017-11-01T12:36:03Z</time>
      </trkpt>
      <trkpt lat="43.99045" lon="6.66952">
        <ele>1091</ele>
        <time>2017-11-01T12:36:05Z</time>
      </trkpt>
      <trkpt lat="43.99039" lon="6.66948">
        <ele>1091</ele>
        <time>2017-11-01T12:36:07Z</time>
      </trkpt>
      <trkpt lat="43.99033" lon="6.66944">
        <ele>1090</ele>
        <time>2017-11-01T12:36:09Z</time>
      </trkpt>
      <trkpt lat="43.99026" lon="6.66941">
        <ele>1089</ele>
        <time>2017-11-01T12:36:11Z</time>
      </trkpt>
      <trkpt lat="43.99019" lon="6.66939">
        <ele>1089</ele>
        <time>2017-11-01T12:36:13Z</time>
      </trkpt>
      <trkpt lat="43.99012" lon="6.66935">
        <ele>1088</ele>
        <time>2017-11-01T12:36:15Z</time>
      </trkpt>
      <trkpt lat="43.99007" lon="6.66932">
        <ele>1087</ele>
        <time>2017-11-01T12:36:17Z</time>
      </trkpt>
      <trkpt lat="43.99002" lon="6.66931">
        <ele>1087</ele>
        <time>2017-11-01T12:36:20Z</time>
      </trkpt>
      <trkpt lat="43.98997" lon="6.6693">
        <ele>1087</ele>
        <time>2017-11-01T12:36:22Z</time>
      </trkpt>
      <trkpt lat="43.98991" lon="6.66928">
        <ele>1087</ele>
        <time>2017-11-01T12:36:24Z</time>
      </trkpt>
      <trkpt lat="43.98986" lon="6.66927">
        <ele>1087</ele>
        <time>2017-11-01T12:36:26Z</time>
      </trkpt>
      <trkpt lat="43.9898" lon="6.66924">
        <ele>1086</ele>
        <time>2017-11-01T12:36:28Z</time>
      </trkpt>
      <trkpt lat="43.98974" lon="6.66924">
        <ele>1086</ele>
        <time>2017-11-01T12:36:30Z</time>
      </trkpt>
      <trkpt lat="43.98969" lon="6.66922">
        <ele>1085</ele>
        <time>2017-11-01T12:36:32Z</time>
      </trkpt>
      <trkpt lat="43.98964" lon="6.6692">
        <ele>1084</ele>
        <time>2017-11-01T12:36:34Z</time>
      </trkpt>
      <trkpt lat="43.98956" lon="6.66918">
        <ele>1082</ele>
        <time>2017-11-01T12:36:36Z</time>
      </trkpt>
      <trkpt lat="43.9895" lon="6.6692">
        <ele>1081</ele>
        <time>2017-11-01T12:36:39Z</time>
      </trkpt>
      <trkpt lat="43.98945" lon="6.66918">
        <ele>1080</ele>
        <time>2017-11-01T12:36:41Z</time>
      </trkpt>
      <trkpt lat="43.9894" lon="6.66915">
        <ele>1079</ele>
        <time>2017-11-01T12:36:43Z</time>
      </trkpt>
      <trkpt lat="43.98935" lon="6.66912">
        <ele>1079</ele>
        <time>2017-11-01T12:36:46Z</time>
      </trkpt>
      <trkpt lat="43.9893" lon="6.66908">
        <ele>1078</ele>
        <time>2017-11-01T12:36:48Z</time>
      </trkpt>
      <trkpt lat="43.98925" lon="6.66905">
        <ele>1077</ele>
        <time>2017-11-01T12:36:50Z</time>
      </trkpt>
      <trkpt lat="43.9892" lon="6.669">
        <ele>1076</ele>
        <time>2017-11-01T12:36:53Z</time>
      </trkpt>
      <trkpt lat="43.98917" lon="6.66896">
        <ele>1075</ele>
        <time>2017-11-01T12:36:56Z</time>
      </trkpt>
      <trkpt lat="43.98913" lon="6.66891">
        <ele>1073</ele>
        <time>2017-11-01T12:37:04Z</time>
      </trkpt>
      <trkpt lat="43.98909" lon="6.66887">
        <ele>1071</ele>
        <time>2017-11-01T12:37:07Z</time>
      </trkpt>
      <trkpt lat="43.98906" lon="6.66879">
        <ele>1069</ele>
        <time>2017-11-01T12:37:10Z</time>
      </trkpt>
      <trkpt lat="43.98904" lon="6.66885">
        <ele>1068</ele>
        <time>2017-11-01T12:37:14Z</time>
      </trkpt>
      <trkpt lat="43.98899" lon="6.66891">
        <ele>1067</ele>
        <time>2017-11-01T12:37:18Z</time>
      </trkpt>
      <trkpt lat="43.98893" lon="6.6689">
        <ele>1066</ele>
        <time>2017-11-01T12:37:20Z</time>
      </trkpt>
      <trkpt lat="43.98887" lon="6.66885">
        <ele>1064</ele>
        <time>2017-11-01T12:37:22Z</time>
      </trkpt>
      <trkpt lat="43.98881" lon="6.6688">
        <ele>1063</ele>
        <time>2017-11-01T12:37:24Z</time>
      </trkpt>
      <trkpt lat="43.98877" lon="6.66876">
        <ele>1063</ele>
        <time>2017-11-01T12:37:26Z</time>
      </trkpt>
      <trkpt lat="43.98872" lon="6.66872">
        <ele>1062</ele>
        <time>2017-11-01T12:37:28Z</time>
      </trkpt>
      <trkpt lat="43.98869" lon="6.66866">
        <ele>1061</ele>
        <time>2017-11-01T12:37:30Z</time>
      </trkpt>
      <trkpt lat="43.98863" lon="6.66866">
        <ele>1061</ele>
        <time>2017-11-01T12:37:34Z</time>
      </trkpt>
      <trkpt lat="43.98858" lon="6.66862">
        <ele>1060</ele>
        <time>2017-11-01T12:37:37Z</time>
      </trkpt>
      <trkpt lat="43.98852" lon="6.66862">
        <ele>1059</ele>
        <time>2017-11-01T12:37:40Z</time>
      </trkpt>
      <trkpt lat="43.98845" lon="6.66863">
        <ele>1058</ele>
        <time>2017-11-01T12:37:43Z</time>
      </trkpt>
      <trkpt lat="43.9884" lon="6.6686">
        <ele>1057</ele>
        <time>2017-11-01T12:37:45Z</time>
      </trkpt>
      <trkpt lat="43.98836" lon="6.66861">
        <ele>1056</ele>
        <time>2017-11-01T12:37:47Z</time>
      </trkpt>
      <trkpt lat="43.98831" lon="6.66863">
        <ele>1055</ele>
        <time>2017-11-01T12:37:49Z</time>
      </trkpt>
      <trkpt lat="43.98827" lon="6.66865">
        <ele>1053</ele>
        <time>2017-11-01T12:37:52Z</time>
      </trkpt>
      <trkpt lat="43.98822" lon="6.66866">
        <ele>1052</ele>
        <time>2017-11-01T12:37:54Z</time>
      </trkpt>
      <trkpt lat="43.98817" lon="6.66866">
        <ele>1051</ele>
        <time>2017-11-01T12:37:56Z</time>
      </trkpt>
      <trkpt lat="43.98813" lon="6.66867">
        <ele>1050</ele>
        <time>2017-11-01T12:37:58Z</time>
      </trkpt>
      <trkpt lat="43.98807" lon="6.66869">
        <ele>1050</ele>
        <time>2017-11-01T12:38:00Z</time>
      </trkpt>
      <trkpt lat="43.98801" lon="6.66869">
        <ele>1049</ele>
        <time>2017-11-01T12:38:02Z</time>
      </trkpt>
      <trkpt lat="43.98795" lon="6.6687">
        <ele>1049</ele>
        <time>2017-11-01T12:38:04Z</time>
      </trkpt>
      <trkpt lat="43.98787" lon="6.66872">
        <ele>1048</ele>
        <time>2017-11-01T12:38:07Z</time>
      </trkpt>
      <trkpt lat="43.98781" lon="6.66876">
        <ele>1047</ele>
        <time>2017-11-01T12:38:09Z</time>
      </trkpt>
      <trkpt lat="43.98777" lon="6.66881">
        <ele>1047</ele>
        <time>2017-11-01T12:38:11Z</time>
      </trkpt>
      <trkpt lat="43.98772" lon="6.66885">
        <ele>1046</ele>
        <time>2017-11-01T12:38:13Z</time>
      </trkpt>
      <trkpt lat="43.98766" lon="6.66885">
        <ele>1045</ele>
        <time>2017-11-01T12:38:16Z</time>
      </trkpt>
      <trkpt lat="43.9876" lon="6.66884">
        <ele>1044</ele>
        <time>2017-11-01T12:38:19Z</time>
      </trkpt>
      <trkpt lat="43.98755" lon="6.66885">
        <ele>1042</ele>
        <time>2017-11-01T12:38:21Z</time>
      </trkpt>
      <trkpt lat="43.98754" lon="6.66886">
        <ele>1039</ele>
        <time>2017-11-01T12:38:48Z</time>
      </trkpt>
      <trkpt lat="43.98754" lon="6.66886">
        <ele>1037</ele>
        <time>2017-11-01T12:38:49Z</time>
      </trkpt>
      <trkpt lat="43.98754" lon="6.66886">
        <ele>1035</ele>
        <time>2017-11-01T12:39:18Z</time>
      </trkpt>
      <trkpt lat="43.98754" lon="6.66886">
        <ele>1034</ele>
        <time>2017-11-01T12:39:19Z</time>
      </trkpt>
      <trkpt lat="43.98748" lon="6.66884">
        <ele>1032</ele>
        <time>2017-11-01T12:39:36Z</time>
      </trkpt>
      <trkpt lat="43.98743" lon="6.66887">
        <ele>1032</ele>
        <time>2017-11-01T12:39:39Z</time>
      </trkpt>
      <trkpt lat="43.98739" lon="6.66891">
        <ele>1031</ele>
        <time>2017-11-01T12:39:41Z</time>
      </trkpt>
      <trkpt lat="43.98735" lon="6.66897">
        <ele>1030</ele>
        <time>2017-11-01T12:39:44Z</time>
      </trkpt>
      <trkpt lat="43.98732" lon="6.66893">
        <ele>1029</ele>
        <time>2017-11-01T12:39:47Z</time>
      </trkpt>
      <trkpt lat="43.9873" lon="6.66885">
        <ele>1028</ele>
        <time>2017-11-01T12:39:50Z</time>
      </trkpt>
      <trkpt lat="43.98726" lon="6.66879">
        <ele>1026</ele>
        <time>2017-11-01T12:39:53Z</time>
      </trkpt>
      <trkpt lat="43.98721" lon="6.66879">
        <ele>1025</ele>
        <time>2017-11-01T12:39:55Z</time>
      </trkpt>
      <trkpt lat="43.98716" lon="6.66879">
        <ele>1024</ele>
        <time>2017-11-01T12:39:58Z</time>
      </trkpt>
      <trkpt lat="43.9871" lon="6.66881">
        <ele>1023</ele>
        <time>2017-11-01T12:40:01Z</time>
      </trkpt>
      <trkpt lat="43.98703" lon="6.66882">
        <ele>1022</ele>
        <time>2017-11-01T12:40:04Z</time>
      </trkpt>
      <trkpt lat="43.98698" lon="6.66885">
        <ele>1021</ele>
        <time>2017-11-01T12:40:06Z</time>
      </trkpt>
      <trkpt lat="43.98694" lon="6.66886">
        <ele>1019</ele>
        <time>2017-11-01T12:40:08Z</time>
      </trkpt>
      <trkpt lat="43.98687" lon="6.66885">
        <ele>1017</ele>
        <time>2017-11-01T12:40:11Z</time>
      </trkpt>
      <trkpt lat="43.98681" lon="6.66887">
        <ele>1016</ele>
        <time>2017-11-01T12:40:13Z</time>
      </trkpt>
      <trkpt lat="43.98675" lon="6.66888">
        <ele>1015</ele>
        <time>2017-11-01T12:40:15Z</time>
      </trkpt>
      <trkpt lat="43.98667" lon="6.66886">
        <ele>1014</ele>
        <time>2017-11-01T12:40:17Z</time>
      </trkpt>
      <trkpt lat="43.98661" lon="6.66883">
        <ele>1013</ele>
        <time>2017-11-01T12:40:19Z</time>
      </trkpt>
      <trkpt lat="43.98655" lon="6.66884">
        <ele>1013</ele>
        <time>2017-11-01T12:40:21Z</time>
      </trkpt>
      <trkpt lat="43.9865" lon="6.66887">
        <ele>1013</ele>
        <time>2017-11-01T12:40:23Z</time>
      </trkpt>
      <trkpt lat="43.98643" lon="6.66887">
        <ele>1012</ele>
        <time>2017-11-01T12:40:25Z</time>
      </trkpt>
      <trkpt lat="43.98636" lon="6.66887">
        <ele>1011</ele>
        <time>2017-11-01T12:40:27Z</time>
      </trkpt>
      <trkpt lat="43.98631" lon="6.66888">
        <ele>1011</ele>
        <time>2017-11-01T12:40:28Z</time>
      </trkpt>
      <trkpt lat="43.98626" lon="6.6689">
        <ele>1010</ele>
        <time>2017-11-01T12:40:30Z</time>
      </trkpt>
      <trkpt lat="43.9862" lon="6.66891">
        <ele>1009</ele>
        <time>2017-11-01T12:40:32Z</time>
      </trkpt>
      <trkpt lat="43.98616" lon="6.66893">
        <ele>1008</ele>
        <time>2017-11-01T12:40:34Z</time>
      </trkpt>
      <trkpt lat="43.9861" lon="6.66897">
        <ele>1007</ele>
        <time>2017-11-01T12:40:36Z</time>
      </trkpt>
      <trkpt lat="43.98604" lon="6.66901">
        <ele>1006</ele>
        <time>2017-11-01T12:40:38Z</time>
      </trkpt>
      <trkpt lat="43.98599" lon="6.66903">
        <ele>1005</ele>
        <time>2017-11-01T12:40:40Z</time>
      </trkpt>
      <trkpt lat="43.98592" lon="6.66904">
        <ele>1005</ele>
        <time>2017-11-01T12:40:42Z</time>
      </trkpt>
      <trkpt lat="43.98587" lon="6.66905">
        <ele>1004</ele>
        <time>2017-11-01T12:40:44Z</time>
      </trkpt>
      <trkpt lat="43.98582" lon="6.66906">
        <ele>1004</ele>
        <time>2017-11-01T12:40:46Z</time>
      </trkpt>
      <trkpt lat="43.98576" lon="6.6691">
        <ele>1004</ele>
        <time>2017-11-01T12:40:48Z</time>
      </trkpt>
      <trkpt lat="43.98571" lon="6.6691">
        <ele>1003</ele>
        <time>2017-11-01T12:40:51Z</time>
      </trkpt>
      <trkpt lat="43.98563" lon="6.66911">
        <ele>1003</ele>
        <time>2017-11-01T12:40:54Z</time>
      </trkpt>
      <trkpt lat="43.98557" lon="6.66912">
        <ele>1003</ele>
        <time>2017-11-01T12:40:56Z</time>
      </trkpt>
      <trkpt lat="43.98551" lon="6.66913">
        <ele>1002</ele>
        <time>2017-11-01T12:40:58Z</time>
      </trkpt>
      <trkpt lat="43.98547" lon="6.66918">
        <ele>1002</ele>
        <time>2017-11-01T12:41:00Z</time>
      </trkpt>
      <trkpt lat="43.98541" lon="6.66925">
        <ele>1001</ele>
        <time>2017-11-01T12:41:03Z</time>
      </trkpt>
      <trkpt lat="43.98536" lon="6.66928">
        <ele>999</ele>
        <time>2017-11-01T12:41:05Z</time>
      </trkpt>
      <trkpt lat="43.98529" lon="6.66928">
        <ele>998</ele>
        <time>2017-11-01T12:41:08Z</time>
      </trkpt>
      <trkpt lat="43.98524" lon="6.66929">
        <ele>996</ele>
        <time>2017-11-01T12:41:10Z</time>
      </trkpt>
      <trkpt lat="43.98519" lon="6.6693">
        <ele>994</ele>
        <time>2017-11-01T12:41:12Z</time>
      </trkpt>
      <trkpt lat="43.98515" lon="6.66933">
        <ele>992</ele>
        <time>2017-11-01T12:41:14Z</time>
      </trkpt>
      <trkpt lat="43.9851" lon="6.66935">
        <ele>991</ele>
        <time>2017-11-01T12:41:16Z</time>
      </trkpt>
      <trkpt lat="43.98506" lon="6.6694">
        <ele>990</ele>
        <time>2017-11-01T12:41:18Z</time>
      </trkpt>
      <trkpt lat="43.98502" lon="6.66943">
        <ele>989</ele>
        <time>2017-11-01T12:41:20Z</time>
      </trkpt>
      <trkpt lat="43.98495" lon="6.66947">
        <ele>988</ele>
        <time>2017-11-01T12:41:22Z</time>
      </trkpt>
      <trkpt lat="43.98488" lon="6.66951">
        <ele>987</ele>
        <time>2017-11-01T12:41:24Z</time>
      </trkpt>
      <trkpt lat="43.98481" lon="6.66957">
        <ele>986</ele>
        <time>2017-11-01T12:41:26Z</time>
      </trkpt>
      <trkpt lat="43.98475" lon="6.66962">
        <ele>984</ele>
        <time>2017-11-01T12:41:28Z</time>
      </trkpt>
      <trkpt lat="43.9847" lon="6.66966">
        <ele>982</ele>
        <time>2017-11-01T12:41:30Z</time>
      </trkpt>
      <trkpt lat="43.98466" lon="6.66973">
        <ele>981</ele>
        <time>2017-11-01T12:41:33Z</time>
      </trkpt>
      <trkpt lat="43.98465" lon="6.66981">
        <ele>979</ele>
        <time>2017-11-01T12:41:35Z</time>
      </trkpt>
      <trkpt lat="43.98464" lon="6.66992">
        <ele>978</ele>
        <time>2017-11-01T12:41:37Z</time>
      </trkpt>
      <trkpt lat="43.98461" lon="6.67002">
        <ele>977</ele>
        <time>2017-11-01T12:41:39Z</time>
      </trkpt>
      <trkpt lat="43.98456" lon="6.67009">
        <ele>976</ele>
        <time>2017-11-01T12:41:41Z</time>
      </trkpt>
      <trkpt lat="43.98448" lon="6.67008">
        <ele>975</ele>
        <time>2017-11-01T12:41:43Z</time>
      </trkpt>
      <trkpt lat="43.98441" lon="6.67002">
        <ele>974</ele>
        <time>2017-11-01T12:41:45Z</time>
      </trkpt>
      <trkpt lat="43.98436" lon="6.67">
        <ele>973</ele>
        <time>2017-11-01T12:41:46Z</time>
      </trkpt>
      <trkpt lat="43.98431" lon="6.66997">
        <ele>971</ele>
        <time>2017-11-01T12:41:47Z</time>
      </trkpt>
      <trkpt lat="43.98425" lon="6.66991">
        <ele>971</ele>
        <time>2017-11-01T12:41:49Z</time>
      </trkpt>
      <trkpt lat="43.98423" lon="6.66984">
        <ele>970</ele>
        <time>2017-11-01T12:41:51Z</time>
      </trkpt>
      <trkpt lat="43.9842" lon="6.66976">
        <ele>969</ele>
        <time>2017-11-01T12:41:53Z</time>
      </trkpt>
      <trkpt lat="43.98414" lon="6.66967">
        <ele>969</ele>
        <time>2017-11-01T12:41:55Z</time>
      </trkpt>
      <trkpt lat="43.98407" lon="6.66959">
        <ele>968</ele>
        <time>2017-11-01T12:41:57Z</time>
      </trkpt>
      <trkpt lat="43.98403" lon="6.66956">
        <ele>968</ele>
        <time>2017-11-01T12:41:58Z</time>
      </trkpt>
      <trkpt lat="43.98398" lon="6.66953">
        <ele>967</ele>
        <time>2017-11-01T12:41:59Z</time>
      </trkpt>
      <trkpt lat="43.98393" lon="6.66952">
        <ele>967</ele>
        <time>2017-11-01T12:42:00Z</time>
      </trkpt>
      <trkpt lat="43.98388" lon="6.66948">
        <ele>966</ele>
        <time>2017-11-01T12:42:01Z</time>
      </trkpt>
      <trkpt lat="43.98385" lon="6.66944">
        <ele>966</ele>
        <time>2017-11-01T12:42:02Z</time>
      </trkpt>
      <trkpt lat="43.98377" lon="6.66937">
        <ele>965</ele>
        <time>2017-11-01T12:42:04Z</time>
      </trkpt>
      <trkpt lat="43.9837" lon="6.6693">
        <ele>964</ele>
        <time>2017-11-01T12:42:06Z</time>
      </trkpt>
      <trkpt lat="43.98365" lon="6.66928">
        <ele>962</ele>
        <time>2017-11-01T12:42:07Z</time>
      </trkpt>
      <trkpt lat="43.98361" lon="6.66924">
        <ele>961</ele>
        <time>2017-11-01T12:42:08Z</time>
      </trkpt>
      <trkpt lat="43.98356" lon="6.66919">
        <ele>960</ele>
        <time>2017-11-01T12:42:09Z</time>
      </trkpt>
      <trkpt lat="43.98351" lon="6.66916">
        <ele>959</ele>
        <time>2017-11-01T12:42:10Z</time>
      </trkpt>
      <trkpt lat="43.98345" lon="6.66913">
        <ele>959</ele>
        <time>2017-11-01T12:42:11Z</time>
      </trkpt>
      <trkpt lat="43.98339" lon="6.66909">
        <ele>958</ele>
        <time>2017-11-01T12:42:12Z</time>
      </trkpt>
      <trkpt lat="43.98333" lon="6.66903">
        <ele>958</ele>
        <time>2017-11-01T12:42:13Z</time>
      </trkpt>
      <trkpt lat="43.98328" lon="6.66898">
        <ele>957</ele>
        <time>2017-11-01T12:42:14Z</time>
      </trkpt>
      <trkpt lat="43.98322" lon="6.66894">
        <ele>957</ele>
        <time>2017-11-01T12:42:15Z</time>
      </trkpt>
      <trkpt lat="43.98316" lon="6.66888">
        <ele>957</ele>
        <time>2017-11-01T12:42:16Z</time>
      </trkpt>
      <trkpt lat="43.98311" lon="6.66882">
        <ele>956</ele>
        <time>2017-11-01T12:42:17Z</time>
      </trkpt>
      <trkpt lat="43.98305" lon="6.66876">
        <ele>956</ele>
        <time>2017-11-01T12:42:18Z</time>
      </trkpt>
      <trkpt lat="43.98301" lon="6.66871">
        <ele>956</ele>
        <time>2017-11-01T12:42:19Z</time>
      </trkpt>
      <trkpt lat="43.98297" lon="6.66864">
        <ele>955</ele>
        <time>2017-11-01T12:42:20Z</time>
      </trkpt>
      <trkpt lat="43.98296" lon="6.66857">
        <ele>955</ele>
        <time>2017-11-01T12:42:21Z</time>
      </trkpt>
      <trkpt lat="43.98294" lon="6.6685">
        <ele>954</ele>
        <time>2017-11-01T12:42:22Z</time>
      </trkpt>
      <trkpt lat="43.98293" lon="6.66844">
        <ele>954</ele>
        <time>2017-11-01T12:42:23Z</time>
      </trkpt>
      <trkpt lat="43.9829" lon="6.66839">
        <ele>954</ele>
        <time>2017-11-01T12:42:24Z</time>
      </trkpt>
      <trkpt lat="43.98285" lon="6.66828">
        <ele>954</ele>
        <time>2017-11-01T12:42:26Z</time>
      </trkpt>
      <trkpt lat="43.98282" lon="6.66822">
        <ele>954</ele>
        <time>2017-11-01T12:42:27Z</time>
      </trkpt>
      <trkpt lat="43.98279" lon="6.66818">
        <ele>954</ele>
        <time>2017-11-01T12:42:28Z</time>
      </trkpt>
      <trkpt lat="43.98277" lon="6.66809">
        <ele>954</ele>
        <time>2017-11-01T12:42:30Z</time>
      </trkpt>
      <trkpt lat="43.98272" lon="6.66802">
        <ele>954</ele>
        <time>2017-11-01T12:42:32Z</time>
      </trkpt>
      <trkpt lat="43.98269" lon="6.66794">
        <ele>953</ele>
        <time>2017-11-01T12:42:34Z</time>
      </trkpt>
      <trkpt lat="43.98266" lon="6.66788">
        <ele>952</ele>
        <time>2017-11-01T12:42:36Z</time>
      </trkpt>
      <trkpt lat="43.98259" lon="6.66783">
        <ele>951</ele>
        <time>2017-11-01T12:42:38Z</time>
      </trkpt>
      <trkpt lat="43.98251" lon="6.66778">
        <ele>951</ele>
        <time>2017-11-01T12:42:40Z</time>
      </trkpt>
      <trkpt lat="43.98245" lon="6.66775">
        <ele>950</ele>
        <time>2017-11-01T12:42:42Z</time>
      </trkpt>
      <trkpt lat="43.98239" lon="6.6677">
        <ele>949</ele>
        <time>2017-11-01T12:42:44Z</time>
      </trkpt>
      <trkpt lat="43.98232" lon="6.66766">
        <ele>948</ele>
        <time>2017-11-01T12:42:46Z</time>
      </trkpt>
      <trkpt lat="43.98225" lon="6.66761">
        <ele>948</ele>
        <time>2017-11-01T12:42:48Z</time>
      </trkpt>
      <trkpt lat="43.9822" lon="6.66761">
        <ele>947</ele>
        <time>2017-11-01T12:42:50Z</time>
      </trkpt>
      <trkpt lat="43.98215" lon="6.66762">
        <ele>946</ele>
        <time>2017-11-01T12:42:51Z</time>
      </trkpt>
      <trkpt lat="43.98206" lon="6.66764">
        <ele>944</ele>
        <time>2017-11-01T12:42:53Z</time>
      </trkpt>
      <trkpt lat="43.98201" lon="6.66765">
        <ele>943</ele>
        <time>2017-11-01T12:42:54Z</time>
      </trkpt>
      <trkpt lat="43.98196" lon="6.66765">
        <ele>942</ele>
        <time>2017-11-01T12:42:55Z</time>
      </trkpt>
      <trkpt lat="43.9819" lon="6.66767">
        <ele>940</ele>
        <time>2017-11-01T12:42:57Z</time>
      </trkpt>
      <trkpt lat="43.98183" lon="6.66769">
        <ele>939</ele>
        <time>2017-11-01T12:42:59Z</time>
      </trkpt>
      <trkpt lat="43.98178" lon="6.66773">
        <ele>938</ele>
        <time>2017-11-01T12:43:01Z</time>
      </trkpt>
      <trkpt lat="43.98173" lon="6.66775">
        <ele>937</ele>
        <time>2017-11-01T12:43:03Z</time>
      </trkpt>
      <trkpt lat="43.98168" lon="6.66777">
        <ele>936</ele>
        <time>2017-11-01T12:43:05Z</time>
      </trkpt>
      <trkpt lat="43.98164" lon="6.66781">
        <ele>936</ele>
        <time>2017-11-01T12:43:07Z</time>
      </trkpt>
      <trkpt lat="43.9816" lon="6.66788">
        <ele>936</ele>
        <time>2017-11-01T12:43:09Z</time>
      </trkpt>
      <trkpt lat="43.98154" lon="6.66795">
        <ele>935</ele>
        <time>2017-11-01T12:43:11Z</time>
      </trkpt>
      <trkpt lat="43.98148" lon="6.668">
        <ele>935</ele>
        <time>2017-11-01T12:43:13Z</time>
      </trkpt>
      <trkpt lat="43.98138" lon="6.66801">
        <ele>934</ele>
        <time>2017-11-01T12:43:15Z</time>
      </trkpt>
      <trkpt lat="43.98131" lon="6.668">
        <ele>934</ele>
        <time>2017-11-01T12:43:17Z</time>
      </trkpt>
      <trkpt lat="43.98123" lon="6.66801">
        <ele>934</ele>
        <time>2017-11-01T12:43:19Z</time>
      </trkpt>
      <trkpt lat="43.98117" lon="6.66802">
        <ele>934</ele>
        <time>2017-11-01T12:43:21Z</time>
      </trkpt>
      <trkpt lat="43.98113" lon="6.66804">
        <ele>933</ele>
        <time>2017-11-01T12:43:23Z</time>
      </trkpt>
      <trkpt lat="43.98109" lon="6.66809">
        <ele>933</ele>
        <time>2017-11-01T12:43:24Z</time>
      </trkpt>
      <trkpt lat="43.98106" lon="6.66817">
        <ele>932</ele>
        <time>2017-11-01T12:43:26Z</time>
      </trkpt>
      <trkpt lat="43.981" lon="6.66823">
        <ele>930</ele>
        <time>2017-11-01T12:43:28Z</time>
      </trkpt>
      <trkpt lat="43.98094" lon="6.66827">
        <ele>929</ele>
        <time>2017-11-01T12:43:30Z</time>
      </trkpt>
      <trkpt lat="43.98088" lon="6.66834">
        <ele>927</ele>
        <time>2017-11-01T12:43:32Z</time>
      </trkpt>
      <trkpt lat="43.98082" lon="6.66842">
        <ele>926</ele>
        <time>2017-11-01T12:43:34Z</time>
      </trkpt>
      <trkpt lat="43.98076" lon="6.6685">
        <ele>924</ele>
        <time>2017-11-01T12:43:36Z</time>
      </trkpt>
      <trkpt lat="43.98072" lon="6.66855">
        <ele>923</ele>
        <time>2017-11-01T12:43:37Z</time>
      </trkpt>
      <trkpt lat="43.98068" lon="6.66861">
        <ele>922</ele>
        <time>2017-11-01T12:43:38Z</time>
      </trkpt>
      <trkpt lat="43.98064" lon="6.66866">
        <ele>921</ele>
        <time>2017-11-01T12:43:39Z</time>
      </trkpt>
      <trkpt lat="43.9806" lon="6.66872">
        <ele>921</ele>
        <time>2017-11-01T12:43:40Z</time>
      </trkpt>
      <trkpt lat="43.98056" lon="6.66879">
        <ele>922</ele>
        <time>2017-11-01T12:43:41Z</time>
      </trkpt>
      <trkpt lat="43.98053" lon="6.66885">
        <ele>922</ele>
        <time>2017-11-01T12:43:42Z</time>
      </trkpt>
      <trkpt lat="43.9805" lon="6.66891">
        <ele>922</ele>
        <time>2017-11-01T12:43:43Z</time>
      </trkpt>
      <trkpt lat="43.98048" lon="6.66898">
        <ele>923</ele>
        <time>2017-11-01T12:43:44Z</time>
      </trkpt>
      <trkpt lat="43.98046" lon="6.66904">
        <ele>923</ele>
        <time>2017-11-01T12:43:45Z</time>
      </trkpt>
      <trkpt lat="43.98042" lon="6.66912">
        <ele>923</ele>
        <time>2017-11-01T12:43:46Z</time>
      </trkpt>
      <trkpt lat="43.98039" lon="6.66919">
        <ele>924</ele>
        <time>2017-11-01T12:43:47Z</time>
      </trkpt>
      <trkpt lat="43.98033" lon="6.66928">
        <ele>924</ele>
        <time>2017-11-01T12:43:49Z</time>
      </trkpt>
      <trkpt lat="43.98027" lon="6.6693">
        <ele>924</ele>
        <time>2017-11-01T12:43:51Z</time>
      </trkpt>
      <trkpt lat="43.98022" lon="6.66935">
        <ele>924</ele>
        <time>2017-11-01T12:43:53Z</time>
      </trkpt>
      <trkpt lat="43.98016" lon="6.66941">
        <ele>923</ele>
        <time>2017-11-01T12:43:55Z</time>
      </trkpt>
      <trkpt lat="43.98011" lon="6.66949">
        <ele>922</ele>
        <time>2017-11-01T12:43:58Z</time>
      </trkpt>
      <trkpt lat="43.98007" lon="6.66954">
        <ele>921</ele>
        <time>2017-11-01T12:44:01Z</time>
      </trkpt>
      <trkpt lat="43.98002" lon="6.66958">
        <ele>919</ele>
        <time>2017-11-01T12:44:03Z</time>
      </trkpt>
      <trkpt lat="43.97999" lon="6.66963">
        <ele>918</ele>
        <time>2017-11-01T12:44:05Z</time>
      </trkpt>
      <trkpt lat="43.97995" lon="6.6697">
        <ele>917</ele>
        <time>2017-11-01T12:44:08Z</time>
      </trkpt>
      <trkpt lat="43.9799" lon="6.66976">
        <ele>917</ele>
        <time>2017-11-01T12:44:10Z</time>
      </trkpt>
      <trkpt lat="43.97985" lon="6.66977">
        <ele>915</ele>
        <time>2017-11-01T12:44:13Z</time>
      </trkpt>
      <trkpt lat="43.97986" lon="6.66968">
        <ele>915</ele>
        <time>2017-11-01T12:44:16Z</time>
      </trkpt>
      <trkpt lat="43.97988" lon="6.66962">
        <ele>913</ele>
        <time>2017-11-01T12:44:19Z</time>
      </trkpt>
      <trkpt lat="43.97983" lon="6.66962">
        <ele>912</ele>
        <time>2017-11-01T12:44:22Z</time>
      </trkpt>
      <trkpt lat="43.97978" lon="6.66963">
        <ele>911</ele>
        <time>2017-11-01T12:44:24Z</time>
      </trkpt>
      <trkpt lat="43.97972" lon="6.66964">
        <ele>909</ele>
        <time>2017-11-01T12:44:26Z</time>
      </trkpt>
      <trkpt lat="43.97966" lon="6.66963">
        <ele>908</ele>
        <time>2017-11-01T12:44:28Z</time>
      </trkpt>
      <trkpt lat="43.97964" lon="6.66968">
        <ele>906</ele>
        <time>2017-11-01T12:44:30Z</time>
      </trkpt>
      <trkpt lat="43.97964" lon="6.66975">
        <ele>905</ele>
        <time>2017-11-01T12:44:32Z</time>
      </trkpt>
      <trkpt lat="43.97965" lon="6.66983">
        <ele>903</ele>
        <time>2017-11-01T12:44:35Z</time>
      </trkpt>
      <trkpt lat="43.97961" lon="6.66989">
        <ele>901</ele>
        <time>2017-11-01T12:44:38Z</time>
      </trkpt>
      <trkpt lat="43.97958" lon="6.66994">
        <ele>900</ele>
        <time>2017-11-01T12:44:41Z</time>
      </trkpt>
      <trkpt lat="43.97954" lon="6.67">
        <ele>899</ele>
        <time>2017-11-01T12:44:44Z</time>
      </trkpt>
      <trkpt lat="43.97949" lon="6.67004">
        <ele>899</ele>
        <time>2017-11-01T12:44:48Z</time>
      </trkpt>
      <trkpt lat="43.97945" lon="6.6701">
        <ele>898</ele>
        <time>2017-11-01T12:44:52Z</time>
      </trkpt>
      <trkpt lat="43.97944" lon="6.67016">
        <ele>897</ele>
        <time>2017-11-01T12:45:08Z</time>
      </trkpt>
      <trkpt lat="43.97939" lon="6.67019">
        <ele>895</ele>
        <time>2017-11-01T12:45:11Z</time>
      </trkpt>
      <trkpt lat="43.97934" lon="6.67025">
        <ele>893</ele>
        <time>2017-11-01T12:45:15Z</time>
      </trkpt>
      <trkpt lat="43.9793" lon="6.67031">
        <ele>891</ele>
        <time>2017-11-01T12:45:25Z</time>
      </trkpt>
      <trkpt lat="43.97928" lon="6.67039">
        <ele>889</ele>
        <time>2017-11-01T12:45:28Z</time>
      </trkpt>
      <trkpt lat="43.97925" lon="6.67046">
        <ele>888</ele>
        <time>2017-11-01T12:45:32Z</time>
      </trkpt>
      <trkpt lat="43.97924" lon="6.67051">
        <ele>887</ele>
        <time>2017-11-01T12:45:48Z</time>
      </trkpt>
      <trkpt lat="43.97924" lon="6.67051">
        <ele>886</ele>
        <time>2017-11-01T12:45:49Z</time>
      </trkpt>
      <trkpt lat="43.97924" lon="6.67052">
        <ele>885</ele>
        <time>2017-11-01T12:46:18Z</time>
      </trkpt>
      <trkpt lat="43.97924" lon="6.67052">
        <ele>885</ele>
        <time>2017-11-01T12:46:19Z</time>
      </trkpt>
      <trkpt lat="43.97921" lon="6.67057">
        <ele>884</ele>
        <time>2017-11-01T12:46:44Z</time>
      </trkpt>
      <trkpt lat="43.97919" lon="6.67064">
        <ele>883</ele>
        <time>2017-11-01T12:46:55Z</time>
      </trkpt>
      <trkpt lat="43.97916" lon="6.6707">
        <ele>882</ele>
        <time>2017-11-01T12:46:58Z</time>
      </trkpt>
      <trkpt lat="43.97912" lon="6.67077">
        <ele>881</ele>
        <time>2017-11-01T12:47:01Z</time>
      </trkpt>
      <trkpt lat="43.97909" lon="6.67085">
        <ele>879</ele>
        <time>2017-11-01T12:47:04Z</time>
      </trkpt>
      <trkpt lat="43.97906" lon="6.67093">
        <ele>877</ele>
        <time>2017-11-01T12:47:07Z</time>
      </trkpt>
      <trkpt lat="43.97905" lon="6.671">
        <ele>876</ele>
        <time>2017-11-01T12:47:10Z</time>
      </trkpt>
      <trkpt lat="43.97903" lon="6.67107">
        <ele>875</ele>
        <time>2017-11-01T12:47:14Z</time>
      </trkpt>
      <trkpt lat="43.979" lon="6.67114">
        <ele>874</ele>
        <time>2017-11-01T12:47:16Z</time>
      </trkpt>
      <trkpt lat="43.97896" lon="6.67121">
        <ele>873</ele>
        <time>2017-11-01T12:47:19Z</time>
      </trkpt>
      <trkpt lat="43.97892" lon="6.67127">
        <ele>873</ele>
        <time>2017-11-01T12:47:22Z</time>
      </trkpt>
      <trkpt lat="43.9789" lon="6.67136">
        <ele>872</ele>
        <time>2017-11-01T12:47:24Z</time>
      </trkpt>
      <trkpt lat="43.97888" lon="6.67145">
        <ele>871</ele>
        <time>2017-11-01T12:47:26Z</time>
      </trkpt>
      <trkpt lat="43.97885" lon="6.67152">
        <ele>871</ele>
        <time>2017-11-01T12:47:28Z</time>
      </trkpt>
      <trkpt lat="43.97883" lon="6.67158">
        <ele>871</ele>
        <time>2017-11-01T12:47:30Z</time>
      </trkpt>
      <trkpt lat="43.97879" lon="6.67163">
        <ele>872</ele>
        <time>2017-11-01T12:47:32Z</time>
      </trkpt>
      <trkpt lat="43.97875" lon="6.67167">
        <ele>873</ele>
        <time>2017-11-01T12:47:35Z</time>
      </trkpt>
      <trkpt lat="43.97871" lon="6.67172">
        <ele>873</ele>
        <time>2017-11-01T12:47:39Z</time>
      </trkpt>
      <trkpt lat="43.97869" lon="6.67173">
        <ele>873</ele>
        <time>2017-11-01T12:48:03Z</time>
      </trkpt>
      <trkpt lat="43.97869" lon="6.67173">
        <ele>873</ele>
        <time>2017-11-01T12:48:04Z</time>
      </trkpt>
      <trkpt lat="43.97864" lon="6.67175">
        <ele>873</ele>
        <time>2017-11-01T12:48:32Z</time>
      </trkpt>
      <trkpt lat="43.97858" lon="6.6718">
        <ele>872</ele>
        <time>2017-11-01T12:48:34Z</time>
      </trkpt>
      <trkpt lat="43.97855" lon="6.67185">
        <ele>872</ele>
        <time>2017-11-01T12:48:36Z</time>
      </trkpt>
      <trkpt lat="43.97848" lon="6.67186">
        <ele>872</ele>
        <time>2017-11-01T12:48:38Z</time>
      </trkpt>
      <trkpt lat="43.97843" lon="6.67191">
        <ele>872</ele>
        <time>2017-11-01T12:48:40Z</time>
      </trkpt>
      <trkpt lat="43.97837" lon="6.67194">
        <ele>872</ele>
        <time>2017-11-01T12:48:42Z</time>
      </trkpt>
      <trkpt lat="43.97832" lon="6.67194">
        <ele>872</ele>
        <time>2017-11-01T12:48:44Z</time>
      </trkpt>
      <trkpt lat="43.97826" lon="6.67197">
        <ele>872</ele>
        <time>2017-11-01T12:48:47Z</time>
      </trkpt>
      <trkpt lat="43.97821" lon="6.672">
        <ele>871</ele>
        <time>2017-11-01T12:48:48Z</time>
      </trkpt>
      <trkpt lat="43.97817" lon="6.67204">
        <ele>871</ele>
        <time>2017-11-01T12:48:49Z</time>
      </trkpt>
      <trkpt lat="43.97812" lon="6.67206">
        <ele>870</ele>
        <time>2017-11-01T12:48:51Z</time>
      </trkpt>
      <trkpt lat="43.97805" lon="6.6721">
        <ele>868</ele>
        <time>2017-11-01T12:48:53Z</time>
      </trkpt>
      <trkpt lat="43.97799" lon="6.67213">
        <ele>867</ele>
        <time>2017-11-01T12:48:55Z</time>
      </trkpt>
      <trkpt lat="43.97791" lon="6.67215">
        <ele>865</ele>
        <time>2017-11-01T12:48:57Z</time>
      </trkpt>
      <trkpt lat="43.97784" lon="6.67219">
        <ele>864</ele>
        <time>2017-11-01T12:48:59Z</time>
      </trkpt>
      <trkpt lat="43.97778" lon="6.67221">
        <ele>863</ele>
        <time>2017-11-01T12:49:01Z</time>
      </trkpt>
      <trkpt lat="43.97771" lon="6.67225">
        <ele>863</ele>
        <time>2017-11-01T12:49:03Z</time>
      </trkpt>
      <trkpt lat="43.97766" lon="6.67229">
        <ele>863</ele>
        <time>2017-11-01T12:49:06Z</time>
      </trkpt>
      <trkpt lat="43.9776" lon="6.67232">
        <ele>863</ele>
        <time>2017-11-01T12:49:08Z</time>
      </trkpt>
      <trkpt lat="43.97754" lon="6.67235">
        <ele>864</ele>
        <time>2017-11-01T12:49:10Z</time>
      </trkpt>
      <trkpt lat="43.97748" lon="6.67241">
        <ele>864</ele>
        <time>2017-11-01T12:49:12Z</time>
      </trkpt>
      <trkpt lat="43.97743" lon="6.67245">
        <ele>863</ele>
        <time>2017-11-01T12:49:14Z</time>
      </trkpt>
      <trkpt lat="43.97738" lon="6.67251">
        <ele>862</ele>
        <time>2017-11-01T12:49:16Z</time>
      </trkpt>
      <trkpt lat="43.97736" lon="6.67257">
        <ele>861</ele>
        <time>2017-11-01T12:49:18Z</time>
      </trkpt>
      <trkpt lat="43.97733" lon="6.67262">
        <ele>859</ele>
        <time>2017-11-01T12:49:20Z</time>
      </trkpt>
      <trkpt lat="43.97728" lon="6.67267">
        <ele>858</ele>
        <time>2017-11-01T12:49:23Z</time>
      </trkpt>
      <trkpt lat="43.97721" lon="6.67266">
        <ele>858</ele>
        <time>2017-11-01T12:49:26Z</time>
      </trkpt>
      <trkpt lat="43.97716" lon="6.67265">
        <ele>857</ele>
        <time>2017-11-01T12:49:30Z</time>
      </trkpt>
      <trkpt lat="43.97712" lon="6.67265">
        <ele>857</ele>
        <time>2017-11-01T12:49:35Z</time>
      </trkpt>
      <trkpt lat="43.97708" lon="6.67262">
        <ele>857</ele>
        <time>2017-11-01T12:49:38Z</time>
      </trkpt>
      <trkpt lat="43.97703" lon="6.67261">
        <ele>857</ele>
        <time>2017-11-01T12:49:41Z</time>
      </trkpt>
      <trkpt lat="43.97698" lon="6.67258">
        <ele>857</ele>
        <time>2017-11-01T12:49:44Z</time>
      </trkpt>
      <trkpt lat="43.97693" lon="6.67254">
        <ele>857</ele>
        <time>2017-11-01T12:49:47Z</time>
      </trkpt>
      <trkpt lat="43.97688" lon="6.67251">
        <ele>856</ele>
        <time>2017-11-01T12:49:49Z</time>
      </trkpt>
      <trkpt lat="43.9768" lon="6.6725">
        <ele>855</ele>
        <time>2017-11-01T12:49:51Z</time>
      </trkpt>
      <trkpt lat="43.97675" lon="6.67251">
        <ele>855</ele>
        <time>2017-11-01T12:49:53Z</time>
      </trkpt>
      <trkpt lat="43.97669" lon="6.67253">
        <ele>854</ele>
        <time>2017-11-01T12:49:56Z</time>
      </trkpt>
      <trkpt lat="43.97664" lon="6.67253">
        <ele>852</ele>
        <time>2017-11-01T12:49:59Z</time>
      </trkpt>
      <trkpt lat="43.97658" lon="6.67255">
        <ele>851</ele>
        <time>2017-11-01T12:50:13Z</time>
      </trkpt>
      <trkpt lat="43.97652" lon="6.67254">
        <ele>850</ele>
        <time>2017-11-01T12:50:16Z</time>
      </trkpt>
      <trkpt lat="43.97646" lon="6.6725">
        <ele>847</ele>
        <time>2017-11-01T12:50:19Z</time>
      </trkpt>
      <trkpt lat="43.97641" lon="6.67247">
        <ele>845</ele>
        <time>2017-11-01T12:50:22Z</time>
      </trkpt>
      <trkpt lat="43.97636" lon="6.67243">
        <ele>843</ele>
        <time>2017-11-01T12:50:25Z</time>
      </trkpt>
      <trkpt lat="43.97631" lon="6.67243">
        <ele>841</ele>
        <time>2017-11-01T12:50:28Z</time>
      </trkpt>
      <trkpt lat="43.97626" lon="6.67238">
        <ele>839</ele>
        <time>2017-11-01T12:50:31Z</time>
      </trkpt>
      <trkpt lat="43.97621" lon="6.67237">
        <ele>838</ele>
        <time>2017-11-01T12:50:34Z</time>
      </trkpt>
      <trkpt lat="43.97615" lon="6.67236">
        <ele>837</ele>
        <time>2017-11-01T12:50:37Z</time>
      </trkpt>
      <trkpt lat="43.97608" lon="6.67235">
        <ele>836</ele>
        <time>2017-11-01T12:50:40Z</time>
      </trkpt>
      <trkpt lat="43.97603" lon="6.67234">
        <ele>836</ele>
        <time>2017-11-01T12:50:42Z</time>
      </trkpt>
      <trkpt lat="43.97598" lon="6.67233">
        <ele>834</ele>
        <time>2017-11-01T12:50:45Z</time>
      </trkpt>
      <trkpt lat="43.97591" lon="6.67233">
        <ele>834</ele>
        <time>2017-11-01T12:50:47Z</time>
      </trkpt>
      <trkpt lat="43.97586" lon="6.67231">
        <ele>832</ele>
        <time>2017-11-01T12:50:49Z</time>
      </trkpt>
      <trkpt lat="43.9758" lon="6.67231">
        <ele>831</ele>
        <time>2017-11-01T12:50:51Z</time>
      </trkpt>
      <trkpt lat="43.97574" lon="6.6723">
        <ele>829</ele>
        <time>2017-11-01T12:50:53Z</time>
      </trkpt>
      <trkpt lat="43.97569" lon="6.67229">
        <ele>828</ele>
        <time>2017-11-01T12:50:54Z</time>
      </trkpt>
      <trkpt lat="43.97562" lon="6.67227">
        <ele>826</ele>
        <time>2017-11-01T12:50:56Z</time>
      </trkpt>
      <trkpt lat="43.97556" lon="6.67226">
        <ele>825</ele>
        <time>2017-11-01T12:50:59Z</time>
      </trkpt>
      <trkpt lat="43.97549" lon="6.67226">
        <ele>824</ele>
        <time>2017-11-01T12:51:02Z</time>
      </trkpt>
      <trkpt lat="43.97545" lon="6.67228">
        <ele>824</ele>
        <time>2017-11-01T12:51:04Z</time>
      </trkpt>
      <trkpt lat="43.9754" lon="6.67225">
        <ele>823</ele>
        <time>2017-11-01T12:51:06Z</time>
      </trkpt>
      <trkpt lat="43.97535" lon="6.67223">
        <ele>821</ele>
        <time>2017-11-01T12:51:08Z</time>
      </trkpt>
      <trkpt lat="43.9753" lon="6.6722">
        <ele>820</ele>
        <time>2017-11-01T12:51:10Z</time>
      </trkpt>
      <trkpt lat="43.97526" lon="6.67216">
        <ele>819</ele>
        <time>2017-11-01T12:51:12Z</time>
      </trkpt>
      <trkpt lat="43.97521" lon="6.67212">
        <ele>818</ele>
        <time>2017-11-01T12:51:15Z</time>
      </trkpt>
      <trkpt lat="43.97516" lon="6.67206">
        <ele>817</ele>
        <time>2017-11-01T12:51:18Z</time>
      </trkpt>
      <trkpt lat="43.97511" lon="6.67197">
        <ele>816</ele>
        <time>2017-11-01T12:51:20Z</time>
      </trkpt>
      <trkpt lat="43.97508" lon="6.67191">
        <ele>814</ele>
        <time>2017-11-01T12:51:22Z</time>
      </trkpt>
      <trkpt lat="43.97506" lon="6.67183">
        <ele>812</ele>
        <time>2017-11-01T12:51:24Z</time>
      </trkpt>
      <trkpt lat="43.97502" lon="6.67179">
        <ele>811</ele>
        <time>2017-11-01T12:51:26Z</time>
      </trkpt>
      <trkpt lat="43.97496" lon="6.67177">
        <ele>809</ele>
        <time>2017-11-01T12:51:29Z</time>
      </trkpt>
      <trkpt lat="43.97493" lon="6.67172">
        <ele>807</ele>
        <time>2017-11-01T12:51:31Z</time>
      </trkpt>
      <trkpt lat="43.97486" lon="6.67173">
        <ele>805</ele>
        <time>2017-11-01T12:51:34Z</time>
      </trkpt>
      <trkpt lat="43.97482" lon="6.67174">
        <ele>803</ele>
        <time>2017-11-01T12:51:36Z</time>
      </trkpt>
      <trkpt lat="43.97476" lon="6.67174">
        <ele>801</ele>
        <time>2017-11-01T12:51:38Z</time>
      </trkpt>
      <trkpt lat="43.9747" lon="6.67175">
        <ele>800</ele>
        <time>2017-11-01T12:51:40Z</time>
      </trkpt>
      <trkpt lat="43.97465" lon="6.67175">
        <ele>798</ele>
        <time>2017-11-01T12:51:43Z</time>
      </trkpt>
      <trkpt lat="43.97459" lon="6.67174">
        <ele>797</ele>
        <time>2017-11-01T12:51:46Z</time>
      </trkpt>
      <trkpt lat="43.97454" lon="6.67172">
        <ele>795</ele>
        <time>2017-11-01T12:51:48Z</time>
      </trkpt>
      <trkpt lat="43.9745" lon="6.67169">
        <ele>794</ele>
        <time>2017-11-01T12:51:51Z</time>
      </trkpt>
      <trkpt lat="43.97445" lon="6.67167">
        <ele>792</ele>
        <time>2017-11-01T12:52:00Z</time>
      </trkpt>
      <trkpt lat="43.9744" lon="6.67164">
        <ele>791</ele>
        <time>2017-11-01T12:52:03Z</time>
      </trkpt>
      <trkpt lat="43.97437" lon="6.6716">
        <ele>789</ele>
        <time>2017-11-01T12:52:05Z</time>
      </trkpt>
      <trkpt lat="43.97432" lon="6.67159">
        <ele>788</ele>
        <time>2017-11-01T12:52:07Z</time>
      </trkpt>
      <trkpt lat="43.97427" lon="6.67158">
        <ele>786</ele>
        <time>2017-11-01T12:52:09Z</time>
      </trkpt>
      <trkpt lat="43.97423" lon="6.67156">
        <ele>785</ele>
        <time>2017-11-01T12:52:11Z</time>
      </trkpt>
      <trkpt lat="43.97419" lon="6.67155">
        <ele>784</ele>
        <time>2017-11-01T12:52:13Z</time>
      </trkpt>
      <trkpt lat="43.97413" lon="6.67153">
        <ele>783</ele>
        <time>2017-11-01T12:52:15Z</time>
      </trkpt>
      <trkpt lat="43.97409" lon="6.67147">
        <ele>782</ele>
        <time>2017-11-01T12:52:18Z</time>
      </trkpt>
      <trkpt lat="43.97406" lon="6.67143">
        <ele>781</ele>
        <time>2017-11-01T12:52:20Z</time>
      </trkpt>
      <trkpt lat="43.97404" lon="6.67135">
        <ele>780</ele>
        <time>2017-11-01T12:52:23Z</time>
      </trkpt>
      <trkpt lat="43.97401" lon="6.6713">
        <ele>779</ele>
        <time>2017-11-01T12:52:25Z</time>
      </trkpt>
      <trkpt lat="43.97395" lon="6.67123">
        <ele>778</ele>
        <time>2017-11-01T12:52:28Z</time>
      </trkpt>
      <trkpt lat="43.9739" lon="6.67117">
        <ele>777</ele>
        <time>2017-11-01T12:52:30Z</time>
      </trkpt>
      <trkpt lat="43.97384" lon="6.6711">
        <ele>777</ele>
        <time>2017-11-01T12:52:32Z</time>
      </trkpt>
      <trkpt lat="43.97377" lon="6.67105">
        <ele>776</ele>
        <time>2017-11-01T12:52:34Z</time>
      </trkpt>
      <trkpt lat="43.97369" lon="6.67101">
        <ele>775</ele>
        <time>2017-11-01T12:52:36Z</time>
      </trkpt>
      <trkpt lat="43.97364" lon="6.671">
        <ele>775</ele>
        <time>2017-11-01T12:52:38Z</time>
      </trkpt>
      <trkpt lat="43.9736" lon="6.67098">
        <ele>774</ele>
        <time>2017-11-01T12:52:40Z</time>
      </trkpt>
      <trkpt lat="43.97352" lon="6.67095">
        <ele>774</ele>
        <time>2017-11-01T12:52:42Z</time>
      </trkpt>
      <trkpt lat="43.97347" lon="6.67094">
        <ele>773</ele>
        <time>2017-11-01T12:52:44Z</time>
      </trkpt>
      <trkpt lat="43.9734" lon="6.6709">
        <ele>773</ele>
        <time>2017-11-01T12:52:46Z</time>
      </trkpt>
      <trkpt lat="43.97334" lon="6.67088">
        <ele>773</ele>
        <time>2017-11-01T12:52:48Z</time>
      </trkpt>
      <trkpt lat="43.97328" lon="6.67084">
        <ele>773</ele>
        <time>2017-11-01T12:52:50Z</time>
      </trkpt>
      <trkpt lat="43.97323" lon="6.6708">
        <ele>772</ele>
        <time>2017-11-01T12:52:52Z</time>
      </trkpt>
      <trkpt lat="43.97319" lon="6.67077">
        <ele>772</ele>
        <time>2017-11-01T12:52:53Z</time>
      </trkpt>
      <trkpt lat="43.97313" lon="6.67075">
        <ele>772</ele>
        <time>2017-11-01T12:52:55Z</time>
      </trkpt>
      <trkpt lat="43.97306" lon="6.67073">
        <ele>771</ele>
        <time>2017-11-01T12:52:58Z</time>
      </trkpt>
      <trkpt lat="43.97303" lon="6.67069">
        <ele>769</ele>
        <time>2017-11-01T12:53:00Z</time>
      </trkpt>
      <trkpt lat="43.97304" lon="6.67063">
        <ele>768</ele>
        <time>2017-11-01T12:53:03Z</time>
      </trkpt>
      <trkpt lat="43.9731" lon="6.67059">
        <ele>766</ele>
        <time>2017-11-01T12:53:05Z</time>
      </trkpt>
      <trkpt lat="43.97318" lon="6.67054">
        <ele>764</ele>
        <time>2017-11-01T12:53:07Z</time>
      </trkpt>
      <trkpt lat="43.97323" lon="6.67051">
        <ele>763</ele>
        <time>2017-11-01T12:53:08Z</time>
      </trkpt>
      <trkpt lat="43.97327" lon="6.67041">
        <ele>762</ele>
        <time>2017-11-01T12:53:10Z</time>
      </trkpt>
      <trkpt lat="43.97325" lon="6.6703">
        <ele>761</ele>
        <time>2017-11-01T12:53:12Z</time>
      </trkpt>
      <trkpt lat="43.9732" lon="6.67022">
        <ele>760</ele>
        <time>2017-11-01T12:53:14Z</time>
      </trkpt>
      <trkpt lat="43.97316" lon="6.6702">
        <ele>759</ele>
        <time>2017-11-01T12:53:16Z</time>
      </trkpt>
      <trkpt lat="43.9731" lon="6.6702">
        <ele>758</ele>
        <time>2017-11-01T12:53:21Z</time>
      </trkpt>
      <trkpt lat="43.97305" lon="6.67018">
        <ele>757</ele>
        <time>2017-11-01T12:53:23Z</time>
      </trkpt>
      <trkpt lat="43.973" lon="6.67014">
        <ele>757</ele>
        <time>2017-11-01T12:53:25Z</time>
      </trkpt>
      <trkpt lat="43.97294" lon="6.67011">
        <ele>757</ele>
        <time>2017-11-01T12:53:27Z</time>
      </trkpt>
      <trkpt lat="43.97289" lon="6.67006">
        <ele>756</ele>
        <time>2017-11-01T12:53:29Z</time>
      </trkpt>
      <trkpt lat="43.97281" lon="6.67003">
        <ele>756</ele>
        <time>2017-11-01T12:53:31Z</time>
      </trkpt>
      <trkpt lat="43.97274" lon="6.67">
        <ele>756</ele>
        <time>2017-11-01T12:53:33Z</time>
      </trkpt>
      <trkpt lat="43.97267" lon="6.66999">
        <ele>756</ele>
        <time>2017-11-01T12:53:35Z</time>
      </trkpt>
      <trkpt lat="43.97259" lon="6.66998">
        <ele>756</ele>
        <time>2017-11-01T12:53:37Z</time>
      </trkpt>
      <trkpt lat="43.97252" lon="6.66999">
        <ele>756</ele>
        <time>2017-11-01T12:53:39Z</time>
      </trkpt>
      <trkpt lat="43.97244" lon="6.67">
        <ele>756</ele>
        <time>2017-11-01T12:53:41Z</time>
      </trkpt>
      <trkpt lat="43.97239" lon="6.66996">
        <ele>756</ele>
        <time>2017-11-01T12:53:43Z</time>
      </trkpt>
      <trkpt lat="43.97233" lon="6.66992">
        <ele>755</ele>
        <time>2017-11-01T12:53:45Z</time>
      </trkpt>
      <trkpt lat="43.97225" lon="6.66992">
        <ele>754</ele>
        <time>2017-11-01T12:53:47Z</time>
      </trkpt>
      <trkpt lat="43.9722" lon="6.66992">
        <ele>753</ele>
        <time>2017-11-01T12:53:48Z</time>
      </trkpt>
      <trkpt lat="43.97213" lon="6.66995">
        <ele>751</ele>
        <time>2017-11-01T12:53:50Z</time>
      </trkpt>
      <trkpt lat="43.97208" lon="6.66995">
        <ele>750</ele>
        <time>2017-11-01T12:53:51Z</time>
      </trkpt>
      <trkpt lat="43.972" lon="6.66994">
        <ele>750</ele>
        <time>2017-11-01T12:53:53Z</time>
      </trkpt>
      <trkpt lat="43.97195" lon="6.66993">
        <ele>750</ele>
        <time>2017-11-01T12:53:55Z</time>
      </trkpt>
      <trkpt lat="43.97189" lon="6.66991">
        <ele>749</ele>
        <time>2017-11-01T12:53:58Z</time>
      </trkpt>
      <trkpt lat="43.97184" lon="6.66988">
        <ele>749</ele>
        <time>2017-11-01T12:54:00Z</time>
      </trkpt>
      <trkpt lat="43.97179" lon="6.66985">
        <ele>748</ele>
        <time>2017-11-01T12:54:02Z</time>
      </trkpt>
      <trkpt lat="43.97174" lon="6.66984">
        <ele>748</ele>
        <time>2017-11-01T12:54:04Z</time>
      </trkpt>
      <trkpt lat="43.97167" lon="6.66984">
        <ele>747</ele>
        <time>2017-11-01T12:54:08Z</time>
      </trkpt>
      <trkpt lat="43.97162" lon="6.66984">
        <ele>746</ele>
        <time>2017-11-01T12:54:10Z</time>
      </trkpt>
      <trkpt lat="43.97157" lon="6.66981">
        <ele>744</ele>
        <time>2017-11-01T12:54:12Z</time>
      </trkpt>
      <trkpt lat="43.97152" lon="6.66979">
        <ele>743</ele>
        <time>2017-11-01T12:54:14Z</time>
      </trkpt>
      <trkpt lat="43.97146" lon="6.66978">
        <ele>742</ele>
        <time>2017-11-01T12:54:16Z</time>
      </trkpt>
      <trkpt lat="43.9714" lon="6.66975">
        <ele>741</ele>
        <time>2017-11-01T12:54:18Z</time>
      </trkpt>
      <trkpt lat="43.97134" lon="6.66973">
        <ele>741</ele>
        <time>2017-11-01T12:54:20Z</time>
      </trkpt>
      <trkpt lat="43.9713" lon="6.66969">
        <ele>741</ele>
        <time>2017-11-01T12:54:22Z</time>
      </trkpt>
      <trkpt lat="43.97125" lon="6.66967">
        <ele>741</ele>
        <time>2017-11-01T12:54:24Z</time>
      </trkpt>
      <trkpt lat="43.97118" lon="6.66964">
        <ele>741</ele>
        <time>2017-11-01T12:54:26Z</time>
      </trkpt>
      <trkpt lat="43.97113" lon="6.66959">
        <ele>740</ele>
        <time>2017-11-01T12:54:28Z</time>
      </trkpt>
      <trkpt lat="43.9711" lon="6.66952">
        <ele>740</ele>
        <time>2017-11-01T12:54:30Z</time>
      </trkpt>
      <trkpt lat="43.97104" lon="6.66944">
        <ele>739</ele>
        <time>2017-11-01T12:54:32Z</time>
      </trkpt>
      <trkpt lat="43.97099" lon="6.66936">
        <ele>738</ele>
        <time>2017-11-01T12:54:34Z</time>
      </trkpt>
      <trkpt lat="43.97094" lon="6.66928">
        <ele>737</ele>
        <time>2017-11-01T12:54:36Z</time>
      </trkpt>
      <trkpt lat="43.97089" lon="6.6692">
        <ele>736</ele>
        <time>2017-11-01T12:54:38Z</time>
      </trkpt>
      <trkpt lat="43.97083" lon="6.66914">
        <ele>735</ele>
        <time>2017-11-01T12:54:40Z</time>
      </trkpt>
      <trkpt lat="43.97079" lon="6.66909">
        <ele>735</ele>
        <time>2017-11-01T12:54:42Z</time>
      </trkpt>
      <trkpt lat="43.97075" lon="6.66904">
        <ele>734</ele>
        <time>2017-11-01T12:54:44Z</time>
      </trkpt>
      <trkpt lat="43.9707" lon="6.66898">
        <ele>733</ele>
        <time>2017-11-01T12:54:46Z</time>
      </trkpt>
      <trkpt lat="43.97065" lon="6.66891">
        <ele>732</ele>
        <time>2017-11-01T12:54:48Z</time>
      </trkpt>
      <trkpt lat="43.97061" lon="6.66887">
        <ele>731</ele>
        <time>2017-11-01T12:54:49Z</time>
      </trkpt>
      <trkpt lat="43.97052" lon="6.66884">
        <ele>730</ele>
        <time>2017-11-01T12:54:51Z</time>
      </trkpt>
      <trkpt lat="43.97049" lon="6.66881">
        <ele>729</ele>
        <time>2017-11-01T12:54:52Z</time>
      </trkpt>
      <trkpt lat="43.97044" lon="6.66878">
        <ele>728</ele>
        <time>2017-11-01T12:54:53Z</time>
      </trkpt>
      <trkpt lat="43.97039" lon="6.66874">
        <ele>727</ele>
        <time>2017-11-01T12:54:54Z</time>
      </trkpt>
      <trkpt lat="43.97034" lon="6.66872">
        <ele>726</ele>
        <time>2017-11-01T12:54:55Z</time>
      </trkpt>
      <trkpt lat="43.97029" lon="6.66871">
        <ele>725</ele>
        <time>2017-11-01T12:54:56Z</time>
      </trkpt>
      <trkpt lat="43.97025" lon="6.66876">
        <ele>725</ele>
        <time>2017-11-01T12:54:58Z</time>
      </trkpt>
      <trkpt lat="43.97018" lon="6.6688">
        <ele>725</ele>
        <time>2017-11-01T12:55:01Z</time>
      </trkpt>
      <trkpt lat="43.97012" lon="6.66881">
        <ele>725</ele>
        <time>2017-11-01T12:55:03Z</time>
      </trkpt>
      <trkpt lat="43.97007" lon="6.66883">
        <ele>724</ele>
        <time>2017-11-01T12:55:05Z</time>
      </trkpt>
      <trkpt lat="43.97002" lon="6.6688">
        <ele>724</ele>
        <time>2017-11-01T12:55:08Z</time>
      </trkpt>
      <trkpt lat="43.97002" lon="6.6688">
        <ele>723</ele>
        <time>2017-11-01T12:55:33Z</time>
      </trkpt>
      <trkpt lat="43.97001" lon="6.6688">
        <ele>722</ele>
        <time>2017-11-01T12:55:34Z</time>
      </trkpt>
      <trkpt lat="43.97001" lon="6.66882">
        <ele>721</ele>
        <time>2017-11-01T12:56:03Z</time>
      </trkpt>
      <trkpt lat="43.97001" lon="6.66883">
        <ele>720</ele>
        <time>2017-11-01T12:56:04Z</time>
      </trkpt>
      <trkpt lat="43.96998" lon="6.66877">
        <ele>719</ele>
        <time>2017-11-01T12:56:22Z</time>
      </trkpt>
      <trkpt lat="43.96994" lon="6.66871">
        <ele>719</ele>
        <time>2017-11-01T12:56:24Z</time>
      </trkpt>
      <trkpt lat="43.96991" lon="6.66866">
        <ele>718</ele>
        <time>2017-11-01T12:56:26Z</time>
      </trkpt>
      <trkpt lat="43.96987" lon="6.6686">
        <ele>719</ele>
        <time>2017-11-01T12:56:28Z</time>
      </trkpt>
      <trkpt lat="43.96982" lon="6.66853">
        <ele>719</ele>
        <time>2017-11-01T12:56:30Z</time>
      </trkpt>
      <trkpt lat="43.96976" lon="6.66847">
        <ele>720</ele>
        <time>2017-11-01T12:56:32Z</time>
      </trkpt>
      <trkpt lat="43.9697" lon="6.6684">
        <ele>720</ele>
        <time>2017-11-01T12:56:34Z</time>
      </trkpt>
      <trkpt lat="43.96962" lon="6.66835">
        <ele>721</ele>
        <time>2017-11-01T12:56:36Z</time>
      </trkpt>
      <trkpt lat="43.96957" lon="6.66834">
        <ele>720</ele>
        <time>2017-11-01T12:56:37Z</time>
      </trkpt>
      <trkpt lat="43.96951" lon="6.66834">
        <ele>720</ele>
        <time>2017-11-01T12:56:38Z</time>
      </trkpt>
      <trkpt lat="43.96943" lon="6.66834">
        <ele>719</ele>
        <time>2017-11-01T12:56:39Z</time>
      </trkpt>
      <trkpt lat="43.96934" lon="6.66834">
        <ele>717</ele>
        <time>2017-11-01T12:56:40Z</time>
      </trkpt>
      <trkpt lat="43.96925" lon="6.66832">
        <ele>715</ele>
        <time>2017-11-01T12:56:41Z</time>
      </trkpt>
      <trkpt lat="43.96914" lon="6.66831">
        <ele>714</ele>
        <time>2017-11-01T12:56:42Z</time>
      </trkpt>
      <trkpt lat="43.96905" lon="6.66829">
        <ele>712</ele>
        <time>2017-11-01T12:56:43Z</time>
      </trkpt>
      <trkpt lat="43.96896" lon="6.66824">
        <ele>711</ele>
        <time>2017-11-01T12:56:44Z</time>
      </trkpt>
      <trkpt lat="43.96888" lon="6.6682">
        <ele>710</ele>
        <time>2017-11-01T12:56:45Z</time>
      </trkpt>
      <trkpt lat="43.9688" lon="6.66816">
        <ele>710</ele>
        <time>2017-11-01T12:56:46Z</time>
      </trkpt>
      <trkpt lat="43.96872" lon="6.66811">
        <ele>709</ele>
        <time>2017-11-01T12:56:47Z</time>
      </trkpt>
      <trkpt lat="43.96865" lon="6.66806">
        <ele>709</ele>
        <time>2017-11-01T12:56:48Z</time>
      </trkpt>
      <trkpt lat="43.96859" lon="6.66798">
        <ele>709</ele>
        <time>2017-11-01T12:56:49Z</time>
      </trkpt>
      <trkpt lat="43.96854" lon="6.6679">
        <ele>709</ele>
        <time>2017-11-01T12:56:50Z</time>
      </trkpt>
      <trkpt lat="43.96849" lon="6.66785">
        <ele>708</ele>
        <time>2017-11-01T12:56:51Z</time>
      </trkpt>
      <trkpt lat="43.96842" lon="6.66785">
        <ele>708</ele>
        <time>2017-11-01T12:56:52Z</time>
      </trkpt>
      <trkpt lat="43.96835" lon="6.66785">
        <ele>708</ele>
        <time>2017-11-01T12:56:53Z</time>
      </trkpt>
      <trkpt lat="43.96828" lon="6.66786">
        <ele>707</ele>
        <time>2017-11-01T12:56:54Z</time>
      </trkpt>
      <trkpt lat="43.9682" lon="6.66783">
        <ele>707</ele>
        <time>2017-11-01T12:56:55Z</time>
      </trkpt>
      <trkpt lat="43.96814" lon="6.66781">
        <ele>706</ele>
        <time>2017-11-01T12:56:56Z</time>
      </trkpt>
      <trkpt lat="43.96804" lon="6.66781">
        <ele>706</ele>
        <time>2017-11-01T12:56:58Z</time>
      </trkpt>
      <trkpt lat="43.96798" lon="6.6678">
        <ele>706</ele>
        <time>2017-11-01T12:56:59Z</time>
      </trkpt>
      <trkpt lat="43.96793" lon="6.66781">
        <ele>706</ele>
        <time>2017-11-01T12:57:00Z</time>
      </trkpt>
      <trkpt lat="43.96787" lon="6.66781">
        <ele>706</ele>
        <time>2017-11-01T12:57:01Z</time>
      </trkpt>
      <trkpt lat="43.96783" lon="6.66777">
        <ele>706</ele>
        <time>2017-11-01T12:57:02Z</time>
      </trkpt>
      <trkpt lat="43.96778" lon="6.6677">
        <ele>706</ele>
        <time>2017-11-01T12:57:04Z</time>
      </trkpt>
      <trkpt lat="43.96778" lon="6.66759">
        <ele>706</ele>
        <time>2017-11-01T12:57:06Z</time>
      </trkpt>
      <trkpt lat="43.96775" lon="6.66749">
        <ele>706</ele>
        <time>2017-11-01T12:57:08Z</time>
      </trkpt>
      <trkpt lat="43.96769" lon="6.6674">
        <ele>707</ele>
        <time>2017-11-01T12:57:10Z</time>
      </trkpt>
      <trkpt lat="43.96763" lon="6.66732">
        <ele>707</ele>
        <time>2017-11-01T12:57:12Z</time>
      </trkpt>
      <trkpt lat="43.96758" lon="6.66724">
        <ele>707</ele>
        <time>2017-11-01T12:57:14Z</time>
      </trkpt>
      <trkpt lat="43.96754" lon="6.66721">
        <ele>707</ele>
        <time>2017-11-01T12:57:15Z</time>
      </trkpt>
      <trkpt lat="43.9675" lon="6.66716">
        <ele>708</ele>
        <time>2017-11-01T12:57:16Z</time>
      </trkpt>
      <trkpt lat="43.96747" lon="6.66711">
        <ele>707</ele>
        <time>2017-11-01T12:57:17Z</time>
      </trkpt>
      <trkpt lat="43.96743" lon="6.66707">
        <ele>707</ele>
        <time>2017-11-01T12:57:18Z</time>
      </trkpt>
      <trkpt lat="43.96738" lon="6.66702">
        <ele>707</ele>
        <time>2017-11-01T12:57:19Z</time>
      </trkpt>
      <trkpt lat="43.96735" lon="6.66698">
        <ele>707</ele>
        <time>2017-11-01T12:57:20Z</time>
      </trkpt>
      <trkpt lat="43.96733" lon="6.6669">
        <ele>706</ele>
        <time>2017-11-01T12:57:22Z</time>
      </trkpt>
      <trkpt lat="43.96733" lon="6.66684">
        <ele>706</ele>
        <time>2017-11-01T12:57:24Z</time>
      </trkpt>
      <trkpt lat="43.9673" lon="6.66691">
        <ele>706</ele>
        <time>2017-11-01T12:57:27Z</time>
      </trkpt>
      <trkpt lat="43.96726" lon="6.66693">
        <ele>706</ele>
        <time>2017-11-01T12:57:29Z</time>
      </trkpt>
      <trkpt lat="43.9672" lon="6.66694">
        <ele>707</ele>
        <time>2017-11-01T12:57:31Z</time>
      </trkpt>
      <trkpt lat="43.96714" lon="6.66697">
        <ele>707</ele>
        <time>2017-11-01T12:57:32Z</time>
      </trkpt>
      <trkpt lat="43.96708" lon="6.66699">
        <ele>707</ele>
        <time>2017-11-01T12:57:33Z</time>
      </trkpt>
      <trkpt lat="43.96703" lon="6.66706">
        <ele>707</ele>
        <time>2017-11-01T12:57:34Z</time>
      </trkpt>
      <trkpt lat="43.96698" lon="6.66714">
        <ele>707</ele>
        <time>2017-11-01T12:57:35Z</time>
      </trkpt>
      <trkpt lat="43.96693" lon="6.66717">
        <ele>706</ele>
        <time>2017-11-01T12:57:36Z</time>
      </trkpt>
      <trkpt lat="43.96689" lon="6.66721">
        <ele>706</ele>
        <time>2017-11-01T12:57:37Z</time>
      </trkpt>
      <trkpt lat="43.96681" lon="6.6672">
        <ele>706</ele>
        <time>2017-11-01T12:57:38Z</time>
      </trkpt>
      <trkpt lat="43.96676" lon="6.6672">
        <ele>705</ele>
        <time>2017-11-01T12:57:39Z</time>
      </trkpt>
      <trkpt lat="43.96671" lon="6.6672">
        <ele>705</ele>
        <time>2017-11-01T12:57:40Z</time>
      </trkpt>
      <trkpt lat="43.96666" lon="6.6672">
        <ele>705</ele>
        <time>2017-11-01T12:57:41Z</time>
      </trkpt>
      <trkpt lat="43.96665" lon="6.66713">
        <ele>704</ele>
        <time>2017-11-01T12:57:42Z</time>
      </trkpt>
      <trkpt lat="43.96658" lon="6.66709">
        <ele>704</ele>
        <time>2017-11-01T12:57:44Z</time>
      </trkpt>
      <trkpt lat="43.96644" lon="6.66708">
        <ele>704</ele>
        <time>2017-11-01T12:57:46Z</time>
      </trkpt>
      <trkpt lat="43.96638" lon="6.66711">
        <ele>703</ele>
        <time>2017-11-01T12:57:48Z</time>
      </trkpt>
      <trkpt lat="43.96632" lon="6.66712">
        <ele>703</ele>
        <time>2017-11-01T12:57:52Z</time>
      </trkpt>
      <trkpt lat="43.96628" lon="6.66708">
        <ele>702</ele>
        <time>2017-11-01T12:57:54Z</time>
      </trkpt>
      <trkpt lat="43.96623" lon="6.66705">
        <ele>701</ele>
        <time>2017-11-01T12:57:56Z</time>
      </trkpt>
      <trkpt lat="43.96618" lon="6.66705">
        <ele>700</ele>
        <time>2017-11-01T12:57:58Z</time>
      </trkpt>
      <trkpt lat="43.96613" lon="6.66707">
        <ele>699</ele>
        <time>2017-11-01T12:58:00Z</time>
      </trkpt>
      <trkpt lat="43.96608" lon="6.66709">
        <ele>699</ele>
        <time>2017-11-01T12:58:02Z</time>
      </trkpt>
      <trkpt lat="43.96602" lon="6.66711">
        <ele>698</ele>
        <time>2017-11-01T12:58:04Z</time>
      </trkpt>
      <trkpt lat="43.96599" lon="6.66718">
        <ele>698</ele>
        <time>2017-11-01T12:58:06Z</time>
      </trkpt>
      <trkpt lat="43.96595" lon="6.66722">
        <ele>698</ele>
        <time>2017-11-01T12:58:16Z</time>
      </trkpt>
    </trkseg>
  </trk>
</gpx>